<?xml version='1.0' encoding='UTF-8'?><gpx version="1.1" creator="JPX - https://github.com/jenetics/jpx" xmlns="http://www.topografix.com/GPX/1/1"><trk><trkseg><trkpt lat="43.6748736" lon="12.6504331"><ele>249.0</ele><time>2026-04-05T07:51:58.922Z</time></trkpt><trkpt lat="43.6749515" lon="12.6504502"><ele>249.0</ele><time>2026-04-05T07:51:59.92Z</time></trkpt><trkpt lat="43.6750484" lon="12.6504538"><ele>249.0</ele><time>2026-04-05T07:52:00.921Z</time></trkpt><trkpt lat="43.6751397" lon="12.6504449"><ele>249.0</ele><time>2026-04-05T07:52:01.92Z</time></trkpt><trkpt lat="43.6752142" lon="12.6504357"><ele>249.0</ele><time>2026-04-05T07:52:02.921Z</time></trkpt><trkpt lat="43.6752794" lon="12.6504554"><ele>249.0</ele><time>2026-04-05T07:52:03.922Z</time></trkpt><trkpt lat="43.67536" lon="12.6504938"><ele>249.75</ele><time>2026-04-05T07:52:04.921Z</time></trkpt><trkpt lat="43.6754447" lon="12.6505444"><ele>250.5</ele><time>2026-04-05T07:52:05.921Z</time></trkpt><trkpt lat="43.6755548" lon="12.6506187"><ele>251.25</ele><time>2026-04-05T07:52:06.921Z</time></trkpt><trkpt lat="43.6756902" lon="12.6507086"><ele>252.0</ele><time>2026-04-05T07:52:07.921Z</time></trkpt><trkpt lat="43.6758265" lon="12.6507978"><ele>252.0</ele><time>2026-04-05T07:52:08.922Z</time></trkpt><trkpt lat="43.6759724" lon="12.6508937"><ele>252.0</ele><time>2026-04-05T07:52:09.921Z</time></trkpt><trkpt lat="43.6760852" lon="12.6509556"><ele>252.0</ele><time>2026-04-05T07:52:10.92Z</time></trkpt><trkpt lat="43.6761858" lon="12.6509684"><ele>252.0</ele><time>2026-04-05T07:52:11.921Z</time></trkpt><trkpt lat="43.6763094" lon="12.6509359"><ele>253.66666666666669</ele><time>2026-04-05T07:52:12.921Z</time></trkpt><trkpt lat="43.6764449" lon="12.6508925"><ele>255.33333333333334</ele><time>2026-04-05T07:52:13.921Z</time></trkpt><trkpt lat="43.6766066" lon="12.6508604"><ele>257.0</ele><time>2026-04-05T07:52:14.921Z</time></trkpt><trkpt lat="43.6767615" lon="12.6508264"><ele>257.0</ele><time>2026-04-05T07:52:15.921Z</time></trkpt><trkpt lat="43.676892" lon="12.6507907"><ele>257.0</ele><time>2026-04-05T07:52:16.921Z</time></trkpt><trkpt lat="43.6770156" lon="12.650742"><ele>257.0</ele><time>2026-04-05T07:52:17.921Z</time></trkpt><trkpt lat="43.6771152" lon="12.6506962"><ele>257.0</ele><time>2026-04-05T07:52:18.922Z</time></trkpt><trkpt lat="43.6771987" lon="12.6506271"><ele>258.6666666666667</ele><time>2026-04-05T07:52:19.921Z</time></trkpt><trkpt lat="43.6772695" lon="12.6505815"><ele>260.33333333333337</ele><time>2026-04-05T07:52:20.921Z</time></trkpt><trkpt lat="43.6773466" lon="12.6505791"><ele>262.0</ele><time>2026-04-05T07:52:21.921Z</time></trkpt><trkpt lat="43.677389" lon="12.6506765"><ele>263.6666666666667</ele><time>2026-04-05T07:52:23.921Z</time></trkpt><trkpt lat="43.6773406" lon="12.6508056"><ele>265.3333333333333</ele><time>2026-04-05T07:52:25.922Z</time></trkpt><trkpt lat="43.6772476" lon="12.6508648"><ele>267.0</ele><time>2026-04-05T07:52:26.921Z</time></trkpt><trkpt lat="43.6771598" lon="12.6509603"><ele>267.0</ele><time>2026-04-05T07:52:27.921Z</time></trkpt><trkpt lat="43.677034" lon="12.6510792"><ele>267.0</ele><time>2026-04-05T07:52:28.921Z</time></trkpt><trkpt lat="43.6769095" lon="12.6512076"><ele>267.0</ele><time>2026-04-05T07:52:29.92Z</time></trkpt><trkpt lat="43.6767618" lon="12.6513489"><ele>270.3333333333333</ele><time>2026-04-05T07:52:30.92Z</time></trkpt><trkpt lat="43.6766046" lon="12.6515064"><ele>273.66666666666663</ele><time>2026-04-05T07:52:31.921Z</time></trkpt><trkpt lat="43.6764683" lon="12.6516358"><ele>277.0</ele><time>2026-04-05T07:52:32.921Z</time></trkpt><trkpt lat="43.6763446" lon="12.6517299"><ele>277.0</ele><time>2026-04-05T07:52:33.92Z</time></trkpt><trkpt lat="43.6762142" lon="12.6518016"><ele>277.0</ele><time>2026-04-05T07:52:34.922Z</time></trkpt><trkpt lat="43.676071" lon="12.6517832"><ele>277.0</ele><time>2026-04-05T07:52:35.922Z</time></trkpt><trkpt lat="43.6759219" lon="12.6518069"><ele>277.0</ele><time>2026-04-05T07:52:36.92Z</time></trkpt><trkpt lat="43.6757627" lon="12.6518351"><ele>276.3333333333333</ele><time>2026-04-05T07:52:37.922Z</time></trkpt><trkpt lat="43.6755869" lon="12.6518791"><ele>275.6666666666667</ele><time>2026-04-05T07:52:38.92Z</time></trkpt><trkpt lat="43.6753873" lon="12.6519218"><ele>275.0</ele><time>2026-04-05T07:52:39.92Z</time></trkpt><trkpt lat="43.6752074" lon="12.6519653"><ele>277.25</ele><time>2026-04-05T07:52:40.921Z</time></trkpt><trkpt lat="43.6750473" lon="12.6520075"><ele>279.5</ele><time>2026-04-05T07:52:41.921Z</time></trkpt><trkpt lat="43.674906" lon="12.6520431"><ele>281.75</ele><time>2026-04-05T07:52:42.921Z</time></trkpt><trkpt lat="43.6747749" lon="12.6520588"><ele>284.0</ele><time>2026-04-05T07:52:43.921Z</time></trkpt><trkpt lat="43.6746648" lon="12.6520811"><ele>284.0</ele><time>2026-04-05T07:52:44.921Z</time></trkpt><trkpt lat="43.6745879" lon="12.6521301"><ele>284.0</ele><time>2026-04-05T07:52:45.921Z</time></trkpt><trkpt lat="43.6745187" lon="12.652208"><ele>284.0</ele><time>2026-04-05T07:52:46.921Z</time></trkpt><trkpt lat="43.6744775" lon="12.6523235"><ele>284.0</ele><time>2026-04-05T07:52:47.922Z</time></trkpt><trkpt lat="43.6744637" lon="12.6524732"><ele>284.0</ele><time>2026-04-05T07:52:48.921Z</time></trkpt><trkpt lat="43.674456" lon="12.6526414"><ele>284.0</ele><time>2026-04-05T07:52:49.92Z</time></trkpt><trkpt lat="43.6744541" lon="12.652802"><ele>284.0</ele><time>2026-04-05T07:52:50.921Z</time></trkpt><trkpt lat="43.674443" lon="12.6529476"><ele>284.0</ele><time>2026-04-05T07:52:51.92Z</time></trkpt><trkpt lat="43.6744124" lon="12.6530644"><ele>284.0</ele><time>2026-04-05T07:52:52.921Z</time></trkpt><trkpt lat="43.6743822" lon="12.6531975"><ele>284.0</ele><time>2026-04-05T07:52:53.921Z</time></trkpt><trkpt lat="43.6742923" lon="12.6532422"><ele>284.0</ele><time>2026-04-05T07:52:54.921Z</time></trkpt><trkpt lat="43.6741909" lon="12.6532513"><ele>284.0</ele><time>2026-04-05T07:52:55.92Z</time></trkpt><trkpt lat="43.6740975" lon="12.6532748"><ele>284.0</ele><time>2026-04-05T07:52:56.921Z</time></trkpt><trkpt lat="43.6740142" lon="12.6533406"><ele>284.0</ele><time>2026-04-05T07:52:57.921Z</time></trkpt><trkpt lat="43.6739499" lon="12.6534433"><ele>284.0</ele><time>2026-04-05T07:52:58.922Z</time></trkpt><trkpt lat="43.6739014" lon="12.6535805"><ele>285.1666666666667</ele><time>2026-04-05T07:52:59.92Z</time></trkpt><trkpt lat="43.6738842" lon="12.6537159"><ele>286.33333333333337</ele><time>2026-04-05T07:53:00.921Z</time></trkpt><trkpt lat="43.6738896" lon="12.6538403"><ele>287.5</ele><time>2026-04-05T07:53:01.921Z</time></trkpt><trkpt lat="43.6739446" lon="12.6539272"><ele>288.6666666666667</ele><time>2026-04-05T07:53:02.921Z</time></trkpt><trkpt lat="43.6740142" lon="12.6539785"><ele>289.8333333333333</ele><time>2026-04-05T07:53:03.921Z</time></trkpt><trkpt lat="43.6741036" lon="12.653993"><ele>291.0</ele><time>2026-04-05T07:53:04.92Z</time></trkpt><trkpt lat="43.6742198" lon="12.6539849"><ele>291.0</ele><time>2026-04-05T07:53:05.921Z</time></trkpt><trkpt lat="43.6743624" lon="12.6539496"><ele>291.0</ele><time>2026-04-05T07:53:06.922Z</time></trkpt><trkpt lat="43.6745326" lon="12.6538879"><ele>291.0</ele><time>2026-04-05T07:53:07.92Z</time></trkpt><trkpt lat="43.6747127" lon="12.6538078"><ele>293.0</ele><time>2026-04-05T07:53:08.922Z</time></trkpt><trkpt lat="43.6748639" lon="12.6537408"><ele>295.0</ele><time>2026-04-05T07:53:09.921Z</time></trkpt><trkpt lat="43.6750032" lon="12.6536928"><ele>297.0</ele><time>2026-04-05T07:53:10.921Z</time></trkpt><trkpt lat="43.6751358" lon="12.6536624"><ele>299.0</ele><time>2026-04-05T07:53:11.921Z</time></trkpt><trkpt lat="43.6752594" lon="12.6536507"><ele>299.4</ele><time>2026-04-05T07:53:12.921Z</time></trkpt><trkpt lat="43.6753604" lon="12.65367"><ele>299.79999999999995</ele><time>2026-04-05T07:53:13.921Z</time></trkpt><trkpt lat="43.6754384" lon="12.6537269"><ele>300.20000000000005</ele><time>2026-04-05T07:53:14.921Z</time></trkpt><trkpt lat="43.6754919" lon="12.6538283"><ele>300.6</ele><time>2026-04-05T07:53:15.92Z</time></trkpt><trkpt lat="43.6755142" lon="12.6539434"><ele>301.0</ele><time>2026-04-05T07:53:16.921Z</time></trkpt><trkpt lat="43.6755122" lon="12.6540803"><ele>301.0</ele><time>2026-04-05T07:53:17.921Z</time></trkpt><trkpt lat="43.6755004" lon="12.6542408"><ele>301.0</ele><time>2026-04-05T07:53:18.92Z</time></trkpt><trkpt lat="43.675494" lon="12.654413"><ele>301.0</ele><time>2026-04-05T07:53:19.921Z</time></trkpt><trkpt lat="43.675478" lon="12.6545987"><ele>301.0</ele><time>2026-04-05T07:53:20.92Z</time></trkpt><trkpt lat="43.6754583" lon="12.6547926"><ele>301.2</ele><time>2026-04-05T07:53:21.921Z</time></trkpt><trkpt lat="43.6754404" lon="12.6549541"><ele>301.40000000000003</ele><time>2026-04-05T07:53:22.921Z</time></trkpt><trkpt lat="43.6754193" lon="12.6550784"><ele>301.6</ele><time>2026-04-05T07:53:23.92Z</time></trkpt><trkpt lat="43.6754313" lon="12.6552317"><ele>301.8</ele><time>2026-04-05T07:53:25.921Z</time></trkpt><trkpt lat="43.675477" lon="12.6553066"><ele>302.0</ele><time>2026-04-05T07:53:26.921Z</time></trkpt><trkpt lat="43.675556" lon="12.6553834"><ele>301.0</ele><time>2026-04-05T07:53:27.922Z</time></trkpt><trkpt lat="43.6756617" lon="12.6554708"><ele>300.0</ele><time>2026-04-05T07:53:28.921Z</time></trkpt><trkpt lat="43.6757667" lon="12.6555534"><ele>299.0</ele><time>2026-04-05T07:53:29.921Z</time></trkpt><trkpt lat="43.6758639" lon="12.6556094"><ele>298.0</ele><time>2026-04-05T07:53:30.921Z</time></trkpt><trkpt lat="43.6759617" lon="12.6556186"><ele>297.0</ele><time>2026-04-05T07:53:31.921Z</time></trkpt><trkpt lat="43.6760458" lon="12.6556121"><ele>297.0</ele><time>2026-04-05T07:53:32.921Z</time></trkpt><trkpt lat="43.6761126" lon="12.655615"><ele>297.0</ele><time>2026-04-05T07:53:33.921Z</time></trkpt><trkpt lat="43.676196" lon="12.6556826"><ele>297.0</ele><time>2026-04-05T07:53:35.921Z</time></trkpt><trkpt lat="43.6761848" lon="12.6557968"><ele>297.0</ele><time>2026-04-05T07:53:37.921Z</time></trkpt><trkpt lat="43.6761391" lon="12.6558582"><ele>297.0</ele><time>2026-04-05T07:53:38.921Z</time></trkpt><trkpt lat="43.6760658" lon="12.6559125"><ele>297.0</ele><time>2026-04-05T07:53:39.922Z</time></trkpt><trkpt lat="43.6759895" lon="12.6559876"><ele>297.0</ele><time>2026-04-05T07:53:40.921Z</time></trkpt><trkpt lat="43.6759244" lon="12.6560676"><ele>297.0</ele><time>2026-04-05T07:53:41.921Z</time></trkpt><trkpt lat="43.6758663" lon="12.6561452"><ele>297.0</ele><time>2026-04-05T07:53:42.92Z</time></trkpt><trkpt lat="43.6758165" lon="12.6562377"><ele>297.0</ele><time>2026-04-05T07:53:43.92Z</time></trkpt><trkpt lat="43.6757643" lon="12.6563341"><ele>297.0</ele><time>2026-04-05T07:53:44.921Z</time></trkpt><trkpt lat="43.6757154" lon="12.6564246"><ele>297.0</ele><time>2026-04-05T07:53:45.921Z</time></trkpt><trkpt lat="43.6756755" lon="12.656494"><ele>295.1666666666667</ele><time>2026-04-05T07:53:46.92Z</time></trkpt><trkpt lat="43.6756375" lon="12.6566074"><ele>293.3333333333333</ele><time>2026-04-05T07:53:48.921Z</time></trkpt><trkpt lat="43.6756962" lon="12.6566634"><ele>291.5</ele><time>2026-04-05T07:53:50.92Z</time></trkpt><trkpt lat="43.6757699" lon="12.6565924"><ele>289.66666666666663</ele><time>2026-04-05T07:53:52.922Z</time></trkpt><trkpt lat="43.6758137" lon="12.6565277"><ele>287.8333333333333</ele><time>2026-04-05T07:53:53.921Z</time></trkpt><trkpt lat="43.6758761" lon="12.6564485"><ele>286.0</ele><time>2026-04-05T07:53:54.92Z</time></trkpt><trkpt lat="43.6759572" lon="12.6563827"><ele>286.0</ele><time>2026-04-05T07:53:55.921Z</time></trkpt><trkpt lat="43.6760475" lon="12.6563402"><ele>286.0</ele><time>2026-04-05T07:53:56.921Z</time></trkpt><trkpt lat="43.6761308" lon="12.6563183"><ele>286.0</ele><time>2026-04-05T07:53:57.921Z</time></trkpt><trkpt lat="43.6762105" lon="12.6563018"><ele>286.0</ele><time>2026-04-05T07:53:58.921Z</time></trkpt><trkpt lat="43.676286" lon="12.6562785"><ele>286.0</ele><time>2026-04-05T07:53:59.922Z</time></trkpt><trkpt lat="43.6763528" lon="12.6562569"><ele>286.0</ele><time>2026-04-05T07:54:00.921Z</time></trkpt><trkpt lat="43.6764519" lon="12.6562452"><ele>284.5</ele><time>2026-04-05T07:54:02.922Z</time></trkpt><trkpt lat="43.6765227" lon="12.6563275"><ele>283.0</ele><time>2026-04-05T07:54:04.921Z</time></trkpt><trkpt lat="43.6765661" lon="12.6563982"><ele>281.5</ele><time>2026-04-05T07:54:05.92Z</time></trkpt><trkpt lat="43.6766209" lon="12.6564769"><ele>280.0</ele><time>2026-04-05T07:54:06.921Z</time></trkpt><trkpt lat="43.6766722" lon="12.6565463"><ele>278.5</ele><time>2026-04-05T07:54:07.921Z</time></trkpt><trkpt lat="43.6767307" lon="12.6566795"><ele>277.0</ele><time>2026-04-05T07:54:09.921Z</time></trkpt><trkpt lat="43.6766974" lon="12.6568239"><ele>277.0</ele><time>2026-04-05T07:54:11.921Z</time></trkpt><trkpt lat="43.6766882" lon="12.6569212"><ele>277.0</ele><time>2026-04-05T07:54:12.921Z</time></trkpt><trkpt lat="43.67671" lon="12.6570305"><ele>277.0</ele><time>2026-04-05T07:54:13.92Z</time></trkpt><trkpt lat="43.6767498" lon="12.6571467"><ele>277.0</ele><time>2026-04-05T07:54:14.921Z</time></trkpt><trkpt lat="43.6768128" lon="12.6572783"><ele>277.0</ele><time>2026-04-05T07:54:15.921Z</time></trkpt><trkpt lat="43.6768977" lon="12.657422"><ele>274.4</ele><time>2026-04-05T07:54:16.92Z</time></trkpt><trkpt lat="43.676978" lon="12.657559"><ele>271.79999999999995</ele><time>2026-04-05T07:54:17.921Z</time></trkpt><trkpt lat="43.6770503" lon="12.6576887"><ele>269.2</ele><time>2026-04-05T07:54:18.92Z</time></trkpt><trkpt lat="43.6771139" lon="12.6578015"><ele>266.59999999999997</ele><time>2026-04-05T07:54:19.922Z</time></trkpt><trkpt lat="43.6771752" lon="12.6578962"><ele>264.0</ele><time>2026-04-05T07:54:20.921Z</time></trkpt><trkpt lat="43.6772585" lon="12.6579777"><ele>260.25</ele><time>2026-04-05T07:54:21.921Z</time></trkpt><trkpt lat="43.6773712" lon="12.6580422"><ele>256.5</ele><time>2026-04-05T07:54:22.921Z</time></trkpt><trkpt lat="43.6775008" lon="12.6580867"><ele>252.75</ele><time>2026-04-05T07:54:23.92Z</time></trkpt><trkpt lat="43.6776257" lon="12.658114"><ele>249.0</ele><time>2026-04-05T07:54:24.921Z</time></trkpt><trkpt lat="43.6777511" lon="12.6581274"><ele>248.25</ele><time>2026-04-05T07:54:25.922Z</time></trkpt><trkpt lat="43.677872" lon="12.6581382"><ele>247.5</ele><time>2026-04-05T07:54:26.921Z</time></trkpt><trkpt lat="43.6779907" lon="12.6581471"><ele>246.75</ele><time>2026-04-05T07:54:27.921Z</time></trkpt><trkpt lat="43.6781071" lon="12.6581571"><ele>246.0</ele><time>2026-04-05T07:54:28.921Z</time></trkpt><trkpt lat="43.6782267" lon="12.6581616"><ele>246.0</ele><time>2026-04-05T07:54:29.921Z</time></trkpt><trkpt lat="43.6783558" lon="12.6581678"><ele>246.00000000000003</ele><time>2026-04-05T07:54:30.921Z</time></trkpt><trkpt lat="43.6784718" lon="12.6581714"><ele>246.00000000000003</ele><time>2026-04-05T07:54:31.921Z</time></trkpt><trkpt lat="43.6785736" lon="12.6581691"><ele>246.0</ele><time>2026-04-05T07:54:32.921Z</time></trkpt><trkpt lat="43.6786661" lon="12.6581604"><ele>246.0</ele><time>2026-04-05T07:54:33.921Z</time></trkpt><trkpt lat="43.6787515" lon="12.6581053"><ele>246.0</ele><time>2026-04-05T07:54:34.922Z</time></trkpt><trkpt lat="43.6788251" lon="12.6579924"><ele>246.0</ele><time>2026-04-05T07:54:35.921Z</time></trkpt><trkpt lat="43.6788897" lon="12.6578237"><ele>246.0</ele><time>2026-04-05T07:54:36.921Z</time></trkpt><trkpt lat="43.678942" lon="12.6576766"><ele>246.0</ele><time>2026-04-05T07:54:37.921Z</time></trkpt><trkpt lat="43.6789924" lon="12.6575613"><ele>246.0</ele><time>2026-04-05T07:54:38.922Z</time></trkpt><trkpt lat="43.6790416" lon="12.657477"><ele>246.0</ele><time>2026-04-05T07:54:39.921Z</time></trkpt><trkpt lat="43.6791189" lon="12.6574198"><ele>246.0</ele><time>2026-04-05T07:54:41.92Z</time></trkpt><trkpt lat="43.6791776" lon="12.6573457"><ele>246.0</ele><time>2026-04-05T07:54:43.921Z</time></trkpt><trkpt lat="43.6792108" lon="12.6572587"><ele>246.0</ele><time>2026-04-05T07:54:44.921Z</time></trkpt><trkpt lat="43.6792439" lon="12.6571329"><ele>246.0</ele><time>2026-04-05T07:54:45.921Z</time></trkpt><trkpt lat="43.6792744" lon="12.6569632"><ele>244.66666666666669</ele><time>2026-04-05T07:54:46.921Z</time></trkpt><trkpt lat="43.6793096" lon="12.6567664"><ele>243.33333333333334</ele><time>2026-04-05T07:54:47.921Z</time></trkpt><trkpt lat="43.6793449" lon="12.6565479"><ele>242.0</ele><time>2026-04-05T07:54:48.921Z</time></trkpt><trkpt lat="43.6793854" lon="12.656308"><ele>239.66666666666669</ele><time>2026-04-05T07:54:49.921Z</time></trkpt><trkpt lat="43.6794276" lon="12.656079"><ele>237.33333333333331</ele><time>2026-04-05T07:54:50.921Z</time></trkpt><trkpt lat="43.6794667" lon="12.6558707"><ele>235.0</ele><time>2026-04-05T07:54:51.921Z</time></trkpt><trkpt lat="43.6795005" lon="12.6556765"><ele>235.6</ele><time>2026-04-05T07:54:52.922Z</time></trkpt><trkpt lat="43.6795323" lon="12.6555062"><ele>236.2</ele><time>2026-04-05T07:54:53.921Z</time></trkpt><trkpt lat="43.679561" lon="12.6553545"><ele>236.8</ele><time>2026-04-05T07:54:54.921Z</time></trkpt><trkpt lat="43.6795837" lon="12.6552213"><ele>237.4</ele><time>2026-04-05T07:54:55.921Z</time></trkpt><trkpt lat="43.6796066" lon="12.6551038"><ele>238.0</ele><time>2026-04-05T07:54:56.921Z</time></trkpt><trkpt lat="43.6796268" lon="12.6549986"><ele>238.0</ele><time>2026-04-05T07:54:57.921Z</time></trkpt><trkpt lat="43.6796471" lon="12.654911"><ele>238.0</ele><time>2026-04-05T07:54:58.921Z</time></trkpt><trkpt lat="43.6797072" lon="12.6547821"><ele>238.0</ele><time>2026-04-05T07:55:00.921Z</time></trkpt><trkpt lat="43.6798255" lon="12.6546853"><ele>238.0</ele><time>2026-04-05T07:55:02.921Z</time></trkpt><trkpt lat="43.6799162" lon="12.6546476"><ele>238.0</ele><time>2026-04-05T07:55:03.921Z</time></trkpt><trkpt lat="43.6800259" lon="12.6546102"><ele>238.0</ele><time>2026-04-05T07:55:04.921Z</time></trkpt><trkpt lat="43.6801544" lon="12.6545713"><ele>238.0</ele><time>2026-04-05T07:55:05.921Z</time></trkpt><trkpt lat="43.6803239" lon="12.6545178"><ele>238.0</ele><time>2026-04-05T07:55:06.921Z</time></trkpt><trkpt lat="43.6805122" lon="12.6544614"><ele>237.0</ele><time>2026-04-05T07:55:07.921Z</time></trkpt><trkpt lat="43.6806942" lon="12.6544123"><ele>236.0</ele><time>2026-04-05T07:55:08.92Z</time></trkpt><trkpt lat="43.6808532" lon="12.6543791"><ele>235.0</ele><time>2026-04-05T07:55:09.921Z</time></trkpt><trkpt lat="43.6810023" lon="12.6543715"><ele>238.25</ele><time>2026-04-05T07:55:10.922Z</time></trkpt><trkpt lat="43.6811442" lon="12.6543998"><ele>241.5</ele><time>2026-04-05T07:55:11.921Z</time></trkpt><trkpt lat="43.6812818" lon="12.6544281"><ele>244.75</ele><time>2026-04-05T07:55:12.921Z</time></trkpt><trkpt lat="43.6814063" lon="12.6544147"><ele>248.0</ele><time>2026-04-05T07:55:13.92Z</time></trkpt><trkpt lat="43.6815124" lon="12.6543814"><ele>248.00000000000003</ele><time>2026-04-05T07:55:14.921Z</time></trkpt><trkpt lat="43.6816018" lon="12.6543529"><ele>248.0</ele><time>2026-04-05T07:55:15.921Z</time></trkpt><trkpt lat="43.6816727" lon="12.6543568"><ele>248.0</ele><time>2026-04-05T07:55:16.921Z</time></trkpt><trkpt lat="43.6817403" lon="12.6543857"><ele>248.0</ele><time>2026-04-05T07:55:17.92Z</time></trkpt><trkpt lat="43.6817552" lon="12.6545081"><ele>248.00000000000003</ele><time>2026-04-05T07:55:18.921Z</time></trkpt><trkpt lat="43.6817712" lon="12.6546244"><ele>248.0</ele><time>2026-04-05T07:55:19.921Z</time></trkpt><trkpt lat="43.6818117" lon="12.6547641"><ele>246.5</ele><time>2026-04-05T07:55:20.921Z</time></trkpt><trkpt lat="43.6818794" lon="12.6549041"><ele>245.0</ele><time>2026-04-05T07:55:21.921Z</time></trkpt><trkpt lat="43.6819703" lon="12.6550466"><ele>243.5</ele><time>2026-04-05T07:55:22.921Z</time></trkpt><trkpt lat="43.6820814" lon="12.6551911"><ele>242.0</ele><time>2026-04-05T07:55:23.921Z</time></trkpt><trkpt lat="43.6821969" lon="12.6553482"><ele>240.0</ele><time>2026-04-05T07:55:24.92Z</time></trkpt><trkpt lat="43.6823172" lon="12.6555018"><ele>238.0</ele><time>2026-04-05T07:55:25.92Z</time></trkpt><trkpt lat="43.6824312" lon="12.6556401"><ele>236.0</ele><time>2026-04-05T07:55:26.921Z</time></trkpt><trkpt lat="43.682536" lon="12.6557703"><ele>236.0</ele><time>2026-04-05T07:55:27.921Z</time></trkpt><trkpt lat="43.6826369" lon="12.655888"><ele>236.0</ele><time>2026-04-05T07:55:28.92Z</time></trkpt><trkpt lat="43.682737" lon="12.656004"><ele>236.0</ele><time>2026-04-05T07:55:29.921Z</time></trkpt><trkpt lat="43.6828297" lon="12.6561203"><ele>236.0</ele><time>2026-04-05T07:55:30.921Z</time></trkpt><trkpt lat="43.6829156" lon="12.6562246"><ele>234.8</ele><time>2026-04-05T07:55:31.921Z</time></trkpt><trkpt lat="43.6829899" lon="12.6563397"><ele>233.60000000000002</ele><time>2026-04-05T07:55:32.921Z</time></trkpt><trkpt lat="43.6830349" lon="12.6564711"><ele>232.4</ele><time>2026-04-05T07:55:33.921Z</time></trkpt><trkpt lat="43.6830629" lon="12.6566066"><ele>231.2</ele><time>2026-04-05T07:55:34.921Z</time></trkpt><trkpt lat="43.6830856" lon="12.6567182"><ele>230.0</ele><time>2026-04-05T07:55:35.921Z</time></trkpt><trkpt lat="43.6831118" lon="12.6568118"><ele>230.0</ele><time>2026-04-05T07:55:36.921Z</time></trkpt><trkpt lat="43.6831608" lon="12.6568857"><ele>230.0</ele><time>2026-04-05T07:55:37.921Z</time></trkpt><trkpt lat="43.6832366" lon="12.6569399"><ele>230.0</ele><time>2026-04-05T07:55:38.921Z</time></trkpt><trkpt lat="43.6833389" lon="12.6569843"><ele>230.0</ele><time>2026-04-05T07:55:39.921Z</time></trkpt><trkpt lat="43.6834666" lon="12.6570238"><ele>230.0</ele><time>2026-04-05T07:55:40.92Z</time></trkpt><trkpt lat="43.6835928" lon="12.6570878"><ele>232.0</ele><time>2026-04-05T07:55:41.921Z</time></trkpt><trkpt lat="43.6837098" lon="12.6571848"><ele>234.0</ele><time>2026-04-05T07:55:42.92Z</time></trkpt><trkpt lat="43.6838155" lon="12.6573058"><ele>236.0</ele><time>2026-04-05T07:55:43.921Z</time></trkpt><trkpt lat="43.683914" lon="12.6574743"><ele>238.0</ele><time>2026-04-05T07:55:44.921Z</time></trkpt><trkpt lat="43.6839879" lon="12.6576268"><ele>238.25</ele><time>2026-04-05T07:55:45.921Z</time></trkpt><trkpt lat="43.684033" lon="12.6577939"><ele>238.5</ele><time>2026-04-05T07:55:46.921Z</time></trkpt><trkpt lat="43.6840525" lon="12.6579694"><ele>238.75</ele><time>2026-04-05T07:55:47.92Z</time></trkpt><trkpt lat="43.684073" lon="12.658145"><ele>239.0</ele><time>2026-04-05T07:55:48.921Z</time></trkpt><trkpt lat="43.6841074" lon="12.6583098"><ele>239.0</ele><time>2026-04-05T07:55:49.921Z</time></trkpt><trkpt lat="43.6841423" lon="12.6584474"><ele>238.99999999999997</ele><time>2026-04-05T07:55:50.921Z</time></trkpt><trkpt lat="43.6841793" lon="12.65856"><ele>238.99999999999997</ele><time>2026-04-05T07:55:51.921Z</time></trkpt><trkpt lat="43.6842382" lon="12.6586566"><ele>239.0</ele><time>2026-04-05T07:55:52.921Z</time></trkpt><trkpt lat="43.6843199" lon="12.658749"><ele>239.0</ele><time>2026-04-05T07:55:53.921Z</time></trkpt><trkpt lat="43.6844159" lon="12.6588508"><ele>238.25</ele><time>2026-04-05T07:55:54.92Z</time></trkpt><trkpt lat="43.6845284" lon="12.6589661"><ele>237.5</ele><time>2026-04-05T07:55:55.921Z</time></trkpt><trkpt lat="43.68466" lon="12.6590778"><ele>236.75</ele><time>2026-04-05T07:55:56.921Z</time></trkpt><trkpt lat="43.6847893" lon="12.6591731"><ele>236.0</ele><time>2026-04-05T07:55:57.92Z</time></trkpt><trkpt lat="43.6849211" lon="12.6592526"><ele>236.0</ele><time>2026-04-05T07:55:58.921Z</time></trkpt><trkpt lat="43.6850521" lon="12.6593168"><ele>236.0</ele><time>2026-04-05T07:55:59.921Z</time></trkpt><trkpt lat="43.6851856" lon="12.659379"><ele>236.0</ele><time>2026-04-05T07:56:00.921Z</time></trkpt><trkpt lat="43.6853189" lon="12.6594389"><ele>236.0</ele><time>2026-04-05T07:56:01.921Z</time></trkpt><trkpt lat="43.6854466" lon="12.6594931"><ele>234.0</ele><time>2026-04-05T07:56:02.921Z</time></trkpt><trkpt lat="43.6855663" lon="12.6595478"><ele>232.0</ele><time>2026-04-05T07:56:03.92Z</time></trkpt><trkpt lat="43.685678" lon="12.6596156"><ele>230.0</ele><time>2026-04-05T07:56:04.92Z</time></trkpt><trkpt lat="43.6857814" lon="12.6597104"><ele>228.0</ele><time>2026-04-05T07:56:05.921Z</time></trkpt><trkpt lat="43.6858641" lon="12.6598212"><ele>228.0</ele><time>2026-04-05T07:56:06.921Z</time></trkpt><trkpt lat="43.6859248" lon="12.6599329"><ele>228.0</ele><time>2026-04-05T07:56:07.921Z</time></trkpt><trkpt lat="43.6859662" lon="12.66004"><ele>228.0</ele><time>2026-04-05T07:56:08.921Z</time></trkpt><trkpt lat="43.6860043" lon="12.6601125"><ele>228.0</ele><time>2026-04-05T07:56:09.921Z</time></trkpt><trkpt lat="43.6860959" lon="12.6601245"><ele>228.0</ele><time>2026-04-05T07:56:11.921Z</time></trkpt><trkpt lat="43.6861448" lon="12.6599284"><ele>226.33333333333334</ele><time>2026-04-05T07:56:13.92Z</time></trkpt><trkpt lat="43.6861701" lon="12.6598406"><ele>224.66666666666669</ele><time>2026-04-05T07:56:14.921Z</time></trkpt><trkpt lat="43.6862241" lon="12.6597752"><ele>223.0</ele><time>2026-04-05T07:56:15.921Z</time></trkpt><trkpt lat="43.6863006" lon="12.6597575"><ele>221.33333333333334</ele><time>2026-04-05T07:56:16.921Z</time></trkpt><trkpt lat="43.6863782" lon="12.6597881"><ele>219.66666666666669</ele><time>2026-04-05T07:56:17.921Z</time></trkpt><trkpt lat="43.6864734" lon="12.6598717"><ele>218.0</ele><time>2026-04-05T07:56:18.921Z</time></trkpt><trkpt lat="43.6865876" lon="12.6600201"><ele>218.0</ele><time>2026-04-05T07:56:19.922Z</time></trkpt><trkpt lat="43.6867082" lon="12.6601889"><ele>218.0</ele><time>2026-04-05T07:56:20.921Z</time></trkpt><trkpt lat="43.6868078" lon="12.6603362"><ele>218.0</ele><time>2026-04-05T07:56:21.92Z</time></trkpt><trkpt lat="43.6868944" lon="12.660469"><ele>218.0</ele><time>2026-04-05T07:56:22.921Z</time></trkpt><trkpt lat="43.6869627" lon="12.6605843"><ele>216.50000000000003</ele><time>2026-04-05T07:56:23.921Z</time></trkpt><trkpt lat="43.6870173" lon="12.660689"><ele>215.0</ele><time>2026-04-05T07:56:24.921Z</time></trkpt><trkpt lat="43.687076" lon="12.6607662"><ele>213.5</ele><time>2026-04-05T07:56:25.921Z</time></trkpt><trkpt lat="43.6871415" lon="12.6607989"><ele>212.0</ele><time>2026-04-05T07:56:26.921Z</time></trkpt><trkpt lat="43.6872189" lon="12.6607863"><ele>210.50000000000003</ele><time>2026-04-05T07:56:27.92Z</time></trkpt><trkpt lat="43.6873029" lon="12.660738"><ele>209.0</ele><time>2026-04-05T07:56:28.922Z</time></trkpt><trkpt lat="43.6873939" lon="12.6606761"><ele>209.0</ele><time>2026-04-05T07:56:29.922Z</time></trkpt><trkpt lat="43.6874828" lon="12.6606487"><ele>209.0</ele><time>2026-04-05T07:56:30.921Z</time></trkpt><trkpt lat="43.6875826" lon="12.66065"><ele>209.0</ele><time>2026-04-05T07:56:31.921Z</time></trkpt><trkpt lat="43.687702" lon="12.6606923"><ele>209.0</ele><time>2026-04-05T07:56:32.922Z</time></trkpt><trkpt lat="43.6878445" lon="12.660757"><ele>205.33333333333334</ele><time>2026-04-05T07:56:33.921Z</time></trkpt><trkpt lat="43.6880058" lon="12.6608226"><ele>201.66666666666669</ele><time>2026-04-05T07:56:34.921Z</time></trkpt><trkpt lat="43.6882" lon="12.6608878"><ele>198.0</ele><time>2026-04-05T07:56:35.921Z</time></trkpt><trkpt lat="43.6883863" lon="12.6609341"><ele>198.0</ele><time>2026-04-05T07:56:36.92Z</time></trkpt><trkpt lat="43.6885505" lon="12.6609713"><ele>198.0</ele><time>2026-04-05T07:56:37.921Z</time></trkpt><trkpt lat="43.6886935" lon="12.6610124"><ele>198.0</ele><time>2026-04-05T07:56:38.92Z</time></trkpt><trkpt lat="43.6888226" lon="12.6610608"><ele>198.0</ele><time>2026-04-05T07:56:39.921Z</time></trkpt><trkpt lat="43.6889417" lon="12.6611211"><ele>197.60000000000002</ele><time>2026-04-05T07:56:40.921Z</time></trkpt><trkpt lat="43.6890465" lon="12.6611779"><ele>197.20000000000002</ele><time>2026-04-05T07:56:41.921Z</time></trkpt><trkpt lat="43.6891497" lon="12.6612141"><ele>196.8</ele><time>2026-04-05T07:56:42.921Z</time></trkpt><trkpt lat="43.689264" lon="12.6612268"><ele>196.4</ele><time>2026-04-05T07:56:43.922Z</time></trkpt><trkpt lat="43.6893751" lon="12.6612273"><ele>196.0</ele><time>2026-04-05T07:56:44.92Z</time></trkpt><trkpt lat="43.6894805" lon="12.6612519"><ele>193.75</ele><time>2026-04-05T07:56:45.92Z</time></trkpt><trkpt lat="43.6895843" lon="12.6612978"><ele>191.5</ele><time>2026-04-05T07:56:46.92Z</time></trkpt><trkpt lat="43.6896973" lon="12.6613638"><ele>189.25</ele><time>2026-04-05T07:56:47.92Z</time></trkpt><trkpt lat="43.6898172" lon="12.6614497"><ele>187.0</ele><time>2026-04-05T07:56:48.92Z</time></trkpt><trkpt lat="43.6899422" lon="12.6615517"><ele>187.0</ele><time>2026-04-05T07:56:49.921Z</time></trkpt><trkpt lat="43.6900554" lon="12.6616447"><ele>187.0</ele><time>2026-04-05T07:56:50.92Z</time></trkpt><trkpt lat="43.6901544" lon="12.6617365"><ele>187.0</ele><time>2026-04-05T07:56:51.92Z</time></trkpt><trkpt lat="43.690238" lon="12.6618455"><ele>187.0</ele><time>2026-04-05T07:56:52.92Z</time></trkpt><trkpt lat="43.6903084" lon="12.661989"><ele>182.0</ele><time>2026-04-05T07:56:53.92Z</time></trkpt><trkpt lat="43.6903549" lon="12.6621549"><ele>177.0</ele><time>2026-04-05T07:56:54.92Z</time></trkpt><trkpt lat="43.6903844" lon="12.6623561"><ele>172.0</ele><time>2026-04-05T07:56:55.92Z</time></trkpt><trkpt lat="43.6904116" lon="12.6625936"><ele>172.66666666666669</ele><time>2026-04-05T07:56:56.92Z</time></trkpt><trkpt lat="43.6904562" lon="12.6628687"><ele>173.33333333333334</ele><time>2026-04-05T07:56:57.92Z</time></trkpt><trkpt lat="43.6905191" lon="12.6631401"><ele>174.0</ele><time>2026-04-05T07:56:58.92Z</time></trkpt><trkpt lat="43.6905731" lon="12.6633814"><ele>174.66666666666666</ele><time>2026-04-05T07:56:59.919Z</time></trkpt><trkpt lat="43.6906181" lon="12.6636139"><ele>175.33333333333331</ele><time>2026-04-05T07:57:00.92Z</time></trkpt><trkpt lat="43.6906447" lon="12.6638386"><ele>176.0</ele><time>2026-04-05T07:57:01.92Z</time></trkpt><trkpt lat="43.6906542" lon="12.6640511"><ele>176.0</ele><time>2026-04-05T07:57:02.919Z</time></trkpt><trkpt lat="43.6906487" lon="12.6642418"><ele>176.0</ele><time>2026-04-05T07:57:03.92Z</time></trkpt><trkpt lat="43.6906314" lon="12.6644245"><ele>176.0</ele><time>2026-04-05T07:57:04.921Z</time></trkpt><trkpt lat="43.6906143" lon="12.6645885"><ele>176.0</ele><time>2026-04-05T07:57:05.92Z</time></trkpt><trkpt lat="43.6906128" lon="12.6647435"><ele>176.0</ele><time>2026-04-05T07:57:06.92Z</time></trkpt><trkpt lat="43.6906377" lon="12.6649032"><ele>176.0</ele><time>2026-04-05T07:57:07.92Z</time></trkpt><trkpt lat="43.6906802" lon="12.6650846"><ele>176.0</ele><time>2026-04-05T07:57:08.92Z</time></trkpt><trkpt lat="43.6907312" lon="12.665293"><ele>176.0</ele><time>2026-04-05T07:57:09.92Z</time></trkpt><trkpt lat="43.6907921" lon="12.665532"><ele>176.0</ele><time>2026-04-05T07:57:10.92Z</time></trkpt><trkpt lat="43.6908645" lon="12.6658108"><ele>176.0</ele><time>2026-04-05T07:57:11.92Z</time></trkpt><trkpt lat="43.6909329" lon="12.6661329"><ele>176.66666666666666</ele><time>2026-04-05T07:57:12.92Z</time></trkpt><trkpt lat="43.6909879" lon="12.6664344"><ele>177.33333333333334</ele><time>2026-04-05T07:57:13.92Z</time></trkpt><trkpt lat="43.691034" lon="12.6667039"><ele>178.0</ele><time>2026-04-05T07:57:14.92Z</time></trkpt><trkpt lat="43.691072" lon="12.6669329"><ele>177.8</ele><time>2026-04-05T07:57:15.92Z</time></trkpt><trkpt lat="43.6911033" lon="12.6671219"><ele>177.60000000000002</ele><time>2026-04-05T07:57:16.92Z</time></trkpt><trkpt lat="43.691123" lon="12.6672743"><ele>177.39999999999998</ele><time>2026-04-05T07:57:17.92Z</time></trkpt><trkpt lat="43.6911258" lon="12.6674179"><ele>177.2</ele><time>2026-04-05T07:57:18.92Z</time></trkpt><trkpt lat="43.6911105" lon="12.6675401"><ele>177.0</ele><time>2026-04-05T07:57:19.921Z</time></trkpt><trkpt lat="43.6910695" lon="12.6676514"><ele>177.0</ele><time>2026-04-05T07:57:20.921Z</time></trkpt><trkpt lat="43.6909993" lon="12.6677518"><ele>177.0</ele><time>2026-04-05T07:57:21.92Z</time></trkpt><trkpt lat="43.6909121" lon="12.6678186"><ele>177.0</ele><time>2026-04-05T07:57:22.92Z</time></trkpt><trkpt lat="43.690813" lon="12.6678849"><ele>177.0</ele><time>2026-04-05T07:57:23.92Z</time></trkpt><trkpt lat="43.6907199" lon="12.6679619"><ele>177.0</ele><time>2026-04-05T07:57:24.921Z</time></trkpt><trkpt lat="43.690651" lon="12.6680604"><ele>178.0</ele><time>2026-04-05T07:57:25.92Z</time></trkpt><trkpt lat="43.6905903" lon="12.668207"><ele>179.0</ele><time>2026-04-05T07:57:26.92Z</time></trkpt><trkpt lat="43.6905302" lon="12.6683859"><ele>180.0</ele><time>2026-04-05T07:57:27.921Z</time></trkpt><trkpt lat="43.6904618" lon="12.6686043"><ele>181.0</ele><time>2026-04-05T07:57:28.92Z</time></trkpt><trkpt lat="43.6903883" lon="12.6688441"><ele>183.66666666666669</ele><time>2026-04-05T07:57:29.92Z</time></trkpt><trkpt lat="43.6903137" lon="12.6690656"><ele>186.33333333333334</ele><time>2026-04-05T07:57:30.921Z</time></trkpt><trkpt lat="43.6902424" lon="12.6692598"><ele>189.0</ele><time>2026-04-05T07:57:31.92Z</time></trkpt><trkpt lat="43.6901736" lon="12.6694403"><ele>190.75</ele><time>2026-04-05T07:57:32.92Z</time></trkpt><trkpt lat="43.6900951" lon="12.6696171"><ele>192.5</ele><time>2026-04-05T07:57:33.92Z</time></trkpt><trkpt lat="43.6900146" lon="12.6697774"><ele>194.25</ele><time>2026-04-05T07:57:34.92Z</time></trkpt><trkpt lat="43.6899444" lon="12.6698939"><ele>196.0</ele><time>2026-04-05T07:57:35.92Z</time></trkpt><trkpt lat="43.6898967" lon="12.6699741"><ele>195.99999999999997</ele><time>2026-04-05T07:57:36.92Z</time></trkpt><trkpt lat="43.6898322" lon="12.6700593"><ele>196.0</ele><time>2026-04-05T07:57:38.919Z</time></trkpt><trkpt lat="43.6897396" lon="12.6701334"><ele>196.0</ele><time>2026-04-05T07:57:40.92Z</time></trkpt><trkpt lat="43.6896805" lon="12.6701845"><ele>196.0</ele><time>2026-04-05T07:57:41.919Z</time></trkpt><trkpt lat="43.6896569" lon="12.6702663"><ele>195.99999999999997</ele><time>2026-04-05T07:57:42.92Z</time></trkpt><trkpt lat="43.6897098" lon="12.6704086"><ele>196.0</ele><time>2026-04-05T07:57:44.921Z</time></trkpt><trkpt lat="43.6897764" lon="12.6704376"><ele>196.4</ele><time>2026-04-05T07:57:45.921Z</time></trkpt><trkpt lat="43.6898631" lon="12.6704484"><ele>196.8</ele><time>2026-04-05T07:57:46.921Z</time></trkpt><trkpt lat="43.6899725" lon="12.6704446"><ele>197.20000000000002</ele><time>2026-04-05T07:57:47.919Z</time></trkpt><trkpt lat="43.6900944" lon="12.6704373"><ele>197.60000000000002</ele><time>2026-04-05T07:57:48.92Z</time></trkpt><trkpt lat="43.6902054" lon="12.6704491"><ele>198.0</ele><time>2026-04-05T07:57:49.919Z</time></trkpt><trkpt lat="43.6902986" lon="12.6704947"><ele>198.0</ele><time>2026-04-05T07:57:50.92Z</time></trkpt><trkpt lat="43.6903985" lon="12.6705668"><ele>198.0</ele><time>2026-04-05T07:57:51.92Z</time></trkpt><trkpt lat="43.6904997" lon="12.6706696"><ele>198.0</ele><time>2026-04-05T07:57:52.92Z</time></trkpt><trkpt lat="43.6905893" lon="12.6707929"><ele>198.0</ele><time>2026-04-05T07:57:53.92Z</time></trkpt><trkpt lat="43.6906607" lon="12.6709249"><ele>198.0</ele><time>2026-04-05T07:57:54.919Z</time></trkpt><trkpt lat="43.6907264" lon="12.6710792"><ele>198.0</ele><time>2026-04-05T07:57:55.92Z</time></trkpt><trkpt lat="43.6907869" lon="12.6712566"><ele>198.0</ele><time>2026-04-05T07:57:56.92Z</time></trkpt><trkpt lat="43.6908426" lon="12.6714606"><ele>198.0</ele><time>2026-04-05T07:57:57.92Z</time></trkpt><trkpt lat="43.6908966" lon="12.6716734"><ele>199.25</ele><time>2026-04-05T07:57:58.92Z</time></trkpt><trkpt lat="43.6909331" lon="12.6718542"><ele>200.5</ele><time>2026-04-05T07:57:59.92Z</time></trkpt><trkpt lat="43.6909627" lon="12.6720164"><ele>201.75</ele><time>2026-04-05T07:58:00.92Z</time></trkpt><trkpt lat="43.6909787" lon="12.6721804"><ele>203.0</ele><time>2026-04-05T07:58:01.919Z</time></trkpt><trkpt lat="43.6909723" lon="12.6723707"><ele>205.0</ele><time>2026-04-05T07:58:02.92Z</time></trkpt><trkpt lat="43.690948" lon="12.6725928"><ele>207.0</ele><time>2026-04-05T07:58:03.921Z</time></trkpt><trkpt lat="43.6909204" lon="12.6728147"><ele>209.0</ele><time>2026-04-05T07:58:04.92Z</time></trkpt><trkpt lat="43.6909092" lon="12.6730323"><ele>210.25</ele><time>2026-04-05T07:58:05.92Z</time></trkpt><trkpt lat="43.6909144" lon="12.6732526"><ele>211.5</ele><time>2026-04-05T07:58:06.92Z</time></trkpt><trkpt lat="43.690916" lon="12.6734398"><ele>212.75</ele><time>2026-04-05T07:58:07.919Z</time></trkpt><trkpt lat="43.6909058" lon="12.6736075"><ele>214.0</ele><time>2026-04-05T07:58:08.92Z</time></trkpt><trkpt lat="43.6908963" lon="12.6737894"><ele>214.6</ele><time>2026-04-05T07:58:09.92Z</time></trkpt><trkpt lat="43.6908929" lon="12.6739566"><ele>215.2</ele><time>2026-04-05T07:58:10.919Z</time></trkpt><trkpt lat="43.6908919" lon="12.6740895"><ele>215.79999999999998</ele><time>2026-04-05T07:58:11.919Z</time></trkpt><trkpt lat="43.6908888" lon="12.6741981"><ele>216.39999999999998</ele><time>2026-04-05T07:58:12.92Z</time></trkpt><trkpt lat="43.6908947" lon="12.6742949"><ele>217.0</ele><time>2026-04-05T07:58:13.92Z</time></trkpt><trkpt lat="43.6909325" lon="12.6744038"><ele>219.0</ele><time>2026-04-05T07:58:14.92Z</time></trkpt><trkpt lat="43.691003" lon="12.6745345"><ele>221.0</ele><time>2026-04-05T07:58:15.919Z</time></trkpt><trkpt lat="43.6910933" lon="12.6746825"><ele>223.0</ele><time>2026-04-05T07:58:16.921Z</time></trkpt><trkpt lat="43.6911756" lon="12.6748328"><ele>225.0</ele><time>2026-04-05T07:58:17.92Z</time></trkpt><trkpt lat="43.6912361" lon="12.6749601"><ele>222.0</ele><time>2026-04-05T07:58:18.92Z</time></trkpt><trkpt lat="43.6912916" lon="12.6750641"><ele>219.0</ele><time>2026-04-05T07:58:19.919Z</time></trkpt><trkpt lat="43.6913663" lon="12.6751456"><ele>216.0</ele><time>2026-04-05T07:58:20.92Z</time></trkpt><trkpt lat="43.6914635" lon="12.6752026"><ele>213.0</ele><time>2026-04-05T07:58:21.92Z</time></trkpt><trkpt lat="43.6915559" lon="12.6752488"><ele>210.0</ele><time>2026-04-05T07:58:22.92Z</time></trkpt><trkpt lat="43.6916285" lon="12.6752983"><ele>210.0</ele><time>2026-04-05T07:58:23.919Z</time></trkpt><trkpt lat="43.6917099" lon="12.6753341"><ele>210.0</ele><time>2026-04-05T07:58:24.92Z</time></trkpt><trkpt lat="43.6918164" lon="12.6753507"><ele>210.0</ele><time>2026-04-05T07:58:25.919Z</time></trkpt><trkpt lat="43.6919292" lon="12.6753518"><ele>210.0</ele><time>2026-04-05T07:58:26.92Z</time></trkpt><trkpt lat="43.692034" lon="12.6753343"><ele>210.0</ele><time>2026-04-05T07:58:27.919Z</time></trkpt><trkpt lat="43.6921333" lon="12.6753044"><ele>205.2</ele><time>2026-04-05T07:58:28.92Z</time></trkpt><trkpt lat="43.6922289" lon="12.6752682"><ele>200.4</ele><time>2026-04-05T07:58:29.92Z</time></trkpt><trkpt lat="43.6923196" lon="12.6752204"><ele>195.60000000000002</ele><time>2026-04-05T07:58:30.92Z</time></trkpt><trkpt lat="43.6924078" lon="12.6751652"><ele>190.8</ele><time>2026-04-05T07:58:31.92Z</time></trkpt><trkpt lat="43.6924947" lon="12.6751146"><ele>186.0</ele><time>2026-04-05T07:58:32.921Z</time></trkpt><trkpt lat="43.6925777" lon="12.6750621"><ele>186.0</ele><time>2026-04-05T07:58:33.92Z</time></trkpt><trkpt lat="43.6926569" lon="12.6750191"><ele>186.0</ele><time>2026-04-05T07:58:34.921Z</time></trkpt><trkpt lat="43.6927523" lon="12.6750036"><ele>186.0</ele><time>2026-04-05T07:58:35.92Z</time></trkpt><trkpt lat="43.6928576" lon="12.6750091"><ele>186.0</ele><time>2026-04-05T07:58:36.919Z</time></trkpt><trkpt lat="43.692956" lon="12.6750222"><ele>186.0</ele><time>2026-04-05T07:58:37.92Z</time></trkpt><trkpt lat="43.6930592" lon="12.6750635"><ele>186.25</ele><time>2026-04-05T07:58:38.92Z</time></trkpt><trkpt lat="43.6931603" lon="12.6751227"><ele>186.5</ele><time>2026-04-05T07:58:39.92Z</time></trkpt><trkpt lat="43.6932702" lon="12.675206"><ele>186.75</ele><time>2026-04-05T07:58:40.92Z</time></trkpt><trkpt lat="43.6934013" lon="12.6752977"><ele>187.0</ele><time>2026-04-05T07:58:41.92Z</time></trkpt><trkpt lat="43.6935278" lon="12.6753488"><ele>185.5</ele><time>2026-04-05T07:58:42.92Z</time></trkpt><trkpt lat="43.6936447" lon="12.6753773"><ele>184.0</ele><time>2026-04-05T07:58:43.919Z</time></trkpt><trkpt lat="43.6937517" lon="12.675425"><ele>182.5</ele><time>2026-04-05T07:58:44.92Z</time></trkpt><trkpt lat="43.6938481" lon="12.6755087"><ele>181.0</ele><time>2026-04-05T07:58:45.92Z</time></trkpt><trkpt lat="43.6939394" lon="12.6756059"><ele>181.0</ele><time>2026-04-05T07:58:46.919Z</time></trkpt><trkpt lat="43.6940335" lon="12.6757025"><ele>181.0</ele><time>2026-04-05T07:58:47.92Z</time></trkpt><trkpt lat="43.6941354" lon="12.6757507"><ele>181.0</ele><time>2026-04-05T07:58:48.92Z</time></trkpt><trkpt lat="43.6942314" lon="12.6757868"><ele>181.0</ele><time>2026-04-05T07:58:49.92Z</time></trkpt><trkpt lat="43.694376" lon="12.6757962"><ele>179.25</ele><time>2026-04-05T07:58:50.92Z</time></trkpt><trkpt lat="43.694489" lon="12.6758015"><ele>177.5</ele><time>2026-04-05T07:58:51.92Z</time></trkpt><trkpt lat="43.6946094" lon="12.6758209"><ele>175.75</ele><time>2026-04-05T07:58:52.92Z</time></trkpt><trkpt lat="43.6947294" lon="12.6758567"><ele>174.0</ele><time>2026-04-05T07:58:53.921Z</time></trkpt><trkpt lat="43.694854" lon="12.6759147"><ele>174.0</ele><time>2026-04-05T07:58:54.919Z</time></trkpt><trkpt lat="43.6949901" lon="12.6759819"><ele>174.0</ele><time>2026-04-05T07:58:55.92Z</time></trkpt><trkpt lat="43.6951041" lon="12.6760498"><ele>174.0</ele><time>2026-04-05T07:58:56.921Z</time></trkpt><trkpt lat="43.6952034" lon="12.6761177"><ele>174.0</ele><time>2026-04-05T07:58:57.92Z</time></trkpt><trkpt lat="43.6952739" lon="12.676192"><ele>173.79999999999998</ele><time>2026-04-05T07:58:58.92Z</time></trkpt><trkpt lat="43.69533" lon="12.6762811"><ele>173.6</ele><time>2026-04-05T07:58:59.919Z</time></trkpt><trkpt lat="43.695391" lon="12.6763948"><ele>173.4</ele><time>2026-04-05T07:59:00.92Z</time></trkpt><trkpt lat="43.6954605" lon="12.6765165"><ele>173.2</ele><time>2026-04-05T07:59:01.92Z</time></trkpt><trkpt lat="43.6955369" lon="12.6766105"><ele>173.0</ele><time>2026-04-05T07:59:02.92Z</time></trkpt><trkpt lat="43.6956206" lon="12.6766851"><ele>173.0</ele><time>2026-04-05T07:59:03.92Z</time></trkpt><trkpt lat="43.6957048" lon="12.6767545"><ele>173.0</ele><time>2026-04-05T07:59:04.92Z</time></trkpt><trkpt lat="43.6957919" lon="12.6768134"><ele>173.0</ele><time>2026-04-05T07:59:05.92Z</time></trkpt><trkpt lat="43.6958749" lon="12.676858"><ele>173.0</ele><time>2026-04-05T07:59:06.92Z</time></trkpt><trkpt lat="43.6959505" lon="12.6768866"><ele>173.0</ele><time>2026-04-05T07:59:07.92Z</time></trkpt><trkpt lat="43.6960138" lon="12.6768747"><ele>173.0</ele><time>2026-04-05T07:59:08.92Z</time></trkpt><trkpt lat="43.6960803" lon="12.6767741"><ele>170.8</ele><time>2026-04-05T07:59:10.92Z</time></trkpt><trkpt lat="43.6961041" lon="12.6766201"><ele>168.60000000000002</ele><time>2026-04-05T07:59:12.921Z</time></trkpt><trkpt lat="43.6961927" lon="12.6765195"><ele>166.39999999999998</ele><time>2026-04-05T07:59:14.919Z</time></trkpt><trkpt lat="43.6962917" lon="12.6765188"><ele>164.2</ele><time>2026-04-05T07:59:16.921Z</time></trkpt><trkpt lat="43.6963403" lon="12.676593"><ele>162.0</ele><time>2026-04-05T07:59:17.92Z</time></trkpt><trkpt lat="43.6963842" lon="12.6766994"><ele>162.0</ele><time>2026-04-05T07:59:18.92Z</time></trkpt><trkpt lat="43.6964351" lon="12.676784"><ele>162.0</ele><time>2026-04-05T07:59:19.92Z</time></trkpt><trkpt lat="43.6965072" lon="12.6768284"><ele>162.0</ele><time>2026-04-05T07:59:20.92Z</time></trkpt><trkpt lat="43.6965966" lon="12.6768229"><ele>162.0</ele><time>2026-04-05T07:59:21.92Z</time></trkpt><trkpt lat="43.6967027" lon="12.6767755"><ele>162.0</ele><time>2026-04-05T07:59:22.919Z</time></trkpt><trkpt lat="43.6968061" lon="12.6767259"><ele>162.0</ele><time>2026-04-05T07:59:23.92Z</time></trkpt><trkpt lat="43.6968943" lon="12.6766969"><ele>162.0</ele><time>2026-04-05T07:59:24.919Z</time></trkpt><trkpt lat="43.6969707" lon="12.676692"><ele>162.0</ele><time>2026-04-05T07:59:25.92Z</time></trkpt><trkpt lat="43.6970362" lon="12.67673"><ele>162.0</ele><time>2026-04-05T07:59:26.92Z</time></trkpt><trkpt lat="43.697097" lon="12.6768152"><ele>162.0</ele><time>2026-04-05T07:59:27.919Z</time></trkpt><trkpt lat="43.6971637" lon="12.6769219"><ele>162.0</ele><time>2026-04-05T07:59:28.92Z</time></trkpt><trkpt lat="43.6972391" lon="12.6770398"><ele>162.6</ele><time>2026-04-05T07:59:29.92Z</time></trkpt><trkpt lat="43.6972981" lon="12.6771362"><ele>163.2</ele><time>2026-04-05T07:59:30.92Z</time></trkpt><trkpt lat="43.6973504" lon="12.6772142"><ele>163.8</ele><time>2026-04-05T07:59:31.92Z</time></trkpt><trkpt lat="43.6974491" lon="12.6773484"><ele>164.4</ele><time>2026-04-05T07:59:33.921Z</time></trkpt><trkpt lat="43.6975102" lon="12.6774521"><ele>165.0</ele><time>2026-04-05T07:59:34.919Z</time></trkpt><trkpt lat="43.697589" lon="12.6775692"><ele>165.0</ele><time>2026-04-05T07:59:35.92Z</time></trkpt><trkpt lat="43.6976873" lon="12.6776594"><ele>165.0</ele><time>2026-04-05T07:59:36.921Z</time></trkpt><trkpt lat="43.6978077" lon="12.6777332"><ele>165.0</ele><time>2026-04-05T07:59:37.92Z</time></trkpt><trkpt lat="43.6979424" lon="12.6778037"><ele>165.0</ele><time>2026-04-05T07:59:38.92Z</time></trkpt><trkpt lat="43.6980885" lon="12.6778718"><ele>163.66666666666666</ele><time>2026-04-05T07:59:39.92Z</time></trkpt><trkpt lat="43.6982448" lon="12.6779352"><ele>162.33333333333331</ele><time>2026-04-05T07:59:40.92Z</time></trkpt><trkpt lat="43.6984067" lon="12.678003"><ele>161.0</ele><time>2026-04-05T07:59:41.92Z</time></trkpt><trkpt lat="43.698571" lon="12.6780765"><ele>164.66666666666666</ele><time>2026-04-05T07:59:42.921Z</time></trkpt><trkpt lat="43.6987403" lon="12.6781533"><ele>168.33333333333334</ele><time>2026-04-05T07:59:43.919Z</time></trkpt><trkpt lat="43.6989117" lon="12.6782258"><ele>172.0</ele><time>2026-04-05T07:59:44.92Z</time></trkpt><trkpt lat="43.6990653" lon="12.6782868"><ele>172.0</ele><time>2026-04-05T07:59:45.92Z</time></trkpt><trkpt lat="43.6992103" lon="12.6783493"><ele>172.0</ele><time>2026-04-05T07:59:46.92Z</time></trkpt><trkpt lat="43.6993554" lon="12.6784304"><ele>172.0</ele><time>2026-04-05T07:59:47.921Z</time></trkpt><trkpt lat="43.6994998" lon="12.6785385"><ele>170.66666666666669</ele><time>2026-04-05T07:59:48.92Z</time></trkpt><trkpt lat="43.6996447" lon="12.6786631"><ele>169.33333333333334</ele><time>2026-04-05T07:59:49.92Z</time></trkpt><trkpt lat="43.6997941" lon="12.6787995"><ele>168.0</ele><time>2026-04-05T07:59:50.92Z</time></trkpt><trkpt lat="43.6999363" lon="12.6789508"><ele>168.0</ele><time>2026-04-05T07:59:51.92Z</time></trkpt><trkpt lat="43.7000596" lon="12.6791261"><ele>168.0</ele><time>2026-04-05T07:59:52.919Z</time></trkpt><trkpt lat="43.7001614" lon="12.679316"><ele>168.0</ele><time>2026-04-05T07:59:53.92Z</time></trkpt><trkpt lat="43.7002456" lon="12.679509"><ele>167.0</ele><time>2026-04-05T07:59:54.92Z</time></trkpt><trkpt lat="43.7003358" lon="12.6796938"><ele>166.0</ele><time>2026-04-05T07:59:55.919Z</time></trkpt><trkpt lat="43.7004416" lon="12.6798559"><ele>165.0</ele><time>2026-04-05T07:59:56.92Z</time></trkpt><trkpt lat="43.7005674" lon="12.6799965"><ele>165.0</ele><time>2026-04-05T07:59:57.92Z</time></trkpt><trkpt lat="43.7007111" lon="12.6801112"><ele>165.0</ele><time>2026-04-05T07:59:58.92Z</time></trkpt><trkpt lat="43.7008501" lon="12.6802003"><ele>165.0</ele><time>2026-04-05T07:59:59.92Z</time></trkpt><trkpt lat="43.7009768" lon="12.6802761"><ele>166.5</ele><time>2026-04-05T08:00:00.92Z</time></trkpt><trkpt lat="43.7010875" lon="12.6803533"><ele>168.0</ele><time>2026-04-05T08:00:01.92Z</time></trkpt><trkpt lat="43.7011788" lon="12.6804419"><ele>169.5</ele><time>2026-04-05T08:00:02.919Z</time></trkpt><trkpt lat="43.701246" lon="12.680558"><ele>171.0</ele><time>2026-04-05T08:00:03.92Z</time></trkpt><trkpt lat="43.7012916" lon="12.6807073"><ele>171.0</ele><time>2026-04-05T08:00:04.919Z</time></trkpt><trkpt lat="43.7013287" lon="12.6808769"><ele>171.0</ele><time>2026-04-05T08:00:05.92Z</time></trkpt><trkpt lat="43.7013653" lon="12.6810608"><ele>171.0</ele><time>2026-04-05T08:00:06.92Z</time></trkpt><trkpt lat="43.7014057" lon="12.6812542"><ele>171.0</ele><time>2026-04-05T08:00:07.92Z</time></trkpt><trkpt lat="43.7014456" lon="12.6814574"><ele>170.0</ele><time>2026-04-05T08:00:08.92Z</time></trkpt><trkpt lat="43.7014864" lon="12.6816675"><ele>169.0</ele><time>2026-04-05T08:00:09.92Z</time></trkpt><trkpt lat="43.7015307" lon="12.6818828"><ele>168.0</ele><time>2026-04-05T08:00:10.92Z</time></trkpt><trkpt lat="43.701576" lon="12.682101"><ele>167.25</ele><time>2026-04-05T08:00:11.92Z</time></trkpt><trkpt lat="43.7016146" lon="12.6823094"><ele>166.5</ele><time>2026-04-05T08:00:12.92Z</time></trkpt><trkpt lat="43.701649" lon="12.6824953"><ele>165.75</ele><time>2026-04-05T08:00:13.92Z</time></trkpt><trkpt lat="43.7016789" lon="12.6826635"><ele>165.0</ele><time>2026-04-05T08:00:14.92Z</time></trkpt><trkpt lat="43.7017038" lon="12.682818"><ele>165.0</ele><time>2026-04-05T08:00:15.919Z</time></trkpt><trkpt lat="43.7017272" lon="12.68296"><ele>165.0</ele><time>2026-04-05T08:00:16.92Z</time></trkpt><trkpt lat="43.7017485" lon="12.683091"><ele>165.0</ele><time>2026-04-05T08:00:17.92Z</time></trkpt><trkpt lat="43.7017757" lon="12.6832074"><ele>165.0</ele><time>2026-04-05T08:00:18.92Z</time></trkpt><trkpt lat="43.7018068" lon="12.6833066"><ele>165.0</ele><time>2026-04-05T08:00:19.92Z</time></trkpt><trkpt lat="43.701832" lon="12.6833916"><ele>165.0</ele><time>2026-04-05T08:00:20.919Z</time></trkpt><trkpt lat="43.7018737" lon="12.6835062"><ele>167.16666666666666</ele><time>2026-04-05T08:00:22.92Z</time></trkpt><trkpt lat="43.7019565" lon="12.6834964"><ele>169.33333333333334</ele><time>2026-04-05T08:00:24.92Z</time></trkpt><trkpt lat="43.7019938" lon="12.683422"><ele>171.5</ele><time>2026-04-05T08:00:25.919Z</time></trkpt><trkpt lat="43.7020201" lon="12.6833059"><ele>173.66666666666669</ele><time>2026-04-05T08:00:26.92Z</time></trkpt><trkpt lat="43.7020506" lon="12.6831759"><ele>175.83333333333334</ele><time>2026-04-05T08:00:27.92Z</time></trkpt><trkpt lat="43.7020873" lon="12.6830293"><ele>178.0</ele><time>2026-04-05T08:00:28.92Z</time></trkpt><trkpt lat="43.7021199" lon="12.6828765"><ele>178.25</ele><time>2026-04-05T08:00:29.921Z</time></trkpt><trkpt lat="43.7021695" lon="12.6827272"><ele>178.5</ele><time>2026-04-05T08:00:30.92Z</time></trkpt><trkpt lat="43.7022044" lon="12.6825699"><ele>178.75</ele><time>2026-04-05T08:00:31.919Z</time></trkpt><trkpt lat="43.7022413" lon="12.6823976"><ele>179.0</ele><time>2026-04-05T08:00:32.921Z</time></trkpt><trkpt lat="43.7022841" lon="12.6822056"><ele>179.0</ele><time>2026-04-05T08:00:33.92Z</time></trkpt><trkpt lat="43.7023364" lon="12.6820067"><ele>179.0</ele><time>2026-04-05T08:00:34.92Z</time></trkpt><trkpt lat="43.7024007" lon="12.6818121"><ele>179.0</ele><time>2026-04-05T08:00:35.92Z</time></trkpt><trkpt lat="43.7024709" lon="12.6816271"><ele>180.5</ele><time>2026-04-05T08:00:36.92Z</time></trkpt><trkpt lat="43.7025345" lon="12.6814573"><ele>182.0</ele><time>2026-04-05T08:00:37.92Z</time></trkpt><trkpt lat="43.7025838" lon="12.6813073"><ele>183.5</ele><time>2026-04-05T08:00:38.92Z</time></trkpt><trkpt lat="43.7026431" lon="12.6811795"><ele>185.0</ele><time>2026-04-05T08:00:39.919Z</time></trkpt><trkpt lat="43.7027286" lon="12.6810641"><ele>187.0</ele><time>2026-04-05T08:00:40.92Z</time></trkpt><trkpt lat="43.7028217" lon="12.6809549"><ele>189.0</ele><time>2026-04-05T08:00:41.921Z</time></trkpt><trkpt lat="43.7029154" lon="12.6808651"><ele>191.0</ele><time>2026-04-05T08:00:42.92Z</time></trkpt><trkpt lat="43.7030213" lon="12.6808152"><ele>193.0</ele><time>2026-04-05T08:00:43.92Z</time></trkpt><trkpt lat="43.7031374" lon="12.6807961"><ele>193.0</ele><time>2026-04-05T08:00:44.919Z</time></trkpt><trkpt lat="43.7032602" lon="12.6807719"><ele>193.0</ele><time>2026-04-05T08:00:45.919Z</time></trkpt><trkpt lat="43.7033899" lon="12.6807319"><ele>193.0</ele><time>2026-04-05T08:00:46.919Z</time></trkpt><trkpt lat="43.7035265" lon="12.6806894"><ele>193.0</ele><time>2026-04-05T08:00:47.919Z</time></trkpt><trkpt lat="43.7036724" lon="12.6806562"><ele>193.66666666666666</ele><time>2026-04-05T08:00:48.92Z</time></trkpt><trkpt lat="43.7038266" lon="12.680632"><ele>194.33333333333331</ele><time>2026-04-05T08:00:49.92Z</time></trkpt><trkpt lat="43.7039915" lon="12.6806092"><ele>195.0</ele><time>2026-04-05T08:00:50.92Z</time></trkpt><trkpt lat="43.7041658" lon="12.6805952"><ele>195.0</ele><time>2026-04-05T08:00:51.92Z</time></trkpt><trkpt lat="43.7043324" lon="12.6805934"><ele>195.0</ele><time>2026-04-05T08:00:52.92Z</time></trkpt><trkpt lat="43.7044786" lon="12.6805963"><ele>195.0</ele><time>2026-04-05T08:00:53.92Z</time></trkpt><trkpt lat="43.7046227" lon="12.6806003"><ele>196.75</ele><time>2026-04-05T08:00:54.921Z</time></trkpt><trkpt lat="43.7047648" lon="12.6806017"><ele>198.5</ele><time>2026-04-05T08:00:55.92Z</time></trkpt><trkpt lat="43.7049064" lon="12.6805807"><ele>200.25</ele><time>2026-04-05T08:00:56.92Z</time></trkpt><trkpt lat="43.7050482" lon="12.6805394"><ele>202.0</ele><time>2026-04-05T08:00:57.92Z</time></trkpt><trkpt lat="43.7051971" lon="12.6804997"><ele>206.0</ele><time>2026-04-05T08:00:58.92Z</time></trkpt><trkpt lat="43.7053512" lon="12.6804585"><ele>210.0</ele><time>2026-04-05T08:00:59.92Z</time></trkpt><trkpt lat="43.7055077" lon="12.6804098"><ele>214.0</ele><time>2026-04-05T08:01:00.92Z</time></trkpt><trkpt lat="43.7056636" lon="12.6803498"><ele>214.0</ele><time>2026-04-05T08:01:01.92Z</time></trkpt><trkpt lat="43.7058143" lon="12.6802732"><ele>214.0</ele><time>2026-04-05T08:01:02.921Z</time></trkpt><trkpt lat="43.7059725" lon="12.6801842"><ele>214.0</ele><time>2026-04-05T08:01:03.92Z</time></trkpt><trkpt lat="43.706126" lon="12.6800888"><ele>214.33333333333331</ele><time>2026-04-05T08:01:04.919Z</time></trkpt><trkpt lat="43.7062815" lon="12.679987"><ele>214.66666666666669</ele><time>2026-04-05T08:01:05.92Z</time></trkpt><trkpt lat="43.7064429" lon="12.679898"><ele>215.0</ele><time>2026-04-05T08:01:06.919Z</time></trkpt><trkpt lat="43.7066049" lon="12.6798142"><ele>215.0</ele><time>2026-04-05T08:01:07.92Z</time></trkpt><trkpt lat="43.7067602" lon="12.6797128"><ele>215.0</ele><time>2026-04-05T08:01:08.92Z</time></trkpt><trkpt lat="43.7069048" lon="12.6796202"><ele>215.0</ele><time>2026-04-05T08:01:09.92Z</time></trkpt><trkpt lat="43.7070414" lon="12.6795475"><ele>214.0</ele><time>2026-04-05T08:01:10.92Z</time></trkpt><trkpt lat="43.7071733" lon="12.6794726"><ele>213.0</ele><time>2026-04-05T08:01:11.92Z</time></trkpt><trkpt lat="43.7072933" lon="12.6794047"><ele>212.0</ele><time>2026-04-05T08:01:12.92Z</time></trkpt><trkpt lat="43.707402" lon="12.6793573"><ele>211.0</ele><time>2026-04-05T08:01:13.919Z</time></trkpt><trkpt lat="43.7075063" lon="12.6793044"><ele>211.0</ele><time>2026-04-05T08:01:14.92Z</time></trkpt><trkpt lat="43.7076212" lon="12.6793521"><ele>211.0</ele><time>2026-04-05T08:01:15.92Z</time></trkpt><trkpt lat="43.7077323" lon="12.679384"><ele>211.0</ele><time>2026-04-05T08:01:16.92Z</time></trkpt><trkpt lat="43.7078562" lon="12.6793923"><ele>211.0</ele><time>2026-04-05T08:01:17.92Z</time></trkpt><trkpt lat="43.7079851" lon="12.6793841"><ele>214.0</ele><time>2026-04-05T08:01:18.92Z</time></trkpt><trkpt lat="43.7081048" lon="12.6793304"><ele>217.0</ele><time>2026-04-05T08:01:19.92Z</time></trkpt><trkpt lat="43.7082312" lon="12.6792579"><ele>220.0</ele><time>2026-04-05T08:01:20.919Z</time></trkpt><trkpt lat="43.7083477" lon="12.6791974"><ele>223.0</ele><time>2026-04-05T08:01:21.92Z</time></trkpt><trkpt lat="43.7084597" lon="12.6791702"><ele>223.0</ele><time>2026-04-05T08:01:22.92Z</time></trkpt><trkpt lat="43.7085626" lon="12.6791797"><ele>223.0</ele><time>2026-04-05T08:01:23.92Z</time></trkpt><trkpt lat="43.7086696" lon="12.6791965"><ele>223.0</ele><time>2026-04-05T08:01:24.919Z</time></trkpt><trkpt lat="43.7087749" lon="12.6792158"><ele>223.0</ele><time>2026-04-05T08:01:25.92Z</time></trkpt><trkpt lat="43.7088717" lon="12.6792191"><ele>223.0</ele><time>2026-04-05T08:01:26.92Z</time></trkpt><trkpt lat="43.7089685" lon="12.6791833"><ele>225.8</ele><time>2026-04-05T08:01:27.92Z</time></trkpt><trkpt lat="43.7090581" lon="12.6791066"><ele>228.60000000000002</ele><time>2026-04-05T08:01:28.92Z</time></trkpt><trkpt lat="43.7091414" lon="12.6790116"><ele>231.39999999999998</ele><time>2026-04-05T08:01:29.92Z</time></trkpt><trkpt lat="43.7092269" lon="12.6789224"><ele>234.2</ele><time>2026-04-05T08:01:30.92Z</time></trkpt><trkpt lat="43.7093128" lon="12.6788327"><ele>237.0</ele><time>2026-04-05T08:01:31.92Z</time></trkpt><trkpt lat="43.709393" lon="12.6787415"><ele>237.2</ele><time>2026-04-05T08:01:32.92Z</time></trkpt><trkpt lat="43.7094756" lon="12.678662"><ele>237.39999999999998</ele><time>2026-04-05T08:01:33.921Z</time></trkpt><trkpt lat="43.7095542" lon="12.6786144"><ele>237.60000000000002</ele><time>2026-04-05T08:01:34.921Z</time></trkpt><trkpt lat="43.7096393" lon="12.6785992"><ele>237.8</ele><time>2026-04-05T08:01:35.92Z</time></trkpt><trkpt lat="43.7097307" lon="12.6786137"><ele>238.0</ele><time>2026-04-05T08:01:36.92Z</time></trkpt><trkpt lat="43.709823" lon="12.678611"><ele>238.0</ele><time>2026-04-05T08:01:37.92Z</time></trkpt><trkpt lat="43.7099152" lon="12.6785621"><ele>238.0</ele><time>2026-04-05T08:01:38.92Z</time></trkpt><trkpt lat="43.7100079" lon="12.6784847"><ele>238.0</ele><time>2026-04-05T08:01:39.92Z</time></trkpt><trkpt lat="43.7101025" lon="12.6783945"><ele>238.0</ele><time>2026-04-05T08:01:40.92Z</time></trkpt><trkpt lat="43.7102002" lon="12.6782955"><ele>238.0</ele><time>2026-04-05T08:01:41.921Z</time></trkpt><trkpt lat="43.7103007" lon="12.6781835"><ele>241.5</ele><time>2026-04-05T08:01:42.919Z</time></trkpt><trkpt lat="43.7104082" lon="12.6780702"><ele>245.0</ele><time>2026-04-05T08:01:43.92Z</time></trkpt><trkpt lat="43.7105181" lon="12.6779627"><ele>248.5</ele><time>2026-04-05T08:01:44.92Z</time></trkpt><trkpt lat="43.7106165" lon="12.6778666"><ele>252.0</ele><time>2026-04-05T08:01:45.92Z</time></trkpt><trkpt lat="43.7107122" lon="12.6777917"><ele>251.2</ele><time>2026-04-05T08:01:46.92Z</time></trkpt><trkpt lat="43.710817" lon="12.6777356"><ele>250.39999999999998</ele><time>2026-04-05T08:01:47.92Z</time></trkpt><trkpt lat="43.7109223" lon="12.6776753"><ele>249.60000000000002</ele><time>2026-04-05T08:01:48.92Z</time></trkpt><trkpt lat="43.7110189" lon="12.6776042"><ele>248.8</ele><time>2026-04-05T08:01:49.92Z</time></trkpt><trkpt lat="43.7111154" lon="12.6775322"><ele>248.0</ele><time>2026-04-05T08:01:50.92Z</time></trkpt><trkpt lat="43.711213" lon="12.6774537"><ele>248.0</ele><time>2026-04-05T08:01:51.92Z</time></trkpt><trkpt lat="43.7113099" lon="12.677358"><ele>248.0</ele><time>2026-04-05T08:01:52.919Z</time></trkpt><trkpt lat="43.7113974" lon="12.6772443"><ele>248.0</ele><time>2026-04-05T08:01:53.919Z</time></trkpt><trkpt lat="43.7114891" lon="12.6771304"><ele>248.0</ele><time>2026-04-05T08:01:54.92Z</time></trkpt><trkpt lat="43.7115797" lon="12.6770281"><ele>248.0</ele><time>2026-04-05T08:01:55.921Z</time></trkpt><trkpt lat="43.7116736" lon="12.6769372"><ele>248.0</ele><time>2026-04-05T08:01:56.92Z</time></trkpt><trkpt lat="43.7117739" lon="12.6768705"><ele>248.0</ele><time>2026-04-05T08:01:57.919Z</time></trkpt><trkpt lat="43.7118625" lon="12.6768047"><ele>248.0</ele><time>2026-04-05T08:01:58.92Z</time></trkpt><trkpt lat="43.7119393" lon="12.6767062"><ele>248.0</ele><time>2026-04-05T08:01:59.92Z</time></trkpt><trkpt lat="43.7120132" lon="12.6766074"><ele>247.2</ele><time>2026-04-05T08:02:00.919Z</time></trkpt><trkpt lat="43.712056" lon="12.6764825"><ele>246.4</ele><time>2026-04-05T08:02:01.92Z</time></trkpt><trkpt lat="43.7121158" lon="12.6763678"><ele>245.59999999999997</ele><time>2026-04-05T08:02:02.919Z</time></trkpt><trkpt lat="43.7121775" lon="12.6762541"><ele>244.79999999999998</ele><time>2026-04-05T08:02:03.921Z</time></trkpt><trkpt lat="43.7122416" lon="12.6761345"><ele>244.0</ele><time>2026-04-05T08:02:04.919Z</time></trkpt><trkpt lat="43.71231" lon="12.6760207"><ele>244.79999999999998</ele><time>2026-04-05T08:02:05.921Z</time></trkpt><trkpt lat="43.7124149" lon="12.6759256"><ele>245.59999999999997</ele><time>2026-04-05T08:02:06.92Z</time></trkpt><trkpt lat="43.7125078" lon="12.6758405"><ele>246.4</ele><time>2026-04-05T08:02:07.92Z</time></trkpt><trkpt lat="43.71259" lon="12.6757732"><ele>247.2</ele><time>2026-04-05T08:02:08.92Z</time></trkpt><trkpt lat="43.7126633" lon="12.6757167"><ele>248.0</ele><time>2026-04-05T08:02:09.92Z</time></trkpt><trkpt lat="43.7127424" lon="12.675679"><ele>248.0</ele><time>2026-04-05T08:02:10.92Z</time></trkpt><trkpt lat="43.7128228" lon="12.6756603"><ele>248.0</ele><time>2026-04-05T08:02:11.919Z</time></trkpt><trkpt lat="43.7129062" lon="12.6756819"><ele>248.0</ele><time>2026-04-05T08:02:12.92Z</time></trkpt><trkpt lat="43.7129977" lon="12.675714"><ele>248.0</ele><time>2026-04-05T08:02:13.92Z</time></trkpt><trkpt lat="43.7130953" lon="12.6757279"><ele>248.0</ele><time>2026-04-05T08:02:14.92Z</time></trkpt><trkpt lat="43.7132068" lon="12.6757066"><ele>248.0</ele><time>2026-04-05T08:02:15.919Z</time></trkpt><trkpt lat="43.7133257" lon="12.6756566"><ele>248.0</ele><time>2026-04-05T08:02:16.92Z</time></trkpt><trkpt lat="43.7134294" lon="12.675568"><ele>248.0</ele><time>2026-04-05T08:02:17.92Z</time></trkpt><trkpt lat="43.7135198" lon="12.6754652"><ele>248.0</ele><time>2026-04-05T08:02:18.919Z</time></trkpt><trkpt lat="43.7136142" lon="12.6753781"><ele>252.0</ele><time>2026-04-05T08:02:19.921Z</time></trkpt><trkpt lat="43.7137193" lon="12.6753286"><ele>256.0</ele><time>2026-04-05T08:02:20.919Z</time></trkpt><trkpt lat="43.7138287" lon="12.6752874"><ele>260.0</ele><time>2026-04-05T08:02:21.92Z</time></trkpt><trkpt lat="43.7139889" lon="12.6752666"><ele>264.0</ele><time>2026-04-05T08:02:22.92Z</time></trkpt><trkpt lat="43.7141357" lon="12.6752433"><ele>258.25</ele><time>2026-04-05T08:02:23.919Z</time></trkpt><trkpt lat="43.7142722" lon="12.675246"><ele>252.5</ele><time>2026-04-05T08:02:24.92Z</time></trkpt><trkpt lat="43.7144007" lon="12.6752428"><ele>246.75</ele><time>2026-04-05T08:02:25.92Z</time></trkpt><trkpt lat="43.7145201" lon="12.6752293"><ele>241.0</ele><time>2026-04-05T08:02:26.92Z</time></trkpt><trkpt lat="43.71463" lon="12.6752113"><ele>241.0</ele><time>2026-04-05T08:02:27.919Z</time></trkpt><trkpt lat="43.7147343" lon="12.6751926"><ele>241.00000000000003</ele><time>2026-04-05T08:02:28.921Z</time></trkpt><trkpt lat="43.7148293" lon="12.6751712"><ele>241.00000000000003</ele><time>2026-04-05T08:02:29.92Z</time></trkpt><trkpt lat="43.714914" lon="12.6751355"><ele>241.0</ele><time>2026-04-05T08:02:30.919Z</time></trkpt><trkpt lat="43.7149971" lon="12.6750836"><ele>241.0</ele><time>2026-04-05T08:02:31.919Z</time></trkpt><trkpt lat="43.7150664" lon="12.6750225"><ele>241.0</ele><time>2026-04-05T08:02:32.919Z</time></trkpt><trkpt lat="43.715104" lon="12.674944"><ele>241.00000000000003</ele><time>2026-04-05T08:02:33.919Z</time></trkpt><trkpt lat="43.7150743" lon="12.6747703"><ele>241.00000000000003</ele><time>2026-04-05T08:02:35.919Z</time></trkpt><trkpt lat="43.715008" lon="12.6747004"><ele>241.0</ele><time>2026-04-05T08:02:36.918Z</time></trkpt><trkpt lat="43.7149295" lon="12.6746292"><ele>241.0</ele><time>2026-04-05T08:02:37.92Z</time></trkpt><trkpt lat="43.7148855" lon="12.6745335"><ele>243.20000000000002</ele><time>2026-04-05T08:02:38.919Z</time></trkpt><trkpt lat="43.7148696" lon="12.674415"><ele>245.40000000000003</ele><time>2026-04-05T08:02:39.919Z</time></trkpt><trkpt lat="43.7148666" lon="12.6742777"><ele>247.6</ele><time>2026-04-05T08:02:40.919Z</time></trkpt><trkpt lat="43.7148724" lon="12.674122"><ele>249.8</ele><time>2026-04-05T08:02:41.918Z</time></trkpt><trkpt lat="43.7148852" lon="12.6739668"><ele>252.0</ele><time>2026-04-05T08:02:42.918Z</time></trkpt><trkpt lat="43.7149024" lon="12.6738135"><ele>252.0</ele><time>2026-04-05T08:02:43.919Z</time></trkpt><trkpt lat="43.7149016" lon="12.6736579"><ele>252.0</ele><time>2026-04-05T08:02:44.919Z</time></trkpt><trkpt lat="43.7148647" lon="12.6735072"><ele>252.0</ele><time>2026-04-05T08:02:45.919Z</time></trkpt><trkpt lat="43.7148176" lon="12.6733626"><ele>252.0</ele><time>2026-04-05T08:02:46.918Z</time></trkpt><trkpt lat="43.7147798" lon="12.6732104"><ele>256.25</ele><time>2026-04-05T08:02:47.92Z</time></trkpt><trkpt lat="43.7147636" lon="12.6730549"><ele>260.5</ele><time>2026-04-05T08:02:48.919Z</time></trkpt><trkpt lat="43.7147609" lon="12.6728935"><ele>264.75</ele><time>2026-04-05T08:02:49.919Z</time></trkpt><trkpt lat="43.7147893" lon="12.6727608"><ele>269.0</ele><time>2026-04-05T08:02:50.919Z</time></trkpt><trkpt lat="43.7148514" lon="12.6726014"><ele>271.25</ele><time>2026-04-05T08:02:51.919Z</time></trkpt><trkpt lat="43.7149012" lon="12.6724407"><ele>273.5</ele><time>2026-04-05T08:02:52.919Z</time></trkpt><trkpt lat="43.7149632" lon="12.6722744"><ele>275.75</ele><time>2026-04-05T08:02:53.92Z</time></trkpt><trkpt lat="43.7150262" lon="12.6721011"><ele>278.0</ele><time>2026-04-05T08:02:54.919Z</time></trkpt><trkpt lat="43.7150874" lon="12.6719217"><ele>278.4</ele><time>2026-04-05T08:02:55.919Z</time></trkpt><trkpt lat="43.7151434" lon="12.6717572"><ele>278.8</ele><time>2026-04-05T08:02:56.919Z</time></trkpt><trkpt lat="43.7151889" lon="12.6716211"><ele>279.2</ele><time>2026-04-05T08:02:57.919Z</time></trkpt><trkpt lat="43.7152276" lon="12.6714927"><ele>279.6</ele><time>2026-04-05T08:02:58.919Z</time></trkpt><trkpt lat="43.7152669" lon="12.6713546"><ele>280.0</ele><time>2026-04-05T08:02:59.919Z</time></trkpt><trkpt lat="43.7153088" lon="12.6712095"><ele>280.75</ele><time>2026-04-05T08:03:00.919Z</time></trkpt><trkpt lat="43.7153249" lon="12.671053"><ele>281.5</ele><time>2026-04-05T08:03:01.918Z</time></trkpt><trkpt lat="43.715301" lon="12.6708837"><ele>282.25</ele><time>2026-04-05T08:03:02.919Z</time></trkpt><trkpt lat="43.7152595" lon="12.6707114"><ele>283.0</ele><time>2026-04-05T08:03:03.919Z</time></trkpt><trkpt lat="43.7152001" lon="12.6705504"><ele>283.0</ele><time>2026-04-05T08:03:04.919Z</time></trkpt><trkpt lat="43.7151636" lon="12.6703977"><ele>283.0</ele><time>2026-04-05T08:03:05.92Z</time></trkpt><trkpt lat="43.7151513" lon="12.6702779"><ele>283.0</ele><time>2026-04-05T08:03:06.918Z</time></trkpt><trkpt lat="43.7151638" lon="12.6701349"><ele>283.0</ele><time>2026-04-05T08:03:08.919Z</time></trkpt><trkpt lat="43.7152169" lon="12.6701933"><ele>283.0</ele><time>2026-04-05T08:03:09.919Z</time></trkpt><trkpt lat="43.7152962" lon="12.6702959"><ele>287.16666666666663</ele><time>2026-04-05T08:03:11.919Z</time></trkpt><trkpt lat="43.7154006" lon="12.6702508"><ele>291.3333333333333</ele><time>2026-04-05T08:03:13.919Z</time></trkpt><trkpt lat="43.7154178" lon="12.6701668"><ele>295.5</ele><time>2026-04-05T08:03:14.919Z</time></trkpt><trkpt lat="43.7153965" lon="12.6700593"><ele>299.6666666666667</ele><time>2026-04-05T08:03:15.919Z</time></trkpt><trkpt lat="43.7153519" lon="12.6699423"><ele>303.83333333333337</ele><time>2026-04-05T08:03:16.919Z</time></trkpt><trkpt lat="43.7153183" lon="12.6698398"><ele>308.0</ele><time>2026-04-05T08:03:17.919Z</time></trkpt><trkpt lat="43.7152969" lon="12.6697355"><ele>308.0</ele><time>2026-04-05T08:03:18.919Z</time></trkpt><trkpt lat="43.715365" lon="12.6696223"><ele>308.0</ele><time>2026-04-05T08:03:19.919Z</time></trkpt><trkpt lat="43.715429" lon="12.6695384"><ele>308.0</ele><time>2026-04-05T08:03:20.919Z</time></trkpt><trkpt lat="43.7155151" lon="12.6694471"><ele>308.0</ele><time>2026-04-05T08:03:21.919Z</time></trkpt><trkpt lat="43.715623" lon="12.6693541"><ele>308.0</ele><time>2026-04-05T08:03:22.918Z</time></trkpt><trkpt lat="43.7157377" lon="12.669266"><ele>308.5</ele><time>2026-04-05T08:03:23.919Z</time></trkpt><trkpt lat="43.7158576" lon="12.6691588"><ele>309.0</ele><time>2026-04-05T08:03:24.92Z</time></trkpt><trkpt lat="43.7159621" lon="12.6690653"><ele>309.5</ele><time>2026-04-05T08:03:25.919Z</time></trkpt><trkpt lat="43.7160584" lon="12.6689792"><ele>310.0</ele><time>2026-04-05T08:03:26.919Z</time></trkpt><trkpt lat="43.716136" lon="12.6689026"><ele>310.6</ele><time>2026-04-05T08:03:27.919Z</time></trkpt><trkpt lat="43.716176" lon="12.6688026"><ele>311.2</ele><time>2026-04-05T08:03:28.918Z</time></trkpt><trkpt lat="43.7161844" lon="12.6687001"><ele>311.8</ele><time>2026-04-05T08:03:29.919Z</time></trkpt><trkpt lat="43.7161408" lon="12.6686078"><ele>312.4</ele><time>2026-04-05T08:03:30.919Z</time></trkpt><trkpt lat="43.7160933" lon="12.6684942"><ele>313.0</ele><time>2026-04-05T08:03:31.919Z</time></trkpt><trkpt lat="43.7159979" lon="12.6683978"><ele>313.0</ele><time>2026-04-05T08:03:32.919Z</time></trkpt><trkpt lat="43.715956" lon="12.6682939"><ele>313.0</ele><time>2026-04-05T08:03:33.919Z</time></trkpt><trkpt lat="43.7159052" lon="12.6682034"><ele>313.0</ele><time>2026-04-05T08:03:34.919Z</time></trkpt><trkpt lat="43.7158933" lon="12.6681026"><ele>313.0</ele><time>2026-04-05T08:03:35.919Z</time></trkpt><trkpt lat="43.7158714" lon="12.6679847"><ele>313.0</ele><time>2026-04-05T08:03:36.919Z</time></trkpt><trkpt lat="43.7158537" lon="12.6678521"><ele>313.0</ele><time>2026-04-05T08:03:37.919Z</time></trkpt><trkpt lat="43.7158577" lon="12.6677158"><ele>312.6</ele><time>2026-04-05T08:03:38.919Z</time></trkpt><trkpt lat="43.715882" lon="12.6675827"><ele>312.20000000000005</ele><time>2026-04-05T08:03:39.919Z</time></trkpt><trkpt lat="43.7159251" lon="12.6674643"><ele>311.8</ele><time>2026-04-05T08:03:40.919Z</time></trkpt><trkpt lat="43.7159924" lon="12.6673587"><ele>311.40000000000003</ele><time>2026-04-05T08:03:41.919Z</time></trkpt><trkpt lat="43.7160732" lon="12.6672522"><ele>311.0</ele><time>2026-04-05T08:03:42.92Z</time></trkpt><trkpt lat="43.7161506" lon="12.6671159"><ele>316.33333333333337</ele><time>2026-04-05T08:03:43.919Z</time></trkpt><trkpt lat="43.7162359" lon="12.6669601"><ele>321.6666666666667</ele><time>2026-04-05T08:03:44.919Z</time></trkpt><trkpt lat="43.7163378" lon="12.6667869"><ele>327.0</ele><time>2026-04-05T08:03:45.919Z</time></trkpt><trkpt lat="43.7164298" lon="12.6666166"><ele>327.0</ele><time>2026-04-05T08:03:46.919Z</time></trkpt><trkpt lat="43.7165142" lon="12.6664673"><ele>327.0</ele><time>2026-04-05T08:03:47.919Z</time></trkpt><trkpt lat="43.7165913" lon="12.666338"><ele>327.0</ele><time>2026-04-05T08:03:48.919Z</time></trkpt><trkpt lat="43.7166668" lon="12.6662272"><ele>327.0</ele><time>2026-04-05T08:03:49.918Z</time></trkpt><trkpt lat="43.7167464" lon="12.6661232"><ele>328.0</ele><time>2026-04-05T08:03:50.919Z</time></trkpt><trkpt lat="43.7168431" lon="12.6660315"><ele>329.0</ele><time>2026-04-05T08:03:51.918Z</time></trkpt><trkpt lat="43.716956" lon="12.6659498"><ele>330.0</ele><time>2026-04-05T08:03:52.919Z</time></trkpt><trkpt lat="43.7170687" lon="12.6658441"><ele>331.0</ele><time>2026-04-05T08:03:53.919Z</time></trkpt><trkpt lat="43.717183" lon="12.6657262"><ele>331.0</ele><time>2026-04-05T08:03:54.919Z</time></trkpt><trkpt lat="43.7173044" lon="12.6656112"><ele>331.0</ele><time>2026-04-05T08:03:55.919Z</time></trkpt><trkpt lat="43.7174134" lon="12.6655101"><ele>331.0</ele><time>2026-04-05T08:03:56.92Z</time></trkpt><trkpt lat="43.7175181" lon="12.66544"><ele>331.0</ele><time>2026-04-05T08:03:57.919Z</time></trkpt><trkpt lat="43.7176421" lon="12.6653996"><ele>330.5</ele><time>2026-04-05T08:03:58.919Z</time></trkpt><trkpt lat="43.7177631" lon="12.6653791"><ele>330.0</ele><time>2026-04-05T08:03:59.919Z</time></trkpt><trkpt lat="43.7178672" lon="12.6653395"><ele>329.5</ele><time>2026-04-05T08:04:00.919Z</time></trkpt><trkpt lat="43.7179667" lon="12.6652649"><ele>329.0</ele><time>2026-04-05T08:04:01.919Z</time></trkpt><trkpt lat="43.7180692" lon="12.6651562"><ele>329.0</ele><time>2026-04-05T08:04:02.919Z</time></trkpt><trkpt lat="43.7181869" lon="12.6650478"><ele>329.0</ele><time>2026-04-05T08:04:03.919Z</time></trkpt><trkpt lat="43.7183311" lon="12.6649454"><ele>329.0</ele><time>2026-04-05T08:04:04.918Z</time></trkpt><trkpt lat="43.7184848" lon="12.6648407"><ele>331.0</ele><time>2026-04-05T08:04:05.918Z</time></trkpt><trkpt lat="43.7186366" lon="12.6647322"><ele>333.0</ele><time>2026-04-05T08:04:06.92Z</time></trkpt><trkpt lat="43.7187817" lon="12.6646037"><ele>335.0</ele><time>2026-04-05T08:04:07.919Z</time></trkpt><trkpt lat="43.718917" lon="12.6644646"><ele>333.6666666666667</ele><time>2026-04-05T08:04:08.918Z</time></trkpt><trkpt lat="43.7190393" lon="12.6643307"><ele>332.3333333333333</ele><time>2026-04-05T08:04:09.919Z</time></trkpt><trkpt lat="43.7191497" lon="12.6641958"><ele>331.0</ele><time>2026-04-05T08:04:10.919Z</time></trkpt><trkpt lat="43.7192436" lon="12.6640356"><ele>331.0</ele><time>2026-04-05T08:04:11.919Z</time></trkpt><trkpt lat="43.7193249" lon="12.6638676"><ele>331.0</ele><time>2026-04-05T08:04:12.919Z</time></trkpt><trkpt lat="43.7194085" lon="12.6637085"><ele>331.0</ele><time>2026-04-05T08:04:13.918Z</time></trkpt><trkpt lat="43.7194988" lon="12.663567"><ele>331.0</ele><time>2026-04-05T08:04:14.92Z</time></trkpt><trkpt lat="43.7195991" lon="12.663458"><ele>334.25</ele><time>2026-04-05T08:04:15.919Z</time></trkpt><trkpt lat="43.7197139" lon="12.6634086"><ele>337.5</ele><time>2026-04-05T08:04:16.919Z</time></trkpt><trkpt lat="43.7198265" lon="12.663375"><ele>340.75</ele><time>2026-04-05T08:04:17.919Z</time></trkpt><trkpt lat="43.7199209" lon="12.6632886"><ele>344.0</ele><time>2026-04-05T08:04:18.92Z</time></trkpt><trkpt lat="43.7200008" lon="12.6631735"><ele>344.0</ele><time>2026-04-05T08:04:19.919Z</time></trkpt><trkpt lat="43.7200808" lon="12.6630399"><ele>344.0</ele><time>2026-04-05T08:04:20.919Z</time></trkpt><trkpt lat="43.7201691" lon="12.6628933"><ele>344.0</ele><time>2026-04-05T08:04:21.919Z</time></trkpt><trkpt lat="43.7202712" lon="12.6627481"><ele>344.0</ele><time>2026-04-05T08:04:22.919Z</time></trkpt><trkpt lat="43.7203636" lon="12.6625908"><ele>349.25</ele><time>2026-04-05T08:04:23.919Z</time></trkpt><trkpt lat="43.7204422" lon="12.662428"><ele>354.5</ele><time>2026-04-05T08:04:24.919Z</time></trkpt><trkpt lat="43.7205016" lon="12.6622605"><ele>359.75</ele><time>2026-04-05T08:04:25.918Z</time></trkpt><trkpt lat="43.7205476" lon="12.6620967"><ele>365.0</ele><time>2026-04-05T08:04:26.919Z</time></trkpt><trkpt lat="43.7205826" lon="12.6619417"><ele>365.0</ele><time>2026-04-05T08:04:27.919Z</time></trkpt><trkpt lat="43.7206288" lon="12.6618022"><ele>365.0</ele><time>2026-04-05T08:04:28.918Z</time></trkpt><trkpt lat="43.7207046" lon="12.6616984"><ele>365.0</ele><time>2026-04-05T08:04:29.919Z</time></trkpt><trkpt lat="43.7208012" lon="12.6616108"><ele>365.0</ele><time>2026-04-05T08:04:30.919Z</time></trkpt><trkpt lat="43.7209128" lon="12.6615284"><ele>365.0</ele><time>2026-04-05T08:04:31.918Z</time></trkpt><trkpt lat="43.721031" lon="12.6614328"><ele>365.0</ele><time>2026-04-05T08:04:32.919Z</time></trkpt><trkpt lat="43.7211505" lon="12.6613479"><ele>365.0</ele><time>2026-04-05T08:04:33.919Z</time></trkpt><trkpt lat="43.7212659" lon="12.6612446"><ele>365.0</ele><time>2026-04-05T08:04:34.919Z</time></trkpt><trkpt lat="43.7213727" lon="12.6611166"><ele>368.6666666666667</ele><time>2026-04-05T08:04:35.918Z</time></trkpt><trkpt lat="43.7214802" lon="12.6609712"><ele>372.3333333333333</ele><time>2026-04-05T08:04:36.919Z</time></trkpt><trkpt lat="43.7215959" lon="12.6608303"><ele>376.0</ele><time>2026-04-05T08:04:37.919Z</time></trkpt><trkpt lat="43.7217237" lon="12.6607083"><ele>376.0</ele><time>2026-04-05T08:04:38.919Z</time></trkpt><trkpt lat="43.7218456" lon="12.660591"><ele>376.0</ele><time>2026-04-05T08:04:39.92Z</time></trkpt><trkpt lat="43.7219591" lon="12.6604687"><ele>376.0</ele><time>2026-04-05T08:04:40.919Z</time></trkpt><trkpt lat="43.7220722" lon="12.6603546"><ele>376.0</ele><time>2026-04-05T08:04:41.919Z</time></trkpt><trkpt lat="43.7221873" lon="12.6602527"><ele>379.5</ele><time>2026-04-05T08:04:42.919Z</time></trkpt><trkpt lat="43.7223132" lon="12.6601662"><ele>383.0</ele><time>2026-04-05T08:04:43.919Z</time></trkpt><trkpt lat="43.7224456" lon="12.6600997"><ele>386.5</ele><time>2026-04-05T08:04:44.918Z</time></trkpt><trkpt lat="43.7225799" lon="12.6600343"><ele>390.0</ele><time>2026-04-05T08:04:45.919Z</time></trkpt><trkpt lat="43.7227144" lon="12.6599445"><ele>393.75</ele><time>2026-04-05T08:04:46.919Z</time></trkpt><trkpt lat="43.7228488" lon="12.6598548"><ele>397.5</ele><time>2026-04-05T08:04:47.92Z</time></trkpt><trkpt lat="43.7229899" lon="12.6597738"><ele>401.25</ele><time>2026-04-05T08:04:48.918Z</time></trkpt><trkpt lat="43.7231229" lon="12.6596883"><ele>405.0</ele><time>2026-04-05T08:04:49.919Z</time></trkpt><trkpt lat="43.7232632" lon="12.659598"><ele>405.0</ele><time>2026-04-05T08:04:50.919Z</time></trkpt><trkpt lat="43.7233933" lon="12.6595182"><ele>405.0</ele><time>2026-04-05T08:04:51.919Z</time></trkpt><trkpt lat="43.7235204" lon="12.6594545"><ele>405.0</ele><time>2026-04-05T08:04:52.919Z</time></trkpt><trkpt lat="43.7236357" lon="12.6594094"><ele>405.0</ele><time>2026-04-05T08:04:53.919Z</time></trkpt><trkpt lat="43.7237556" lon="12.6593787"><ele>405.0</ele><time>2026-04-05T08:04:54.918Z</time></trkpt><trkpt lat="43.7238783" lon="12.6593449"><ele>405.0</ele><time>2026-04-05T08:04:55.919Z</time></trkpt><trkpt lat="43.7239903" lon="12.6593039"><ele>405.0</ele><time>2026-04-05T08:04:56.918Z</time></trkpt><trkpt lat="43.7240902" lon="12.6592267"><ele>405.0</ele><time>2026-04-05T08:04:57.919Z</time></trkpt><trkpt lat="43.7241796" lon="12.6591114"><ele>405.0</ele><time>2026-04-05T08:04:58.919Z</time></trkpt><trkpt lat="43.7242743" lon="12.6589951"><ele>405.0</ele><time>2026-04-05T08:04:59.919Z</time></trkpt><trkpt lat="43.7243789" lon="12.6588752"><ele>405.0</ele><time>2026-04-05T08:05:00.918Z</time></trkpt><trkpt lat="43.7244717" lon="12.6587526"><ele>405.0</ele><time>2026-04-05T08:05:01.919Z</time></trkpt><trkpt lat="43.7245569" lon="12.6586446"><ele>406.6666666666667</ele><time>2026-04-05T08:05:02.919Z</time></trkpt><trkpt lat="43.7246388" lon="12.6585555"><ele>408.33333333333337</ele><time>2026-04-05T08:05:03.919Z</time></trkpt><trkpt lat="43.7247272" lon="12.6584809"><ele>410.0</ele><time>2026-04-05T08:05:04.92Z</time></trkpt><trkpt lat="43.7248152" lon="12.658426"><ele>411.6666666666667</ele><time>2026-04-05T08:05:05.918Z</time></trkpt><trkpt lat="43.7248801" lon="12.658397"><ele>413.33333333333337</ele><time>2026-04-05T08:05:06.92Z</time></trkpt><trkpt lat="43.7249353" lon="12.6584424"><ele>415.0</ele><time>2026-04-05T08:05:08.919Z</time></trkpt><trkpt lat="43.7248928" lon="12.65853"><ele>415.00000000000006</ele><time>2026-04-05T08:05:10.919Z</time></trkpt><trkpt lat="43.7248408" lon="12.6585844"><ele>415.0</ele><time>2026-04-05T08:05:11.919Z</time></trkpt><trkpt lat="43.7247891" lon="12.6586599"><ele>415.0</ele><time>2026-04-05T08:05:12.919Z</time></trkpt><trkpt lat="43.7247447" lon="12.6587571"><ele>415.0</ele><time>2026-04-05T08:05:13.919Z</time></trkpt><trkpt lat="43.7247038" lon="12.6588715"><ele>415.00000000000006</ele><time>2026-04-05T08:05:14.918Z</time></trkpt><trkpt lat="43.724648" lon="12.6590005"><ele>415.0</ele><time>2026-04-05T08:05:15.919Z</time></trkpt><trkpt lat="43.7245628" lon="12.659135"><ele>417.0</ele><time>2026-04-05T08:05:16.919Z</time></trkpt><trkpt lat="43.7244581" lon="12.6592945"><ele>419.0</ele><time>2026-04-05T08:05:17.919Z</time></trkpt><trkpt lat="43.7243419" lon="12.6594904"><ele>421.0</ele><time>2026-04-05T08:05:18.919Z</time></trkpt><trkpt lat="43.7242234" lon="12.6596857"><ele>421.0</ele><time>2026-04-05T08:05:19.919Z</time></trkpt><trkpt lat="43.724119" lon="12.6598347"><ele>421.0</ele><time>2026-04-05T08:05:20.918Z</time></trkpt><trkpt lat="43.7240271" lon="12.6599707"><ele>421.0</ele><time>2026-04-05T08:05:21.919Z</time></trkpt><trkpt lat="43.7239507" lon="12.660122"><ele>421.0</ele><time>2026-04-05T08:05:22.919Z</time></trkpt><trkpt lat="43.7238765" lon="12.660298"><ele>425.25</ele><time>2026-04-05T08:05:23.918Z</time></trkpt><trkpt lat="43.7238008" lon="12.6604778"><ele>429.5</ele><time>2026-04-05T08:05:24.919Z</time></trkpt><trkpt lat="43.7237247" lon="12.660654"><ele>433.75</ele><time>2026-04-05T08:05:25.92Z</time></trkpt><trkpt lat="43.7236551" lon="12.6608318"><ele>438.0</ele><time>2026-04-05T08:05:26.918Z</time></trkpt><trkpt lat="43.723589" lon="12.6610207"><ele>437.5</ele><time>2026-04-05T08:05:27.919Z</time></trkpt><trkpt lat="43.7235279" lon="12.661214"><ele>437.0</ele><time>2026-04-05T08:05:28.919Z</time></trkpt><trkpt lat="43.7234633" lon="12.6613901"><ele>436.5</ele><time>2026-04-05T08:05:29.919Z</time></trkpt><trkpt lat="43.723391" lon="12.6615431"><ele>436.0</ele><time>2026-04-05T08:05:30.919Z</time></trkpt><trkpt lat="43.7233123" lon="12.661697"><ele>436.0</ele><time>2026-04-05T08:05:31.919Z</time></trkpt><trkpt lat="43.7232311" lon="12.6618435"><ele>436.0</ele><time>2026-04-05T08:05:32.919Z</time></trkpt><trkpt lat="43.723152" lon="12.6619602"><ele>436.0</ele><time>2026-04-05T08:05:33.919Z</time></trkpt><trkpt lat="43.7230793" lon="12.6620575"><ele>436.0</ele><time>2026-04-05T08:05:34.92Z</time></trkpt><trkpt lat="43.7230176" lon="12.662142"><ele>436.0</ele><time>2026-04-05T08:05:35.918Z</time></trkpt><trkpt lat="43.7229705" lon="12.6622175"><ele>436.33333333333337</ele><time>2026-04-05T08:05:36.919Z</time></trkpt><trkpt lat="43.7229395" lon="12.662307"><ele>436.6666666666667</ele><time>2026-04-05T08:05:37.919Z</time></trkpt><trkpt lat="43.722939" lon="12.6623998"><ele>437.0</ele><time>2026-04-05T08:05:38.919Z</time></trkpt><trkpt lat="43.7229701" lon="12.6624843"><ele>437.33333333333337</ele><time>2026-04-05T08:05:39.92Z</time></trkpt><trkpt lat="43.7230291" lon="12.6625681"><ele>437.6666666666667</ele><time>2026-04-05T08:05:40.919Z</time></trkpt><trkpt lat="43.7231034" lon="12.662664"><ele>438.0</ele><time>2026-04-05T08:05:41.919Z</time></trkpt><trkpt lat="43.7231743" lon="12.6627602"><ele>437.5</ele><time>2026-04-05T08:05:42.919Z</time></trkpt><trkpt lat="43.7232484" lon="12.6628448"><ele>437.0</ele><time>2026-04-05T08:05:43.919Z</time></trkpt><trkpt lat="43.7233212" lon="12.6629185"><ele>436.5</ele><time>2026-04-05T08:05:44.919Z</time></trkpt><trkpt lat="43.7233818" lon="12.6629873"><ele>436.0</ele><time>2026-04-05T08:05:45.918Z</time></trkpt><trkpt lat="43.7234276" lon="12.6630561"><ele>435.5</ele><time>2026-04-05T08:05:46.919Z</time></trkpt><trkpt lat="43.7234475" lon="12.663201"><ele>435.0</ele><time>2026-04-05T08:05:48.919Z</time></trkpt><trkpt lat="43.7233681" lon="12.6632932"><ele>435.0</ele><time>2026-04-05T08:05:50.919Z</time></trkpt><trkpt lat="43.723246" lon="12.6633215"><ele>435.0</ele><time>2026-04-05T08:05:52.919Z</time></trkpt><trkpt lat="43.7231617" lon="12.6633176"><ele>435.0</ele><time>2026-04-05T08:05:53.919Z</time></trkpt><trkpt lat="43.7230646" lon="12.6633137"><ele>435.0</ele><time>2026-04-05T08:05:54.919Z</time></trkpt><trkpt lat="43.7229752" lon="12.6633342"><ele>435.0</ele><time>2026-04-05T08:05:55.918Z</time></trkpt><trkpt lat="43.7228945" lon="12.6633834"><ele>435.0</ele><time>2026-04-05T08:05:56.918Z</time></trkpt><trkpt lat="43.72282" lon="12.663472"><ele>435.0</ele><time>2026-04-05T08:05:57.918Z</time></trkpt><trkpt lat="43.7227507" lon="12.6635869"><ele>435.0</ele><time>2026-04-05T08:05:58.919Z</time></trkpt><trkpt lat="43.7226777" lon="12.663728"><ele>435.0</ele><time>2026-04-05T08:05:59.918Z</time></trkpt><trkpt lat="43.7225982" lon="12.6638952"><ele>435.2</ele><time>2026-04-05T08:06:00.919Z</time></trkpt><trkpt lat="43.7225389" lon="12.6640342"><ele>435.4</ele><time>2026-04-05T08:06:01.919Z</time></trkpt><trkpt lat="43.7225039" lon="12.6641563"><ele>435.6</ele><time>2026-04-05T08:06:02.919Z</time></trkpt><trkpt lat="43.7224881" lon="12.6642957"><ele>435.8</ele><time>2026-04-05T08:06:03.919Z</time></trkpt><trkpt lat="43.7224968" lon="12.6644484"><ele>436.0</ele><time>2026-04-05T08:06:04.919Z</time></trkpt><trkpt lat="43.7225181" lon="12.66463"><ele>436.0</ele><time>2026-04-05T08:06:05.919Z</time></trkpt><trkpt lat="43.7225461" lon="12.6648542"><ele>436.0</ele><time>2026-04-05T08:06:06.919Z</time></trkpt><trkpt lat="43.7225715" lon="12.6650706"><ele>436.0</ele><time>2026-04-05T08:06:07.918Z</time></trkpt><trkpt lat="43.7226031" lon="12.6652199"><ele>436.0</ele><time>2026-04-05T08:06:08.919Z</time></trkpt><trkpt lat="43.7226475" lon="12.66535"><ele>436.5</ele><time>2026-04-05T08:06:09.919Z</time></trkpt><trkpt lat="43.7227107" lon="12.6654867"><ele>437.0</ele><time>2026-04-05T08:06:10.919Z</time></trkpt><trkpt lat="43.7227811" lon="12.6656199"><ele>437.5</ele><time>2026-04-05T08:06:11.919Z</time></trkpt><trkpt lat="43.7228523" lon="12.6657655"><ele>438.0</ele><time>2026-04-05T08:06:12.919Z</time></trkpt><trkpt lat="43.7229094" lon="12.6659087"><ele>445.2</ele><time>2026-04-05T08:06:13.919Z</time></trkpt><trkpt lat="43.7229333" lon="12.6660333"><ele>452.4</ele><time>2026-04-05T08:06:14.919Z</time></trkpt><trkpt lat="43.7229332" lon="12.6661714"><ele>459.59999999999997</ele><time>2026-04-05T08:06:15.919Z</time></trkpt><trkpt lat="43.722911" lon="12.6663188"><ele>466.79999999999995</ele><time>2026-04-05T08:06:16.918Z</time></trkpt><trkpt lat="43.7228836" lon="12.6664796"><ele>474.0</ele><time>2026-04-05T08:06:17.919Z</time></trkpt><trkpt lat="43.7228699" lon="12.6666036"><ele>475.0</ele><time>2026-04-05T08:06:18.919Z</time></trkpt><trkpt lat="43.7228719" lon="12.6667239"><ele>476.0</ele><time>2026-04-05T08:06:19.919Z</time></trkpt><trkpt lat="43.7229021" lon="12.6668379"><ele>477.0</ele><time>2026-04-05T08:06:20.919Z</time></trkpt><trkpt lat="43.722952" lon="12.6669394"><ele>478.0</ele><time>2026-04-05T08:06:21.919Z</time></trkpt><trkpt lat="43.7230186" lon="12.6670198"><ele>479.0</ele><time>2026-04-05T08:06:22.919Z</time></trkpt><trkpt lat="43.723118" lon="12.6670946"><ele>475.5</ele><time>2026-04-05T08:06:23.92Z</time></trkpt><trkpt lat="43.7232396" lon="12.6671735"><ele>472.0</ele><time>2026-04-05T08:06:24.919Z</time></trkpt><trkpt lat="43.7233559" lon="12.6672576"><ele>468.5</ele><time>2026-04-05T08:06:25.919Z</time></trkpt><trkpt lat="43.7234538" lon="12.6673444"><ele>465.0</ele><time>2026-04-05T08:06:26.919Z</time></trkpt><trkpt lat="43.7235572" lon="12.6674545"><ele>468.5</ele><time>2026-04-05T08:06:27.919Z</time></trkpt><trkpt lat="43.7236521" lon="12.6675704"><ele>472.0</ele><time>2026-04-05T08:06:28.919Z</time></trkpt><trkpt lat="43.7237295" lon="12.667687"><ele>475.5</ele><time>2026-04-05T08:06:29.919Z</time></trkpt><trkpt lat="43.7237916" lon="12.6678177"><ele>479.0</ele><time>2026-04-05T08:06:30.919Z</time></trkpt><trkpt lat="43.7238481" lon="12.6679779"><ele>479.0</ele><time>2026-04-05T08:06:31.918Z</time></trkpt><trkpt lat="43.7238963" lon="12.6681704"><ele>479.0</ele><time>2026-04-05T08:06:32.919Z</time></trkpt><trkpt lat="43.7239482" lon="12.6683562"><ele>479.0</ele><time>2026-04-05T08:06:33.919Z</time></trkpt><trkpt lat="43.7239835" lon="12.6686081"><ele>474.66666666666663</ele><time>2026-04-05T08:06:34.919Z</time></trkpt><trkpt lat="43.7240175" lon="12.6688518"><ele>470.33333333333337</ele><time>2026-04-05T08:06:35.92Z</time></trkpt><trkpt lat="43.7240525" lon="12.6691215"><ele>466.0</ele><time>2026-04-05T08:06:36.918Z</time></trkpt><trkpt lat="43.7240905" lon="12.6694036"><ele>464.0</ele><time>2026-04-05T08:06:37.919Z</time></trkpt><trkpt lat="43.724125" lon="12.669645"><ele>462.0</ele><time>2026-04-05T08:06:38.919Z</time></trkpt><trkpt lat="43.7241595" lon="12.6698586"><ele>460.0</ele><time>2026-04-05T08:06:39.919Z</time></trkpt><trkpt lat="43.724189" lon="12.6700431"><ele>460.0</ele><time>2026-04-05T08:06:40.919Z</time></trkpt><trkpt lat="43.7242092" lon="12.6701934"><ele>460.0</ele><time>2026-04-05T08:06:41.919Z</time></trkpt><trkpt lat="43.724206" lon="12.6703296"><ele>460.0</ele><time>2026-04-05T08:06:42.918Z</time></trkpt><trkpt lat="43.7241807" lon="12.6704603"><ele>460.0</ele><time>2026-04-05T08:06:43.919Z</time></trkpt><trkpt lat="43.724136" lon="12.6706051"><ele>460.0</ele><time>2026-04-05T08:06:44.919Z</time></trkpt><trkpt lat="43.7240793" lon="12.6707414"><ele>461.5</ele><time>2026-04-05T08:06:45.919Z</time></trkpt><trkpt lat="43.724013" lon="12.6708775"><ele>463.0</ele><time>2026-04-05T08:06:46.918Z</time></trkpt><trkpt lat="43.7239459" lon="12.671016"><ele>464.5</ele><time>2026-04-05T08:06:47.919Z</time></trkpt><trkpt lat="43.7238799" lon="12.6711577"><ele>466.0</ele><time>2026-04-05T08:06:48.919Z</time></trkpt><trkpt lat="43.7238223" lon="12.6712954"><ele>468.20000000000005</ele><time>2026-04-05T08:06:49.918Z</time></trkpt><trkpt lat="43.7237703" lon="12.6714331"><ele>470.40000000000003</ele><time>2026-04-05T08:06:50.919Z</time></trkpt><trkpt lat="43.7237184" lon="12.6715779"><ele>472.6</ele><time>2026-04-05T08:06:51.919Z</time></trkpt><trkpt lat="43.7236739" lon="12.671716"><ele>474.8</ele><time>2026-04-05T08:06:52.92Z</time></trkpt><trkpt lat="43.723649" lon="12.6718594"><ele>477.0</ele><time>2026-04-05T08:06:53.919Z</time></trkpt><trkpt lat="43.7236449" lon="12.6720144"><ele>477.5</ele><time>2026-04-05T08:06:54.919Z</time></trkpt><trkpt lat="43.7236667" lon="12.6721697"><ele>478.0</ele><time>2026-04-05T08:06:55.918Z</time></trkpt><trkpt lat="43.7237099" lon="12.6723219"><ele>478.5</ele><time>2026-04-05T08:06:56.919Z</time></trkpt><trkpt lat="43.7237703" lon="12.6724631"><ele>479.0</ele><time>2026-04-05T08:06:57.919Z</time></trkpt><trkpt lat="43.7238501" lon="12.6726046"><ele>479.0</ele><time>2026-04-05T08:06:58.918Z</time></trkpt><trkpt lat="43.7239543" lon="12.6727602"><ele>479.0</ele><time>2026-04-05T08:06:59.919Z</time></trkpt><trkpt lat="43.7240809" lon="12.6729429"><ele>479.0</ele><time>2026-04-05T08:07:00.919Z</time></trkpt><trkpt lat="43.7242102" lon="12.6731366"><ele>477.25</ele><time>2026-04-05T08:07:01.919Z</time></trkpt><trkpt lat="43.7243168" lon="12.6732964"><ele>475.5</ele><time>2026-04-05T08:07:02.918Z</time></trkpt><trkpt lat="43.724401" lon="12.6734349"><ele>473.75</ele><time>2026-04-05T08:07:03.919Z</time></trkpt><trkpt lat="43.7244683" lon="12.6735603"><ele>472.0</ele><time>2026-04-05T08:07:04.919Z</time></trkpt><trkpt lat="43.7245059" lon="12.6736893"><ele>476.6</ele><time>2026-04-05T08:07:05.918Z</time></trkpt><trkpt lat="43.7245281" lon="12.6738391"><ele>481.20000000000005</ele><time>2026-04-05T08:07:06.919Z</time></trkpt><trkpt lat="43.724535" lon="12.6740178"><ele>485.8</ele><time>2026-04-05T08:07:07.919Z</time></trkpt><trkpt lat="43.724538" lon="12.6741551"><ele>490.4</ele><time>2026-04-05T08:07:08.919Z</time></trkpt><trkpt lat="43.7245464" lon="12.6742734"><ele>495.0</ele><time>2026-04-05T08:07:09.919Z</time></trkpt><trkpt lat="43.7245504" lon="12.674403"><ele>495.0</ele><time>2026-04-05T08:07:11.919Z</time></trkpt><trkpt lat="43.7246179" lon="12.6743692"><ele>495.0</ele><time>2026-04-05T08:07:14.919Z</time></trkpt><trkpt lat="43.7246554" lon="12.674195"><ele>495.0</ele><time>2026-04-05T08:07:16.919Z</time></trkpt><trkpt lat="43.7246835" lon="12.6741149"><ele>495.0</ele><time>2026-04-05T08:07:17.919Z</time></trkpt><trkpt lat="43.7247299" lon="12.6740557"><ele>495.0</ele><time>2026-04-05T08:07:18.919Z</time></trkpt><trkpt lat="43.7247885" lon="12.6740221"><ele>495.0</ele><time>2026-04-05T08:07:19.918Z</time></trkpt><trkpt lat="43.7248595" lon="12.6740177"><ele>495.0</ele><time>2026-04-05T08:07:20.919Z</time></trkpt><trkpt lat="43.7249408" lon="12.6740364"><ele>495.0</ele><time>2026-04-05T08:07:21.919Z</time></trkpt><trkpt lat="43.725033" lon="12.6740775"><ele>495.0</ele><time>2026-04-05T08:07:22.919Z</time></trkpt><trkpt lat="43.7251326" lon="12.6741324"><ele>495.0</ele><time>2026-04-05T08:07:23.919Z</time></trkpt><trkpt lat="43.7252243" lon="12.6741997"><ele>495.0</ele><time>2026-04-05T08:07:24.919Z</time></trkpt><trkpt lat="43.7253114" lon="12.6742793"><ele>495.0</ele><time>2026-04-05T08:07:25.919Z</time></trkpt><trkpt lat="43.7253792" lon="12.6743567"><ele>495.0</ele><time>2026-04-05T08:07:26.92Z</time></trkpt><trkpt lat="43.7254491" lon="12.6744334"><ele>495.0</ele><time>2026-04-05T08:07:27.919Z</time></trkpt><trkpt lat="43.7255219" lon="12.6745005"><ele>495.0</ele><time>2026-04-05T08:07:28.919Z</time></trkpt><trkpt lat="43.7256027" lon="12.6745569"><ele>495.0</ele><time>2026-04-05T08:07:29.919Z</time></trkpt><trkpt lat="43.7256875" lon="12.6746075"><ele>495.0</ele><time>2026-04-05T08:07:30.919Z</time></trkpt><trkpt lat="43.7257734" lon="12.6746548"><ele>495.0</ele><time>2026-04-05T08:07:31.919Z</time></trkpt><trkpt lat="43.725861" lon="12.6746957"><ele>495.0</ele><time>2026-04-05T08:07:32.919Z</time></trkpt><trkpt lat="43.7259404" lon="12.6747271"><ele>495.0</ele><time>2026-04-05T08:07:33.919Z</time></trkpt><trkpt lat="43.7260129" lon="12.6747519"><ele>495.0</ele><time>2026-04-05T08:07:34.919Z</time></trkpt><trkpt lat="43.7260931" lon="12.6747614"><ele>495.0</ele><time>2026-04-05T08:07:35.918Z</time></trkpt><trkpt lat="43.7261918" lon="12.6747437"><ele>495.0</ele><time>2026-04-05T08:07:36.918Z</time></trkpt><trkpt lat="43.7262989" lon="12.674714"><ele>496.4</ele><time>2026-04-05T08:07:37.918Z</time></trkpt><trkpt lat="43.7264133" lon="12.6746726"><ele>497.8</ele><time>2026-04-05T08:07:38.919Z</time></trkpt><trkpt lat="43.72653" lon="12.6746188"><ele>499.20000000000005</ele><time>2026-04-05T08:07:39.918Z</time></trkpt><trkpt lat="43.7266243" lon="12.6745508"><ele>500.6</ele><time>2026-04-05T08:07:40.919Z</time></trkpt><trkpt lat="43.7267109" lon="12.6744905"><ele>502.0</ele><time>2026-04-05T08:07:41.919Z</time></trkpt><trkpt lat="43.7268021" lon="12.6744488"><ele>502.00000000000006</ele><time>2026-04-05T08:07:42.917Z</time></trkpt><trkpt lat="43.7268927" lon="12.67444"><ele>502.0</ele><time>2026-04-05T08:07:43.918Z</time></trkpt><trkpt lat="43.7269723" lon="12.6744733"><ele>502.0</ele><time>2026-04-05T08:07:44.919Z</time></trkpt><trkpt lat="43.7270228" lon="12.6745512"><ele>502.0</ele><time>2026-04-05T08:07:45.917Z</time></trkpt><trkpt lat="43.7270477" lon="12.6746564"><ele>502.00000000000006</ele><time>2026-04-05T08:07:46.918Z</time></trkpt><trkpt lat="43.7270636" lon="12.674769"><ele>502.0</ele><time>2026-04-05T08:07:47.918Z</time></trkpt><trkpt lat="43.7271007" lon="12.6748534"><ele>505.1666666666667</ele><time>2026-04-05T08:07:48.918Z</time></trkpt><trkpt lat="43.7271503" lon="12.6749293"><ele>508.33333333333337</ele><time>2026-04-05T08:07:49.918Z</time></trkpt><trkpt lat="43.7272208" lon="12.6749629"><ele>511.5</ele><time>2026-04-05T08:07:50.918Z</time></trkpt><trkpt lat="43.7273059" lon="12.6749853"><ele>514.6666666666666</ele><time>2026-04-05T08:07:51.918Z</time></trkpt><trkpt lat="43.7273913" lon="12.6750298"><ele>517.8333333333333</ele><time>2026-04-05T08:07:52.918Z</time></trkpt><trkpt lat="43.7274841" lon="12.6750796"><ele>521.0</ele><time>2026-04-05T08:07:53.918Z</time></trkpt><trkpt lat="43.7275718" lon="12.6751359"><ele>521.0</ele><time>2026-04-05T08:07:54.918Z</time></trkpt><trkpt lat="43.7276509" lon="12.6751851"><ele>521.0</ele><time>2026-04-05T08:07:55.918Z</time></trkpt><trkpt lat="43.7277215" lon="12.6752145"><ele>521.0</ele><time>2026-04-05T08:07:56.918Z</time></trkpt><trkpt lat="43.7277975" lon="12.675302"><ele>521.0</ele><time>2026-04-05T08:07:58.917Z</time></trkpt><trkpt lat="43.727736" lon="12.6754333"><ele>521.0</ele><time>2026-04-05T08:08:00.918Z</time></trkpt><trkpt lat="43.7276788" lon="12.6755021"><ele>521.0</ele><time>2026-04-05T08:08:01.918Z</time></trkpt><trkpt lat="43.7276457" lon="12.6755949"><ele>520.5</ele><time>2026-04-05T08:08:02.917Z</time></trkpt><trkpt lat="43.7276439" lon="12.6757048"><ele>520.0</ele><time>2026-04-05T08:08:03.918Z</time></trkpt><trkpt lat="43.7276737" lon="12.6758004"><ele>519.5</ele><time>2026-04-05T08:08:04.918Z</time></trkpt><trkpt lat="43.727726" lon="12.6758573"><ele>519.0</ele><time>2026-04-05T08:08:05.917Z</time></trkpt><trkpt lat="43.7277947" lon="12.6758671"><ele>518.5</ele><time>2026-04-05T08:08:06.918Z</time></trkpt><trkpt lat="43.7278712" lon="12.6758668"><ele>518.0</ele><time>2026-04-05T08:08:07.917Z</time></trkpt><trkpt lat="43.7279581" lon="12.6758765"><ele>521.4</ele><time>2026-04-05T08:08:08.918Z</time></trkpt><trkpt lat="43.7280548" lon="12.6758883"><ele>524.8</ele><time>2026-04-05T08:08:09.918Z</time></trkpt><trkpt lat="43.72816" lon="12.6758881"><ele>528.2</ele><time>2026-04-05T08:08:10.917Z</time></trkpt><trkpt lat="43.7282685" lon="12.6758804"><ele>531.6</ele><time>2026-04-05T08:08:11.918Z</time></trkpt><trkpt lat="43.7283614" lon="12.6758753"><ele>535.0</ele><time>2026-04-05T08:08:12.917Z</time></trkpt><trkpt lat="43.7284381" lon="12.6758652"><ele>535.0</ele><time>2026-04-05T08:08:13.918Z</time></trkpt><trkpt lat="43.7285289" lon="12.6758657"><ele>535.0</ele><time>2026-04-05T08:08:15.917Z</time></trkpt><trkpt lat="43.7285979" lon="12.6759541"><ele>535.0</ele><time>2026-04-05T08:08:17.918Z</time></trkpt><trkpt lat="43.7286303" lon="12.6760425"><ele>535.0</ele><time>2026-04-05T08:08:18.918Z</time></trkpt><trkpt lat="43.7286545" lon="12.6761632"><ele>535.0</ele><time>2026-04-05T08:08:19.919Z</time></trkpt><trkpt lat="43.7286995" lon="12.6762902"><ele>535.0</ele><time>2026-04-05T08:08:20.918Z</time></trkpt><trkpt lat="43.7287621" lon="12.6764317"><ele>533.25</ele><time>2026-04-05T08:08:21.917Z</time></trkpt><trkpt lat="43.7288234" lon="12.6765841"><ele>531.5</ele><time>2026-04-05T08:08:22.917Z</time></trkpt><trkpt lat="43.7288884" lon="12.6767547"><ele>529.75</ele><time>2026-04-05T08:08:23.918Z</time></trkpt><trkpt lat="43.7289627" lon="12.6769359"><ele>528.0</ele><time>2026-04-05T08:08:24.918Z</time></trkpt><trkpt lat="43.7290431" lon="12.6771274"><ele>528.0</ele><time>2026-04-05T08:08:25.917Z</time></trkpt><trkpt lat="43.7291248" lon="12.6773214"><ele>528.0</ele><time>2026-04-05T08:08:26.918Z</time></trkpt><trkpt lat="43.7292094" lon="12.6775264"><ele>528.0</ele><time>2026-04-05T08:08:27.918Z</time></trkpt><trkpt lat="43.7292956" lon="12.6777384"><ele>528.0</ele><time>2026-04-05T08:08:28.919Z</time></trkpt><trkpt lat="43.7293845" lon="12.6779459"><ele>528.0</ele><time>2026-04-05T08:08:29.918Z</time></trkpt><trkpt lat="43.7294751" lon="12.6781614"><ele>528.0</ele><time>2026-04-05T08:08:30.917Z</time></trkpt><trkpt lat="43.7295632" lon="12.6783834"><ele>526.3333333333334</ele><time>2026-04-05T08:08:31.918Z</time></trkpt><trkpt lat="43.7296543" lon="12.6786061"><ele>524.6666666666667</ele><time>2026-04-05T08:08:32.918Z</time></trkpt><trkpt lat="43.7297479" lon="12.6788284"><ele>523.0</ele><time>2026-04-05T08:08:33.918Z</time></trkpt><trkpt lat="43.7298407" lon="12.6790492"><ele>523.0</ele><time>2026-04-05T08:08:34.918Z</time></trkpt><trkpt lat="43.7299338" lon="12.6792711"><ele>523.0</ele><time>2026-04-05T08:08:35.918Z</time></trkpt><trkpt lat="43.7300227" lon="12.6794904"><ele>523.0</ele><time>2026-04-05T08:08:36.919Z</time></trkpt><trkpt lat="43.7301109" lon="12.6797072"><ele>523.3333333333334</ele><time>2026-04-05T08:08:37.919Z</time></trkpt><trkpt lat="43.7301943" lon="12.6799206"><ele>523.6666666666666</ele><time>2026-04-05T08:08:38.918Z</time></trkpt><trkpt lat="43.7302725" lon="12.6801291"><ele>524.0</ele><time>2026-04-05T08:08:39.918Z</time></trkpt><trkpt lat="43.7303418" lon="12.6803459"><ele>519.3333333333333</ele><time>2026-04-05T08:08:40.918Z</time></trkpt><trkpt lat="43.7304139" lon="12.6805647"><ele>514.6666666666666</ele><time>2026-04-05T08:08:41.919Z</time></trkpt><trkpt lat="43.7304909" lon="12.6807849"><ele>510.0</ele><time>2026-04-05T08:08:42.918Z</time></trkpt><trkpt lat="43.7305693" lon="12.6810084"><ele>510.66666666666663</ele><time>2026-04-05T08:08:43.918Z</time></trkpt><trkpt lat="43.7306476" lon="12.6812356"><ele>511.3333333333333</ele><time>2026-04-05T08:08:44.919Z</time></trkpt><trkpt lat="43.7307261" lon="12.6814661"><ele>512.0</ele><time>2026-04-05T08:08:45.918Z</time></trkpt><trkpt lat="43.7308035" lon="12.6816971"><ele>512.0</ele><time>2026-04-05T08:08:46.918Z</time></trkpt><trkpt lat="43.7308832" lon="12.6819292"><ele>512.0</ele><time>2026-04-05T08:08:47.918Z</time></trkpt><trkpt lat="43.7309624" lon="12.6821634"><ele>512.0</ele><time>2026-04-05T08:08:48.917Z</time></trkpt><trkpt lat="43.731043" lon="12.6823987"><ele>512.0</ele><time>2026-04-05T08:08:49.918Z</time></trkpt><trkpt lat="43.7311213" lon="12.6826349"><ele>512.0</ele><time>2026-04-05T08:08:50.919Z</time></trkpt><trkpt lat="43.7312002" lon="12.6828712"><ele>512.0</ele><time>2026-04-05T08:08:51.917Z</time></trkpt><trkpt lat="43.7312841" lon="12.6831062"><ele>512.0</ele><time>2026-04-05T08:08:52.918Z</time></trkpt><trkpt lat="43.7313734" lon="12.6833383"><ele>512.0</ele><time>2026-04-05T08:08:53.918Z</time></trkpt><trkpt lat="43.7314679" lon="12.6835683"><ele>512.0</ele><time>2026-04-05T08:08:54.918Z</time></trkpt><trkpt lat="43.731571" lon="12.6837961"><ele>512.3333333333333</ele><time>2026-04-05T08:08:55.918Z</time></trkpt><trkpt lat="43.7316796" lon="12.6840189"><ele>512.6666666666666</ele><time>2026-04-05T08:08:56.918Z</time></trkpt><trkpt lat="43.73179" lon="12.6842452"><ele>513.0</ele><time>2026-04-05T08:08:57.919Z</time></trkpt><trkpt lat="43.7318974" lon="12.6844743"><ele>512.0</ele><time>2026-04-05T08:08:58.918Z</time></trkpt><trkpt lat="43.7320042" lon="12.6847031"><ele>511.0</ele><time>2026-04-05T08:08:59.917Z</time></trkpt><trkpt lat="43.7321129" lon="12.6849289"><ele>510.0</ele><time>2026-04-05T08:09:00.919Z</time></trkpt><trkpt lat="43.7322259" lon="12.6851488"><ele>509.33333333333337</ele><time>2026-04-05T08:09:01.918Z</time></trkpt><trkpt lat="43.7323386" lon="12.6853648"><ele>508.6666666666667</ele><time>2026-04-05T08:09:02.918Z</time></trkpt><trkpt lat="43.7324509" lon="12.6855761"><ele>508.0</ele><time>2026-04-05T08:09:03.918Z</time></trkpt><trkpt lat="43.732562" lon="12.6857865"><ele>508.0</ele><time>2026-04-05T08:09:04.918Z</time></trkpt><trkpt lat="43.7326718" lon="12.6859968"><ele>508.0</ele><time>2026-04-05T08:09:05.918Z</time></trkpt><trkpt lat="43.7327806" lon="12.6862104"><ele>508.0</ele><time>2026-04-05T08:09:06.918Z</time></trkpt><trkpt lat="43.7328774" lon="12.6864138"><ele>507.5</ele><time>2026-04-05T08:09:07.918Z</time></trkpt><trkpt lat="43.7329567" lon="12.6865981"><ele>507.0</ele><time>2026-04-05T08:09:08.918Z</time></trkpt><trkpt lat="43.7330227" lon="12.6867734"><ele>506.5</ele><time>2026-04-05T08:09:09.918Z</time></trkpt><trkpt lat="43.7330703" lon="12.6869539"><ele>506.0</ele><time>2026-04-05T08:09:10.918Z</time></trkpt><trkpt lat="43.7330978" lon="12.6871491"><ele>506.0</ele><time>2026-04-05T08:09:11.918Z</time></trkpt><trkpt lat="43.7331024" lon="12.6873534"><ele>506.0</ele><time>2026-04-05T08:09:12.918Z</time></trkpt><trkpt lat="43.7330917" lon="12.6875646"><ele>506.0</ele><time>2026-04-05T08:09:13.918Z</time></trkpt><trkpt lat="43.7330732" lon="12.6877842"><ele>506.0</ele><time>2026-04-05T08:09:14.918Z</time></trkpt><trkpt lat="43.7330532" lon="12.6880086"><ele>506.0</ele><time>2026-04-05T08:09:15.919Z</time></trkpt><trkpt lat="43.7330334" lon="12.6882358"><ele>506.0</ele><time>2026-04-05T08:09:16.918Z</time></trkpt><trkpt lat="43.7330126" lon="12.6884661"><ele>507.3333333333333</ele><time>2026-04-05T08:09:17.918Z</time></trkpt><trkpt lat="43.732992" lon="12.6886992"><ele>508.66666666666663</ele><time>2026-04-05T08:09:18.918Z</time></trkpt><trkpt lat="43.7329719" lon="12.6889333"><ele>510.0</ele><time>2026-04-05T08:09:19.918Z</time></trkpt><trkpt lat="43.7329507" lon="12.6891708"><ele>510.0</ele><time>2026-04-05T08:09:20.918Z</time></trkpt><trkpt lat="43.7329293" lon="12.6894111"><ele>510.0</ele><time>2026-04-05T08:09:21.918Z</time></trkpt><trkpt lat="43.7329076" lon="12.6896522"><ele>510.0</ele><time>2026-04-05T08:09:22.918Z</time></trkpt><trkpt lat="43.7328808" lon="12.6899003"><ele>510.33333333333337</ele><time>2026-04-05T08:09:23.918Z</time></trkpt><trkpt lat="43.7328422" lon="12.6901555"><ele>510.6666666666667</ele><time>2026-04-05T08:09:24.917Z</time></trkpt><trkpt lat="43.7327959" lon="12.6904164"><ele>511.0</ele><time>2026-04-05T08:09:25.917Z</time></trkpt><trkpt lat="43.7327448" lon="12.6906782"><ele>514.6666666666667</ele><time>2026-04-05T08:09:26.918Z</time></trkpt><trkpt lat="43.7326916" lon="12.6909383"><ele>518.3333333333334</ele><time>2026-04-05T08:09:27.918Z</time></trkpt><trkpt lat="43.7326362" lon="12.6911774"><ele>522.0</ele><time>2026-04-05T08:09:28.918Z</time></trkpt><trkpt lat="43.7325834" lon="12.6913993"><ele>522.0</ele><time>2026-04-05T08:09:29.918Z</time></trkpt><trkpt lat="43.7325381" lon="12.6916256"><ele>522.0</ele><time>2026-04-05T08:09:30.918Z</time></trkpt><trkpt lat="43.7325004" lon="12.6918577"><ele>522.0</ele><time>2026-04-05T08:09:31.918Z</time></trkpt><trkpt lat="43.7324736" lon="12.6920961"><ele>522.6666666666666</ele><time>2026-04-05T08:09:32.919Z</time></trkpt><trkpt lat="43.732461" lon="12.6923414"><ele>523.3333333333333</ele><time>2026-04-05T08:09:33.918Z</time></trkpt><trkpt lat="43.7324486" lon="12.6925918"><ele>524.0</ele><time>2026-04-05T08:09:34.918Z</time></trkpt><trkpt lat="43.7324332" lon="12.692848"><ele>524.3333333333333</ele><time>2026-04-05T08:09:35.917Z</time></trkpt><trkpt lat="43.7324202" lon="12.6931086"><ele>524.6666666666666</ele><time>2026-04-05T08:09:36.918Z</time></trkpt><trkpt lat="43.7324081" lon="12.6933703"><ele>525.0</ele><time>2026-04-05T08:09:37.919Z</time></trkpt><trkpt lat="43.7323903" lon="12.693635"><ele>527.0</ele><time>2026-04-05T08:09:38.918Z</time></trkpt><trkpt lat="43.7323639" lon="12.6938955"><ele>529.0</ele><time>2026-04-05T08:09:39.919Z</time></trkpt><trkpt lat="43.732314" lon="12.6941463"><ele>531.0</ele><time>2026-04-05T08:09:40.917Z</time></trkpt><trkpt lat="43.7322569" lon="12.6943915"><ele>532.6666666666666</ele><time>2026-04-05T08:09:41.918Z</time></trkpt><trkpt lat="43.7321983" lon="12.6946341"><ele>534.3333333333333</ele><time>2026-04-05T08:09:42.919Z</time></trkpt><trkpt lat="43.7321363" lon="12.6948759"><ele>536.0</ele><time>2026-04-05T08:09:43.918Z</time></trkpt><trkpt lat="43.7320653" lon="12.6951075"><ele>536.0</ele><time>2026-04-05T08:09:44.919Z</time></trkpt><trkpt lat="43.7319918" lon="12.6953324"><ele>536.0</ele><time>2026-04-05T08:09:45.917Z</time></trkpt><trkpt lat="43.7319267" lon="12.6955575"><ele>536.0</ele><time>2026-04-05T08:09:46.918Z</time></trkpt><trkpt lat="43.7318651" lon="12.6957824"><ele>536.0</ele><time>2026-04-05T08:09:47.918Z</time></trkpt><trkpt lat="43.7318091" lon="12.6960088"><ele>536.0</ele><time>2026-04-05T08:09:48.918Z</time></trkpt><trkpt lat="43.731768" lon="12.6962399"><ele>536.0</ele><time>2026-04-05T08:09:49.918Z</time></trkpt><trkpt lat="43.7317459" lon="12.6964754"><ele>537.6666666666666</ele><time>2026-04-05T08:09:50.918Z</time></trkpt><trkpt lat="43.7317268" lon="12.6967109"><ele>539.3333333333334</ele><time>2026-04-05T08:09:51.918Z</time></trkpt><trkpt lat="43.7317108" lon="12.6969392"><ele>541.0</ele><time>2026-04-05T08:09:52.918Z</time></trkpt><trkpt lat="43.7316983" lon="12.6971204"><ele>542.6</ele><time>2026-04-05T08:09:53.918Z</time></trkpt><trkpt lat="43.7316911" lon="12.6972478"><ele>544.2</ele><time>2026-04-05T08:09:54.918Z</time></trkpt><trkpt lat="43.7316983" lon="12.6973397"><ele>545.8</ele><time>2026-04-05T08:09:55.918Z</time></trkpt><trkpt lat="43.7317884" lon="12.697469"><ele>547.4</ele><time>2026-04-05T08:09:57.919Z</time></trkpt><trkpt lat="43.7318532" lon="12.6975394"><ele>549.0</ele><time>2026-04-05T08:09:58.917Z</time></trkpt><trkpt lat="43.7319151" lon="12.6976282"><ele>546.4</ele><time>2026-04-05T08:09:59.918Z</time></trkpt><trkpt lat="43.7319614" lon="12.6977234"><ele>543.8</ele><time>2026-04-05T08:10:00.917Z</time></trkpt><trkpt lat="43.7320008" lon="12.6978343"><ele>541.2</ele><time>2026-04-05T08:10:01.917Z</time></trkpt><trkpt lat="43.7320316" lon="12.6979736"><ele>538.6</ele><time>2026-04-05T08:10:02.917Z</time></trkpt><trkpt lat="43.732054" lon="12.6981375"><ele>536.0</ele><time>2026-04-05T08:10:03.919Z</time></trkpt><trkpt lat="43.7320672" lon="12.6983114"><ele>536.0</ele><time>2026-04-05T08:10:04.918Z</time></trkpt><trkpt lat="43.7320822" lon="12.698469"><ele>536.0</ele><time>2026-04-05T08:10:05.918Z</time></trkpt><trkpt lat="43.7321203" lon="12.6986022"><ele>536.0</ele><time>2026-04-05T08:10:06.918Z</time></trkpt><trkpt lat="43.7321536" lon="12.6987352"><ele>536.0</ele><time>2026-04-05T08:10:07.918Z</time></trkpt><trkpt lat="43.7322123" lon="12.6988095"><ele>536.0</ele><time>2026-04-05T08:10:08.918Z</time></trkpt><trkpt lat="43.7323031" lon="12.6987951"><ele>537.2</ele><time>2026-04-05T08:10:09.919Z</time></trkpt><trkpt lat="43.7324463" lon="12.6987989"><ele>538.4000000000001</ele><time>2026-04-05T08:10:10.917Z</time></trkpt><trkpt lat="43.7325444" lon="12.6988356"><ele>539.6</ele><time>2026-04-05T08:10:11.918Z</time></trkpt><trkpt lat="43.732627" lon="12.6988744"><ele>540.8000000000001</ele><time>2026-04-05T08:10:12.917Z</time></trkpt><trkpt lat="43.7326877" lon="12.698941"><ele>542.0</ele><time>2026-04-05T08:10:13.918Z</time></trkpt><trkpt lat="43.7327236" lon="12.6990369"><ele>542.0</ele><time>2026-04-05T08:10:14.917Z</time></trkpt><trkpt lat="43.7327066" lon="12.6991599"><ele>542.0</ele><time>2026-04-05T08:10:15.918Z</time></trkpt><trkpt lat="43.7326684" lon="12.6992952"><ele>542.0</ele><time>2026-04-05T08:10:16.917Z</time></trkpt><trkpt lat="43.7326387" lon="12.6994586"><ele>542.0</ele><time>2026-04-05T08:10:17.918Z</time></trkpt><trkpt lat="43.7326217" lon="12.6996464"><ele>541.0</ele><time>2026-04-05T08:10:18.918Z</time></trkpt><trkpt lat="43.7326205" lon="12.6998149"><ele>540.0</ele><time>2026-04-05T08:10:19.918Z</time></trkpt><trkpt lat="43.732627" lon="12.6999757"><ele>539.0</ele><time>2026-04-05T08:10:20.918Z</time></trkpt><trkpt lat="43.7326596" lon="12.7001261"><ele>538.0</ele><time>2026-04-05T08:10:21.918Z</time></trkpt><trkpt lat="43.7327131" lon="12.7002549"><ele>535.0</ele><time>2026-04-05T08:10:22.918Z</time></trkpt><trkpt lat="43.732787" lon="12.7003615"><ele>532.0</ele><time>2026-04-05T08:10:23.918Z</time></trkpt><trkpt lat="43.7328914" lon="12.700428"><ele>529.0</ele><time>2026-04-05T08:10:24.918Z</time></trkpt><trkpt lat="43.732996" lon="12.7004466"><ele>526.0</ele><time>2026-04-05T08:10:25.919Z</time></trkpt><trkpt lat="43.7330913" lon="12.7004581"><ele>523.0</ele><time>2026-04-05T08:10:26.918Z</time></trkpt><trkpt lat="43.7331799" lon="12.7004773"><ele>523.0</ele><time>2026-04-05T08:10:27.918Z</time></trkpt><trkpt lat="43.7332381" lon="12.700553"><ele>523.0</ele><time>2026-04-05T08:10:28.917Z</time></trkpt><trkpt lat="43.7332904" lon="12.7006642"><ele>523.0</ele><time>2026-04-05T08:10:29.918Z</time></trkpt><trkpt lat="43.7333217" lon="12.7008155"><ele>523.0</ele><time>2026-04-05T08:10:30.918Z</time></trkpt><trkpt lat="43.7333577" lon="12.7009911"><ele>523.0</ele><time>2026-04-05T08:10:31.919Z</time></trkpt><trkpt lat="43.7334022" lon="12.7011748"><ele>521.0</ele><time>2026-04-05T08:10:32.918Z</time></trkpt><trkpt lat="43.733448" lon="12.7013545"><ele>519.0</ele><time>2026-04-05T08:10:33.919Z</time></trkpt><trkpt lat="43.7334977" lon="12.7015353"><ele>517.0</ele><time>2026-04-05T08:10:34.918Z</time></trkpt><trkpt lat="43.7335443" lon="12.7017032"><ele>515.0</ele><time>2026-04-05T08:10:35.917Z</time></trkpt><trkpt lat="43.7335815" lon="12.7018526"><ele>513.5</ele><time>2026-04-05T08:10:36.918Z</time></trkpt><trkpt lat="43.7336065" lon="12.7019969"><ele>512.0</ele><time>2026-04-05T08:10:37.918Z</time></trkpt><trkpt lat="43.7336136" lon="12.7021514"><ele>510.5</ele><time>2026-04-05T08:10:38.918Z</time></trkpt><trkpt lat="43.7335803" lon="12.70232"><ele>509.0</ele><time>2026-04-05T08:10:39.918Z</time></trkpt><trkpt lat="43.7335404" lon="12.7024819"><ele>509.0</ele><time>2026-04-05T08:10:40.917Z</time></trkpt><trkpt lat="43.7335055" lon="12.7026352"><ele>509.0</ele><time>2026-04-05T08:10:41.918Z</time></trkpt><trkpt lat="43.7335023" lon="12.7027928"><ele>509.0</ele><time>2026-04-05T08:10:42.918Z</time></trkpt><trkpt lat="43.7335327" lon="12.70293"><ele>509.0</ele><time>2026-04-05T08:10:43.918Z</time></trkpt><trkpt lat="43.7336008" lon="12.7030533"><ele>509.0</ele><time>2026-04-05T08:10:44.918Z</time></trkpt><trkpt lat="43.7336787" lon="12.7031545"><ele>504.6</ele><time>2026-04-05T08:10:45.918Z</time></trkpt><trkpt lat="43.7337274" lon="12.7032618"><ele>500.2</ele><time>2026-04-05T08:10:46.918Z</time></trkpt><trkpt lat="43.7337427" lon="12.7033811"><ele>495.80000000000007</ele><time>2026-04-05T08:10:47.919Z</time></trkpt><trkpt lat="43.733721" lon="12.7035235"><ele>491.40000000000003</ele><time>2026-04-05T08:10:48.918Z</time></trkpt><trkpt lat="43.7336897" lon="12.7036803"><ele>487.0</ele><time>2026-04-05T08:10:49.919Z</time></trkpt><trkpt lat="43.7336693" lon="12.7038535"><ele>485.75</ele><time>2026-04-05T08:10:50.918Z</time></trkpt><trkpt lat="43.7336456" lon="12.7040398"><ele>484.5</ele><time>2026-04-05T08:10:51.917Z</time></trkpt><trkpt lat="43.7336201" lon="12.7042426"><ele>483.25</ele><time>2026-04-05T08:10:52.918Z</time></trkpt><trkpt lat="43.733613" lon="12.7044483"><ele>482.0</ele><time>2026-04-05T08:10:53.918Z</time></trkpt><trkpt lat="43.7336187" lon="12.7046413"><ele>481.16666666666663</ele><time>2026-04-05T08:10:54.917Z</time></trkpt><trkpt lat="43.7336279" lon="12.7048012"><ele>480.3333333333333</ele><time>2026-04-05T08:10:55.919Z</time></trkpt><trkpt lat="43.7336293" lon="12.7049318"><ele>479.5</ele><time>2026-04-05T08:10:56.918Z</time></trkpt><trkpt lat="43.733629" lon="12.7050294"><ele>478.66666666666663</ele><time>2026-04-05T08:10:57.918Z</time></trkpt><trkpt lat="43.7336429" lon="12.705116"><ele>477.8333333333333</ele><time>2026-04-05T08:10:59.918Z</time></trkpt><trkpt lat="43.7337394" lon="12.7051406"><ele>477.0</ele><time>2026-04-05T08:11:02.918Z</time></trkpt><trkpt lat="43.7337929" lon="12.7050774"><ele>477.0</ele><time>2026-04-05T08:11:03.918Z</time></trkpt><trkpt lat="43.7338429" lon="12.7049823"><ele>477.00000000000006</ele><time>2026-04-05T08:11:04.918Z</time></trkpt><trkpt lat="43.7339103" lon="12.7048673"><ele>477.00000000000006</ele><time>2026-04-05T08:11:05.918Z</time></trkpt><trkpt lat="43.7339864" lon="12.7047564"><ele>477.0</ele><time>2026-04-05T08:11:06.917Z</time></trkpt><trkpt lat="43.734076" lon="12.7046353"><ele>477.0</ele><time>2026-04-05T08:11:07.918Z</time></trkpt><trkpt lat="43.734175" lon="12.7045039"><ele>478.25</ele><time>2026-04-05T08:11:08.917Z</time></trkpt><trkpt lat="43.7342703" lon="12.7043772"><ele>479.5</ele><time>2026-04-05T08:11:09.917Z</time></trkpt><trkpt lat="43.7343663" lon="12.7042557"><ele>480.75</ele><time>2026-04-05T08:11:10.918Z</time></trkpt><trkpt lat="43.7344612" lon="12.7041335"><ele>482.0</ele><time>2026-04-05T08:11:11.918Z</time></trkpt><trkpt lat="43.7345563" lon="12.7040106"><ele>479.0</ele><time>2026-04-05T08:11:12.917Z</time></trkpt><trkpt lat="43.734649" lon="12.7038925"><ele>476.0</ele><time>2026-04-05T08:11:13.918Z</time></trkpt><trkpt lat="43.734741" lon="12.7037737"><ele>473.0</ele><time>2026-04-05T08:11:14.917Z</time></trkpt><trkpt lat="43.734832" lon="12.703662"><ele>470.0</ele><time>2026-04-05T08:11:15.918Z</time></trkpt><trkpt lat="43.7349171" lon="12.7035528"><ele>470.0</ele><time>2026-04-05T08:11:16.918Z</time></trkpt><trkpt lat="43.7350084" lon="12.7034666"><ele>470.0</ele><time>2026-04-05T08:11:17.918Z</time></trkpt><trkpt lat="43.7350971" lon="12.7034047"><ele>470.0</ele><time>2026-04-05T08:11:18.918Z</time></trkpt><trkpt lat="43.7352057" lon="12.7034311"><ele>470.0</ele><time>2026-04-05T08:11:19.918Z</time></trkpt><trkpt lat="43.7353172" lon="12.7034473"><ele>470.0</ele><time>2026-04-05T08:11:20.918Z</time></trkpt><trkpt lat="43.7354352" lon="12.7034413"><ele>468.0</ele><time>2026-04-05T08:11:21.917Z</time></trkpt><trkpt lat="43.7355633" lon="12.7034112"><ele>466.0</ele><time>2026-04-05T08:11:22.917Z</time></trkpt><trkpt lat="43.7356997" lon="12.70338"><ele>464.0</ele><time>2026-04-05T08:11:23.918Z</time></trkpt><trkpt lat="43.7358423" lon="12.7033761"><ele>462.0</ele><time>2026-04-05T08:11:24.917Z</time></trkpt><trkpt lat="43.7359862" lon="12.7034119"><ele>461.33333333333337</ele><time>2026-04-05T08:11:25.917Z</time></trkpt><trkpt lat="43.7361345" lon="12.7034624"><ele>460.6666666666667</ele><time>2026-04-05T08:11:26.918Z</time></trkpt><trkpt lat="43.7362826" lon="12.7035205"><ele>460.0</ele><time>2026-04-05T08:11:27.918Z</time></trkpt><trkpt lat="43.7364153" lon="12.7036067"><ele>456.75</ele><time>2026-04-05T08:11:28.918Z</time></trkpt><trkpt lat="43.7365217" lon="12.7037036"><ele>453.5</ele><time>2026-04-05T08:11:29.918Z</time></trkpt><trkpt lat="43.7366273" lon="12.7037878"><ele>450.25</ele><time>2026-04-05T08:11:30.918Z</time></trkpt><trkpt lat="43.7367335" lon="12.7038532"><ele>447.0</ele><time>2026-04-05T08:11:31.917Z</time></trkpt><trkpt lat="43.7368341" lon="12.7039238"><ele>446.25</ele><time>2026-04-05T08:11:32.918Z</time></trkpt><trkpt lat="43.7369341" lon="12.7039961"><ele>445.5</ele><time>2026-04-05T08:11:33.918Z</time></trkpt><trkpt lat="43.7370201" lon="12.7040983"><ele>444.75</ele><time>2026-04-05T08:11:34.918Z</time></trkpt><trkpt lat="43.7370834" lon="12.7042414"><ele>444.0</ele><time>2026-04-05T08:11:35.918Z</time></trkpt><trkpt lat="43.7371387" lon="12.7043881"><ele>444.5</ele><time>2026-04-05T08:11:36.918Z</time></trkpt><trkpt lat="43.7371855" lon="12.7045206"><ele>445.0</ele><time>2026-04-05T08:11:37.918Z</time></trkpt><trkpt lat="43.7372402" lon="12.7046213"><ele>445.5</ele><time>2026-04-05T08:11:38.918Z</time></trkpt><trkpt lat="43.7373095" lon="12.7046738"><ele>446.0</ele><time>2026-04-05T08:11:39.918Z</time></trkpt><trkpt lat="43.737382" lon="12.7046603"><ele>446.5</ele><time>2026-04-05T08:11:40.918Z</time></trkpt><trkpt lat="43.7374492" lon="12.7046112"><ele>447.0</ele><time>2026-04-05T08:11:41.919Z</time></trkpt><trkpt lat="43.7375165" lon="12.7045515"><ele>447.0</ele><time>2026-04-05T08:11:42.919Z</time></trkpt><trkpt lat="43.7375892" lon="12.7045084"><ele>447.0</ele><time>2026-04-05T08:11:43.917Z</time></trkpt><trkpt lat="43.7377074" lon="12.7044914"><ele>447.0</ele><time>2026-04-05T08:11:44.918Z</time></trkpt><trkpt lat="43.7378233" lon="12.7044575"><ele>447.0</ele><time>2026-04-05T08:11:45.918Z</time></trkpt><trkpt lat="43.737981" lon="12.7044463"><ele>443.33333333333337</ele><time>2026-04-05T08:11:46.918Z</time></trkpt><trkpt lat="43.7381256" lon="12.7044041"><ele>439.6666666666667</ele><time>2026-04-05T08:11:47.918Z</time></trkpt><trkpt lat="43.7382836" lon="12.7043449"><ele>436.0</ele><time>2026-04-05T08:11:48.918Z</time></trkpt><trkpt lat="43.738448" lon="12.7042754"><ele>432.6666666666667</ele><time>2026-04-05T08:11:49.918Z</time></trkpt><trkpt lat="43.7386097" lon="12.7042309"><ele>429.33333333333337</ele><time>2026-04-05T08:11:50.918Z</time></trkpt><trkpt lat="43.738769" lon="12.7042205"><ele>426.0</ele><time>2026-04-05T08:11:51.919Z</time></trkpt><trkpt lat="43.7389241" lon="12.7042312"><ele>426.0</ele><time>2026-04-05T08:11:52.918Z</time></trkpt><trkpt lat="43.7390853" lon="12.7042318"><ele>426.0</ele><time>2026-04-05T08:11:53.918Z</time></trkpt><trkpt lat="43.7392497" lon="12.7042254"><ele>426.0</ele><time>2026-04-05T08:11:54.918Z</time></trkpt><trkpt lat="43.7394133" lon="12.70423"><ele>423.66666666666663</ele><time>2026-04-05T08:11:55.918Z</time></trkpt><trkpt lat="43.7395723" lon="12.704237"><ele>421.3333333333333</ele><time>2026-04-05T08:11:56.918Z</time></trkpt><trkpt lat="43.7397264" lon="12.7042312"><ele>419.0</ele><time>2026-04-05T08:11:57.918Z</time></trkpt><trkpt lat="43.7398733" lon="12.7042055"><ele>419.0</ele><time>2026-04-05T08:11:58.918Z</time></trkpt><trkpt lat="43.7400159" lon="12.7041745"><ele>419.0</ele><time>2026-04-05T08:11:59.918Z</time></trkpt><trkpt lat="43.7401553" lon="12.7041593"><ele>419.0</ele><time>2026-04-05T08:12:00.917Z</time></trkpt><trkpt lat="43.740292" lon="12.7041725"><ele>419.0</ele><time>2026-04-05T08:12:01.918Z</time></trkpt><trkpt lat="43.740425" lon="12.704217"><ele>416.75</ele><time>2026-04-05T08:12:02.918Z</time></trkpt><trkpt lat="43.7405552" lon="12.7042631"><ele>414.5</ele><time>2026-04-05T08:12:03.918Z</time></trkpt><trkpt lat="43.7406831" lon="12.7042973"><ele>412.25</ele><time>2026-04-05T08:12:04.918Z</time></trkpt><trkpt lat="43.7408034" lon="12.7043098"><ele>410.0</ele><time>2026-04-05T08:12:05.919Z</time></trkpt><trkpt lat="43.7409165" lon="12.7042993"><ele>410.0</ele><time>2026-04-05T08:12:06.918Z</time></trkpt><trkpt lat="43.7410154" lon="12.7042749"><ele>410.0</ele><time>2026-04-05T08:12:07.918Z</time></trkpt><trkpt lat="43.7410907" lon="12.7042563"><ele>410.0</ele><time>2026-04-05T08:12:08.918Z</time></trkpt><trkpt lat="43.7411856" lon="12.7042449"><ele>410.0</ele><time>2026-04-05T08:12:10.919Z</time></trkpt><trkpt lat="43.7412805" lon="12.7042616"><ele>410.0</ele><time>2026-04-05T08:12:13.919Z</time></trkpt><trkpt lat="43.7413767" lon="12.7043392"><ele>409.6</ele><time>2026-04-05T08:12:15.918Z</time></trkpt><trkpt lat="43.7414452" lon="12.7043874"><ele>409.2</ele><time>2026-04-05T08:12:16.918Z</time></trkpt><trkpt lat="43.741531" lon="12.7044368"><ele>408.79999999999995</ele><time>2026-04-05T08:12:17.917Z</time></trkpt><trkpt lat="43.7416156" lon="12.7044867"><ele>408.4</ele><time>2026-04-05T08:12:18.918Z</time></trkpt><trkpt lat="43.7417082" lon="12.7045465"><ele>408.0</ele><time>2026-04-05T08:12:19.917Z</time></trkpt><trkpt lat="43.7418053" lon="12.7046075"><ele>408.5</ele><time>2026-04-05T08:12:20.917Z</time></trkpt><trkpt lat="43.7419113" lon="12.7046652"><ele>409.0</ele><time>2026-04-05T08:12:21.918Z</time></trkpt><trkpt lat="43.742019" lon="12.7047375"><ele>409.5</ele><time>2026-04-05T08:12:22.918Z</time></trkpt><trkpt lat="43.7421205" lon="12.7048324"><ele>410.0</ele><time>2026-04-05T08:12:23.919Z</time></trkpt><trkpt lat="43.742214" lon="12.7049413"><ele>410.0</ele><time>2026-04-05T08:12:24.918Z</time></trkpt><trkpt lat="43.7423061" lon="12.7050595"><ele>410.0</ele><time>2026-04-05T08:12:25.919Z</time></trkpt><trkpt lat="43.7424012" lon="12.7051802"><ele>410.0</ele><time>2026-04-05T08:12:26.918Z</time></trkpt><trkpt lat="43.7424889" lon="12.7053128"><ele>410.0</ele><time>2026-04-05T08:12:27.917Z</time></trkpt><trkpt lat="43.7425745" lon="12.7054447"><ele>408.25</ele><time>2026-04-05T08:12:28.918Z</time></trkpt><trkpt lat="43.7426542" lon="12.7055674"><ele>406.5</ele><time>2026-04-05T08:12:29.918Z</time></trkpt><trkpt lat="43.7427445" lon="12.7056715"><ele>404.75</ele><time>2026-04-05T08:12:30.918Z</time></trkpt><trkpt lat="43.7428555" lon="12.7057538"><ele>403.0</ele><time>2026-04-05T08:12:31.918Z</time></trkpt><trkpt lat="43.7429845" lon="12.705822"><ele>403.0</ele><time>2026-04-05T08:12:32.918Z</time></trkpt><trkpt lat="43.7431263" lon="12.7058891"><ele>403.0</ele><time>2026-04-05T08:12:33.918Z</time></trkpt><trkpt lat="43.7432794" lon="12.7059478"><ele>403.0</ele><time>2026-04-05T08:12:34.918Z</time></trkpt><trkpt lat="43.7434442" lon="12.7059842"><ele>400.33333333333337</ele><time>2026-04-05T08:12:35.918Z</time></trkpt><trkpt lat="43.7436166" lon="12.7060055"><ele>397.66666666666663</ele><time>2026-04-05T08:12:36.917Z</time></trkpt><trkpt lat="43.7437966" lon="12.7060277"><ele>395.0</ele><time>2026-04-05T08:12:37.918Z</time></trkpt><trkpt lat="43.74398" lon="12.7060529"><ele>395.0</ele><time>2026-04-05T08:12:38.917Z</time></trkpt><trkpt lat="43.7441563" lon="12.7060775"><ele>395.0</ele><time>2026-04-05T08:12:39.917Z</time></trkpt><trkpt lat="43.7443257" lon="12.706096"><ele>395.0</ele><time>2026-04-05T08:12:40.918Z</time></trkpt><trkpt lat="43.74449" lon="12.7061196"><ele>388.66666666666663</ele><time>2026-04-05T08:12:41.919Z</time></trkpt><trkpt lat="43.7446466" lon="12.7061647"><ele>382.3333333333333</ele><time>2026-04-05T08:12:42.917Z</time></trkpt><trkpt lat="43.7447994" lon="12.7062359"><ele>376.0</ele><time>2026-04-05T08:12:43.916Z</time></trkpt><trkpt lat="43.7449543" lon="12.7063261"><ele>376.0</ele><time>2026-04-05T08:12:44.917Z</time></trkpt><trkpt lat="43.7451168" lon="12.7064184"><ele>376.0</ele><time>2026-04-05T08:12:45.917Z</time></trkpt><trkpt lat="43.7452841" lon="12.7065102"><ele>376.0</ele><time>2026-04-05T08:12:46.917Z</time></trkpt><trkpt lat="43.7454376" lon="12.7066034"><ele>376.66666666666663</ele><time>2026-04-05T08:12:47.917Z</time></trkpt><trkpt lat="43.7455878" lon="12.7066956"><ele>377.3333333333333</ele><time>2026-04-05T08:12:48.917Z</time></trkpt><trkpt lat="43.7457284" lon="12.7067845"><ele>378.0</ele><time>2026-04-05T08:12:49.917Z</time></trkpt><trkpt lat="43.7458643" lon="12.706877"><ele>374.0</ele><time>2026-04-05T08:12:50.917Z</time></trkpt><trkpt lat="43.7459913" lon="12.7069744"><ele>370.0</ele><time>2026-04-05T08:12:51.917Z</time></trkpt><trkpt lat="43.7461103" lon="12.7070798"><ele>366.0</ele><time>2026-04-05T08:12:52.918Z</time></trkpt><trkpt lat="43.7462145" lon="12.7071968"><ele>362.0</ele><time>2026-04-05T08:12:53.917Z</time></trkpt><trkpt lat="43.7463128" lon="12.7073096"><ele>362.0</ele><time>2026-04-05T08:12:54.916Z</time></trkpt><trkpt lat="43.7464046" lon="12.7074089"><ele>362.0</ele><time>2026-04-05T08:12:55.917Z</time></trkpt><trkpt lat="43.7465025" lon="12.7074859"><ele>362.0</ele><time>2026-04-05T08:12:56.917Z</time></trkpt><trkpt lat="43.7466094" lon="12.7075195"><ele>362.0</ele><time>2026-04-05T08:12:57.917Z</time></trkpt><trkpt lat="43.7467188" lon="12.7075226"><ele>362.0</ele><time>2026-04-05T08:12:58.917Z</time></trkpt><trkpt lat="43.7468371" lon="12.7075288"><ele>358.0</ele><time>2026-04-05T08:12:59.917Z</time></trkpt><trkpt lat="43.7469595" lon="12.7075548"><ele>354.0</ele><time>2026-04-05T08:13:00.917Z</time></trkpt><trkpt lat="43.7470819" lon="12.7076189"><ele>350.0</ele><time>2026-04-05T08:13:01.918Z</time></trkpt><trkpt lat="43.7471969" lon="12.7077018"><ele>346.0</ele><time>2026-04-05T08:13:02.917Z</time></trkpt><trkpt lat="43.7473063" lon="12.7077815"><ele>346.0</ele><time>2026-04-05T08:13:03.917Z</time></trkpt><trkpt lat="43.7474036" lon="12.7078607"><ele>346.0</ele><time>2026-04-05T08:13:04.916Z</time></trkpt><trkpt lat="43.7474788" lon="12.7079512"><ele>346.0</ele><time>2026-04-05T08:13:05.916Z</time></trkpt><trkpt lat="43.7475295" lon="12.7080554"><ele>346.0</ele><time>2026-04-05T08:13:06.917Z</time></trkpt><trkpt lat="43.747545" lon="12.7081616"><ele>346.0</ele><time>2026-04-05T08:13:07.917Z</time></trkpt><trkpt lat="43.7475235" lon="12.7082622"><ele>346.0</ele><time>2026-04-05T08:13:08.916Z</time></trkpt><trkpt lat="43.7474629" lon="12.7083288"><ele>346.0</ele><time>2026-04-05T08:13:09.917Z</time></trkpt><trkpt lat="43.747385" lon="12.7083365"><ele>346.0</ele><time>2026-04-05T08:13:10.917Z</time></trkpt><trkpt lat="43.7472975" lon="12.7082922"><ele>346.0</ele><time>2026-04-05T08:13:11.917Z</time></trkpt><trkpt lat="43.7472049" lon="12.7082102"><ele>346.0</ele><time>2026-04-05T08:13:12.917Z</time></trkpt><trkpt lat="43.7470996" lon="12.7081091"><ele>346.0</ele><time>2026-04-05T08:13:13.917Z</time></trkpt><trkpt lat="43.7469885" lon="12.7080153"><ele>346.0</ele><time>2026-04-05T08:13:14.917Z</time></trkpt><trkpt lat="43.7468826" lon="12.7079496"><ele>346.0</ele><time>2026-04-05T08:13:15.916Z</time></trkpt><trkpt lat="43.746787" lon="12.7079178"><ele>346.0</ele><time>2026-04-05T08:13:16.916Z</time></trkpt><trkpt lat="43.7466959" lon="12.7079235"><ele>346.0</ele><time>2026-04-05T08:13:17.918Z</time></trkpt><trkpt lat="43.7466581" lon="12.7080337"><ele>346.0</ele><time>2026-04-05T08:13:18.917Z</time></trkpt><trkpt lat="43.7466522" lon="12.7081435"><ele>346.0</ele><time>2026-04-05T08:13:19.917Z</time></trkpt><trkpt lat="43.7466926" lon="12.7082619"><ele>346.0</ele><time>2026-04-05T08:13:20.917Z</time></trkpt><trkpt lat="43.7467753" lon="12.7083603"><ele>346.0</ele><time>2026-04-05T08:13:21.917Z</time></trkpt><trkpt lat="43.7468877" lon="12.7084472"><ele>346.0</ele><time>2026-04-05T08:13:22.916Z</time></trkpt><trkpt lat="43.7470195" lon="12.7085391"><ele>341.0</ele><time>2026-04-05T08:13:23.917Z</time></trkpt><trkpt lat="43.7471593" lon="12.7086415"><ele>336.0</ele><time>2026-04-05T08:13:24.916Z</time></trkpt><trkpt lat="43.7472915" lon="12.7087322"><ele>331.0</ele><time>2026-04-05T08:13:25.917Z</time></trkpt><trkpt lat="43.7474257" lon="12.7087952"><ele>326.0</ele><time>2026-04-05T08:13:26.918Z</time></trkpt><trkpt lat="43.7475604" lon="12.7088137"><ele>326.0</ele><time>2026-04-05T08:13:27.917Z</time></trkpt><trkpt lat="43.747693" lon="12.7087946"><ele>326.0</ele><time>2026-04-05T08:13:28.916Z</time></trkpt><trkpt lat="43.7478252" lon="12.7087495"><ele>326.0</ele><time>2026-04-05T08:13:29.916Z</time></trkpt><trkpt lat="43.7479519" lon="12.7087005"><ele>326.0</ele><time>2026-04-05T08:13:30.917Z</time></trkpt><trkpt lat="43.748084" lon="12.7086624"><ele>325.75</ele><time>2026-04-05T08:13:31.917Z</time></trkpt><trkpt lat="43.7482209" lon="12.7086275"><ele>325.5</ele><time>2026-04-05T08:13:32.917Z</time></trkpt><trkpt lat="43.7483606" lon="12.7086077"><ele>325.25</ele><time>2026-04-05T08:13:33.916Z</time></trkpt><trkpt lat="43.7484919" lon="12.7086274"><ele>325.0</ele><time>2026-04-05T08:13:34.917Z</time></trkpt><trkpt lat="43.7486141" lon="12.7086884"><ele>324.5</ele><time>2026-04-05T08:13:35.917Z</time></trkpt><trkpt lat="43.7487178" lon="12.7087815"><ele>324.0</ele><time>2026-04-05T08:13:36.916Z</time></trkpt><trkpt lat="43.7488197" lon="12.7088788"><ele>323.5</ele><time>2026-04-05T08:13:37.917Z</time></trkpt><trkpt lat="43.7489313" lon="12.7089647"><ele>323.0</ele><time>2026-04-05T08:13:38.917Z</time></trkpt><trkpt lat="43.7490539" lon="12.7090313"><ele>323.0</ele><time>2026-04-05T08:13:39.917Z</time></trkpt><trkpt lat="43.7491849" lon="12.7090786"><ele>323.0</ele><time>2026-04-05T08:13:40.916Z</time></trkpt><trkpt lat="43.7493194" lon="12.7091095"><ele>323.0</ele><time>2026-04-05T08:13:41.916Z</time></trkpt><trkpt lat="43.7494477" lon="12.7091178"><ele>323.0</ele><time>2026-04-05T08:13:42.917Z</time></trkpt><trkpt lat="43.7495839" lon="12.7091099"><ele>320.5</ele><time>2026-04-05T08:13:43.917Z</time></trkpt><trkpt lat="43.7497286" lon="12.7090985"><ele>318.0</ele><time>2026-04-05T08:13:44.917Z</time></trkpt><trkpt lat="43.749877" lon="12.7090981"><ele>315.5</ele><time>2026-04-05T08:13:45.917Z</time></trkpt><trkpt lat="43.7500204" lon="12.7091344"><ele>313.0</ele><time>2026-04-05T08:13:46.917Z</time></trkpt><trkpt lat="43.7501663" lon="12.7092106"><ele>313.0</ele><time>2026-04-05T08:13:47.918Z</time></trkpt><trkpt lat="43.7503127" lon="12.7093081"><ele>313.0</ele><time>2026-04-05T08:13:48.916Z</time></trkpt><trkpt lat="43.750462" lon="12.7094259"><ele>313.0</ele><time>2026-04-05T08:13:49.917Z</time></trkpt><trkpt lat="43.7506094" lon="12.709558"><ele>313.0</ele><time>2026-04-05T08:13:50.917Z</time></trkpt><trkpt lat="43.7507619" lon="12.709698"><ele>313.0</ele><time>2026-04-05T08:13:51.917Z</time></trkpt><trkpt lat="43.7509169" lon="12.7098362"><ele>313.0</ele><time>2026-04-05T08:13:52.917Z</time></trkpt><trkpt lat="43.7510604" lon="12.7099648"><ele>312.0</ele><time>2026-04-05T08:13:53.917Z</time></trkpt><trkpt lat="43.7511968" lon="12.710087"><ele>311.0</ele><time>2026-04-05T08:13:54.917Z</time></trkpt><trkpt lat="43.7513253" lon="12.710204"><ele>310.0</ele><time>2026-04-05T08:13:55.917Z</time></trkpt><trkpt lat="43.751451" lon="12.7103046"><ele>310.0</ele><time>2026-04-05T08:13:56.916Z</time></trkpt><trkpt lat="43.7515844" lon="12.7103835"><ele>310.0</ele><time>2026-04-05T08:13:57.917Z</time></trkpt><trkpt lat="43.7517301" lon="12.7104373"><ele>310.0</ele><time>2026-04-05T08:13:58.917Z</time></trkpt><trkpt lat="43.7518855" lon="12.7104597"><ele>308.0</ele><time>2026-04-05T08:13:59.917Z</time></trkpt><trkpt lat="43.7520502" lon="12.7104525"><ele>306.0</ele><time>2026-04-05T08:14:00.917Z</time></trkpt><trkpt lat="43.7522281" lon="12.7104208"><ele>304.0</ele><time>2026-04-05T08:14:01.917Z</time></trkpt><trkpt lat="43.7524193" lon="12.7103795"><ele>304.0</ele><time>2026-04-05T08:14:02.917Z</time></trkpt><trkpt lat="43.7526222" lon="12.7103298"><ele>304.0</ele><time>2026-04-05T08:14:03.917Z</time></trkpt><trkpt lat="43.7528352" lon="12.7102775"><ele>304.0</ele><time>2026-04-05T08:14:04.917Z</time></trkpt><trkpt lat="43.753055" lon="12.7102282"><ele>306.0</ele><time>2026-04-05T08:14:05.917Z</time></trkpt><trkpt lat="43.7532772" lon="12.7101722"><ele>308.0</ele><time>2026-04-05T08:14:06.917Z</time></trkpt><trkpt lat="43.753502" lon="12.7101132"><ele>303.33333333333337</ele><time>2026-04-05T08:14:07.917Z</time></trkpt><trkpt lat="43.7537276" lon="12.7100533"><ele>298.6666666666667</ele><time>2026-04-05T08:14:08.916Z</time></trkpt><trkpt lat="43.7539434" lon="12.7099986"><ele>294.0</ele><time>2026-04-05T08:14:09.918Z</time></trkpt><trkpt lat="43.754144" lon="12.709949"><ele>294.0</ele><time>2026-04-05T08:14:10.916Z</time></trkpt><trkpt lat="43.7543322" lon="12.7098982"><ele>294.0</ele><time>2026-04-05T08:14:11.917Z</time></trkpt><trkpt lat="43.7545073" lon="12.7098489"><ele>294.0</ele><time>2026-04-05T08:14:12.917Z</time></trkpt><trkpt lat="43.7546789" lon="12.7098066"><ele>291.6666666666667</ele><time>2026-04-05T08:14:13.916Z</time></trkpt><trkpt lat="43.7548509" lon="12.7097634"><ele>289.33333333333337</ele><time>2026-04-05T08:14:14.917Z</time></trkpt><trkpt lat="43.7550231" lon="12.7097193"><ele>287.0</ele><time>2026-04-05T08:14:15.916Z</time></trkpt><trkpt lat="43.755194" lon="12.7096795"><ele>287.6666666666667</ele><time>2026-04-05T08:14:16.917Z</time></trkpt><trkpt lat="43.7553651" lon="12.7096452"><ele>288.3333333333333</ele><time>2026-04-05T08:14:17.917Z</time></trkpt><trkpt lat="43.7555359" lon="12.7096163"><ele>289.0</ele><time>2026-04-05T08:14:18.916Z</time></trkpt><trkpt lat="43.7557101" lon="12.7096049"><ele>289.0</ele><time>2026-04-05T08:14:19.917Z</time></trkpt><trkpt lat="43.7558753" lon="12.7096222"><ele>289.0</ele><time>2026-04-05T08:14:20.917Z</time></trkpt><trkpt lat="43.756045" lon="12.7096721"><ele>289.0</ele><time>2026-04-05T08:14:21.917Z</time></trkpt><trkpt lat="43.7562198" lon="12.7097413"><ele>288.0</ele><time>2026-04-05T08:14:22.917Z</time></trkpt><trkpt lat="43.7564005" lon="12.7098337"><ele>287.0</ele><time>2026-04-05T08:14:23.917Z</time></trkpt><trkpt lat="43.7565899" lon="12.7099392"><ele>286.0</ele><time>2026-04-05T08:14:24.917Z</time></trkpt><trkpt lat="43.7567825" lon="12.7100436"><ele>284.0</ele><time>2026-04-05T08:14:25.917Z</time></trkpt><trkpt lat="43.7569851" lon="12.710156"><ele>282.0</ele><time>2026-04-05T08:14:26.917Z</time></trkpt><trkpt lat="43.7571929" lon="12.7102734"><ele>280.0</ele><time>2026-04-05T08:14:27.917Z</time></trkpt><trkpt lat="43.7573951" lon="12.7103797"><ele>280.0</ele><time>2026-04-05T08:14:28.917Z</time></trkpt><trkpt lat="43.7575882" lon="12.7104753"><ele>280.0</ele><time>2026-04-05T08:14:29.917Z</time></trkpt><trkpt lat="43.7577713" lon="12.7105718"><ele>280.0</ele><time>2026-04-05T08:14:30.916Z</time></trkpt><trkpt lat="43.7579477" lon="12.7106675"><ele>277.0</ele><time>2026-04-05T08:14:31.917Z</time></trkpt><trkpt lat="43.7581163" lon="12.7107581"><ele>274.0</ele><time>2026-04-05T08:14:32.917Z</time></trkpt><trkpt lat="43.7582783" lon="12.7108436"><ele>271.0</ele><time>2026-04-05T08:14:33.917Z</time></trkpt><trkpt lat="43.7584288" lon="12.7109272"><ele>269.25</ele><time>2026-04-05T08:14:34.917Z</time></trkpt><trkpt lat="43.7585717" lon="12.7110064"><ele>267.5</ele><time>2026-04-05T08:14:35.917Z</time></trkpt><trkpt lat="43.7587068" lon="12.7110839"><ele>265.75</ele><time>2026-04-05T08:14:36.917Z</time></trkpt><trkpt lat="43.7588272" lon="12.7111878"><ele>264.0</ele><time>2026-04-05T08:14:37.917Z</time></trkpt><trkpt lat="43.75893" lon="12.7113239"><ele>264.0</ele><time>2026-04-05T08:14:38.917Z</time></trkpt><trkpt lat="43.7590177" lon="12.7114905"><ele>264.0</ele><time>2026-04-05T08:14:39.916Z</time></trkpt><trkpt lat="43.7590884" lon="12.7116892"><ele>264.0</ele><time>2026-04-05T08:14:40.917Z</time></trkpt><trkpt lat="43.7591448" lon="12.7118881"><ele>264.0</ele><time>2026-04-05T08:14:41.917Z</time></trkpt><trkpt lat="43.7592039" lon="12.7120758"><ele>264.0</ele><time>2026-04-05T08:14:42.918Z</time></trkpt><trkpt lat="43.7592723" lon="12.7122578"><ele>264.0</ele><time>2026-04-05T08:14:43.917Z</time></trkpt><trkpt lat="43.7593621" lon="12.7124129"><ele>264.0</ele><time>2026-04-05T08:14:44.917Z</time></trkpt><trkpt lat="43.7594808" lon="12.712538"><ele>258.6666666666667</ele><time>2026-04-05T08:14:45.916Z</time></trkpt><trkpt lat="43.7596237" lon="12.7126279"><ele>253.33333333333334</ele><time>2026-04-05T08:14:46.917Z</time></trkpt><trkpt lat="43.7597862" lon="12.7126845"><ele>248.0</ele><time>2026-04-05T08:14:47.916Z</time></trkpt><trkpt lat="43.7599651" lon="12.7127292"><ele>248.0</ele><time>2026-04-05T08:14:48.917Z</time></trkpt><trkpt lat="43.7601564" lon="12.7127944"><ele>248.0</ele><time>2026-04-05T08:14:49.917Z</time></trkpt><trkpt lat="43.7603658" lon="12.712861"><ele>248.0</ele><time>2026-04-05T08:14:50.917Z</time></trkpt><trkpt lat="43.7605878" lon="12.7129241"><ele>246.66666666666669</ele><time>2026-04-05T08:14:51.917Z</time></trkpt><trkpt lat="43.7607945" lon="12.7129857"><ele>245.33333333333331</ele><time>2026-04-05T08:14:52.918Z</time></trkpt><trkpt lat="43.7609917" lon="12.7130478"><ele>244.0</ele><time>2026-04-05T08:14:53.917Z</time></trkpt><trkpt lat="43.7611797" lon="12.7131027"><ele>243.0</ele><time>2026-04-05T08:14:54.917Z</time></trkpt><trkpt lat="43.761363" lon="12.7131376"><ele>242.0</ele><time>2026-04-05T08:14:55.917Z</time></trkpt><trkpt lat="43.7615533" lon="12.713148"><ele>241.0</ele><time>2026-04-05T08:14:56.917Z</time></trkpt><trkpt lat="43.7617518" lon="12.713146"><ele>238.66666666666666</ele><time>2026-04-05T08:14:57.917Z</time></trkpt><trkpt lat="43.7619607" lon="12.7131502"><ele>236.33333333333331</ele><time>2026-04-05T08:14:58.916Z</time></trkpt><trkpt lat="43.7621792" lon="12.7131545"><ele>234.0</ele><time>2026-04-05T08:14:59.917Z</time></trkpt><trkpt lat="43.7624072" lon="12.7131546"><ele>234.0</ele><time>2026-04-05T08:15:00.916Z</time></trkpt><trkpt lat="43.762642" lon="12.7131513"><ele>234.0</ele><time>2026-04-05T08:15:01.916Z</time></trkpt><trkpt lat="43.7628634" lon="12.7131496"><ele>231.0</ele><time>2026-04-05T08:15:02.917Z</time></trkpt><trkpt lat="43.7630746" lon="12.7131548"><ele>228.0</ele><time>2026-04-05T08:15:03.917Z</time></trkpt><trkpt lat="43.7632748" lon="12.7131745"><ele>225.0</ele><time>2026-04-05T08:15:04.917Z</time></trkpt><trkpt lat="43.7634687" lon="12.713215"><ele>222.66666666666669</ele><time>2026-04-05T08:15:05.917Z</time></trkpt><trkpt lat="43.7636668" lon="12.7132814"><ele>220.33333333333334</ele><time>2026-04-05T08:15:06.917Z</time></trkpt><trkpt lat="43.7638709" lon="12.7133629"><ele>218.0</ele><time>2026-04-05T08:15:07.917Z</time></trkpt><trkpt lat="43.7640833" lon="12.7134504"><ele>218.0</ele><time>2026-04-05T08:15:08.917Z</time></trkpt><trkpt lat="43.7642952" lon="12.713529"><ele>218.0</ele><time>2026-04-05T08:15:09.916Z</time></trkpt><trkpt lat="43.7644937" lon="12.7136019"><ele>218.0</ele><time>2026-04-05T08:15:10.916Z</time></trkpt><trkpt lat="43.7646858" lon="12.7136667"><ele>217.0</ele><time>2026-04-05T08:15:11.917Z</time></trkpt><trkpt lat="43.7648721" lon="12.7137077"><ele>216.0</ele><time>2026-04-05T08:15:12.917Z</time></trkpt><trkpt lat="43.7650508" lon="12.7137204"><ele>215.0</ele><time>2026-04-05T08:15:13.916Z</time></trkpt><trkpt lat="43.7652308" lon="12.7136963"><ele>215.0</ele><time>2026-04-05T08:15:14.916Z</time></trkpt><trkpt lat="43.7654157" lon="12.7136461"><ele>215.0</ele><time>2026-04-05T08:15:15.916Z</time></trkpt><trkpt lat="43.7656047" lon="12.7135804"><ele>215.0</ele><time>2026-04-05T08:15:16.917Z</time></trkpt><trkpt lat="43.7657979" lon="12.7134961"><ele>215.0</ele><time>2026-04-05T08:15:17.916Z</time></trkpt><trkpt lat="43.7659961" lon="12.7134039"><ele>215.0</ele><time>2026-04-05T08:15:18.917Z</time></trkpt><trkpt lat="43.7662015" lon="12.7133141"><ele>215.0</ele><time>2026-04-05T08:15:19.917Z</time></trkpt><trkpt lat="43.7664113" lon="12.7132208"><ele>213.0</ele><time>2026-04-05T08:15:20.916Z</time></trkpt><trkpt lat="43.7666266" lon="12.7131283"><ele>211.0</ele><time>2026-04-05T08:15:21.917Z</time></trkpt><trkpt lat="43.7668479" lon="12.7130344"><ele>211.0</ele><time>2026-04-05T08:15:22.917Z</time></trkpt><trkpt lat="43.7670694" lon="12.7129401"><ele>211.0</ele><time>2026-04-05T08:15:23.917Z</time></trkpt><trkpt lat="43.7672879" lon="12.7128459"><ele>211.0</ele><time>2026-04-05T08:15:24.916Z</time></trkpt><trkpt lat="43.7675111" lon="12.71275"><ele>211.0</ele><time>2026-04-05T08:15:25.917Z</time></trkpt><trkpt lat="43.7677357" lon="12.7126582"><ele>212.0</ele><time>2026-04-05T08:15:26.917Z</time></trkpt><trkpt lat="43.767961" lon="12.712565"><ele>213.0</ele><time>2026-04-05T08:15:27.917Z</time></trkpt><trkpt lat="43.7681862" lon="12.7124653"><ele>213.0</ele><time>2026-04-05T08:15:28.916Z</time></trkpt><trkpt lat="43.7684111" lon="12.712366"><ele>213.0</ele><time>2026-04-05T08:15:29.916Z</time></trkpt><trkpt lat="43.7686354" lon="12.7122673"><ele>212.0</ele><time>2026-04-05T08:15:30.917Z</time></trkpt><trkpt lat="43.7688586" lon="12.7121713"><ele>211.0</ele><time>2026-04-05T08:15:31.917Z</time></trkpt><trkpt lat="43.7690785" lon="12.7120807"><ele>211.0</ele><time>2026-04-05T08:15:32.916Z</time></trkpt><trkpt lat="43.7692804" lon="12.7119958"><ele>211.0</ele><time>2026-04-05T08:15:33.917Z</time></trkpt><trkpt lat="43.7694705" lon="12.7119148"><ele>211.0</ele><time>2026-04-05T08:15:34.917Z</time></trkpt><trkpt lat="43.7696513" lon="12.7118358"><ele>212.0</ele><time>2026-04-05T08:15:35.916Z</time></trkpt><trkpt lat="43.7698262" lon="12.7117479"><ele>213.0</ele><time>2026-04-05T08:15:36.917Z</time></trkpt><trkpt lat="43.7699857" lon="12.7116278"><ele>214.0</ele><time>2026-04-05T08:15:37.917Z</time></trkpt><trkpt lat="43.7701301" lon="12.7114721"><ele>212.66666666666666</ele><time>2026-04-05T08:15:38.916Z</time></trkpt><trkpt lat="43.7702595" lon="12.7112852"><ele>211.33333333333331</ele><time>2026-04-05T08:15:39.917Z</time></trkpt><trkpt lat="43.7703727" lon="12.7110738"><ele>210.0</ele><time>2026-04-05T08:15:40.916Z</time></trkpt><trkpt lat="43.7704796" lon="12.7108454"><ele>210.0</ele><time>2026-04-05T08:15:41.918Z</time></trkpt><trkpt lat="43.7705933" lon="12.710612"><ele>210.0</ele><time>2026-04-05T08:15:42.917Z</time></trkpt><trkpt lat="43.7707084" lon="12.7103687"><ele>210.0</ele><time>2026-04-05T08:15:43.917Z</time></trkpt><trkpt lat="43.7708189" lon="12.7101104"><ele>209.33333333333331</ele><time>2026-04-05T08:15:44.917Z</time></trkpt><trkpt lat="43.7709316" lon="12.7098441"><ele>208.66666666666666</ele><time>2026-04-05T08:15:45.917Z</time></trkpt><trkpt lat="43.771051" lon="12.7095779"><ele>208.0</ele><time>2026-04-05T08:15:46.916Z</time></trkpt><trkpt lat="43.7711722" lon="12.7093072"><ele>209.33333333333331</ele><time>2026-04-05T08:15:47.917Z</time></trkpt><trkpt lat="43.7712936" lon="12.7090355"><ele>210.66666666666669</ele><time>2026-04-05T08:15:48.917Z</time></trkpt><trkpt lat="43.7714044" lon="12.708784"><ele>212.0</ele><time>2026-04-05T08:15:49.917Z</time></trkpt><trkpt lat="43.7715115" lon="12.7085569"><ele>212.0</ele><time>2026-04-05T08:15:50.917Z</time></trkpt><trkpt lat="43.7716195" lon="12.7083766"><ele>212.0</ele><time>2026-04-05T08:15:51.917Z</time></trkpt><trkpt lat="43.7717301" lon="12.7082544"><ele>212.0</ele><time>2026-04-05T08:15:52.917Z</time></trkpt><trkpt lat="43.7718524" lon="12.7081817"><ele>212.0</ele><time>2026-04-05T08:15:53.917Z</time></trkpt><trkpt lat="43.7719898" lon="12.7081449"><ele>209.66666666666669</ele><time>2026-04-05T08:15:54.917Z</time></trkpt><trkpt lat="43.7721362" lon="12.7081289"><ele>207.33333333333331</ele><time>2026-04-05T08:15:55.917Z</time></trkpt><trkpt lat="43.7722935" lon="12.7081121"><ele>205.0</ele><time>2026-04-05T08:15:56.917Z</time></trkpt><trkpt lat="43.7724591" lon="12.7080963"><ele>205.0</ele><time>2026-04-05T08:15:57.917Z</time></trkpt><trkpt lat="43.7726329" lon="12.7080842"><ele>205.0</ele><time>2026-04-05T08:15:58.916Z</time></trkpt><trkpt lat="43.7728144" lon="12.7080701"><ele>205.0</ele><time>2026-04-05T08:15:59.918Z</time></trkpt><trkpt lat="43.7730029" lon="12.7080527"><ele>203.66666666666666</ele><time>2026-04-05T08:16:00.917Z</time></trkpt><trkpt lat="43.7731976" lon="12.7080373"><ele>202.33333333333331</ele><time>2026-04-05T08:16:01.918Z</time></trkpt><trkpt lat="43.7733968" lon="12.7080231"><ele>201.0</ele><time>2026-04-05T08:16:02.917Z</time></trkpt><trkpt lat="43.7736006" lon="12.7080037"><ele>200.66666666666669</ele><time>2026-04-05T08:16:03.916Z</time></trkpt><trkpt lat="43.7738077" lon="12.7079817"><ele>200.33333333333334</ele><time>2026-04-05T08:16:04.917Z</time></trkpt><trkpt lat="43.774019" lon="12.7079638"><ele>200.0</ele><time>2026-04-05T08:16:05.916Z</time></trkpt><trkpt lat="43.7742308" lon="12.7079468"><ele>199.33333333333334</ele><time>2026-04-05T08:16:06.917Z</time></trkpt><trkpt lat="43.7744446" lon="12.7079278"><ele>198.66666666666669</ele><time>2026-04-05T08:16:07.917Z</time></trkpt><trkpt lat="43.774659" lon="12.7079073"><ele>198.0</ele><time>2026-04-05T08:16:08.917Z</time></trkpt><trkpt lat="43.7748743" lon="12.7078928"><ele>198.0</ele><time>2026-04-05T08:16:09.917Z</time></trkpt><trkpt lat="43.7750839" lon="12.7078791"><ele>198.0</ele><time>2026-04-05T08:16:10.917Z</time></trkpt><trkpt lat="43.7752791" lon="12.70786"><ele>198.0</ele><time>2026-04-05T08:16:11.917Z</time></trkpt><trkpt lat="43.7754664" lon="12.7078413"><ele>198.33333333333331</ele><time>2026-04-05T08:16:12.917Z</time></trkpt><trkpt lat="43.7756419" lon="12.7078265"><ele>198.66666666666666</ele><time>2026-04-05T08:16:13.917Z</time></trkpt><trkpt lat="43.7758018" lon="12.7078142"><ele>199.0</ele><time>2026-04-05T08:16:14.917Z</time></trkpt><trkpt lat="43.7759506" lon="12.7078066"><ele>196.5</ele><time>2026-04-05T08:16:15.916Z</time></trkpt><trkpt lat="43.7760905" lon="12.7078109"><ele>194.0</ele><time>2026-04-05T08:16:16.917Z</time></trkpt><trkpt lat="43.7762176" lon="12.7078458"><ele>191.5</ele><time>2026-04-05T08:16:17.918Z</time></trkpt><trkpt lat="43.7763336" lon="12.7079145"><ele>189.0</ele><time>2026-04-05T08:16:18.916Z</time></trkpt><trkpt lat="43.7764034" lon="12.7080402"><ele>189.0</ele><time>2026-04-05T08:16:19.917Z</time></trkpt><trkpt lat="43.7764631" lon="12.7081897"><ele>189.0</ele><time>2026-04-05T08:16:20.917Z</time></trkpt><trkpt lat="43.7765129" lon="12.70836"><ele>189.0</ele><time>2026-04-05T08:16:21.917Z</time></trkpt><trkpt lat="43.7765614" lon="12.7085444"><ele>189.0</ele><time>2026-04-05T08:16:22.917Z</time></trkpt><trkpt lat="43.7766071" lon="12.7087404"><ele>188.33333333333334</ele><time>2026-04-05T08:16:23.917Z</time></trkpt><trkpt lat="43.7766471" lon="12.7089484"><ele>187.66666666666669</ele><time>2026-04-05T08:16:24.917Z</time></trkpt><trkpt lat="43.7766837" lon="12.7091645"><ele>187.0</ele><time>2026-04-05T08:16:25.916Z</time></trkpt><trkpt lat="43.7767149" lon="12.7093949"><ele>186.33333333333334</ele><time>2026-04-05T08:16:26.917Z</time></trkpt><trkpt lat="43.7767489" lon="12.7096375"><ele>185.66666666666666</ele><time>2026-04-05T08:16:27.917Z</time></trkpt><trkpt lat="43.7767869" lon="12.7098604"><ele>185.0</ele><time>2026-04-05T08:16:28.916Z</time></trkpt><trkpt lat="43.7768214" lon="12.7100813"><ele>183.66666666666666</ele><time>2026-04-05T08:16:29.917Z</time></trkpt><trkpt lat="43.7768494" lon="12.7102956"><ele>182.33333333333334</ele><time>2026-04-05T08:16:30.917Z</time></trkpt><trkpt lat="43.7768862" lon="12.7105017"><ele>181.0</ele><time>2026-04-05T08:16:31.916Z</time></trkpt><trkpt lat="43.7769424" lon="12.7106939"><ele>180.33333333333334</ele><time>2026-04-05T08:16:32.917Z</time></trkpt><trkpt lat="43.7770278" lon="12.7108698"><ele>179.66666666666666</ele><time>2026-04-05T08:16:33.917Z</time></trkpt><trkpt lat="43.7771464" lon="12.7110227"><ele>179.0</ele><time>2026-04-05T08:16:34.916Z</time></trkpt><trkpt lat="43.7772826" lon="12.7111497"><ele>175.33333333333331</ele><time>2026-04-05T08:16:35.917Z</time></trkpt><trkpt lat="43.7774196" lon="12.7112559"><ele>171.66666666666666</ele><time>2026-04-05T08:16:36.917Z</time></trkpt><trkpt lat="43.7775608" lon="12.711343"><ele>168.0</ele><time>2026-04-05T08:16:37.917Z</time></trkpt><trkpt lat="43.7777044" lon="12.7113937"><ele>168.0</ele><time>2026-04-05T08:16:38.917Z</time></trkpt><trkpt lat="43.7778495" lon="12.7113777"><ele>168.0</ele><time>2026-04-05T08:16:39.917Z</time></trkpt><trkpt lat="43.7779786" lon="12.7113228"><ele>168.0</ele><time>2026-04-05T08:16:40.917Z</time></trkpt><trkpt lat="43.7780877" lon="12.7112241"><ele>168.0</ele><time>2026-04-05T08:16:41.916Z</time></trkpt><trkpt lat="43.7781718" lon="12.7110884"><ele>168.5</ele><time>2026-04-05T08:16:42.917Z</time></trkpt><trkpt lat="43.7782234" lon="12.7109299"><ele>169.0</ele><time>2026-04-05T08:16:43.917Z</time></trkpt><trkpt lat="43.7782413" lon="12.7107469"><ele>169.5</ele><time>2026-04-05T08:16:44.917Z</time></trkpt><trkpt lat="43.778225" lon="12.710543"><ele>170.0</ele><time>2026-04-05T08:16:45.916Z</time></trkpt><trkpt lat="43.7782123" lon="12.7103542"><ele>169.25</ele><time>2026-04-05T08:16:46.917Z</time></trkpt><trkpt lat="43.7782285" lon="12.7101981"><ele>168.5</ele><time>2026-04-05T08:16:47.917Z</time></trkpt><trkpt lat="43.7782727" lon="12.7100573"><ele>167.75</ele><time>2026-04-05T08:16:48.917Z</time></trkpt><trkpt lat="43.7783473" lon="12.7099459"><ele>167.0</ele><time>2026-04-05T08:16:49.917Z</time></trkpt><trkpt lat="43.7784518" lon="12.7098673"><ele>164.66666666666666</ele><time>2026-04-05T08:16:50.916Z</time></trkpt><trkpt lat="43.7785816" lon="12.7097962"><ele>162.33333333333334</ele><time>2026-04-05T08:16:51.917Z</time></trkpt><trkpt lat="43.7787298" lon="12.7097406"><ele>160.0</ele><time>2026-04-05T08:16:52.917Z</time></trkpt><trkpt lat="43.7788918" lon="12.7096906"><ele>160.0</ele><time>2026-04-05T08:16:53.916Z</time></trkpt><trkpt lat="43.7790632" lon="12.709643"><ele>160.0</ele><time>2026-04-05T08:16:54.917Z</time></trkpt><trkpt lat="43.7792215" lon="12.7096091"><ele>160.0</ele><time>2026-04-05T08:16:55.916Z</time></trkpt><trkpt lat="43.7793619" lon="12.7095824"><ele>156.6</ele><time>2026-04-05T08:16:56.916Z</time></trkpt><trkpt lat="43.7794851" lon="12.7095746"><ele>153.2</ele><time>2026-04-05T08:16:57.917Z</time></trkpt><trkpt lat="43.7795899" lon="12.7096044"><ele>149.8</ele><time>2026-04-05T08:16:58.917Z</time></trkpt><trkpt lat="43.7796792" lon="12.7096777"><ele>146.4</ele><time>2026-04-05T08:16:59.917Z</time></trkpt><trkpt lat="43.7797435" lon="12.7097917"><ele>143.0</ele><time>2026-04-05T08:17:00.917Z</time></trkpt><trkpt lat="43.7797964" lon="12.7099353"><ele>143.0</ele><time>2026-04-05T08:17:01.916Z</time></trkpt><trkpt lat="43.7798453" lon="12.7101025"><ele>143.0</ele><time>2026-04-05T08:17:02.916Z</time></trkpt><trkpt lat="43.7798909" lon="12.7102874"><ele>143.0</ele><time>2026-04-05T08:17:03.917Z</time></trkpt><trkpt lat="43.7799302" lon="12.7104867"><ele>143.0</ele><time>2026-04-05T08:17:04.917Z</time></trkpt><trkpt lat="43.7799727" lon="12.7106943"><ele>143.0</ele><time>2026-04-05T08:17:05.917Z</time></trkpt><trkpt lat="43.780026" lon="12.7108872"><ele>143.0</ele><time>2026-04-05T08:17:06.917Z</time></trkpt><trkpt lat="43.7800813" lon="12.7110609"><ele>143.0</ele><time>2026-04-05T08:17:07.917Z</time></trkpt><trkpt lat="43.7801413" lon="12.7112129"><ele>143.0</ele><time>2026-04-05T08:17:08.917Z</time></trkpt><trkpt lat="43.7802201" lon="12.7113306"><ele>141.20000000000002</ele><time>2026-04-05T08:17:09.917Z</time></trkpt><trkpt lat="43.7803151" lon="12.7113993"><ele>139.4</ele><time>2026-04-05T08:17:10.916Z</time></trkpt><trkpt lat="43.7804178" lon="12.711411"><ele>137.60000000000002</ele><time>2026-04-05T08:17:11.917Z</time></trkpt><trkpt lat="43.780514" lon="12.7113788"><ele>135.8</ele><time>2026-04-05T08:17:12.917Z</time></trkpt><trkpt lat="43.780605" lon="12.7113139"><ele>134.0</ele><time>2026-04-05T08:17:13.916Z</time></trkpt><trkpt lat="43.7806798" lon="12.7112265"><ele>134.0</ele><time>2026-04-05T08:17:14.917Z</time></trkpt><trkpt lat="43.7807327" lon="12.7111059"><ele>134.0</ele><time>2026-04-05T08:17:15.917Z</time></trkpt><trkpt lat="43.7807638" lon="12.7109593"><ele>134.0</ele><time>2026-04-05T08:17:16.917Z</time></trkpt><trkpt lat="43.780768" lon="12.7107914"><ele>134.0</ele><time>2026-04-05T08:17:17.917Z</time></trkpt><trkpt lat="43.7807546" lon="12.710601"><ele>132.33333333333331</ele><time>2026-04-05T08:17:18.916Z</time></trkpt><trkpt lat="43.7807379" lon="12.7103958"><ele>130.66666666666666</ele><time>2026-04-05T08:17:19.917Z</time></trkpt><trkpt lat="43.7807255" lon="12.7101753"><ele>129.0</ele><time>2026-04-05T08:17:20.916Z</time></trkpt><trkpt lat="43.7807154" lon="12.7099458"><ele>127.66666666666666</ele><time>2026-04-05T08:17:21.917Z</time></trkpt><trkpt lat="43.7806993" lon="12.7097013"><ele>126.33333333333333</ele><time>2026-04-05T08:17:22.917Z</time></trkpt><trkpt lat="43.7806808" lon="12.7094437"><ele>125.0</ele><time>2026-04-05T08:17:23.917Z</time></trkpt><trkpt lat="43.780663" lon="12.7091725"><ele>123.33333333333333</ele><time>2026-04-05T08:17:24.917Z</time></trkpt><trkpt lat="43.7806442" lon="12.7089213"><ele>121.66666666666666</ele><time>2026-04-05T08:17:25.917Z</time></trkpt><trkpt lat="43.7806206" lon="12.7086818"><ele>120.0</ele><time>2026-04-05T08:17:26.918Z</time></trkpt><trkpt lat="43.7805803" lon="12.7084603"><ele>118.75</ele><time>2026-04-05T08:17:27.916Z</time></trkpt><trkpt lat="43.7805385" lon="12.7082553"><ele>117.5</ele><time>2026-04-05T08:17:28.917Z</time></trkpt><trkpt lat="43.7805081" lon="12.7080764"><ele>116.25</ele><time>2026-04-05T08:17:29.917Z</time></trkpt><trkpt lat="43.7804897" lon="12.707928"><ele>115.0</ele><time>2026-04-05T08:17:30.916Z</time></trkpt><trkpt lat="43.7804898" lon="12.7078165"><ele>114.66666666666667</ele><time>2026-04-05T08:17:31.917Z</time></trkpt><trkpt lat="43.7805174" lon="12.7077267"><ele>114.33333333333334</ele><time>2026-04-05T08:17:32.916Z</time></trkpt><trkpt lat="43.7805742" lon="12.7076688"><ele>114.0</ele><time>2026-04-05T08:17:33.917Z</time></trkpt><trkpt lat="43.7806441" lon="12.7076213"><ele>113.66666666666666</ele><time>2026-04-05T08:17:34.916Z</time></trkpt><trkpt lat="43.7807421" lon="12.7076333"><ele>113.33333333333333</ele><time>2026-04-05T08:17:35.916Z</time></trkpt><trkpt lat="43.7808507" lon="12.7076334"><ele>113.0</ele><time>2026-04-05T08:17:36.916Z</time></trkpt><trkpt lat="43.7809479" lon="12.7076456"><ele>112.60000000000001</ele><time>2026-04-05T08:17:37.916Z</time></trkpt><trkpt lat="43.7810265" lon="12.7076407"><ele>112.20000000000002</ele><time>2026-04-05T08:17:38.915Z</time></trkpt><trkpt lat="43.7811053" lon="12.7076133"><ele>111.8</ele><time>2026-04-05T08:17:39.916Z</time></trkpt><trkpt lat="43.7811891" lon="12.7075537"><ele>111.4</ele><time>2026-04-05T08:17:40.915Z</time></trkpt><trkpt lat="43.78128" lon="12.7074662"><ele>111.0</ele><time>2026-04-05T08:17:41.915Z</time></trkpt><trkpt lat="43.7813726" lon="12.7073659"><ele>111.0</ele><time>2026-04-05T08:17:42.916Z</time></trkpt><trkpt lat="43.7814734" lon="12.7072663"><ele>111.0</ele><time>2026-04-05T08:17:43.915Z</time></trkpt><trkpt lat="43.7815637" lon="12.7071744"><ele>111.0</ele><time>2026-04-05T08:17:44.916Z</time></trkpt><trkpt lat="43.7816462" lon="12.7070819"><ele>111.0</ele><time>2026-04-05T08:17:45.916Z</time></trkpt><trkpt lat="43.7817247" lon="12.7069941"><ele>111.0</ele><time>2026-04-05T08:17:46.916Z</time></trkpt><trkpt lat="43.7818022" lon="12.7069196"><ele>111.5</ele><time>2026-04-05T08:17:47.916Z</time></trkpt><trkpt lat="43.7818823" lon="12.7068598"><ele>112.0</ele><time>2026-04-05T08:17:48.917Z</time></trkpt><trkpt lat="43.7819656" lon="12.7068195"><ele>112.5</ele><time>2026-04-05T08:17:49.916Z</time></trkpt><trkpt lat="43.7820505" lon="12.706796"><ele>113.0</ele><time>2026-04-05T08:17:50.915Z</time></trkpt><trkpt lat="43.7821333" lon="12.7067943"><ele>113.5</ele><time>2026-04-05T08:17:51.915Z</time></trkpt><trkpt lat="43.7822114" lon="12.7068178"><ele>114.0</ele><time>2026-04-05T08:17:52.916Z</time></trkpt><trkpt lat="43.7822908" lon="12.7068798"><ele>113.5</ele><time>2026-04-05T08:17:53.917Z</time></trkpt><trkpt lat="43.7823652" lon="12.7069893"><ele>113.0</ele><time>2026-04-05T08:17:54.916Z</time></trkpt><trkpt lat="43.7824409" lon="12.707124"><ele>112.5</ele><time>2026-04-05T08:17:55.915Z</time></trkpt><trkpt lat="43.7825303" lon="12.7072696"><ele>112.0</ele><time>2026-04-05T08:17:56.916Z</time></trkpt><trkpt lat="43.7826291" lon="12.7074296"><ele>112.33333333333334</ele><time>2026-04-05T08:17:57.917Z</time></trkpt><trkpt lat="43.7827274" lon="12.7075862"><ele>112.66666666666666</ele><time>2026-04-05T08:17:58.916Z</time></trkpt><trkpt lat="43.7828302" lon="12.7077489"><ele>113.0</ele><time>2026-04-05T08:17:59.916Z</time></trkpt><trkpt lat="43.7829387" lon="12.7079095"><ele>113.0</ele><time>2026-04-05T08:18:00.916Z</time></trkpt><trkpt lat="43.7830474" lon="12.7080679"><ele>113.0</ele><time>2026-04-05T08:18:01.916Z</time></trkpt><trkpt lat="43.7831623" lon="12.7082214"><ele>113.0</ele><time>2026-04-05T08:18:02.916Z</time></trkpt><trkpt lat="43.7832801" lon="12.7083726"><ele>113.0</ele><time>2026-04-05T08:18:03.916Z</time></trkpt><trkpt lat="43.7833967" lon="12.7085244"><ele>113.0</ele><time>2026-04-05T08:18:04.916Z</time></trkpt><trkpt lat="43.7835081" lon="12.7086726"><ele>113.0</ele><time>2026-04-05T08:18:05.916Z</time></trkpt><trkpt lat="43.7836129" lon="12.708827"><ele>113.25</ele><time>2026-04-05T08:18:06.916Z</time></trkpt><trkpt lat="43.7837078" lon="12.7089892"><ele>113.5</ele><time>2026-04-05T08:18:07.916Z</time></trkpt><trkpt lat="43.7837993" lon="12.7091448"><ele>113.75</ele><time>2026-04-05T08:18:08.915Z</time></trkpt><trkpt lat="43.7838786" lon="12.7092827"><ele>114.0</ele><time>2026-04-05T08:18:09.915Z</time></trkpt><trkpt lat="43.7839508" lon="12.7094151"><ele>114.0</ele><time>2026-04-05T08:18:10.916Z</time></trkpt><trkpt lat="43.7840177" lon="12.7095533"><ele>114.0</ele><time>2026-04-05T08:18:11.916Z</time></trkpt><trkpt lat="43.7840882" lon="12.7096907"><ele>114.0</ele><time>2026-04-05T08:18:12.916Z</time></trkpt><trkpt lat="43.7841606" lon="12.709825"><ele>114.0</ele><time>2026-04-05T08:18:13.916Z</time></trkpt><trkpt lat="43.784234" lon="12.709962"><ele>114.0</ele><time>2026-04-05T08:18:14.916Z</time></trkpt><trkpt lat="43.7843083" lon="12.7101021"><ele>114.0</ele><time>2026-04-05T08:18:15.917Z</time></trkpt><trkpt lat="43.784386" lon="12.7102445"><ele>114.0</ele><time>2026-04-05T08:18:16.916Z</time></trkpt><trkpt lat="43.7844668" lon="12.7103875"><ele>114.0</ele><time>2026-04-05T08:18:17.916Z</time></trkpt><trkpt lat="43.7845475" lon="12.7105324"><ele>114.0</ele><time>2026-04-05T08:18:18.915Z</time></trkpt><trkpt lat="43.784627" lon="12.7106791"><ele>114.0</ele><time>2026-04-05T08:18:19.916Z</time></trkpt><trkpt lat="43.7847072" lon="12.7108264"><ele>114.0</ele><time>2026-04-05T08:18:20.916Z</time></trkpt><trkpt lat="43.7847883" lon="12.7109712"><ele>114.0</ele><time>2026-04-05T08:18:21.916Z</time></trkpt><trkpt lat="43.7848689" lon="12.7111157"><ele>114.0</ele><time>2026-04-05T08:18:22.917Z</time></trkpt><trkpt lat="43.7849492" lon="12.7112631"><ele>114.0</ele><time>2026-04-05T08:18:23.916Z</time></trkpt><trkpt lat="43.7850292" lon="12.7114117"><ele>114.0</ele><time>2026-04-05T08:18:24.915Z</time></trkpt><trkpt lat="43.7851092" lon="12.71156"><ele>114.0</ele><time>2026-04-05T08:18:25.916Z</time></trkpt><trkpt lat="43.7851824" lon="12.7117022"><ele>114.80000000000001</ele><time>2026-04-05T08:18:26.916Z</time></trkpt><trkpt lat="43.7852492" lon="12.7118401"><ele>115.60000000000001</ele><time>2026-04-05T08:18:27.915Z</time></trkpt><trkpt lat="43.7853055" lon="12.7119667"><ele>116.4</ele><time>2026-04-05T08:18:28.916Z</time></trkpt><trkpt lat="43.7853524" lon="12.7120806"><ele>117.2</ele><time>2026-04-05T08:18:29.916Z</time></trkpt><trkpt lat="43.7853949" lon="12.7121763"><ele>118.0</ele><time>2026-04-05T08:18:30.916Z</time></trkpt><trkpt lat="43.7854343" lon="12.7122599"><ele>118.0</ele><time>2026-04-05T08:18:31.916Z</time></trkpt><trkpt lat="43.7854692" lon="12.7123363"><ele>118.00000000000001</ele><time>2026-04-05T08:18:32.916Z</time></trkpt><trkpt lat="43.7855388" lon="12.7124754"><ele>118.00000000000001</ele><time>2026-04-05T08:18:34.916Z</time></trkpt><trkpt lat="43.7855998" lon="12.7126103"><ele>118.0</ele><time>2026-04-05T08:18:36.916Z</time></trkpt><trkpt lat="43.7856604" lon="12.7127397"><ele>118.0</ele><time>2026-04-05T08:18:38.916Z</time></trkpt><trkpt lat="43.7857206" lon="12.7128678"><ele>117.50000000000001</ele><time>2026-04-05T08:18:40.916Z</time></trkpt><trkpt lat="43.7857576" lon="12.7129397"><ele>117.0</ele><time>2026-04-05T08:18:41.916Z</time></trkpt><trkpt lat="43.7857962" lon="12.7130192"><ele>116.5</ele><time>2026-04-05T08:18:42.916Z</time></trkpt><trkpt lat="43.785833" lon="12.7130921"><ele>116.0</ele><time>2026-04-05T08:18:43.916Z</time></trkpt><trkpt lat="43.7858857" lon="12.7131895"><ele>115.50000000000001</ele><time>2026-04-05T08:18:45.915Z</time></trkpt><trkpt lat="43.7859589" lon="12.7133307"><ele>115.0</ele><time>2026-04-05T08:18:47.916Z</time></trkpt><trkpt lat="43.7860069" lon="12.7134254"><ele>115.0</ele><time>2026-04-05T08:18:48.916Z</time></trkpt><trkpt lat="43.7860629" lon="12.7135258"><ele>115.0</ele><time>2026-04-05T08:18:49.915Z</time></trkpt><trkpt lat="43.7861243" lon="12.7136354"><ele>115.0</ele><time>2026-04-05T08:18:50.916Z</time></trkpt><trkpt lat="43.7861876" lon="12.7137499"><ele>115.0</ele><time>2026-04-05T08:18:51.916Z</time></trkpt><trkpt lat="43.7862501" lon="12.7138614"><ele>115.0</ele><time>2026-04-05T08:18:52.916Z</time></trkpt><trkpt lat="43.7863074" lon="12.7139652"><ele>115.00000000000001</ele><time>2026-04-05T08:18:53.916Z</time></trkpt><trkpt lat="43.7863613" lon="12.7140643"><ele>115.0</ele><time>2026-04-05T08:18:54.916Z</time></trkpt><trkpt lat="43.7864132" lon="12.7141599"><ele>115.0</ele><time>2026-04-05T08:18:55.916Z</time></trkpt><trkpt lat="43.7864622" lon="12.7142471"><ele>115.0</ele><time>2026-04-05T08:18:56.916Z</time></trkpt><trkpt lat="43.786509" lon="12.7143315"><ele>115.00000000000001</ele><time>2026-04-05T08:18:57.915Z</time></trkpt><trkpt lat="43.7865545" lon="12.7144098"><ele>115.0</ele><time>2026-04-05T08:18:58.916Z</time></trkpt><trkpt lat="43.7865975" lon="12.7144861"><ele>115.33333333333334</ele><time>2026-04-05T08:18:59.916Z</time></trkpt><trkpt lat="43.786637" lon="12.714559"><ele>115.66666666666667</ele><time>2026-04-05T08:19:00.916Z</time></trkpt><trkpt lat="43.7866993" lon="12.7146625"><ele>116.0</ele><time>2026-04-05T08:19:02.916Z</time></trkpt><trkpt lat="43.7867549" lon="12.7147597"><ele>116.33333333333334</ele><time>2026-04-05T08:19:04.917Z</time></trkpt><trkpt lat="43.7868245" lon="12.7148954"><ele>116.66666666666667</ele><time>2026-04-05T08:19:06.915Z</time></trkpt><trkpt lat="43.7868674" lon="12.7149736"><ele>117.0</ele><time>2026-04-05T08:19:07.915Z</time></trkpt><trkpt lat="43.7869151" lon="12.7150596"><ele>117.0</ele><time>2026-04-05T08:19:08.916Z</time></trkpt><trkpt lat="43.7869665" lon="12.7151518"><ele>116.99999999999999</ele><time>2026-04-05T08:19:09.917Z</time></trkpt><trkpt lat="43.7870202" lon="12.7152492"><ele>116.99999999999999</ele><time>2026-04-05T08:19:10.916Z</time></trkpt><trkpt lat="43.7870743" lon="12.7153495"><ele>117.0</ele><time>2026-04-05T08:19:11.916Z</time></trkpt><trkpt lat="43.787134" lon="12.7154485"><ele>117.0</ele><time>2026-04-05T08:19:12.916Z</time></trkpt><trkpt lat="43.7871969" lon="12.7155481"><ele>116.19999999999999</ele><time>2026-04-05T08:19:13.916Z</time></trkpt><trkpt lat="43.7872486" lon="12.7156333"><ele>115.39999999999999</ele><time>2026-04-05T08:19:14.916Z</time></trkpt><trkpt lat="43.7872881" lon="12.7157403"><ele>114.60000000000001</ele><time>2026-04-05T08:19:16.915Z</time></trkpt><trkpt lat="43.7873671" lon="12.7158019"><ele>113.80000000000001</ele><time>2026-04-05T08:19:22.916Z</time></trkpt><trkpt lat="43.7874492" lon="12.715948"><ele>113.0</ele><time>2026-04-05T08:19:24.915Z</time></trkpt><trkpt lat="43.7874968" lon="12.7160232"><ele>112.49999999999999</ele><time>2026-04-05T08:19:25.916Z</time></trkpt><trkpt lat="43.7875371" lon="12.7161149"><ele>112.0</ele><time>2026-04-05T08:19:26.916Z</time></trkpt><trkpt lat="43.7875525" lon="12.7162188"><ele>111.5</ele><time>2026-04-05T08:19:27.916Z</time></trkpt><trkpt lat="43.7875345" lon="12.7163112"><ele>111.0</ele><time>2026-04-05T08:19:28.915Z</time></trkpt><trkpt lat="43.7874863" lon="12.7164139"><ele>110.49999999999999</ele><time>2026-04-05T08:19:29.916Z</time></trkpt><trkpt lat="43.7874124" lon="12.7165129"><ele>110.0</ele><time>2026-04-05T08:19:30.917Z</time></trkpt><trkpt lat="43.7873207" lon="12.7166263"><ele>110.0</ele><time>2026-04-05T08:19:31.916Z</time></trkpt><trkpt lat="43.7872259" lon="12.7167482"><ele>110.0</ele><time>2026-04-05T08:19:32.916Z</time></trkpt><trkpt lat="43.7871232" lon="12.7168778"><ele>110.0</ele><time>2026-04-05T08:19:33.916Z</time></trkpt><trkpt lat="43.7870082" lon="12.7169776"><ele>110.0</ele><time>2026-04-05T08:19:34.916Z</time></trkpt><trkpt lat="43.7868734" lon="12.7170554"><ele>108.33333333333333</ele><time>2026-04-05T08:19:35.916Z</time></trkpt><trkpt lat="43.7867385" lon="12.7171007"><ele>106.66666666666666</ele><time>2026-04-05T08:19:36.916Z</time></trkpt><trkpt lat="43.7865863" lon="12.7171166"><ele>105.0</ele><time>2026-04-05T08:19:37.916Z</time></trkpt><trkpt lat="43.7864207" lon="12.7171239"><ele>105.0</ele><time>2026-04-05T08:19:38.915Z</time></trkpt><trkpt lat="43.7862444" lon="12.7171341"><ele>105.0</ele><time>2026-04-05T08:19:39.916Z</time></trkpt><trkpt lat="43.786067" lon="12.7171414"><ele>105.0</ele><time>2026-04-05T08:19:40.916Z</time></trkpt><trkpt lat="43.7859125" lon="12.7171449"><ele>105.0</ele><time>2026-04-05T08:19:41.915Z</time></trkpt><trkpt lat="43.7857714" lon="12.7171487"><ele>105.0</ele><time>2026-04-05T08:19:42.915Z</time></trkpt><trkpt lat="43.7856421" lon="12.7171519"><ele>105.0</ele><time>2026-04-05T08:19:43.917Z</time></trkpt><trkpt lat="43.7855186" lon="12.7171605"><ele>105.0</ele><time>2026-04-05T08:19:44.916Z</time></trkpt><trkpt lat="43.7853964" lon="12.7171908"><ele>105.0</ele><time>2026-04-05T08:19:45.916Z</time></trkpt><trkpt lat="43.7852749" lon="12.7172519"><ele>105.0</ele><time>2026-04-05T08:19:46.917Z</time></trkpt><trkpt lat="43.7851583" lon="12.7173475"><ele>105.0</ele><time>2026-04-05T08:19:47.916Z</time></trkpt><trkpt lat="43.7850485" lon="12.7174771"><ele>105.0</ele><time>2026-04-05T08:19:48.916Z</time></trkpt><trkpt lat="43.7849449" lon="12.717633"><ele>104.33333333333334</ele><time>2026-04-05T08:19:49.915Z</time></trkpt><trkpt lat="43.7848399" lon="12.7178054"><ele>103.66666666666667</ele><time>2026-04-05T08:19:50.916Z</time></trkpt><trkpt lat="43.7847315" lon="12.7179922"><ele>103.0</ele><time>2026-04-05T08:19:51.915Z</time></trkpt><trkpt lat="43.7846184" lon="12.7181877"><ele>103.0</ele><time>2026-04-05T08:19:52.916Z</time></trkpt><trkpt lat="43.784508" lon="12.7183761"><ele>103.0</ele><time>2026-04-05T08:19:53.916Z</time></trkpt><trkpt lat="43.7844103" lon="12.7185428"><ele>103.0</ele><time>2026-04-05T08:19:54.916Z</time></trkpt><trkpt lat="43.7843207" lon="12.7186942"><ele>105.0</ele><time>2026-04-05T08:19:55.916Z</time></trkpt><trkpt lat="43.7842442" lon="12.718837"><ele>107.0</ele><time>2026-04-05T08:19:56.916Z</time></trkpt><trkpt lat="43.7841915" lon="12.7189788"><ele>109.0</ele><time>2026-04-05T08:19:57.915Z</time></trkpt><trkpt lat="43.784161" lon="12.7191258"><ele>111.0</ele><time>2026-04-05T08:19:58.916Z</time></trkpt><trkpt lat="43.7841572" lon="12.7192816"><ele>113.0</ele><time>2026-04-05T08:19:59.916Z</time></trkpt><trkpt lat="43.7841782" lon="12.7194432"><ele>115.0</ele><time>2026-04-05T08:20:00.915Z</time></trkpt><trkpt lat="43.7842225" lon="12.7196069"><ele>117.0</ele><time>2026-04-05T08:20:01.916Z</time></trkpt><trkpt lat="43.7842896" lon="12.7197429"><ele>119.0</ele><time>2026-04-05T08:20:02.916Z</time></trkpt><trkpt lat="43.784383" lon="12.7198432"><ele>119.0</ele><time>2026-04-05T08:20:03.915Z</time></trkpt><trkpt lat="43.7844965" lon="12.7199129"><ele>119.0</ele><time>2026-04-05T08:20:04.916Z</time></trkpt><trkpt lat="43.7846289" lon="12.719961"><ele>119.0</ele><time>2026-04-05T08:20:05.916Z</time></trkpt><trkpt lat="43.7847628" lon="12.7200176"><ele>119.0</ele><time>2026-04-05T08:20:06.916Z</time></trkpt><trkpt lat="43.7848797" lon="12.7200803"><ele>119.0</ele><time>2026-04-05T08:20:07.916Z</time></trkpt><trkpt lat="43.7849778" lon="12.7201613"><ele>119.0</ele><time>2026-04-05T08:20:08.916Z</time></trkpt><trkpt lat="43.7850463" lon="12.7202733"><ele>119.0</ele><time>2026-04-05T08:20:09.916Z</time></trkpt><trkpt lat="43.7850763" lon="12.7203945"><ele>119.0</ele><time>2026-04-05T08:20:10.916Z</time></trkpt><trkpt lat="43.7850657" lon="12.7204972"><ele>119.0</ele><time>2026-04-05T08:20:11.916Z</time></trkpt><trkpt lat="43.7850384" lon="12.7205957"><ele>122.0</ele><time>2026-04-05T08:20:12.917Z</time></trkpt><trkpt lat="43.7849825" lon="12.7206731"><ele>125.0</ele><time>2026-04-05T08:20:13.916Z</time></trkpt><trkpt lat="43.7849111" lon="12.7207136"><ele>128.0</ele><time>2026-04-05T08:20:14.916Z</time></trkpt><trkpt lat="43.7848204" lon="12.7207176"><ele>131.0</ele><time>2026-04-05T08:20:15.916Z</time></trkpt><trkpt lat="43.7847136" lon="12.7207242"><ele>134.0</ele><time>2026-04-05T08:20:16.915Z</time></trkpt><trkpt lat="43.7845934" lon="12.720728"><ele>134.0</ele><time>2026-04-05T08:20:17.917Z</time></trkpt><trkpt lat="43.7844576" lon="12.7207258"><ele>134.0</ele><time>2026-04-05T08:20:18.916Z</time></trkpt><trkpt lat="43.7842893" lon="12.7207261"><ele>134.0</ele><time>2026-04-05T08:20:19.916Z</time></trkpt><trkpt lat="43.7841509" lon="12.7207254"><ele>134.0</ele><time>2026-04-05T08:20:20.916Z</time></trkpt><trkpt lat="43.7840358" lon="12.7207243"><ele>135.5</ele><time>2026-04-05T08:20:21.916Z</time></trkpt><trkpt lat="43.7839435" lon="12.7207446"><ele>137.0</ele><time>2026-04-05T08:20:22.917Z</time></trkpt><trkpt lat="43.7838681" lon="12.7208026"><ele>138.5</ele><time>2026-04-05T08:20:23.916Z</time></trkpt><trkpt lat="43.7838266" lon="12.7208934"><ele>140.0</ele><time>2026-04-05T08:20:24.916Z</time></trkpt><trkpt lat="43.7838276" lon="12.7210044"><ele>141.5</ele><time>2026-04-05T08:20:25.916Z</time></trkpt><trkpt lat="43.7838678" lon="12.7211108"><ele>143.0</ele><time>2026-04-05T08:20:26.917Z</time></trkpt><trkpt lat="43.7839454" lon="12.7212139"><ele>144.25</ele><time>2026-04-05T08:20:27.916Z</time></trkpt><trkpt lat="43.7840478" lon="12.7213138"><ele>145.5</ele><time>2026-04-05T08:20:28.915Z</time></trkpt><trkpt lat="43.7841636" lon="12.7214202"><ele>146.75</ele><time>2026-04-05T08:20:29.917Z</time></trkpt><trkpt lat="43.784281" lon="12.7215218"><ele>148.0</ele><time>2026-04-05T08:20:30.916Z</time></trkpt><trkpt lat="43.7844049" lon="12.7216374"><ele>148.0</ele><time>2026-04-05T08:20:31.916Z</time></trkpt><trkpt lat="43.7845304" lon="12.7217601"><ele>148.0</ele><time>2026-04-05T08:20:32.915Z</time></trkpt><trkpt lat="43.7846442" lon="12.7218936"><ele>148.0</ele><time>2026-04-05T08:20:33.916Z</time></trkpt><trkpt lat="43.7847383" lon="12.7220434"><ele>148.0</ele><time>2026-04-05T08:20:34.916Z</time></trkpt><trkpt lat="43.7848142" lon="12.7221939"><ele>149.66666666666669</ele><time>2026-04-05T08:20:35.916Z</time></trkpt><trkpt lat="43.7848617" lon="12.722324"><ele>151.33333333333334</ele><time>2026-04-05T08:20:36.915Z</time></trkpt><trkpt lat="43.78488" lon="12.7224464"><ele>153.0</ele><time>2026-04-05T08:20:37.916Z</time></trkpt><trkpt lat="43.7848595" lon="12.7225604"><ele>154.66666666666666</ele><time>2026-04-05T08:20:38.916Z</time></trkpt><trkpt lat="43.7848156" lon="12.7226459"><ele>156.33333333333331</ele><time>2026-04-05T08:20:39.916Z</time></trkpt><trkpt lat="43.7847331" lon="12.7226773"><ele>158.0</ele><time>2026-04-05T08:20:40.916Z</time></trkpt><trkpt lat="43.7846449" lon="12.722684"><ele>158.0</ele><time>2026-04-05T08:20:41.916Z</time></trkpt><trkpt lat="43.7845373" lon="12.7226689"><ele>158.0</ele><time>2026-04-05T08:20:42.916Z</time></trkpt><trkpt lat="43.7844182" lon="12.7226743"><ele>158.0</ele><time>2026-04-05T08:20:43.916Z</time></trkpt><trkpt lat="43.7842991" lon="12.7226891"><ele>158.0</ele><time>2026-04-05T08:20:44.917Z</time></trkpt><trkpt lat="43.7841862" lon="12.7227412"><ele>162.0</ele><time>2026-04-05T08:20:45.916Z</time></trkpt><trkpt lat="43.7840969" lon="12.722838"><ele>166.0</ele><time>2026-04-05T08:20:46.915Z</time></trkpt><trkpt lat="43.7840402" lon="12.7229719"><ele>170.0</ele><time>2026-04-05T08:20:47.916Z</time></trkpt><trkpt lat="43.7840143" lon="12.7231273"><ele>174.0</ele><time>2026-04-05T08:20:48.916Z</time></trkpt><trkpt lat="43.7839977" lon="12.7233005"><ele>174.0</ele><time>2026-04-05T08:20:49.915Z</time></trkpt><trkpt lat="43.7839858" lon="12.7234853"><ele>174.0</ele><time>2026-04-05T08:20:50.915Z</time></trkpt><trkpt lat="43.783971" lon="12.7236808"><ele>174.0</ele><time>2026-04-05T08:20:51.916Z</time></trkpt><trkpt lat="43.7839594" lon="12.7238837"><ele>174.0</ele><time>2026-04-05T08:20:52.916Z</time></trkpt><trkpt lat="43.7839467" lon="12.7240916"><ele>175.5</ele><time>2026-04-05T08:20:53.917Z</time></trkpt><trkpt lat="43.7839336" lon="12.7242873"><ele>177.0</ele><time>2026-04-05T08:20:54.916Z</time></trkpt><trkpt lat="43.7839216" lon="12.7244567"><ele>178.5</ele><time>2026-04-05T08:20:55.916Z</time></trkpt><trkpt lat="43.7839013" lon="12.7246183"><ele>180.0</ele><time>2026-04-05T08:20:56.915Z</time></trkpt><trkpt lat="43.7838498" lon="12.7247571"><ele>181.5</ele><time>2026-04-05T08:20:57.916Z</time></trkpt><trkpt lat="43.7837662" lon="12.7248574"><ele>183.0</ele><time>2026-04-05T08:20:58.916Z</time></trkpt><trkpt lat="43.7836639" lon="12.7249278"><ele>184.5</ele><time>2026-04-05T08:20:59.916Z</time></trkpt><trkpt lat="43.7835495" lon="12.7249927"><ele>186.0</ele><time>2026-04-05T08:21:00.916Z</time></trkpt><trkpt lat="43.7834284" lon="12.7250587"><ele>187.0</ele><time>2026-04-05T08:21:01.915Z</time></trkpt><trkpt lat="43.7832985" lon="12.725114"><ele>188.0</ele><time>2026-04-05T08:21:02.917Z</time></trkpt><trkpt lat="43.7831703" lon="12.7251444"><ele>189.0</ele><time>2026-04-05T08:21:03.917Z</time></trkpt><trkpt lat="43.7830615" lon="12.7251173"><ele>190.0</ele><time>2026-04-05T08:21:04.915Z</time></trkpt><trkpt lat="43.7829718" lon="12.7250478"><ele>190.0</ele><time>2026-04-05T08:21:05.916Z</time></trkpt><trkpt lat="43.7828935" lon="12.7249332"><ele>190.0</ele><time>2026-04-05T08:21:06.916Z</time></trkpt><trkpt lat="43.7828202" lon="12.7247946"><ele>190.0</ele><time>2026-04-05T08:21:07.916Z</time></trkpt><trkpt lat="43.7827325" lon="12.7246454"><ele>190.0</ele><time>2026-04-05T08:21:08.916Z</time></trkpt><trkpt lat="43.7826407" lon="12.7244749"><ele>193.0</ele><time>2026-04-05T08:21:09.916Z</time></trkpt><trkpt lat="43.7825426" lon="12.7242925"><ele>196.0</ele><time>2026-04-05T08:21:10.916Z</time></trkpt><trkpt lat="43.7824542" lon="12.7241287"><ele>199.0</ele><time>2026-04-05T08:21:11.916Z</time></trkpt><trkpt lat="43.7823813" lon="12.7239937"><ele>202.0</ele><time>2026-04-05T08:21:12.916Z</time></trkpt><trkpt lat="43.7823113" lon="12.7238867"><ele>202.0</ele><time>2026-04-05T08:21:13.915Z</time></trkpt><trkpt lat="43.7822216" lon="12.7238262"><ele>202.0</ele><time>2026-04-05T08:21:14.917Z</time></trkpt><trkpt lat="43.7821159" lon="12.7238129"><ele>202.0</ele><time>2026-04-05T08:21:15.917Z</time></trkpt><trkpt lat="43.7820072" lon="12.7238547"><ele>202.0</ele><time>2026-04-05T08:21:16.916Z</time></trkpt><trkpt lat="43.7819152" lon="12.7239424"><ele>202.0</ele><time>2026-04-05T08:21:17.916Z</time></trkpt><trkpt lat="43.7818547" lon="12.7240463"><ele>201.99999999999997</ele><time>2026-04-05T08:21:18.916Z</time></trkpt><trkpt lat="43.7818331" lon="12.7241592"><ele>202.0</ele><time>2026-04-05T08:21:19.916Z</time></trkpt><trkpt lat="43.7818522" lon="12.7242699"><ele>202.0</ele><time>2026-04-05T08:21:20.916Z</time></trkpt><trkpt lat="43.7819109" lon="12.724364"><ele>202.0</ele><time>2026-04-05T08:21:21.915Z</time></trkpt><trkpt lat="43.7819883" lon="12.7244414"><ele>201.99999999999997</ele><time>2026-04-05T08:21:22.916Z</time></trkpt><trkpt lat="43.7820468" lon="12.7245285"><ele>202.0</ele><time>2026-04-05T08:21:23.916Z</time></trkpt><trkpt lat="43.7820643" lon="12.7246335"><ele>204.2</ele><time>2026-04-05T08:21:24.916Z</time></trkpt><trkpt lat="43.7820418" lon="12.7247352"><ele>206.39999999999998</ele><time>2026-04-05T08:21:25.916Z</time></trkpt><trkpt lat="43.7819836" lon="12.7248075"><ele>208.60000000000002</ele><time>2026-04-05T08:21:26.916Z</time></trkpt><trkpt lat="43.7819045" lon="12.7248518"><ele>210.8</ele><time>2026-04-05T08:21:27.916Z</time></trkpt><trkpt lat="43.7818158" lon="12.7249127"><ele>213.0</ele><time>2026-04-05T08:21:28.916Z</time></trkpt><trkpt lat="43.7817255" lon="12.725008"><ele>215.75</ele><time>2026-04-05T08:21:29.916Z</time></trkpt><trkpt lat="43.7816426" lon="12.7251242"><ele>218.5</ele><time>2026-04-05T08:21:30.916Z</time></trkpt><trkpt lat="43.7815502" lon="12.7252615"><ele>221.25</ele><time>2026-04-05T08:21:31.915Z</time></trkpt><trkpt lat="43.7814448" lon="12.7254051"><ele>224.0</ele><time>2026-04-05T08:21:32.915Z</time></trkpt><trkpt lat="43.7813267" lon="12.7255589"><ele>227.66666666666669</ele><time>2026-04-05T08:21:33.917Z</time></trkpt><trkpt lat="43.7811866" lon="12.7257069"><ele>231.33333333333331</ele><time>2026-04-05T08:21:34.916Z</time></trkpt><trkpt lat="43.7810435" lon="12.7258356"><ele>235.0</ele><time>2026-04-05T08:21:35.916Z</time></trkpt><trkpt lat="43.7808948" lon="12.7259557"><ele>235.0</ele><time>2026-04-05T08:21:36.916Z</time></trkpt><trkpt lat="43.7807277" lon="12.7260487"><ele>235.0</ele><time>2026-04-05T08:21:37.916Z</time></trkpt><trkpt lat="43.7805623" lon="12.726117"><ele>235.0</ele><time>2026-04-05T08:21:38.916Z</time></trkpt><trkpt lat="43.7804148" lon="12.7261565"><ele>238.25</ele><time>2026-04-05T08:21:39.916Z</time></trkpt><trkpt lat="43.7802805" lon="12.7261844"><ele>241.5</ele><time>2026-04-05T08:21:40.916Z</time></trkpt><trkpt lat="43.7801602" lon="12.7262105"><ele>244.75</ele><time>2026-04-05T08:21:41.916Z</time></trkpt><trkpt lat="43.780054" lon="12.7262588"><ele>248.0</ele><time>2026-04-05T08:21:42.915Z</time></trkpt><trkpt lat="43.7799649" lon="12.7263476"><ele>248.0</ele><time>2026-04-05T08:21:43.917Z</time></trkpt><trkpt lat="43.7799074" lon="12.7264694"><ele>248.0</ele><time>2026-04-05T08:21:44.916Z</time></trkpt><trkpt lat="43.7798823" lon="12.7266109"><ele>248.0</ele><time>2026-04-05T08:21:45.916Z</time></trkpt><trkpt lat="43.7798909" lon="12.7267625"><ele>248.0</ele><time>2026-04-05T08:21:46.916Z</time></trkpt><trkpt lat="43.7799293" lon="12.7269138"><ele>248.0</ele><time>2026-04-05T08:21:47.917Z</time></trkpt><trkpt lat="43.779997" lon="12.7270576"><ele>248.75</ele><time>2026-04-05T08:21:48.916Z</time></trkpt><trkpt lat="43.780076" lon="12.7272057"><ele>249.5</ele><time>2026-04-05T08:21:49.916Z</time></trkpt><trkpt lat="43.7801542" lon="12.7273607"><ele>250.25</ele><time>2026-04-05T08:21:50.916Z</time></trkpt><trkpt lat="43.7802261" lon="12.7275238"><ele>251.0</ele><time>2026-04-05T08:21:51.915Z</time></trkpt><trkpt lat="43.7802823" lon="12.7277012"><ele>256.0</ele><time>2026-04-05T08:21:52.916Z</time></trkpt><trkpt lat="43.7803159" lon="12.7278873"><ele>261.0</ele><time>2026-04-05T08:21:53.916Z</time></trkpt><trkpt lat="43.7803224" lon="12.7280762"><ele>266.0</ele><time>2026-04-05T08:21:54.916Z</time></trkpt><trkpt lat="43.780304" lon="12.7282689"><ele>271.0</ele><time>2026-04-05T08:21:55.916Z</time></trkpt><trkpt lat="43.7802599" lon="12.728462"><ele>269.0</ele><time>2026-04-05T08:21:56.916Z</time></trkpt><trkpt lat="43.7801992" lon="12.728657"><ele>267.0</ele><time>2026-04-05T08:21:57.916Z</time></trkpt><trkpt lat="43.7801355" lon="12.7288605"><ele>265.0</ele><time>2026-04-05T08:21:58.916Z</time></trkpt><trkpt lat="43.7800634" lon="12.729069"><ele>265.0</ele><time>2026-04-05T08:21:59.917Z</time></trkpt><trkpt lat="43.7799914" lon="12.7292803"><ele>265.0</ele><time>2026-04-05T08:22:00.916Z</time></trkpt><trkpt lat="43.77992" lon="12.7294859"><ele>265.0</ele><time>2026-04-05T08:22:01.915Z</time></trkpt><trkpt lat="43.7798479" lon="12.7296595"><ele>267.2</ele><time>2026-04-05T08:22:02.915Z</time></trkpt><trkpt lat="43.7797775" lon="12.7298138"><ele>269.4</ele><time>2026-04-05T08:22:03.916Z</time></trkpt><trkpt lat="43.7797174" lon="12.7299504"><ele>271.6</ele><time>2026-04-05T08:22:04.916Z</time></trkpt><trkpt lat="43.7796754" lon="12.7300751"><ele>273.8</ele><time>2026-04-05T08:22:05.916Z</time></trkpt><trkpt lat="43.7796694" lon="12.7301901"><ele>276.0</ele><time>2026-04-05T08:22:06.915Z</time></trkpt><trkpt lat="43.7797005" lon="12.730272"><ele>276.0</ele><time>2026-04-05T08:22:07.914Z</time></trkpt><trkpt lat="43.7798203" lon="12.7303323"><ele>276.0</ele><time>2026-04-05T08:22:09.915Z</time></trkpt><trkpt lat="43.7798961" lon="12.7302944"><ele>276.0</ele><time>2026-04-05T08:22:10.915Z</time></trkpt><trkpt lat="43.779978" lon="12.7302358"><ele>276.0</ele><time>2026-04-05T08:22:11.915Z</time></trkpt><trkpt lat="43.7800643" lon="12.7301814"><ele>276.0</ele><time>2026-04-05T08:22:12.915Z</time></trkpt><trkpt lat="43.7801637" lon="12.730135"><ele>277.75</ele><time>2026-04-05T08:22:13.915Z</time></trkpt><trkpt lat="43.7802715" lon="12.7300876"><ele>279.5</ele><time>2026-04-05T08:22:14.915Z</time></trkpt><trkpt lat="43.7803861" lon="12.7300416"><ele>281.25</ele><time>2026-04-05T08:22:15.915Z</time></trkpt><trkpt lat="43.7805026" lon="12.7300009"><ele>283.0</ele><time>2026-04-05T08:22:16.915Z</time></trkpt><trkpt lat="43.7806109" lon="12.7299671"><ele>283.0</ele><time>2026-04-05T08:22:17.915Z</time></trkpt><trkpt lat="43.7807114" lon="12.729955"><ele>283.0</ele><time>2026-04-05T08:22:18.915Z</time></trkpt><trkpt lat="43.7808065" lon="12.7299883"><ele>283.0</ele><time>2026-04-05T08:22:19.915Z</time></trkpt><trkpt lat="43.7808795" lon="12.7300706"><ele>283.0</ele><time>2026-04-05T08:22:20.914Z</time></trkpt><trkpt lat="43.7809223" lon="12.7301888"><ele>283.0</ele><time>2026-04-05T08:22:21.915Z</time></trkpt><trkpt lat="43.7809342" lon="12.730322"><ele>284.0</ele><time>2026-04-05T08:22:22.915Z</time></trkpt><trkpt lat="43.7809055" lon="12.7304437"><ele>285.0</ele><time>2026-04-05T08:22:23.915Z</time></trkpt><trkpt lat="43.7808417" lon="12.7305516"><ele>286.0</ele><time>2026-04-05T08:22:24.915Z</time></trkpt><trkpt lat="43.780754" lon="12.7306387"><ele>287.0</ele><time>2026-04-05T08:22:25.915Z</time></trkpt><trkpt lat="43.7806546" lon="12.7307184"><ele>288.0</ele><time>2026-04-05T08:22:26.915Z</time></trkpt><trkpt lat="43.7805462" lon="12.7307996"><ele>288.0</ele><time>2026-04-05T08:22:27.915Z</time></trkpt><trkpt lat="43.780441" lon="12.7308959"><ele>288.0</ele><time>2026-04-05T08:22:28.915Z</time></trkpt><trkpt lat="43.7803428" lon="12.7310193"><ele>288.0</ele><time>2026-04-05T08:22:29.915Z</time></trkpt><trkpt lat="43.7802504" lon="12.7311669"><ele>288.0</ele><time>2026-04-05T08:22:30.914Z</time></trkpt><trkpt lat="43.7801542" lon="12.7313132"><ele>289.75</ele><time>2026-04-05T08:22:31.915Z</time></trkpt><trkpt lat="43.7800558" lon="12.7314537"><ele>291.5</ele><time>2026-04-05T08:22:32.914Z</time></trkpt><trkpt lat="43.7799632" lon="12.7315811"><ele>293.25</ele><time>2026-04-05T08:22:33.915Z</time></trkpt><trkpt lat="43.7798684" lon="12.7317007"><ele>295.0</ele><time>2026-04-05T08:22:34.915Z</time></trkpt><trkpt lat="43.7797619" lon="12.7318149"><ele>297.25</ele><time>2026-04-05T08:22:35.914Z</time></trkpt><trkpt lat="43.7796472" lon="12.7319292"><ele>299.5</ele><time>2026-04-05T08:22:36.915Z</time></trkpt><trkpt lat="43.779531" lon="12.732044"><ele>301.75</ele><time>2026-04-05T08:22:37.915Z</time></trkpt><trkpt lat="43.7794154" lon="12.7321638"><ele>304.0</ele><time>2026-04-05T08:22:38.915Z</time></trkpt><trkpt lat="43.7792972" lon="12.7322805"><ele>304.0</ele><time>2026-04-05T08:22:39.915Z</time></trkpt><trkpt lat="43.7791781" lon="12.7323987"><ele>304.0</ele><time>2026-04-05T08:22:40.915Z</time></trkpt><trkpt lat="43.7790593" lon="12.7325185"><ele>304.0</ele><time>2026-04-05T08:22:41.915Z</time></trkpt><trkpt lat="43.7789401" lon="12.7326395"><ele>304.0</ele><time>2026-04-05T08:22:42.914Z</time></trkpt><trkpt lat="43.7788196" lon="12.73276"><ele>306.5</ele><time>2026-04-05T08:22:43.915Z</time></trkpt><trkpt lat="43.7786977" lon="12.7328793"><ele>309.0</ele><time>2026-04-05T08:22:44.915Z</time></trkpt><trkpt lat="43.7785767" lon="12.7330014"><ele>311.5</ele><time>2026-04-05T08:22:45.914Z</time></trkpt><trkpt lat="43.7784553" lon="12.7331177"><ele>314.0</ele><time>2026-04-05T08:22:46.915Z</time></trkpt><trkpt lat="43.778321" lon="12.7332031"><ele>314.0</ele><time>2026-04-05T08:22:47.915Z</time></trkpt><trkpt lat="43.7781852" lon="12.7332414"><ele>314.0</ele><time>2026-04-05T08:22:48.914Z</time></trkpt><trkpt lat="43.7780538" lon="12.7332468"><ele>314.0</ele><time>2026-04-05T08:22:49.914Z</time></trkpt><trkpt lat="43.7779267" lon="12.7332174"><ele>314.0</ele><time>2026-04-05T08:22:50.915Z</time></trkpt><trkpt lat="43.7778023" lon="12.7331634"><ele>314.5</ele><time>2026-04-05T08:22:51.914Z</time></trkpt><trkpt lat="43.7776798" lon="12.733102"><ele>315.0</ele><time>2026-04-05T08:22:52.915Z</time></trkpt><trkpt lat="43.7775543" lon="12.7330398"><ele>315.5</ele><time>2026-04-05T08:22:53.915Z</time></trkpt><trkpt lat="43.7774399" lon="12.7329789"><ele>316.0</ele><time>2026-04-05T08:22:54.916Z</time></trkpt><trkpt lat="43.7773344" lon="12.7329234"><ele>316.0</ele><time>2026-04-05T08:22:55.916Z</time></trkpt><trkpt lat="43.7772318" lon="12.7328704"><ele>316.0</ele><time>2026-04-05T08:22:56.916Z</time></trkpt><trkpt lat="43.7771293" lon="12.7328127"><ele>316.0</ele><time>2026-04-05T08:22:57.915Z</time></trkpt><trkpt lat="43.777029" lon="12.7327523"><ele>316.0</ele><time>2026-04-05T08:22:58.915Z</time></trkpt><trkpt lat="43.7769245" lon="12.7326867"><ele>316.0</ele><time>2026-04-05T08:22:59.915Z</time></trkpt><trkpt lat="43.7768205" lon="12.7326264"><ele>315.0</ele><time>2026-04-05T08:23:00.915Z</time></trkpt><trkpt lat="43.7767172" lon="12.7325651"><ele>314.0</ele><time>2026-04-05T08:23:01.915Z</time></trkpt><trkpt lat="43.7766141" lon="12.7325066"><ele>313.0</ele><time>2026-04-05T08:23:02.916Z</time></trkpt><trkpt lat="43.7765119" lon="12.7324562"><ele>312.0</ele><time>2026-04-05T08:23:03.915Z</time></trkpt><trkpt lat="43.776407" lon="12.7324297"><ele>311.0</ele><time>2026-04-05T08:23:04.915Z</time></trkpt><trkpt lat="43.7762972" lon="12.7324351"><ele>311.0</ele><time>2026-04-05T08:23:05.915Z</time></trkpt><trkpt lat="43.7761868" lon="12.7324724"><ele>311.0</ele><time>2026-04-05T08:23:06.916Z</time></trkpt><trkpt lat="43.7760873" lon="12.7325419"><ele>311.0</ele><time>2026-04-05T08:23:07.916Z</time></trkpt><trkpt lat="43.7759989" lon="12.73263"><ele>311.0</ele><time>2026-04-05T08:23:08.916Z</time></trkpt><trkpt lat="43.7759179" lon="12.7327343"><ele>311.0</ele><time>2026-04-05T08:23:09.915Z</time></trkpt><trkpt lat="43.775842" lon="12.7328401"><ele>310.2</ele><time>2026-04-05T08:23:10.915Z</time></trkpt><trkpt lat="43.7757682" lon="12.7329427"><ele>309.40000000000003</ele><time>2026-04-05T08:23:11.915Z</time></trkpt><trkpt lat="43.7756963" lon="12.7330463"><ele>308.6</ele><time>2026-04-05T08:23:12.916Z</time></trkpt><trkpt lat="43.7756237" lon="12.7331535"><ele>307.8</ele><time>2026-04-05T08:23:13.916Z</time></trkpt><trkpt lat="43.7755484" lon="12.7332629"><ele>307.0</ele><time>2026-04-05T08:23:14.915Z</time></trkpt><trkpt lat="43.7754688" lon="12.7333775"><ele>307.0</ele><time>2026-04-05T08:23:15.914Z</time></trkpt><trkpt lat="43.7753874" lon="12.7334929"><ele>307.0</ele><time>2026-04-05T08:23:16.915Z</time></trkpt><trkpt lat="43.7753047" lon="12.733611"><ele>307.0</ele><time>2026-04-05T08:23:17.916Z</time></trkpt><trkpt lat="43.775218" lon="12.7337324"><ele>307.0</ele><time>2026-04-05T08:23:18.915Z</time></trkpt><trkpt lat="43.7751326" lon="12.7338565"><ele>305.5</ele><time>2026-04-05T08:23:19.915Z</time></trkpt><trkpt lat="43.7750436" lon="12.7339776"><ele>304.0</ele><time>2026-04-05T08:23:20.915Z</time></trkpt><trkpt lat="43.7749474" lon="12.7340951"><ele>302.5</ele><time>2026-04-05T08:23:21.915Z</time></trkpt><trkpt lat="43.7748326" lon="12.7341931"><ele>301.0</ele><time>2026-04-05T08:23:22.915Z</time></trkpt><trkpt lat="43.7746998" lon="12.7342669"><ele>301.0</ele><time>2026-04-05T08:23:23.914Z</time></trkpt><trkpt lat="43.7745486" lon="12.7343134"><ele>301.0</ele><time>2026-04-05T08:23:24.915Z</time></trkpt><trkpt lat="43.7744" lon="12.7343351"><ele>301.0</ele><time>2026-04-05T08:23:25.914Z</time></trkpt><trkpt lat="43.7742605" lon="12.734351"><ele>301.0</ele><time>2026-04-05T08:23:26.915Z</time></trkpt><trkpt lat="43.7741299" lon="12.7343777"><ele>301.75</ele><time>2026-04-05T08:23:27.915Z</time></trkpt><trkpt lat="43.7740017" lon="12.7343975"><ele>302.5</ele><time>2026-04-05T08:23:28.914Z</time></trkpt><trkpt lat="43.7738783" lon="12.734416"><ele>303.25</ele><time>2026-04-05T08:23:29.915Z</time></trkpt><trkpt lat="43.7737513" lon="12.734448"><ele>304.0</ele><time>2026-04-05T08:23:30.915Z</time></trkpt><trkpt lat="43.7736165" lon="12.7345053"><ele>302.0</ele><time>2026-04-05T08:23:31.915Z</time></trkpt><trkpt lat="43.7734791" lon="12.7345839"><ele>300.0</ele><time>2026-04-05T08:23:32.915Z</time></trkpt><trkpt lat="43.7733411" lon="12.7346895"><ele>298.0</ele><time>2026-04-05T08:23:33.915Z</time></trkpt><trkpt lat="43.7732012" lon="12.734814"><ele>298.0</ele><time>2026-04-05T08:23:34.915Z</time></trkpt><trkpt lat="43.7730569" lon="12.7349433"><ele>298.0</ele><time>2026-04-05T08:23:35.914Z</time></trkpt><trkpt lat="43.7729192" lon="12.7350621"><ele>298.0</ele><time>2026-04-05T08:23:36.914Z</time></trkpt><trkpt lat="43.7727843" lon="12.7351751"><ele>295.0</ele><time>2026-04-05T08:23:37.915Z</time></trkpt><trkpt lat="43.7726568" lon="12.7352829"><ele>292.0</ele><time>2026-04-05T08:23:38.915Z</time></trkpt><trkpt lat="43.7725356" lon="12.7353918"><ele>289.0</ele><time>2026-04-05T08:23:39.914Z</time></trkpt><trkpt lat="43.7724173" lon="12.7355019"><ele>286.0</ele><time>2026-04-05T08:23:40.916Z</time></trkpt><trkpt lat="43.7722921" lon="12.7356202"><ele>286.0</ele><time>2026-04-05T08:23:41.915Z</time></trkpt><trkpt lat="43.7721614" lon="12.7357432"><ele>286.0</ele><time>2026-04-05T08:23:42.914Z</time></trkpt><trkpt lat="43.7720244" lon="12.7358667"><ele>286.0</ele><time>2026-04-05T08:23:43.915Z</time></trkpt><trkpt lat="43.7718825" lon="12.7359873"><ele>288.0</ele><time>2026-04-05T08:23:44.915Z</time></trkpt><trkpt lat="43.7717399" lon="12.7361095"><ele>290.0</ele><time>2026-04-05T08:23:45.916Z</time></trkpt><trkpt lat="43.7715932" lon="12.7362219"><ele>292.0</ele><time>2026-04-05T08:23:46.915Z</time></trkpt><trkpt lat="43.7714404" lon="12.7363221"><ele>292.0</ele><time>2026-04-05T08:23:47.914Z</time></trkpt><trkpt lat="43.7712774" lon="12.736411"><ele>292.0</ele><time>2026-04-05T08:23:48.915Z</time></trkpt><trkpt lat="43.7711094" lon="12.7364997"><ele>292.0</ele><time>2026-04-05T08:23:49.914Z</time></trkpt><trkpt lat="43.7709423" lon="12.7365897"><ele>293.66666666666663</ele><time>2026-04-05T08:23:50.916Z</time></trkpt><trkpt lat="43.7707785" lon="12.7366779"><ele>295.3333333333333</ele><time>2026-04-05T08:23:51.914Z</time></trkpt><trkpt lat="43.7706258" lon="12.7367548"><ele>297.0</ele><time>2026-04-05T08:23:52.915Z</time></trkpt><trkpt lat="43.7704871" lon="12.7368219"><ele>297.0</ele><time>2026-04-05T08:23:53.915Z</time></trkpt><trkpt lat="43.7703585" lon="12.7368859"><ele>297.0</ele><time>2026-04-05T08:23:54.914Z</time></trkpt><trkpt lat="43.7702326" lon="12.7369493"><ele>297.0</ele><time>2026-04-05T08:23:55.916Z</time></trkpt><trkpt lat="43.7701085" lon="12.7369991"><ele>297.0</ele><time>2026-04-05T08:23:56.915Z</time></trkpt><trkpt lat="43.76999" lon="12.7370258"><ele>296.75</ele><time>2026-04-05T08:23:57.916Z</time></trkpt><trkpt lat="43.7698752" lon="12.7370163"><ele>296.5</ele><time>2026-04-05T08:23:58.914Z</time></trkpt><trkpt lat="43.7697509" lon="12.7369722"><ele>296.25</ele><time>2026-04-05T08:23:59.914Z</time></trkpt><trkpt lat="43.7696179" lon="12.7369028"><ele>296.0</ele><time>2026-04-05T08:24:00.915Z</time></trkpt><trkpt lat="43.7694745" lon="12.7368234"><ele>296.33333333333337</ele><time>2026-04-05T08:24:01.915Z</time></trkpt><trkpt lat="43.7693238" lon="12.7367304"><ele>296.6666666666667</ele><time>2026-04-05T08:24:02.915Z</time></trkpt><trkpt lat="43.7691616" lon="12.7366162"><ele>297.0</ele><time>2026-04-05T08:24:03.915Z</time></trkpt><trkpt lat="43.768987" lon="12.7364904"><ele>297.0</ele><time>2026-04-05T08:24:04.915Z</time></trkpt><trkpt lat="43.7688054" lon="12.7363623"><ele>297.0</ele><time>2026-04-05T08:24:05.915Z</time></trkpt><trkpt lat="43.7686303" lon="12.7362617"><ele>297.0</ele><time>2026-04-05T08:24:06.914Z</time></trkpt><trkpt lat="43.7684667" lon="12.7361778"><ele>296.6666666666667</ele><time>2026-04-05T08:24:07.914Z</time></trkpt><trkpt lat="43.7683169" lon="12.7360907"><ele>296.33333333333337</ele><time>2026-04-05T08:24:08.915Z</time></trkpt><trkpt lat="43.7681823" lon="12.7359782"><ele>296.0</ele><time>2026-04-05T08:24:09.914Z</time></trkpt><trkpt lat="43.7680586" lon="12.7358451"><ele>296.0</ele><time>2026-04-05T08:24:10.915Z</time></trkpt><trkpt lat="43.7679416" lon="12.7357332"><ele>296.0</ele><time>2026-04-05T08:24:11.915Z</time></trkpt><trkpt lat="43.7678166" lon="12.7356494"><ele>296.0</ele><time>2026-04-05T08:24:12.915Z</time></trkpt><trkpt lat="43.767682" lon="12.7356035"><ele>296.0</ele><time>2026-04-05T08:24:13.915Z</time></trkpt><trkpt lat="43.7675514" lon="12.7355759"><ele>297.0</ele><time>2026-04-05T08:24:14.915Z</time></trkpt><trkpt lat="43.7674396" lon="12.7355194"><ele>298.0</ele><time>2026-04-05T08:24:15.916Z</time></trkpt><trkpt lat="43.7673338" lon="12.7354469"><ele>299.0</ele><time>2026-04-05T08:24:16.914Z</time></trkpt><trkpt lat="43.7672183" lon="12.7353764"><ele>300.0</ele><time>2026-04-05T08:24:17.915Z</time></trkpt><trkpt lat="43.7670875" lon="12.7353118"><ele>300.0</ele><time>2026-04-05T08:24:18.915Z</time></trkpt><trkpt lat="43.7669343" lon="12.7352461"><ele>300.0</ele><time>2026-04-05T08:24:19.915Z</time></trkpt><trkpt lat="43.7667686" lon="12.7351511"><ele>300.0</ele><time>2026-04-05T08:24:20.914Z</time></trkpt><trkpt lat="43.7666076" lon="12.7350399"><ele>297.6666666666667</ele><time>2026-04-05T08:24:21.914Z</time></trkpt><trkpt lat="43.7664591" lon="12.7349317"><ele>295.33333333333337</ele><time>2026-04-05T08:24:22.915Z</time></trkpt><trkpt lat="43.7663175" lon="12.734821"><ele>293.0</ele><time>2026-04-05T08:24:23.915Z</time></trkpt><trkpt lat="43.7661802" lon="12.7347058"><ele>293.0</ele><time>2026-04-05T08:24:24.915Z</time></trkpt><trkpt lat="43.7660473" lon="12.7345974"><ele>293.0</ele><time>2026-04-05T08:24:25.915Z</time></trkpt><trkpt lat="43.7659176" lon="12.7344955"><ele>293.0</ele><time>2026-04-05T08:24:26.915Z</time></trkpt><trkpt lat="43.7657978" lon="12.7344011"><ele>293.0</ele><time>2026-04-05T08:24:27.916Z</time></trkpt><trkpt lat="43.7656873" lon="12.7343202"><ele>289.25</ele><time>2026-04-05T08:24:28.916Z</time></trkpt><trkpt lat="43.7655801" lon="12.7342443"><ele>285.5</ele><time>2026-04-05T08:24:29.915Z</time></trkpt><trkpt lat="43.7654767" lon="12.7341603"><ele>281.75</ele><time>2026-04-05T08:24:30.915Z</time></trkpt><trkpt lat="43.765378" lon="12.7340497"><ele>278.0</ele><time>2026-04-05T08:24:31.915Z</time></trkpt><trkpt lat="43.7652785" lon="12.733915"><ele>278.0</ele><time>2026-04-05T08:24:32.915Z</time></trkpt><trkpt lat="43.7651995" lon="12.7337369"><ele>278.0</ele><time>2026-04-05T08:24:33.915Z</time></trkpt><trkpt lat="43.7651239" lon="12.7335598"><ele>278.0</ele><time>2026-04-05T08:24:34.916Z</time></trkpt><trkpt lat="43.7650481" lon="12.7333785"><ele>273.0</ele><time>2026-04-05T08:24:35.915Z</time></trkpt><trkpt lat="43.7649692" lon="12.7331929"><ele>268.0</ele><time>2026-04-05T08:24:36.915Z</time></trkpt><trkpt lat="43.7648849" lon="12.7330156"><ele>263.0</ele><time>2026-04-05T08:24:37.915Z</time></trkpt><trkpt lat="43.7647941" lon="12.7328632"><ele>263.0</ele><time>2026-04-05T08:24:38.915Z</time></trkpt><trkpt lat="43.7647174" lon="12.7327434"><ele>263.0</ele><time>2026-04-05T08:24:39.915Z</time></trkpt><trkpt lat="43.764659" lon="12.7326577"><ele>263.0</ele><time>2026-04-05T08:24:40.916Z</time></trkpt><trkpt lat="43.7645857" lon="12.7325811"><ele>263.0</ele><time>2026-04-05T08:24:42.915Z</time></trkpt><trkpt lat="43.7644809" lon="12.7325276"><ele>263.0</ele><time>2026-04-05T08:24:44.915Z</time></trkpt><trkpt lat="43.7644051" lon="12.732491"><ele>260.0</ele><time>2026-04-05T08:24:45.916Z</time></trkpt><trkpt lat="43.7643163" lon="12.7324475"><ele>257.0</ele><time>2026-04-05T08:24:46.914Z</time></trkpt><trkpt lat="43.7642159" lon="12.7324165"><ele>254.0</ele><time>2026-04-05T08:24:47.915Z</time></trkpt><trkpt lat="43.7640944" lon="12.7324169"><ele>251.0</ele><time>2026-04-05T08:24:48.915Z</time></trkpt><trkpt lat="43.7639565" lon="12.7324204"><ele>251.0</ele><time>2026-04-05T08:24:49.914Z</time></trkpt><trkpt lat="43.7638248" lon="12.7324149"><ele>251.0</ele><time>2026-04-05T08:24:50.916Z</time></trkpt><trkpt lat="43.763706" lon="12.7323867"><ele>251.0</ele><time>2026-04-05T08:24:51.915Z</time></trkpt><trkpt lat="43.7636017" lon="12.7323528"><ele>251.0</ele><time>2026-04-05T08:24:52.914Z</time></trkpt><trkpt lat="43.7635061" lon="12.7323385"><ele>248.60000000000002</ele><time>2026-04-05T08:24:53.915Z</time></trkpt><trkpt lat="43.763425" lon="12.7323726"><ele>246.20000000000002</ele><time>2026-04-05T08:24:54.914Z</time></trkpt><trkpt lat="43.7633677" lon="12.7324513"><ele>243.79999999999998</ele><time>2026-04-05T08:24:55.915Z</time></trkpt><trkpt lat="43.7633277" lon="12.7325663"><ele>241.39999999999998</ele><time>2026-04-05T08:24:56.914Z</time></trkpt><trkpt lat="43.7632863" lon="12.7326939"><ele>239.0</ele><time>2026-04-05T08:24:57.916Z</time></trkpt><trkpt lat="43.7632562" lon="12.732823"><ele>239.0</ele><time>2026-04-05T08:24:58.914Z</time></trkpt><trkpt lat="43.7632421" lon="12.732955"><ele>238.99999999999997</ele><time>2026-04-05T08:24:59.916Z</time></trkpt><trkpt lat="43.7632427" lon="12.7331015"><ele>238.99999999999997</ele><time>2026-04-05T08:25:00.914Z</time></trkpt><trkpt lat="43.7632501" lon="12.7332629"><ele>239.0</ele><time>2026-04-05T08:25:01.915Z</time></trkpt><trkpt lat="43.7632468" lon="12.7334392"><ele>239.0</ele><time>2026-04-05T08:25:02.915Z</time></trkpt><trkpt lat="43.7632225" lon="12.7336181"><ele>238.25</ele><time>2026-04-05T08:25:03.915Z</time></trkpt><trkpt lat="43.7631804" lon="12.7338028"><ele>237.5</ele><time>2026-04-05T08:25:04.915Z</time></trkpt><trkpt lat="43.7631424" lon="12.7340019"><ele>236.75</ele><time>2026-04-05T08:25:05.916Z</time></trkpt><trkpt lat="43.7631136" lon="12.7341991"><ele>236.0</ele><time>2026-04-05T08:25:06.915Z</time></trkpt><trkpt lat="43.7630868" lon="12.7343913"><ele>236.0</ele><time>2026-04-05T08:25:07.915Z</time></trkpt><trkpt lat="43.7630534" lon="12.7345763"><ele>236.0</ele><time>2026-04-05T08:25:08.914Z</time></trkpt><trkpt lat="43.7630045" lon="12.7347406"><ele>236.0</ele><time>2026-04-05T08:25:09.915Z</time></trkpt><trkpt lat="43.7629494" lon="12.7348772"><ele>236.0</ele><time>2026-04-05T08:25:10.915Z</time></trkpt><trkpt lat="43.7628952" lon="12.7349941"><ele>236.00000000000003</ele><time>2026-04-05T08:25:11.915Z</time></trkpt><trkpt lat="43.7628497" lon="12.7350818"><ele>236.0</ele><time>2026-04-05T08:25:12.915Z</time></trkpt><trkpt lat="43.7627987" lon="12.7351555"><ele>236.0</ele><time>2026-04-05T08:25:14.916Z</time></trkpt><trkpt lat="43.7627684" lon="12.73525"><ele>236.0</ele><time>2026-04-05T08:25:17.916Z</time></trkpt><trkpt lat="43.7627186" lon="12.7353685"><ele>236.00000000000003</ele><time>2026-04-05T08:25:19.915Z</time></trkpt><trkpt lat="43.7626813" lon="12.7354453"><ele>236.0</ele><time>2026-04-05T08:25:20.915Z</time></trkpt><trkpt lat="43.7626411" lon="12.735538"><ele>234.83333333333334</ele><time>2026-04-05T08:25:22.916Z</time></trkpt><trkpt lat="43.7626046" lon="12.735649"><ele>233.66666666666669</ele><time>2026-04-05T08:25:31.914Z</time></trkpt><trkpt lat="43.7625605" lon="12.7357366"><ele>232.5</ele><time>2026-04-05T08:25:35.915Z</time></trkpt><trkpt lat="43.7625083" lon="12.7357867"><ele>231.33333333333331</ele><time>2026-04-05T08:25:37.915Z</time></trkpt><trkpt lat="43.7624408" lon="12.7358302"><ele>230.16666666666666</ele><time>2026-04-05T08:25:39.915Z</time></trkpt><trkpt lat="43.7623453" lon="12.73587"><ele>229.0</ele><time>2026-04-05T08:25:41.916Z</time></trkpt><trkpt lat="43.7622288" lon="12.735912"><ele>229.0</ele><time>2026-04-05T08:25:43.915Z</time></trkpt><trkpt lat="43.7621115" lon="12.735936"><ele>229.0</ele><time>2026-04-05T08:25:45.915Z</time></trkpt><trkpt lat="43.7619971" lon="12.7359422"><ele>229.0</ele><time>2026-04-05T08:25:47.915Z</time></trkpt><trkpt lat="43.7619216" lon="12.7359172"><ele>229.0</ele><time>2026-04-05T08:25:48.915Z</time></trkpt><trkpt lat="43.7627186" lon="12.7353685"><ele>229.0</ele><time>2026-04-05T08:25:19.915Z</time></trkpt><trkpt lat="43.7626813" lon="12.7354453"><ele>229.0</ele><time>2026-04-05T08:25:20.915Z</time></trkpt><trkpt lat="43.7626411" lon="12.735538"><ele>229.0</ele><time>2026-04-05T08:25:22.916Z</time></trkpt><trkpt lat="43.7626046" lon="12.735649"><ele>229.0</ele><time>2026-04-05T08:25:31.914Z</time></trkpt><trkpt lat="43.7625605" lon="12.7357366"><ele>229.0</ele><time>2026-04-05T08:25:35.915Z</time></trkpt><trkpt lat="43.7625083" lon="12.7357867"><ele>229.0</ele><time>2026-04-05T08:25:37.915Z</time></trkpt><trkpt lat="43.7624408" lon="12.7358302"><ele>229.0</ele><time>2026-04-05T08:25:39.915Z</time></trkpt><trkpt lat="43.7623453" lon="12.73587"><ele>229.0</ele><time>2026-04-05T08:25:41.916Z</time></trkpt><trkpt lat="43.7622288" lon="12.735912"><ele>228.99999999999997</ele><time>2026-04-05T08:25:43.915Z</time></trkpt><trkpt lat="43.7621115" lon="12.735936"><ele>228.99999999999997</ele><time>2026-04-05T08:25:45.915Z</time></trkpt><trkpt lat="43.7619971" lon="12.7359422"><ele>229.0</ele><time>2026-04-05T08:25:47.915Z</time></trkpt><trkpt lat="43.7619216" lon="12.7359172"><ele>229.0</ele><time>2026-04-05T08:25:48.915Z</time></trkpt><trkpt lat="43.7618312" lon="12.7358932"><ele>225.6</ele><time>2026-04-05T08:25:49.915Z</time></trkpt><trkpt lat="43.7617379" lon="12.7358607"><ele>222.2</ele><time>2026-04-05T08:25:50.916Z</time></trkpt><trkpt lat="43.7616446" lon="12.7358252"><ele>218.79999999999998</ele><time>2026-04-05T08:25:51.914Z</time></trkpt><trkpt lat="43.7615475" lon="12.735793"><ele>215.39999999999998</ele><time>2026-04-05T08:25:52.915Z</time></trkpt><trkpt lat="43.7614577" lon="12.735757"><ele>212.0</ele><time>2026-04-05T08:25:53.915Z</time></trkpt><trkpt lat="43.7613725" lon="12.7357361"><ele>212.00000000000003</ele><time>2026-04-05T08:25:54.915Z</time></trkpt><trkpt lat="43.761291" lon="12.7357115"><ele>212.0</ele><time>2026-04-05T08:25:55.915Z</time></trkpt><trkpt lat="43.761208" lon="12.7356739"><ele>212.0</ele><time>2026-04-05T08:25:56.915Z</time></trkpt><trkpt lat="43.7611219" lon="12.7356307"><ele>212.0</ele><time>2026-04-05T08:25:57.915Z</time></trkpt><trkpt lat="43.761042" lon="12.7355909"><ele>212.00000000000003</ele><time>2026-04-05T08:25:58.915Z</time></trkpt><trkpt lat="43.7609657" lon="12.7355631"><ele>212.0</ele><time>2026-04-05T08:25:59.915Z</time></trkpt><trkpt lat="43.7608924" lon="12.7355516"><ele>209.00000000000003</ele><time>2026-04-05T08:26:00.914Z</time></trkpt><trkpt lat="43.7608185" lon="12.7355419"><ele>206.0</ele><time>2026-04-05T08:26:01.915Z</time></trkpt><trkpt lat="43.760734" lon="12.735542"><ele>203.0</ele><time>2026-04-05T08:26:02.915Z</time></trkpt><trkpt lat="43.760649" lon="12.7355335"><ele>200.0</ele><time>2026-04-05T08:26:03.914Z</time></trkpt><trkpt lat="43.7605623" lon="12.7355155"><ele>197.00000000000003</ele><time>2026-04-05T08:26:04.915Z</time></trkpt><trkpt lat="43.760476" lon="12.7355003"><ele>194.0</ele><time>2026-04-05T08:26:05.914Z</time></trkpt><trkpt lat="43.7603955" lon="12.7354918"><ele>194.00000000000003</ele><time>2026-04-05T08:26:06.915Z</time></trkpt><trkpt lat="43.7603029" lon="12.7354915"><ele>194.0</ele><time>2026-04-05T08:26:07.915Z</time></trkpt><trkpt lat="43.760212" lon="12.7355129"><ele>194.0</ele><time>2026-04-05T08:26:08.915Z</time></trkpt><trkpt lat="43.7601285" lon="12.7355384"><ele>194.0</ele><time>2026-04-05T08:26:09.915Z</time></trkpt><trkpt lat="43.7600547" lon="12.7355546"><ele>194.00000000000003</ele><time>2026-04-05T08:26:10.915Z</time></trkpt><trkpt lat="43.7599821" lon="12.7355601"><ele>194.0</ele><time>2026-04-05T08:26:11.915Z</time></trkpt><trkpt lat="43.7599141" lon="12.7355589"><ele>192.0</ele><time>2026-04-05T08:26:12.915Z</time></trkpt><trkpt lat="43.7598485" lon="12.7355711"><ele>190.0</ele><time>2026-04-05T08:26:13.916Z</time></trkpt><trkpt lat="43.7597526" lon="12.7356134"><ele>188.0</ele><time>2026-04-05T08:26:15.915Z</time></trkpt><trkpt lat="43.759699" lon="12.7357222"><ele>186.0</ele><time>2026-04-05T08:26:18.915Z</time></trkpt><trkpt lat="43.7596596" lon="12.7358409"><ele>184.0</ele><time>2026-04-05T08:26:20.915Z</time></trkpt><trkpt lat="43.7596116" lon="12.7359723"><ele>182.39999999999998</ele><time>2026-04-05T08:26:22.915Z</time></trkpt><trkpt lat="43.759549" lon="12.7361033"><ele>180.8</ele><time>2026-04-05T08:26:24.915Z</time></trkpt><trkpt lat="43.7594936" lon="12.7362253"><ele>179.2</ele><time>2026-04-05T08:26:26.915Z</time></trkpt><trkpt lat="43.7594458" lon="12.736319"><ele>177.60000000000002</ele><time>2026-04-05T08:26:28.916Z</time></trkpt><trkpt lat="43.7594032" lon="12.736399"><ele>176.0</ele><time>2026-04-05T08:26:30.915Z</time></trkpt><trkpt lat="43.7593423" lon="12.7364709"><ele>174.33333333333331</ele><time>2026-04-05T08:26:32.914Z</time></trkpt><trkpt lat="43.7592666" lon="12.7365088"><ele>172.66666666666666</ele><time>2026-04-05T08:26:34.914Z</time></trkpt><trkpt lat="43.7591927" lon="12.7365008"><ele>171.0</ele><time>2026-04-05T08:26:37.915Z</time></trkpt><trkpt lat="43.7591209" lon="12.73648"><ele>169.33333333333334</ele><time>2026-04-05T08:26:39.915Z</time></trkpt><trkpt lat="43.7590224" lon="12.7364673"><ele>167.66666666666669</ele><time>2026-04-05T08:26:41.915Z</time></trkpt><trkpt lat="43.7589069" lon="12.7364578"><ele>166.0</ele><time>2026-04-05T08:26:43.915Z</time></trkpt><trkpt lat="43.758823" lon="12.7364368"><ele>166.0</ele><time>2026-04-05T08:26:45.915Z</time></trkpt><trkpt lat="43.7587462" lon="12.7364117"><ele>166.0</ele><time>2026-04-05T08:26:48.914Z</time></trkpt><trkpt lat="43.7586681" lon="12.7363961"><ele>166.0</ele><time>2026-04-05T08:26:54.915Z</time></trkpt><trkpt lat="43.7585932" lon="12.7363428"><ele>166.0</ele><time>2026-04-05T08:26:57.913Z</time></trkpt><trkpt lat="43.7585072" lon="12.7363202"><ele>166.0</ele><time>2026-04-05T08:26:59.914Z</time></trkpt><trkpt lat="43.7584177" lon="12.7363347"><ele>166.0</ele><time>2026-04-05T08:27:02.913Z</time></trkpt><trkpt lat="43.7583286" lon="12.7363224"><ele>165.16666666666669</ele><time>2026-04-05T08:27:05.914Z</time></trkpt><trkpt lat="43.7582535" lon="12.7363839"><ele>164.33333333333334</ele><time>2026-04-05T08:27:07.914Z</time></trkpt><trkpt lat="43.7581598" lon="12.7364555"><ele>163.5</ele><time>2026-04-05T08:27:09.915Z</time></trkpt><trkpt lat="43.7580921" lon="12.736498"><ele>162.66666666666666</ele><time>2026-04-05T08:27:10.914Z</time></trkpt><trkpt lat="43.7580275" lon="12.7365361"><ele>161.83333333333331</ele><time>2026-04-05T08:27:11.915Z</time></trkpt><trkpt lat="43.7579661" lon="12.7365737"><ele>161.0</ele><time>2026-04-05T08:27:13.913Z</time></trkpt><trkpt lat="43.7578796" lon="12.7366353"><ele>161.0</ele><time>2026-04-05T08:27:16.914Z</time></trkpt><trkpt lat="43.7577941" lon="12.7366971"><ele>161.0</ele><time>2026-04-05T08:27:18.914Z</time></trkpt><trkpt lat="43.7577331" lon="12.7367467"><ele>161.0</ele><time>2026-04-05T08:27:19.914Z</time></trkpt><trkpt lat="43.7576526" lon="12.7368067"><ele>161.0</ele><time>2026-04-05T08:27:20.914Z</time></trkpt><trkpt lat="43.7575926" lon="12.736852"><ele>161.0</ele><time>2026-04-05T08:27:21.914Z</time></trkpt><trkpt lat="43.7575156" lon="12.7369023"><ele>161.0</ele><time>2026-04-05T08:27:23.914Z</time></trkpt><trkpt lat="43.7575994" lon="12.7368568"><ele>161.0</ele><time>2026-04-05T08:29:02.915Z</time></trkpt><trkpt lat="43.7576997" lon="12.7367789"><ele>161.0</ele><time>2026-04-05T08:29:04.914Z</time></trkpt><trkpt lat="43.7577785" lon="12.7367133"><ele>161.0</ele><time>2026-04-05T08:29:06.914Z</time></trkpt><trkpt lat="43.7578548" lon="12.7366531"><ele>161.0</ele><time>2026-04-05T08:29:08.914Z</time></trkpt><trkpt lat="43.7579128" lon="12.7366165"><ele>161.0</ele><time>2026-04-05T08:29:11.914Z</time></trkpt><trkpt lat="43.7579858" lon="12.7365714"><ele>161.0</ele><time>2026-04-05T08:29:14.914Z</time></trkpt><trkpt lat="43.758052" lon="12.7365285"><ele>161.0</ele><time>2026-04-05T08:29:16.914Z</time></trkpt><trkpt lat="43.758144" lon="12.7364638"><ele>161.0</ele><time>2026-04-05T08:29:18.914Z</time></trkpt><trkpt lat="43.7582164" lon="12.7364221"><ele>161.0</ele><time>2026-04-05T08:29:20.915Z</time></trkpt><trkpt lat="43.7582666" lon="12.7363625"><ele>161.0</ele><time>2026-04-05T08:29:22.914Z</time></trkpt><trkpt lat="43.7582598" lon="12.7362282"><ele>161.0</ele><time>2026-04-05T08:29:25.914Z</time></trkpt><trkpt lat="43.7581719" lon="12.736201"><ele>161.0</ele><time>2026-04-05T08:29:28.915Z</time></trkpt><trkpt lat="43.7581079" lon="12.7362963"><ele>161.0</ele><time>2026-04-05T08:29:31.915Z</time></trkpt><trkpt lat="43.7580669" lon="12.7363819"><ele>161.0</ele><time>2026-04-05T08:29:33.914Z</time></trkpt><trkpt lat="43.7579892" lon="12.7364506"><ele>161.0</ele><time>2026-04-05T08:29:35.915Z</time></trkpt><trkpt lat="43.7578886" lon="12.7365299"><ele>161.0</ele><time>2026-04-05T08:29:37.915Z</time></trkpt><trkpt lat="43.7578332" lon="12.7365754"><ele>161.0</ele><time>2026-04-05T08:29:38.914Z</time></trkpt><trkpt lat="43.7577376" lon="12.736651"><ele>161.0</ele><time>2026-04-05T08:29:40.914Z</time></trkpt><trkpt lat="43.7576399" lon="12.7367213"><ele>161.0</ele><time>2026-04-05T08:29:42.914Z</time></trkpt><trkpt lat="43.7575408" lon="12.7367967"><ele>161.0</ele><time>2026-04-05T08:29:44.914Z</time></trkpt><trkpt lat="43.7574415" lon="12.7368731"><ele>161.0</ele><time>2026-04-05T08:29:46.913Z</time></trkpt><trkpt lat="43.7573563" lon="12.7369532"><ele>161.0</ele><time>2026-04-05T08:29:48.914Z</time></trkpt><trkpt lat="43.7572959" lon="12.7370023"><ele>161.28571428571428</ele><time>2026-04-05T08:29:50.914Z</time></trkpt><trkpt lat="43.7572349" lon="12.7370297"><ele>161.57142857142856</ele><time>2026-04-05T08:29:52.914Z</time></trkpt><trkpt lat="43.7571653" lon="12.7370401"><ele>161.85714285714286</ele><time>2026-04-05T08:29:54.914Z</time></trkpt><trkpt lat="43.7571543" lon="12.7371374"><ele>162.14285714285714</ele><time>2026-04-05T08:29:58.914Z</time></trkpt><trkpt lat="43.7571686" lon="12.7372241"><ele>162.42857142857142</ele><time>2026-04-05T08:30:02.915Z</time></trkpt><trkpt lat="43.7571094" lon="12.7372783"><ele>162.71428571428572</ele><time>2026-04-05T08:30:13.914Z</time></trkpt><trkpt lat="43.75706" lon="12.7373355"><ele>163.0</ele><time>2026-04-05T08:30:15.914Z</time></trkpt><trkpt lat="43.7569631" lon="12.7373733"><ele>162.8</ele><time>2026-04-05T08:30:17.914Z</time></trkpt><trkpt lat="43.7568447" lon="12.7374302"><ele>162.60000000000002</ele><time>2026-04-05T08:30:19.913Z</time></trkpt><trkpt lat="43.756754" lon="12.7374912"><ele>162.39999999999998</ele><time>2026-04-05T08:30:21.914Z</time></trkpt><trkpt lat="43.7567463" lon="12.7376041"><ele>162.2</ele><time>2026-04-05T08:30:23.914Z</time></trkpt><trkpt lat="43.7568101" lon="12.7377447"><ele>162.0</ele><time>2026-04-05T08:30:25.915Z</time></trkpt><trkpt lat="43.7568439" lon="12.7379164"><ele>163.0</ele><time>2026-04-05T08:30:27.914Z</time></trkpt><trkpt lat="43.7568441" lon="12.7380065"><ele>164.0</ele><time>2026-04-05T08:30:28.914Z</time></trkpt><trkpt lat="43.756802" lon="12.7381497"><ele>165.0</ele><time>2026-04-05T08:30:30.914Z</time></trkpt><trkpt lat="43.7567759" lon="12.7382939"><ele>166.0</ele><time>2026-04-05T08:30:32.914Z</time></trkpt><trkpt lat="43.7567631" lon="12.7383818"><ele>167.0</ele><time>2026-04-05T08:30:39.914Z</time></trkpt><trkpt lat="43.7567419" lon="12.7384839"><ele>168.0</ele><time>2026-04-05T08:30:41.914Z</time></trkpt><trkpt lat="43.7566941" lon="12.7385995"><ele>169.0</ele><time>2026-04-05T08:30:43.915Z</time></trkpt><trkpt lat="43.7566606" lon="12.7386772"><ele>170.0</ele><time>2026-04-05T08:30:46.914Z</time></trkpt><trkpt lat="43.7566395" lon="12.7387806"><ele>171.0</ele><time>2026-04-05T08:30:50.914Z</time></trkpt><trkpt lat="43.7566111" lon="12.7388788"><ele>172.0</ele><time>2026-04-05T08:30:53.913Z</time></trkpt><trkpt lat="43.7565899" lon="12.7389994"><ele>173.0</ele><time>2026-04-05T08:30:56.915Z</time></trkpt><trkpt lat="43.7565566" lon="12.7391226"><ele>174.0</ele><time>2026-04-05T08:30:59.914Z</time></trkpt><trkpt lat="43.7565198" lon="12.7392344"><ele>174.0</ele><time>2026-04-05T08:31:01.914Z</time></trkpt><trkpt lat="43.7564563" lon="12.7393674"><ele>174.0</ele><time>2026-04-05T08:31:03.914Z</time></trkpt><trkpt lat="43.7564292" lon="12.7394632"><ele>174.0</ele><time>2026-04-05T08:31:04.914Z</time></trkpt><trkpt lat="43.7564185" lon="12.7395667"><ele>174.0</ele><time>2026-04-05T08:31:05.914Z</time></trkpt><trkpt lat="43.7564339" lon="12.7396707"><ele>174.0</ele><time>2026-04-05T08:31:06.913Z</time></trkpt><trkpt lat="43.756457" lon="12.7397541"><ele>174.0</ele><time>2026-04-05T08:31:07.913Z</time></trkpt><trkpt lat="43.7565031" lon="12.7398619"><ele>174.16666666666666</ele><time>2026-04-05T08:31:09.913Z</time></trkpt><trkpt lat="43.7565108" lon="12.7399648"><ele>174.33333333333334</ele><time>2026-04-05T08:31:50.914Z</time></trkpt><trkpt lat="43.7564904" lon="12.7400864"><ele>174.5</ele><time>2026-04-05T08:31:53.913Z</time></trkpt><trkpt lat="43.7564685" lon="12.7401937"><ele>174.66666666666669</ele><time>2026-04-05T08:31:56.913Z</time></trkpt><trkpt lat="43.756466" lon="12.740102"><ele>174.83333333333334</ele><time>2026-04-05T08:32:31.913Z</time></trkpt><trkpt lat="43.756501" lon="12.7399857"><ele>175.0</ele><time>2026-04-05T08:32:33.913Z</time></trkpt><trkpt lat="43.7565453" lon="12.7399174"><ele>175.0</ele><time>2026-04-05T08:32:35.913Z</time></trkpt><trkpt lat="43.7566398" lon="12.7398467"><ele>175.0</ele><time>2026-04-05T08:32:37.914Z</time></trkpt><trkpt lat="43.7567558" lon="12.7397555"><ele>175.0</ele><time>2026-04-05T08:32:39.912Z</time></trkpt><trkpt lat="43.7568149" lon="12.7396872"><ele>175.0</ele><time>2026-04-05T08:32:40.914Z</time></trkpt><trkpt lat="43.7568733" lon="12.7395897"><ele>175.0</ele><time>2026-04-05T08:32:41.914Z</time></trkpt><trkpt lat="43.75691" lon="12.7394716"><ele>176.83333333333334</ele><time>2026-04-05T08:32:42.913Z</time></trkpt><trkpt lat="43.756937" lon="12.7393345"><ele>178.66666666666669</ele><time>2026-04-05T08:32:43.913Z</time></trkpt><trkpt lat="43.7569619" lon="12.7392157"><ele>180.5</ele><time>2026-04-05T08:32:44.913Z</time></trkpt><trkpt lat="43.7569977" lon="12.7391196"><ele>182.33333333333334</ele><time>2026-04-05T08:32:45.912Z</time></trkpt><trkpt lat="43.7570404" lon="12.7390212"><ele>184.16666666666666</ele><time>2026-04-05T08:32:46.913Z</time></trkpt><trkpt lat="43.7570863" lon="12.7389568"><ele>186.0</ele><time>2026-04-05T08:32:47.913Z</time></trkpt><trkpt lat="43.7571446" lon="12.7388932"><ele>186.0</ele><time>2026-04-05T08:32:48.913Z</time></trkpt><trkpt lat="43.7572231" lon="12.7388781"><ele>186.0</ele><time>2026-04-05T08:32:49.913Z</time></trkpt><trkpt lat="43.7573098" lon="12.7389095"><ele>186.0</ele><time>2026-04-05T08:32:50.914Z</time></trkpt><trkpt lat="43.75739" lon="12.7389424"><ele>186.0</ele><time>2026-04-05T08:32:51.913Z</time></trkpt><trkpt lat="43.757478" lon="12.7389946"><ele>186.0</ele><time>2026-04-05T08:32:52.913Z</time></trkpt><trkpt lat="43.7575583" lon="12.7390605"><ele>186.0</ele><time>2026-04-05T08:32:53.913Z</time></trkpt><trkpt lat="43.757629" lon="12.7391424"><ele>186.0</ele><time>2026-04-05T08:32:54.912Z</time></trkpt><trkpt lat="43.7576875" lon="12.7392311"><ele>186.0</ele><time>2026-04-05T08:32:55.913Z</time></trkpt><trkpt lat="43.7577503" lon="12.7393245"><ele>186.0</ele><time>2026-04-05T08:32:56.913Z</time></trkpt><trkpt lat="43.7578211" lon="12.7394032"><ele>186.0</ele><time>2026-04-05T08:32:57.912Z</time></trkpt><trkpt lat="43.7578901" lon="12.7394844"><ele>186.0</ele><time>2026-04-05T08:32:58.914Z</time></trkpt><trkpt lat="43.7579636" lon="12.7395616"><ele>187.4</ele><time>2026-04-05T08:32:59.913Z</time></trkpt><trkpt lat="43.7580399" lon="12.7396389"><ele>188.8</ele><time>2026-04-05T08:33:00.912Z</time></trkpt><trkpt lat="43.7581094" lon="12.7397184"><ele>190.20000000000002</ele><time>2026-04-05T08:33:01.913Z</time></trkpt><trkpt lat="43.7581716" lon="12.73981"><ele>191.60000000000002</ele><time>2026-04-05T08:33:02.913Z</time></trkpt><trkpt lat="43.7582355" lon="12.7399211"><ele>193.0</ele><time>2026-04-05T08:33:03.913Z</time></trkpt><trkpt lat="43.7583124" lon="12.7400212"><ele>193.0</ele><time>2026-04-05T08:33:04.913Z</time></trkpt><trkpt lat="43.7584123" lon="12.7400961"><ele>193.0</ele><time>2026-04-05T08:33:05.913Z</time></trkpt><trkpt lat="43.7585022" lon="12.7401622"><ele>193.0</ele><time>2026-04-05T08:33:06.913Z</time></trkpt><trkpt lat="43.7585705" lon="12.7402316"><ele>193.0</ele><time>2026-04-05T08:33:07.913Z</time></trkpt><trkpt lat="43.7586225" lon="12.7403131"><ele>193.0</ele><time>2026-04-05T08:33:08.913Z</time></trkpt><trkpt lat="43.758631" lon="12.7404369"><ele>194.60000000000002</ele><time>2026-04-05T08:33:10.913Z</time></trkpt><trkpt lat="43.7585402" lon="12.7405008"><ele>196.20000000000002</ele><time>2026-04-05T08:33:12.913Z</time></trkpt><trkpt lat="43.7584661" lon="12.7405261"><ele>197.8</ele><time>2026-04-05T08:33:13.913Z</time></trkpt><trkpt lat="43.7583723" lon="12.7405801"><ele>199.4</ele><time>2026-04-05T08:33:14.913Z</time></trkpt><trkpt lat="43.7582855" lon="12.7406484"><ele>201.0</ele><time>2026-04-05T08:33:15.912Z</time></trkpt><trkpt lat="43.758221" lon="12.7407278"><ele>203.0</ele><time>2026-04-05T08:33:16.913Z</time></trkpt><trkpt lat="43.7581672" lon="12.7408311"><ele>205.0</ele><time>2026-04-05T08:33:17.912Z</time></trkpt><trkpt lat="43.7581275" lon="12.7409415"><ele>207.0</ele><time>2026-04-05T08:33:18.912Z</time></trkpt><trkpt lat="43.7580976" lon="12.7410212"><ele>209.0</ele><time>2026-04-05T08:33:19.913Z</time></trkpt><trkpt lat="43.7580957" lon="12.7411661"><ele>211.0</ele><time>2026-04-05T08:33:21.913Z</time></trkpt><trkpt lat="43.7582035" lon="12.741252"><ele>213.28571428571428</ele><time>2026-04-05T08:33:23.914Z</time></trkpt><trkpt lat="43.7582829" lon="12.7412653"><ele>215.57142857142858</ele><time>2026-04-05T08:33:24.913Z</time></trkpt><trkpt lat="43.7583612" lon="12.741279"><ele>217.85714285714286</ele><time>2026-04-05T08:33:25.913Z</time></trkpt><trkpt lat="43.758426" lon="12.7413206"><ele>220.14285714285717</ele><time>2026-04-05T08:33:26.913Z</time></trkpt><trkpt lat="43.7584794" lon="12.7413888"><ele>222.42857142857144</ele><time>2026-04-05T08:33:27.912Z</time></trkpt><trkpt lat="43.7585133" lon="12.7414748"><ele>224.71428571428572</ele><time>2026-04-05T08:33:28.913Z</time></trkpt><trkpt lat="43.7585263" lon="12.7415712"><ele>227.0</ele><time>2026-04-05T08:33:29.914Z</time></trkpt><trkpt lat="43.758525" lon="12.7416759"><ele>227.00000000000003</ele><time>2026-04-05T08:33:30.913Z</time></trkpt><trkpt lat="43.7585175" lon="12.741785"><ele>227.0</ele><time>2026-04-05T08:33:31.913Z</time></trkpt><trkpt lat="43.7585128" lon="12.7418881"><ele>227.0</ele><time>2026-04-05T08:33:32.914Z</time></trkpt><trkpt lat="43.7585323" lon="12.7419725"><ele>227.0</ele><time>2026-04-05T08:33:33.914Z</time></trkpt><trkpt lat="43.758577" lon="12.7420488"><ele>227.00000000000003</ele><time>2026-04-05T08:33:34.913Z</time></trkpt><trkpt lat="43.7586384" lon="12.7421286"><ele>227.0</ele><time>2026-04-05T08:33:35.913Z</time></trkpt><trkpt lat="43.758718" lon="12.7422078"><ele>227.6</ele><time>2026-04-05T08:33:36.913Z</time></trkpt><trkpt lat="43.7588092" lon="12.7423048"><ele>228.2</ele><time>2026-04-05T08:33:37.913Z</time></trkpt><trkpt lat="43.7588951" lon="12.7424081"><ele>228.8</ele><time>2026-04-05T08:33:38.913Z</time></trkpt><trkpt lat="43.7589829" lon="12.7424979"><ele>229.4</ele><time>2026-04-05T08:33:39.913Z</time></trkpt><trkpt lat="43.7590742" lon="12.7425679"><ele>230.0</ele><time>2026-04-05T08:33:40.912Z</time></trkpt><trkpt lat="43.759175" lon="12.7426451"><ele>229.0</ele><time>2026-04-05T08:33:41.913Z</time></trkpt><trkpt lat="43.7592901" lon="12.7427191"><ele>228.0</ele><time>2026-04-05T08:33:42.913Z</time></trkpt><trkpt lat="43.7594194" lon="12.7427946"><ele>227.0</ele><time>2026-04-05T08:33:43.913Z</time></trkpt><trkpt lat="43.7595583" lon="12.7428626"><ele>226.0</ele><time>2026-04-05T08:33:44.913Z</time></trkpt><trkpt lat="43.7596909" lon="12.7429073"><ele>229.20000000000002</ele><time>2026-04-05T08:33:45.913Z</time></trkpt><trkpt lat="43.7598027" lon="12.7429403"><ele>232.40000000000003</ele><time>2026-04-05T08:33:46.914Z</time></trkpt><trkpt lat="43.7598957" lon="12.7429872"><ele>235.6</ele><time>2026-04-05T08:33:47.912Z</time></trkpt><trkpt lat="43.7599834" lon="12.7430589"><ele>238.8</ele><time>2026-04-05T08:33:48.913Z</time></trkpt><trkpt lat="43.7600779" lon="12.7431313"><ele>242.0</ele><time>2026-04-05T08:33:49.913Z</time></trkpt><trkpt lat="43.760187" lon="12.7431908"><ele>245.0</ele><time>2026-04-05T08:33:50.913Z</time></trkpt><trkpt lat="43.7603205" lon="12.7432418"><ele>248.0</ele><time>2026-04-05T08:33:51.913Z</time></trkpt><trkpt lat="43.7604746" lon="12.7432981"><ele>251.0</ele><time>2026-04-05T08:33:52.912Z</time></trkpt><trkpt lat="43.760623" lon="12.743344"><ele>251.0</ele><time>2026-04-05T08:33:53.913Z</time></trkpt><trkpt lat="43.7607495" lon="12.7433826"><ele>251.00000000000003</ele><time>2026-04-05T08:33:54.914Z</time></trkpt><trkpt lat="43.7608596" lon="12.7434152"><ele>251.00000000000003</ele><time>2026-04-05T08:33:55.913Z</time></trkpt><trkpt lat="43.7609561" lon="12.7434541"><ele>251.0</ele><time>2026-04-05T08:33:56.913Z</time></trkpt><trkpt lat="43.7610321" lon="12.7435079"><ele>251.0</ele><time>2026-04-05T08:33:57.913Z</time></trkpt><trkpt lat="43.7610766" lon="12.7435741"><ele>252.50000000000003</ele><time>2026-04-05T08:33:58.913Z</time></trkpt><trkpt lat="43.761071" lon="12.7437192"><ele>254.0</ele><time>2026-04-05T08:34:00.913Z</time></trkpt><trkpt lat="43.7610279" lon="12.7437955"><ele>255.5</ele><time>2026-04-05T08:34:01.913Z</time></trkpt><trkpt lat="43.7609921" lon="12.7438719"><ele>257.0</ele><time>2026-04-05T08:34:02.913Z</time></trkpt><trkpt lat="43.7609748" lon="12.7439572"><ele>258.5</ele><time>2026-04-05T08:34:03.913Z</time></trkpt><trkpt lat="43.7610434" lon="12.7440514"><ele>260.0</ele><time>2026-04-05T08:34:05.913Z</time></trkpt><trkpt lat="43.7611123" lon="12.7440704"><ele>261.4</ele><time>2026-04-05T08:34:06.912Z</time></trkpt><trkpt lat="43.7612078" lon="12.7440934"><ele>262.8</ele><time>2026-04-05T08:34:07.913Z</time></trkpt><trkpt lat="43.761303" lon="12.7441407"><ele>264.2</ele><time>2026-04-05T08:34:08.913Z</time></trkpt><trkpt lat="43.761396" lon="12.7442128"><ele>265.6</ele><time>2026-04-05T08:34:09.913Z</time></trkpt><trkpt lat="43.7614959" lon="12.7443125"><ele>267.0</ele><time>2026-04-05T08:34:10.913Z</time></trkpt><trkpt lat="43.7615993" lon="12.7444234"><ele>267.5</ele><time>2026-04-05T08:34:11.912Z</time></trkpt><trkpt lat="43.7616959" lon="12.7445055"><ele>268.0</ele><time>2026-04-05T08:34:12.913Z</time></trkpt><trkpt lat="43.7617972" lon="12.7445707"><ele>268.5</ele><time>2026-04-05T08:34:13.914Z</time></trkpt><trkpt lat="43.7619129" lon="12.7446176"><ele>269.0</ele><time>2026-04-05T08:34:14.913Z</time></trkpt><trkpt lat="43.7620462" lon="12.7446519"><ele>272.25</ele><time>2026-04-05T08:34:15.913Z</time></trkpt><trkpt lat="43.7621909" lon="12.7446844"><ele>275.5</ele><time>2026-04-05T08:34:16.913Z</time></trkpt><trkpt lat="43.7623198" lon="12.7447089"><ele>278.75</ele><time>2026-04-05T08:34:17.913Z</time></trkpt><trkpt lat="43.7624237" lon="12.7447339"><ele>282.0</ele><time>2026-04-05T08:34:18.913Z</time></trkpt><trkpt lat="43.7624933" lon="12.744772"><ele>282.0</ele><time>2026-04-05T08:34:19.913Z</time></trkpt><trkpt lat="43.762543" lon="12.74484"><ele>282.0</ele><time>2026-04-05T08:34:20.914Z</time></trkpt><trkpt lat="43.7625776" lon="12.7449331"><ele>282.0</ele><time>2026-04-05T08:34:21.913Z</time></trkpt><trkpt lat="43.7626129" lon="12.7450392"><ele>282.0</ele><time>2026-04-05T08:34:22.914Z</time></trkpt><trkpt lat="43.762673" lon="12.7451328"><ele>282.0</ele><time>2026-04-05T08:34:23.912Z</time></trkpt><trkpt lat="43.7627475" lon="12.7451879"><ele>282.0</ele><time>2026-04-05T08:34:24.913Z</time></trkpt><trkpt lat="43.7628351" lon="12.7452133"><ele>285.2</ele><time>2026-04-05T08:34:25.914Z</time></trkpt><trkpt lat="43.7629252" lon="12.7452194"><ele>288.4</ele><time>2026-04-05T08:34:26.913Z</time></trkpt><trkpt lat="43.7630149" lon="12.7452257"><ele>291.6</ele><time>2026-04-05T08:34:27.913Z</time></trkpt><trkpt lat="43.763102" lon="12.7452513"><ele>294.8</ele><time>2026-04-05T08:34:28.913Z</time></trkpt><trkpt lat="43.763188" lon="12.7452983"><ele>298.0</ele><time>2026-04-05T08:34:29.913Z</time></trkpt><trkpt lat="43.7632758" lon="12.7453449"><ele>298.0</ele><time>2026-04-05T08:34:30.912Z</time></trkpt><trkpt lat="43.7633656" lon="12.7453885"><ele>298.0</ele><time>2026-04-05T08:34:31.913Z</time></trkpt><trkpt lat="43.7634545" lon="12.7454432"><ele>298.0</ele><time>2026-04-05T08:34:32.913Z</time></trkpt><trkpt lat="43.763534" lon="12.7455234"><ele>298.0</ele><time>2026-04-05T08:34:33.913Z</time></trkpt><trkpt lat="43.7636045" lon="12.7456256"><ele>298.0</ele><time>2026-04-05T08:34:34.913Z</time></trkpt><trkpt lat="43.7636733" lon="12.7457243"><ele>298.8</ele><time>2026-04-05T08:34:35.913Z</time></trkpt><trkpt lat="43.7637293" lon="12.7458008"><ele>299.6</ele><time>2026-04-05T08:34:36.913Z</time></trkpt><trkpt lat="43.763803" lon="12.7459487"><ele>300.4</ele><time>2026-04-05T08:34:38.913Z</time></trkpt><trkpt lat="43.763864" lon="12.7460407"><ele>301.2</ele><time>2026-04-05T08:34:40.913Z</time></trkpt><trkpt lat="43.7639437" lon="12.7460191"><ele>302.0</ele><time>2026-04-05T08:34:43.912Z</time></trkpt><trkpt lat="43.7640304" lon="12.7458922"><ele>302.0</ele><time>2026-04-05T08:34:45.913Z</time></trkpt><trkpt lat="43.7640743" lon="12.7457881"><ele>302.0</ele><time>2026-04-05T08:34:46.913Z</time></trkpt><trkpt lat="43.7641268" lon="12.7456836"><ele>302.0</ele><time>2026-04-05T08:34:47.912Z</time></trkpt><trkpt lat="43.76419" lon="12.745577"><ele>302.0</ele><time>2026-04-05T08:34:48.913Z</time></trkpt><trkpt lat="43.7642574" lon="12.7454584"><ele>302.0</ele><time>2026-04-05T08:34:49.913Z</time></trkpt><trkpt lat="43.7643279" lon="12.7453291"><ele>300.25</ele><time>2026-04-05T08:34:50.913Z</time></trkpt><trkpt lat="43.7644012" lon="12.7451963"><ele>298.5</ele><time>2026-04-05T08:34:51.913Z</time></trkpt><trkpt lat="43.7644754" lon="12.7450603"><ele>296.75</ele><time>2026-04-05T08:34:52.913Z</time></trkpt><trkpt lat="43.7645457" lon="12.7449111"><ele>295.0</ele><time>2026-04-05T08:34:53.913Z</time></trkpt><trkpt lat="43.7646083" lon="12.7447488"><ele>295.0</ele><time>2026-04-05T08:34:54.913Z</time></trkpt><trkpt lat="43.7646629" lon="12.7445771"><ele>295.0</ele><time>2026-04-05T08:34:55.914Z</time></trkpt><trkpt lat="43.7647125" lon="12.7444086"><ele>295.0</ele><time>2026-04-05T08:34:56.913Z</time></trkpt><trkpt lat="43.7647573" lon="12.7442492"><ele>295.0</ele><time>2026-04-05T08:34:57.912Z</time></trkpt><trkpt lat="43.7647994" lon="12.7440993"><ele>297.6</ele><time>2026-04-05T08:34:58.913Z</time></trkpt><trkpt lat="43.7648426" lon="12.7439571"><ele>300.2</ele><time>2026-04-05T08:34:59.913Z</time></trkpt><trkpt lat="43.7648901" lon="12.7438225"><ele>302.8</ele><time>2026-04-05T08:35:00.912Z</time></trkpt><trkpt lat="43.7649355" lon="12.7436861"><ele>305.4</ele><time>2026-04-05T08:35:01.913Z</time></trkpt><trkpt lat="43.7649873" lon="12.7435571"><ele>308.0</ele><time>2026-04-05T08:35:02.914Z</time></trkpt><trkpt lat="43.7650391" lon="12.7434312"><ele>307.4</ele><time>2026-04-05T08:35:03.913Z</time></trkpt><trkpt lat="43.765089" lon="12.7433048"><ele>306.8</ele><time>2026-04-05T08:35:04.913Z</time></trkpt><trkpt lat="43.7651393" lon="12.7431788"><ele>306.2</ele><time>2026-04-05T08:35:05.913Z</time></trkpt><trkpt lat="43.7651922" lon="12.7430533"><ele>305.6</ele><time>2026-04-05T08:35:06.913Z</time></trkpt><trkpt lat="43.7652496" lon="12.7429324"><ele>305.0</ele><time>2026-04-05T08:35:07.913Z</time></trkpt><trkpt lat="43.7653059" lon="12.7428081"><ele>306.8</ele><time>2026-04-05T08:35:08.913Z</time></trkpt><trkpt lat="43.7653634" lon="12.7426842"><ele>308.6</ele><time>2026-04-05T08:35:09.913Z</time></trkpt><trkpt lat="43.7654263" lon="12.7425703"><ele>310.4</ele><time>2026-04-05T08:35:10.913Z</time></trkpt><trkpt lat="43.7654866" lon="12.7424735"><ele>312.2</ele><time>2026-04-05T08:35:11.914Z</time></trkpt><trkpt lat="43.7655386" lon="12.7424052"><ele>314.0</ele><time>2026-04-05T08:35:12.913Z</time></trkpt><trkpt lat="43.7656122" lon="12.7423586"><ele>314.0</ele><time>2026-04-05T08:35:14.912Z</time></trkpt><trkpt lat="43.7655502" lon="12.7423111"><ele>314.0</ele><time>2026-04-05T08:35:35.913Z</time></trkpt><trkpt lat="43.7655003" lon="12.742373"><ele>314.0</ele><time>2026-04-05T08:35:36.911Z</time></trkpt><trkpt lat="43.7654403" lon="12.7424901"><ele>314.0</ele><time>2026-04-05T08:35:37.912Z</time></trkpt><trkpt lat="43.7653781" lon="12.7426138"><ele>314.0</ele><time>2026-04-05T08:35:38.912Z</time></trkpt><trkpt lat="43.7653098" lon="12.7427458"><ele>314.0</ele><time>2026-04-05T08:35:39.912Z</time></trkpt><trkpt lat="43.76524" lon="12.7428915"><ele>314.0</ele><time>2026-04-05T08:35:40.911Z</time></trkpt><trkpt lat="43.7651687" lon="12.7430631"><ele>314.0</ele><time>2026-04-05T08:35:41.912Z</time></trkpt><trkpt lat="43.7650973" lon="12.7432397"><ele>314.0</ele><time>2026-04-05T08:35:42.912Z</time></trkpt><trkpt lat="43.7650181" lon="12.7434197"><ele>312.0</ele><time>2026-04-05T08:35:43.912Z</time></trkpt><trkpt lat="43.7649389" lon="12.743609"><ele>310.0</ele><time>2026-04-05T08:35:44.912Z</time></trkpt><trkpt lat="43.7648616" lon="12.7438105"><ele>308.0</ele><time>2026-04-05T08:35:45.911Z</time></trkpt><trkpt lat="43.7647808" lon="12.7440181"><ele>308.0</ele><time>2026-04-05T08:35:46.912Z</time></trkpt><trkpt lat="43.7646971" lon="12.7442295"><ele>308.0</ele><time>2026-04-05T08:35:47.912Z</time></trkpt><trkpt lat="43.7646087" lon="12.7444422"><ele>308.0</ele><time>2026-04-05T08:35:48.912Z</time></trkpt><trkpt lat="43.7645187" lon="12.7446536"><ele>306.0</ele><time>2026-04-05T08:35:49.911Z</time></trkpt><trkpt lat="43.764436" lon="12.7448532"><ele>304.0</ele><time>2026-04-05T08:35:50.912Z</time></trkpt><trkpt lat="43.764356" lon="12.7450453"><ele>302.0</ele><time>2026-04-05T08:35:51.912Z</time></trkpt><trkpt lat="43.7642783" lon="12.7452286"><ele>302.0</ele><time>2026-04-05T08:35:52.913Z</time></trkpt><trkpt lat="43.7642016" lon="12.7454021"><ele>302.0</ele><time>2026-04-05T08:35:53.911Z</time></trkpt><trkpt lat="43.7641274" lon="12.7455665"><ele>302.0</ele><time>2026-04-05T08:35:54.911Z</time></trkpt><trkpt lat="43.7640584" lon="12.7457263"><ele>302.0</ele><time>2026-04-05T08:35:55.912Z</time></trkpt><trkpt lat="43.7639933" lon="12.7458788"><ele>302.0</ele><time>2026-04-05T08:35:56.912Z</time></trkpt><trkpt lat="43.7639283" lon="12.746026"><ele>302.0</ele><time>2026-04-05T08:35:57.911Z</time></trkpt><trkpt lat="43.763863" lon="12.746174"><ele>302.0</ele><time>2026-04-05T08:35:58.912Z</time></trkpt><trkpt lat="43.7637958" lon="12.7463285"><ele>302.0</ele><time>2026-04-05T08:35:59.913Z</time></trkpt><trkpt lat="43.7637307" lon="12.7464902"><ele>301.25</ele><time>2026-04-05T08:36:00.912Z</time></trkpt><trkpt lat="43.7636712" lon="12.7466643"><ele>300.5</ele><time>2026-04-05T08:36:01.913Z</time></trkpt><trkpt lat="43.7636223" lon="12.7468508"><ele>299.75</ele><time>2026-04-05T08:36:02.912Z</time></trkpt><trkpt lat="43.763591" lon="12.7470515"><ele>299.0</ele><time>2026-04-05T08:36:03.913Z</time></trkpt><trkpt lat="43.7635732" lon="12.7472605"><ele>296.0</ele><time>2026-04-05T08:36:04.912Z</time></trkpt><trkpt lat="43.7635761" lon="12.7474746"><ele>293.0</ele><time>2026-04-05T08:36:05.911Z</time></trkpt><trkpt lat="43.7635993" lon="12.7476956"><ele>290.0</ele><time>2026-04-05T08:36:06.912Z</time></trkpt><trkpt lat="43.7636295" lon="12.7479169"><ele>290.0</ele><time>2026-04-05T08:36:07.912Z</time></trkpt><trkpt lat="43.7636565" lon="12.7481429"><ele>290.0</ele><time>2026-04-05T08:36:08.912Z</time></trkpt><trkpt lat="43.7636841" lon="12.7483677"><ele>290.0</ele><time>2026-04-05T08:36:09.912Z</time></trkpt><trkpt lat="43.7637046" lon="12.7485892"><ele>289.6666666666667</ele><time>2026-04-05T08:36:10.912Z</time></trkpt><trkpt lat="43.7637018" lon="12.7488139"><ele>289.3333333333333</ele><time>2026-04-05T08:36:11.911Z</time></trkpt><trkpt lat="43.763685" lon="12.7490399"><ele>289.0</ele><time>2026-04-05T08:36:12.912Z</time></trkpt><trkpt lat="43.7636652" lon="12.7492661"><ele>290.66666666666663</ele><time>2026-04-05T08:36:13.912Z</time></trkpt><trkpt lat="43.7636418" lon="12.7494942"><ele>292.3333333333333</ele><time>2026-04-05T08:36:14.911Z</time></trkpt><trkpt lat="43.7636161" lon="12.7497256"><ele>294.0</ele><time>2026-04-05T08:36:15.912Z</time></trkpt><trkpt lat="43.763585" lon="12.7499563"><ele>294.0</ele><time>2026-04-05T08:36:16.912Z</time></trkpt><trkpt lat="43.7635435" lon="12.7501869"><ele>294.0</ele><time>2026-04-05T08:36:17.912Z</time></trkpt><trkpt lat="43.7634819" lon="12.7504146"><ele>294.0</ele><time>2026-04-05T08:36:18.912Z</time></trkpt><trkpt lat="43.7633988" lon="12.7506337"><ele>299.3333333333333</ele><time>2026-04-05T08:36:19.912Z</time></trkpt><trkpt lat="43.7633075" lon="12.7508508"><ele>304.66666666666663</ele><time>2026-04-05T08:36:20.912Z</time></trkpt><trkpt lat="43.7632173" lon="12.7510761"><ele>310.0</ele><time>2026-04-05T08:36:21.912Z</time></trkpt><trkpt lat="43.7631213" lon="12.7513025"><ele>310.3333333333333</ele><time>2026-04-05T08:36:22.912Z</time></trkpt><trkpt lat="43.763022" lon="12.7515321"><ele>310.6666666666667</ele><time>2026-04-05T08:36:23.912Z</time></trkpt><trkpt lat="43.7629256" lon="12.7517687"><ele>311.0</ele><time>2026-04-05T08:36:24.913Z</time></trkpt><trkpt lat="43.7628276" lon="12.7520118"><ele>310.6666666666667</ele><time>2026-04-05T08:36:25.911Z</time></trkpt><trkpt lat="43.7627349" lon="12.7522626"><ele>310.3333333333333</ele><time>2026-04-05T08:36:26.912Z</time></trkpt><trkpt lat="43.7626531" lon="12.7525211"><ele>310.0</ele><time>2026-04-05T08:36:27.912Z</time></trkpt><trkpt lat="43.7625829" lon="12.7527748"><ele>315.3333333333333</ele><time>2026-04-05T08:36:28.913Z</time></trkpt><trkpt lat="43.7625137" lon="12.7530025"><ele>320.6666666666667</ele><time>2026-04-05T08:36:29.913Z</time></trkpt><trkpt lat="43.7624282" lon="12.7532037"><ele>326.0</ele><time>2026-04-05T08:36:30.911Z</time></trkpt><trkpt lat="43.7623184" lon="12.7533838"><ele>328.0</ele><time>2026-04-05T08:36:31.911Z</time></trkpt><trkpt lat="43.7622005" lon="12.7535508"><ele>330.0</ele><time>2026-04-05T08:36:32.912Z</time></trkpt><trkpt lat="43.7621063" lon="12.7537142"><ele>332.0</ele><time>2026-04-05T08:36:33.911Z</time></trkpt><trkpt lat="43.7620358" lon="12.7538793"><ele>332.0</ele><time>2026-04-05T08:36:34.912Z</time></trkpt><trkpt lat="43.7619928" lon="12.7540472"><ele>332.0</ele><time>2026-04-05T08:36:35.912Z</time></trkpt><trkpt lat="43.7619908" lon="12.7542074"><ele>332.0</ele><time>2026-04-05T08:36:36.912Z</time></trkpt><trkpt lat="43.7620295" lon="12.7543395"><ele>332.0</ele><time>2026-04-05T08:36:37.912Z</time></trkpt><trkpt lat="43.7621007" lon="12.7544402"><ele>332.0</ele><time>2026-04-05T08:36:38.913Z</time></trkpt><trkpt lat="43.762201" lon="12.7545023"><ele>329.75</ele><time>2026-04-05T08:36:39.912Z</time></trkpt><trkpt lat="43.7623239" lon="12.7545345"><ele>327.5</ele><time>2026-04-05T08:36:40.911Z</time></trkpt><trkpt lat="43.7624632" lon="12.7545614"><ele>325.25</ele><time>2026-04-05T08:36:41.912Z</time></trkpt><trkpt lat="43.7626022" lon="12.7545972"><ele>323.0</ele><time>2026-04-05T08:36:42.911Z</time></trkpt><trkpt lat="43.7627251" lon="12.7546437"><ele>329.25</ele><time>2026-04-05T08:36:43.912Z</time></trkpt><trkpt lat="43.762841" lon="12.7547227"><ele>335.5</ele><time>2026-04-05T08:36:44.913Z</time></trkpt><trkpt lat="43.7629371" lon="12.754844"><ele>341.75</ele><time>2026-04-05T08:36:45.912Z</time></trkpt><trkpt lat="43.7630081" lon="12.755005"><ele>348.0</ele><time>2026-04-05T08:36:46.912Z</time></trkpt><trkpt lat="43.7630642" lon="12.7551995"><ele>347.6666666666667</ele><time>2026-04-05T08:36:47.912Z</time></trkpt><trkpt lat="43.7631171" lon="12.7554138"><ele>347.33333333333337</ele><time>2026-04-05T08:36:48.912Z</time></trkpt><trkpt lat="43.7631719" lon="12.7556416"><ele>347.0</ele><time>2026-04-05T08:36:49.911Z</time></trkpt><trkpt lat="43.7632265" lon="12.7558646"><ele>348.0</ele><time>2026-04-05T08:36:50.912Z</time></trkpt><trkpt lat="43.7632755" lon="12.7560811"><ele>349.0</ele><time>2026-04-05T08:36:51.911Z</time></trkpt><trkpt lat="43.7632977" lon="12.7563001"><ele>350.0</ele><time>2026-04-05T08:36:52.911Z</time></trkpt><trkpt lat="43.7632862" lon="12.7565264"><ele>350.0</ele><time>2026-04-05T08:36:53.912Z</time></trkpt><trkpt lat="43.7632548" lon="12.7567592"><ele>350.0</ele><time>2026-04-05T08:36:54.913Z</time></trkpt><trkpt lat="43.7632232" lon="12.7569914"><ele>350.0</ele><time>2026-04-05T08:36:55.912Z</time></trkpt><trkpt lat="43.7631896" lon="12.7571984"><ele>352.75</ele><time>2026-04-05T08:36:56.912Z</time></trkpt><trkpt lat="43.7631335" lon="12.7573706"><ele>355.5</ele><time>2026-04-05T08:36:57.912Z</time></trkpt><trkpt lat="43.7630463" lon="12.757496"><ele>358.25</ele><time>2026-04-05T08:36:58.912Z</time></trkpt><trkpt lat="43.762937" lon="12.7575785"><ele>361.0</ele><time>2026-04-05T08:36:59.912Z</time></trkpt><trkpt lat="43.7628186" lon="12.7576427"><ele>360.0</ele><time>2026-04-05T08:37:00.912Z</time></trkpt><trkpt lat="43.7627217" lon="12.7577294"><ele>359.0</ele><time>2026-04-05T08:37:01.911Z</time></trkpt><trkpt lat="43.7626537" lon="12.757849"><ele>358.0</ele><time>2026-04-05T08:37:02.912Z</time></trkpt><trkpt lat="43.7626252" lon="12.7579807"><ele>357.0</ele><time>2026-04-05T08:37:03.912Z</time></trkpt><trkpt lat="43.7626436" lon="12.7581127"><ele>356.0</ele><time>2026-04-05T08:37:04.912Z</time></trkpt><trkpt lat="43.7626991" lon="12.7582447"><ele>361.25</ele><time>2026-04-05T08:37:05.912Z</time></trkpt><trkpt lat="43.7627703" lon="12.7583788"><ele>366.5</ele><time>2026-04-05T08:37:06.912Z</time></trkpt><trkpt lat="43.7628181" lon="12.7585278"><ele>371.75</ele><time>2026-04-05T08:37:07.912Z</time></trkpt><trkpt lat="43.7628274" lon="12.7587049"><ele>377.0</ele><time>2026-04-05T08:37:08.912Z</time></trkpt><trkpt lat="43.7628071" lon="12.758898"><ele>378.0</ele><time>2026-04-05T08:37:09.912Z</time></trkpt><trkpt lat="43.7627698" lon="12.7591052"><ele>379.0</ele><time>2026-04-05T08:37:10.912Z</time></trkpt><trkpt lat="43.7627318" lon="12.7593311"><ele>380.0</ele><time>2026-04-05T08:37:11.913Z</time></trkpt><trkpt lat="43.7626897" lon="12.7595764"><ele>378.5</ele><time>2026-04-05T08:37:12.911Z</time></trkpt><trkpt lat="43.762644" lon="12.7598042"><ele>377.0</ele><time>2026-04-05T08:37:13.912Z</time></trkpt><trkpt lat="43.7625908" lon="12.7599891"><ele>375.5</ele><time>2026-04-05T08:37:14.912Z</time></trkpt><trkpt lat="43.7625178" lon="12.7601328"><ele>374.0</ele><time>2026-04-05T08:37:15.912Z</time></trkpt><trkpt lat="43.7624244" lon="12.7602178"><ele>374.0</ele><time>2026-04-05T08:37:16.912Z</time></trkpt><trkpt lat="43.7623151" lon="12.7602416"><ele>374.0</ele><time>2026-04-05T08:37:17.912Z</time></trkpt><trkpt lat="43.7622063" lon="12.7602066"><ele>374.0</ele><time>2026-04-05T08:37:18.911Z</time></trkpt><trkpt lat="43.7621046" lon="12.760123"><ele>374.0</ele><time>2026-04-05T08:37:19.912Z</time></trkpt><trkpt lat="43.7620086" lon="12.7599901"><ele>374.0</ele><time>2026-04-05T08:37:20.912Z</time></trkpt><trkpt lat="43.7619124" lon="12.7598259"><ele>374.0</ele><time>2026-04-05T08:37:21.912Z</time></trkpt><trkpt lat="43.7617981" lon="12.7596697"><ele>374.0</ele><time>2026-04-05T08:37:22.911Z</time></trkpt><trkpt lat="43.7616786" lon="12.7595299"><ele>376.0</ele><time>2026-04-05T08:37:23.912Z</time></trkpt><trkpt lat="43.7615534" lon="12.7594326"><ele>378.0</ele><time>2026-04-05T08:37:24.912Z</time></trkpt><trkpt lat="43.7614119" lon="12.759386"><ele>380.0</ele><time>2026-04-05T08:37:25.912Z</time></trkpt><trkpt lat="43.7612745" lon="12.7594008"><ele>382.0</ele><time>2026-04-05T08:37:26.911Z</time></trkpt><trkpt lat="43.76115" lon="12.7594639"><ele>380.0</ele><time>2026-04-05T08:37:27.912Z</time></trkpt><trkpt lat="43.7610289" lon="12.7595299"><ele>378.0</ele><time>2026-04-05T08:37:28.912Z</time></trkpt><trkpt lat="43.7609094" lon="12.7595431"><ele>376.0</ele><time>2026-04-05T08:37:29.913Z</time></trkpt><trkpt lat="43.7607905" lon="12.7594958"><ele>374.0</ele><time>2026-04-05T08:37:30.912Z</time></trkpt><trkpt lat="43.7606707" lon="12.759392"><ele>371.0</ele><time>2026-04-05T08:37:31.911Z</time></trkpt><trkpt lat="43.7605421" lon="12.7592661"><ele>368.0</ele><time>2026-04-05T08:37:32.912Z</time></trkpt><trkpt lat="43.7604" lon="12.7591321"><ele>365.0</ele><time>2026-04-05T08:37:33.911Z</time></trkpt><trkpt lat="43.7602498" lon="12.7589862"><ele>366.0</ele><time>2026-04-05T08:37:34.912Z</time></trkpt><trkpt lat="43.760108" lon="12.7588487"><ele>367.0</ele><time>2026-04-05T08:37:35.912Z</time></trkpt><trkpt lat="43.7599769" lon="12.7587307"><ele>368.0</ele><time>2026-04-05T08:37:36.911Z</time></trkpt><trkpt lat="43.7598537" lon="12.7586341"><ele>368.0</ele><time>2026-04-05T08:37:37.912Z</time></trkpt><trkpt lat="43.7597252" lon="12.7585858"><ele>368.0</ele><time>2026-04-05T08:37:38.911Z</time></trkpt><trkpt lat="43.7595887" lon="12.7585848"><ele>368.0</ele><time>2026-04-05T08:37:39.912Z</time></trkpt><trkpt lat="43.7594453" lon="12.7586219"><ele>368.0</ele><time>2026-04-05T08:37:40.912Z</time></trkpt><trkpt lat="43.7592962" lon="12.7586735"><ele>369.0</ele><time>2026-04-05T08:37:41.913Z</time></trkpt><trkpt lat="43.7591396" lon="12.75873"><ele>370.0</ele><time>2026-04-05T08:37:42.912Z</time></trkpt><trkpt lat="43.7589716" lon="12.7587808"><ele>371.0</ele><time>2026-04-05T08:37:43.913Z</time></trkpt><trkpt lat="43.7587975" lon="12.7588072"><ele>371.0</ele><time>2026-04-05T08:37:44.912Z</time></trkpt><trkpt lat="43.7586356" lon="12.7588006"><ele>371.0</ele><time>2026-04-05T08:37:45.912Z</time></trkpt><trkpt lat="43.7584891" lon="12.7587757"><ele>371.0</ele><time>2026-04-05T08:37:46.912Z</time></trkpt><trkpt lat="43.7583512" lon="12.758724"><ele>371.75</ele><time>2026-04-05T08:37:47.912Z</time></trkpt><trkpt lat="43.7582228" lon="12.7586348"><ele>372.5</ele><time>2026-04-05T08:37:48.911Z</time></trkpt><trkpt lat="43.7580996" lon="12.7585234"><ele>373.25</ele><time>2026-04-05T08:37:49.913Z</time></trkpt><trkpt lat="43.7579736" lon="12.7584115"><ele>374.0</ele><time>2026-04-05T08:37:50.911Z</time></trkpt><trkpt lat="43.7578466" lon="12.7583144"><ele>372.0</ele><time>2026-04-05T08:37:51.912Z</time></trkpt><trkpt lat="43.7577056" lon="12.7582488"><ele>370.0</ele><time>2026-04-05T08:37:52.912Z</time></trkpt><trkpt lat="43.7575548" lon="12.7582254"><ele>368.0</ele><time>2026-04-05T08:37:53.911Z</time></trkpt><trkpt lat="43.7574017" lon="12.7582387"><ele>368.0</ele><time>2026-04-05T08:37:54.912Z</time></trkpt><trkpt lat="43.7572528" lon="12.7582885"><ele>368.0</ele><time>2026-04-05T08:37:55.912Z</time></trkpt><trkpt lat="43.7571096" lon="12.7583672"><ele>368.0</ele><time>2026-04-05T08:37:56.912Z</time></trkpt><trkpt lat="43.7569681" lon="12.7584619"><ele>369.0</ele><time>2026-04-05T08:37:57.912Z</time></trkpt><trkpt lat="43.756823" lon="12.7585551"><ele>370.0</ele><time>2026-04-05T08:37:58.913Z</time></trkpt><trkpt lat="43.7566745" lon="12.7586393"><ele>371.0</ele><time>2026-04-05T08:37:59.913Z</time></trkpt><trkpt lat="43.7565249" lon="12.7587299"><ele>371.0</ele><time>2026-04-05T08:38:00.912Z</time></trkpt><trkpt lat="43.7563749" lon="12.7588265"><ele>371.0</ele><time>2026-04-05T08:38:01.913Z</time></trkpt><trkpt lat="43.7562205" lon="12.7589194"><ele>371.0</ele><time>2026-04-05T08:38:02.912Z</time></trkpt><trkpt lat="43.7560613" lon="12.7590069"><ele>369.33333333333337</ele><time>2026-04-05T08:38:03.912Z</time></trkpt><trkpt lat="43.7559018" lon="12.7590955"><ele>367.6666666666667</ele><time>2026-04-05T08:38:04.911Z</time></trkpt><trkpt lat="43.7557516" lon="12.7591682"><ele>366.0</ele><time>2026-04-05T08:38:05.912Z</time></trkpt><trkpt lat="43.7556064" lon="12.759216"><ele>366.0</ele><time>2026-04-05T08:38:06.912Z</time></trkpt><trkpt lat="43.755469" lon="12.759243"><ele>366.0</ele><time>2026-04-05T08:38:07.912Z</time></trkpt><trkpt lat="43.7553358" lon="12.7592791"><ele>366.0</ele><time>2026-04-05T08:38:08.911Z</time></trkpt><trkpt lat="43.7552005" lon="12.7593221"><ele>366.0</ele><time>2026-04-05T08:38:09.912Z</time></trkpt><trkpt lat="43.7550687" lon="12.7593607"><ele>367.8</ele><time>2026-04-05T08:38:10.913Z</time></trkpt><trkpt lat="43.7549596" lon="12.7594122"><ele>369.6</ele><time>2026-04-05T08:38:11.912Z</time></trkpt><trkpt lat="43.7548856" lon="12.7594651"><ele>371.4</ele><time>2026-04-05T08:38:12.912Z</time></trkpt><trkpt lat="43.7548035" lon="12.7595212"><ele>373.2</ele><time>2026-04-05T08:38:14.912Z</time></trkpt><trkpt lat="43.7547525" lon="12.7595973"><ele>375.0</ele><time>2026-04-05T08:38:16.912Z</time></trkpt><trkpt lat="43.7546903" lon="12.7597234"><ele>375.0</ele><time>2026-04-05T08:38:18.912Z</time></trkpt><trkpt lat="43.7546465" lon="12.7597989"><ele>375.0</ele><time>2026-04-05T08:38:19.912Z</time></trkpt><trkpt lat="43.7545977" lon="12.7598931"><ele>375.0</ele><time>2026-04-05T08:38:20.912Z</time></trkpt><trkpt lat="43.7545413" lon="12.760008"><ele>375.0</ele><time>2026-04-05T08:38:21.912Z</time></trkpt><trkpt lat="43.7544745" lon="12.7601506"><ele>375.0</ele><time>2026-04-05T08:38:22.912Z</time></trkpt><trkpt lat="43.7543942" lon="12.7603181"><ele>372.6666666666667</ele><time>2026-04-05T08:38:23.912Z</time></trkpt><trkpt lat="43.754303" lon="12.760503"><ele>370.33333333333337</ele><time>2026-04-05T08:38:24.912Z</time></trkpt><trkpt lat="43.7542128" lon="12.7606863"><ele>368.0</ele><time>2026-04-05T08:38:25.911Z</time></trkpt><trkpt lat="43.7541299" lon="12.760855"><ele>368.0</ele><time>2026-04-05T08:38:26.911Z</time></trkpt><trkpt lat="43.754053" lon="12.7610178"><ele>368.0</ele><time>2026-04-05T08:38:27.912Z</time></trkpt><trkpt lat="43.7539786" lon="12.7611679"><ele>368.0</ele><time>2026-04-05T08:38:28.912Z</time></trkpt><trkpt lat="43.7539081" lon="12.7613139"><ele>368.0</ele><time>2026-04-05T08:38:29.912Z</time></trkpt><trkpt lat="43.753845" lon="12.7614628"><ele>367.5</ele><time>2026-04-05T08:38:30.911Z</time></trkpt><trkpt lat="43.7537963" lon="12.7616258"><ele>367.0</ele><time>2026-04-05T08:38:31.912Z</time></trkpt><trkpt lat="43.7537682" lon="12.7618081"><ele>366.5</ele><time>2026-04-05T08:38:32.912Z</time></trkpt><trkpt lat="43.7537514" lon="12.7620102"><ele>366.0</ele><time>2026-04-05T08:38:33.912Z</time></trkpt><trkpt lat="43.7537362" lon="12.7622274"><ele>365.0</ele><time>2026-04-05T08:38:34.912Z</time></trkpt><trkpt lat="43.7537304" lon="12.7624607"><ele>364.0</ele><time>2026-04-05T08:38:35.912Z</time></trkpt><trkpt lat="43.7537332" lon="12.7627078"><ele>363.0</ele><time>2026-04-05T08:38:36.912Z</time></trkpt><trkpt lat="43.7537346" lon="12.7629677"><ele>360.3333333333333</ele><time>2026-04-05T08:38:37.912Z</time></trkpt><trkpt lat="43.753736" lon="12.763227"><ele>357.66666666666663</ele><time>2026-04-05T08:38:38.911Z</time></trkpt><trkpt lat="43.7537368" lon="12.763493"><ele>355.0</ele><time>2026-04-05T08:38:39.912Z</time></trkpt><trkpt lat="43.7537348" lon="12.7637648"><ele>354.3333333333333</ele><time>2026-04-05T08:38:40.912Z</time></trkpt><trkpt lat="43.7537398" lon="12.7640409"><ele>353.6666666666667</ele><time>2026-04-05T08:38:41.912Z</time></trkpt><trkpt lat="43.7537503" lon="12.7643064"><ele>353.0</ele><time>2026-04-05T08:38:42.912Z</time></trkpt><trkpt lat="43.753748" lon="12.7645503"><ele>352.6666666666667</ele><time>2026-04-05T08:38:43.912Z</time></trkpt><trkpt lat="43.7537256" lon="12.764789"><ele>352.3333333333333</ele><time>2026-04-05T08:38:44.912Z</time></trkpt><trkpt lat="43.7536895" lon="12.765027"><ele>352.0</ele><time>2026-04-05T08:38:45.912Z</time></trkpt><trkpt lat="43.7536469" lon="12.7652658"><ele>353.3333333333333</ele><time>2026-04-05T08:38:46.912Z</time></trkpt><trkpt lat="43.7536038" lon="12.7655053"><ele>354.6666666666667</ele><time>2026-04-05T08:38:47.912Z</time></trkpt><trkpt lat="43.7535636" lon="12.7657503"><ele>356.0</ele><time>2026-04-05T08:38:48.912Z</time></trkpt><trkpt lat="43.7535203" lon="12.7659978"><ele>358.0</ele><time>2026-04-05T08:38:49.912Z</time></trkpt><trkpt lat="43.7534738" lon="12.766246"><ele>360.0</ele><time>2026-04-05T08:38:50.912Z</time></trkpt><trkpt lat="43.7534276" lon="12.7664984"><ele>362.0</ele><time>2026-04-05T08:38:51.911Z</time></trkpt><trkpt lat="43.753381" lon="12.766753"><ele>363.33333333333337</ele><time>2026-04-05T08:38:52.912Z</time></trkpt><trkpt lat="43.7533333" lon="12.7670088"><ele>364.6666666666667</ele><time>2026-04-05T08:38:53.911Z</time></trkpt><trkpt lat="43.7532848" lon="12.7672658"><ele>366.0</ele><time>2026-04-05T08:38:54.912Z</time></trkpt><trkpt lat="43.7532391" lon="12.7675264"><ele>367.3333333333333</ele><time>2026-04-05T08:38:55.913Z</time></trkpt><trkpt lat="43.7531916" lon="12.7677883"><ele>368.66666666666663</ele><time>2026-04-05T08:38:56.911Z</time></trkpt><trkpt lat="43.7531438" lon="12.7680437"><ele>370.0</ele><time>2026-04-05T08:38:57.912Z</time></trkpt><trkpt lat="43.7531019" lon="12.768279"><ele>370.0</ele><time>2026-04-05T08:38:58.911Z</time></trkpt><trkpt lat="43.7530615" lon="12.7684994"><ele>370.0</ele><time>2026-04-05T08:38:59.912Z</time></trkpt><trkpt lat="43.7530215" lon="12.7687058"><ele>370.0</ele><time>2026-04-05T08:39:00.912Z</time></trkpt><trkpt lat="43.7529773" lon="12.7689059"><ele>369.66666666666663</ele><time>2026-04-05T08:39:01.912Z</time></trkpt><trkpt lat="43.7529467" lon="12.7691102"><ele>369.3333333333333</ele><time>2026-04-05T08:39:02.911Z</time></trkpt><trkpt lat="43.7529445" lon="12.7693258"><ele>369.0</ele><time>2026-04-05T08:39:03.912Z</time></trkpt><trkpt lat="43.7529678" lon="12.7695456"><ele>369.0</ele><time>2026-04-05T08:39:04.913Z</time></trkpt><trkpt lat="43.7530021" lon="12.7697741"><ele>369.0</ele><time>2026-04-05T08:39:05.911Z</time></trkpt><trkpt lat="43.7530354" lon="12.7700172"><ele>369.0</ele><time>2026-04-05T08:39:06.912Z</time></trkpt><trkpt lat="43.7530533" lon="12.770276"><ele>367.3333333333333</ele><time>2026-04-05T08:39:07.911Z</time></trkpt><trkpt lat="43.7530394" lon="12.7705396"><ele>365.66666666666663</ele><time>2026-04-05T08:39:08.912Z</time></trkpt><trkpt lat="43.7529969" lon="12.7708103"><ele>364.0</ele><time>2026-04-05T08:39:09.912Z</time></trkpt><trkpt lat="43.7529413" lon="12.7710927"><ele>362.66666666666663</ele><time>2026-04-05T08:39:10.912Z</time></trkpt><trkpt lat="43.7528865" lon="12.7713614"><ele>361.3333333333333</ele><time>2026-04-05T08:39:11.912Z</time></trkpt><trkpt lat="43.7528365" lon="12.771619"><ele>360.0</ele><time>2026-04-05T08:39:12.912Z</time></trkpt><trkpt lat="43.7527884" lon="12.7718672"><ele>358.0</ele><time>2026-04-05T08:39:13.912Z</time></trkpt><trkpt lat="43.7527397" lon="12.7721021"><ele>356.0</ele><time>2026-04-05T08:39:14.912Z</time></trkpt><trkpt lat="43.7526963" lon="12.7723126"><ele>354.0</ele><time>2026-04-05T08:39:15.911Z</time></trkpt><trkpt lat="43.752653" lon="12.7725051"><ele>353.75</ele><time>2026-04-05T08:39:16.912Z</time></trkpt><trkpt lat="43.7526048" lon="12.7726787"><ele>353.5</ele><time>2026-04-05T08:39:17.911Z</time></trkpt><trkpt lat="43.7525392" lon="12.7728355"><ele>353.25</ele><time>2026-04-05T08:39:18.912Z</time></trkpt><trkpt lat="43.7524498" lon="12.772971"><ele>353.0</ele><time>2026-04-05T08:39:19.913Z</time></trkpt><trkpt lat="43.7523375" lon="12.7730914"><ele>353.0</ele><time>2026-04-05T08:39:20.912Z</time></trkpt><trkpt lat="43.7522082" lon="12.7731994"><ele>353.0</ele><time>2026-04-05T08:39:21.912Z</time></trkpt><trkpt lat="43.7520646" lon="12.7732975"><ele>353.0</ele><time>2026-04-05T08:39:22.912Z</time></trkpt><trkpt lat="43.7519095" lon="12.7733888"><ele>353.0</ele><time>2026-04-05T08:39:23.911Z</time></trkpt><trkpt lat="43.7517457" lon="12.7734844"><ele>353.0</ele><time>2026-04-05T08:39:24.912Z</time></trkpt><trkpt lat="43.7515815" lon="12.7735872"><ele>353.0</ele><time>2026-04-05T08:39:25.912Z</time></trkpt><trkpt lat="43.751427" lon="12.7736841"><ele>353.0</ele><time>2026-04-05T08:39:26.912Z</time></trkpt><trkpt lat="43.7512759" lon="12.7737691"><ele>353.0</ele><time>2026-04-05T08:39:27.911Z</time></trkpt><trkpt lat="43.7511202" lon="12.7738397"><ele>353.0</ele><time>2026-04-05T08:39:28.911Z</time></trkpt><trkpt lat="43.7509558" lon="12.7738948"><ele>350.0</ele><time>2026-04-05T08:39:29.912Z</time></trkpt><trkpt lat="43.7507831" lon="12.7739321"><ele>347.0</ele><time>2026-04-05T08:39:30.912Z</time></trkpt><trkpt lat="43.7506069" lon="12.7739636"><ele>344.0</ele><time>2026-04-05T08:39:31.912Z</time></trkpt><trkpt lat="43.7504399" lon="12.773998"><ele>344.0</ele><time>2026-04-05T08:39:32.912Z</time></trkpt><trkpt lat="43.7502767" lon="12.7740319"><ele>344.0</ele><time>2026-04-05T08:39:33.912Z</time></trkpt><trkpt lat="43.7501265" lon="12.774065"><ele>344.0</ele><time>2026-04-05T08:39:34.912Z</time></trkpt><trkpt lat="43.7499859" lon="12.7740985"><ele>341.5</ele><time>2026-04-05T08:39:35.911Z</time></trkpt><trkpt lat="43.7498627" lon="12.7741576"><ele>339.0</ele><time>2026-04-05T08:39:36.912Z</time></trkpt><trkpt lat="43.7497561" lon="12.7742555"><ele>336.5</ele><time>2026-04-05T08:39:37.912Z</time></trkpt><trkpt lat="43.7496688" lon="12.7743898"><ele>334.0</ele><time>2026-04-05T08:39:38.911Z</time></trkpt><trkpt lat="43.7495976" lon="12.7745564"><ele>334.0</ele><time>2026-04-05T08:39:39.912Z</time></trkpt><trkpt lat="43.7495367" lon="12.7747422"><ele>334.0</ele><time>2026-04-05T08:39:40.913Z</time></trkpt><trkpt lat="43.7494808" lon="12.7749157"><ele>334.0</ele><time>2026-04-05T08:39:41.912Z</time></trkpt><trkpt lat="43.7494303" lon="12.7750556"><ele>334.0</ele><time>2026-04-05T08:39:42.911Z</time></trkpt><trkpt lat="43.7493832" lon="12.7751616"><ele>331.4</ele><time>2026-04-05T08:39:43.912Z</time></trkpt><trkpt lat="43.7493363" lon="12.7752389"><ele>328.79999999999995</ele><time>2026-04-05T08:39:44.911Z</time></trkpt><trkpt lat="43.7492608" lon="12.7753335"><ele>326.20000000000005</ele><time>2026-04-05T08:39:46.912Z</time></trkpt><trkpt lat="43.7492563" lon="12.7754542"><ele>323.6</ele><time>2026-04-05T08:39:49.911Z</time></trkpt><trkpt lat="43.749273" lon="12.7755597"><ele>321.0</ele><time>2026-04-05T08:39:51.912Z</time></trkpt><trkpt lat="43.7493184" lon="12.775711"><ele>321.0</ele><time>2026-04-05T08:39:53.912Z</time></trkpt><trkpt lat="43.7493543" lon="12.775792"><ele>321.0</ele><time>2026-04-05T08:39:54.912Z</time></trkpt><trkpt lat="43.749433" lon="12.7759265"><ele>321.0</ele><time>2026-04-05T08:39:56.911Z</time></trkpt><trkpt lat="43.7494938" lon="12.775994"><ele>321.0</ele><time>2026-04-05T08:39:57.911Z</time></trkpt><trkpt lat="43.7495636" lon="12.7760821"><ele>321.0</ele><time>2026-04-05T08:39:58.911Z</time></trkpt><trkpt lat="43.7496378" lon="12.7761931"><ele>320.75</ele><time>2026-04-05T08:39:59.912Z</time></trkpt><trkpt lat="43.7497159" lon="12.7763101"><ele>320.5</ele><time>2026-04-05T08:40:00.912Z</time></trkpt><trkpt lat="43.7498099" lon="12.7764392"><ele>320.25</ele><time>2026-04-05T08:40:01.912Z</time></trkpt><trkpt lat="43.749894" lon="12.7765725"><ele>320.0</ele><time>2026-04-05T08:40:02.911Z</time></trkpt><trkpt lat="43.7499723" lon="12.776706"><ele>320.0</ele><time>2026-04-05T08:40:03.911Z</time></trkpt><trkpt lat="43.7500499" lon="12.776839"><ele>320.0</ele><time>2026-04-05T08:40:04.911Z</time></trkpt><trkpt lat="43.7501164" lon="12.7769796"><ele>320.0</ele><time>2026-04-05T08:40:05.912Z</time></trkpt><trkpt lat="43.7501806" lon="12.777139"><ele>320.0</ele><time>2026-04-05T08:40:06.911Z</time></trkpt><trkpt lat="43.7502547" lon="12.7773172"><ele>319.75</ele><time>2026-04-05T08:40:07.911Z</time></trkpt><trkpt lat="43.7503386" lon="12.7775102"><ele>319.5</ele><time>2026-04-05T08:40:08.911Z</time></trkpt><trkpt lat="43.7504101" lon="12.7776791"><ele>319.25</ele><time>2026-04-05T08:40:09.911Z</time></trkpt><trkpt lat="43.750474" lon="12.7778307"><ele>319.0</ele><time>2026-04-05T08:40:10.911Z</time></trkpt><trkpt lat="43.7505246" lon="12.7779533"><ele>317.8333333333333</ele><time>2026-04-05T08:40:11.911Z</time></trkpt><trkpt lat="43.7505681" lon="12.7780644"><ele>316.66666666666663</ele><time>2026-04-05T08:40:12.911Z</time></trkpt><trkpt lat="43.7506117" lon="12.7781632"><ele>315.5</ele><time>2026-04-05T08:40:13.912Z</time></trkpt><trkpt lat="43.7506527" lon="12.7782418"><ele>314.3333333333333</ele><time>2026-04-05T08:40:14.91Z</time></trkpt><trkpt lat="43.7506968" lon="12.7783068"><ele>313.1666666666667</ele><time>2026-04-05T08:40:15.911Z</time></trkpt><trkpt lat="43.7507862" lon="12.7784211"><ele>312.0</ele><time>2026-04-05T08:40:17.911Z</time></trkpt><trkpt lat="43.7508512" lon="12.7785425"><ele>310.0</ele><time>2026-04-05T08:40:19.911Z</time></trkpt><trkpt lat="43.7508747" lon="12.7786649"><ele>308.0</ele><time>2026-04-05T08:40:21.911Z</time></trkpt><trkpt lat="43.7508041" lon="12.7787728"><ele>306.0</ele><time>2026-04-05T08:40:23.911Z</time></trkpt><trkpt lat="43.7507081" lon="12.7788429"><ele>304.0</ele><time>2026-04-05T08:40:25.911Z</time></trkpt><trkpt lat="43.7506275" lon="12.7788626"><ele>302.0</ele><time>2026-04-05T08:40:27.911Z</time></trkpt><trkpt lat="43.7505413" lon="12.7788917"><ele>302.0</ele><time>2026-04-05T08:40:30.911Z</time></trkpt><trkpt lat="43.7504502" lon="12.7789452"><ele>302.0</ele><time>2026-04-05T08:40:52.91Z</time></trkpt><trkpt lat="43.7503681" lon="12.7790255"><ele>302.0</ele><time>2026-04-05T08:40:54.911Z</time></trkpt><trkpt lat="43.750313" lon="12.7791405"><ele>302.0</ele><time>2026-04-05T08:40:56.911Z</time></trkpt><trkpt lat="43.7502733" lon="12.7792372"><ele>302.0</ele><time>2026-04-05T08:40:59.911Z</time></trkpt><trkpt lat="43.7502019" lon="12.7792814"><ele>301.5</ele><time>2026-04-05T08:41:02.912Z</time></trkpt><trkpt lat="43.7501358" lon="12.7792896"><ele>301.0</ele><time>2026-04-05T08:41:04.911Z</time></trkpt><trkpt lat="43.7500672" lon="12.7793223"><ele>300.5</ele><time>2026-04-05T08:41:06.911Z</time></trkpt><trkpt lat="43.7500135" lon="12.7794068"><ele>300.0</ele><time>2026-04-05T08:41:08.911Z</time></trkpt><trkpt lat="43.7499445" lon="12.7795176"><ele>299.5</ele><time>2026-04-05T08:41:10.911Z</time></trkpt><trkpt lat="43.7498734" lon="12.7796047"><ele>299.0</ele><time>2026-04-05T08:41:12.911Z</time></trkpt><trkpt lat="43.7497869" lon="12.7796587"><ele>299.0</ele><time>2026-04-05T08:41:14.911Z</time></trkpt><trkpt lat="43.7496934" lon="12.7796407"><ele>299.0</ele><time>2026-04-05T08:41:16.911Z</time></trkpt><trkpt lat="43.7495732" lon="12.7795056"><ele>299.0</ele><time>2026-04-05T08:41:18.911Z</time></trkpt><trkpt lat="43.7494954" lon="12.7794148"><ele>299.0</ele><time>2026-04-05T08:41:19.911Z</time></trkpt><trkpt lat="43.7494389" lon="12.7793458"><ele>299.0</ele><time>2026-04-05T08:41:20.911Z</time></trkpt><trkpt lat="43.7493728" lon="12.7792435"><ele>297.0</ele><time>2026-04-05T08:41:22.911Z</time></trkpt><trkpt lat="43.7493011" lon="12.7791726"><ele>295.0</ele><time>2026-04-05T08:41:24.91Z</time></trkpt><trkpt lat="43.7492513" lon="12.7791166"><ele>293.0</ele><time>2026-04-05T08:41:25.911Z</time></trkpt><trkpt lat="43.7491518" lon="12.7789937"><ele>291.0</ele><time>2026-04-05T08:41:27.911Z</time></trkpt><trkpt lat="43.7491035" lon="12.7789324"><ele>289.0</ele><time>2026-04-05T08:41:28.911Z</time></trkpt><trkpt lat="43.7490558" lon="12.7788749"><ele>287.0</ele><time>2026-04-05T08:41:29.912Z</time></trkpt><trkpt lat="43.7489582" lon="12.7787449"><ele>287.0</ele><time>2026-04-05T08:41:31.91Z</time></trkpt><trkpt lat="43.7489175" lon="12.778666"><ele>287.0</ele><time>2026-04-05T08:41:32.911Z</time></trkpt><trkpt lat="43.7488492" lon="12.7785168"><ele>287.0</ele><time>2026-04-05T08:41:34.911Z</time></trkpt><trkpt lat="43.7488098" lon="12.7784301"><ele>287.0</ele><time>2026-04-05T08:41:35.91Z</time></trkpt><trkpt lat="43.7487751" lon="12.7783477"><ele>287.0</ele><time>2026-04-05T08:41:36.911Z</time></trkpt><trkpt lat="43.748743" lon="12.7782701"><ele>287.0</ele><time>2026-04-05T08:41:37.911Z</time></trkpt><trkpt lat="43.7487088" lon="12.7781896"><ele>287.83333333333337</ele><time>2026-04-05T08:41:38.912Z</time></trkpt><trkpt lat="43.748673" lon="12.7781076"><ele>288.6666666666667</ele><time>2026-04-05T08:41:39.911Z</time></trkpt><trkpt lat="43.748636" lon="12.7780256"><ele>289.5</ele><time>2026-04-05T08:41:40.91Z</time></trkpt><trkpt lat="43.7485947" lon="12.7779417"><ele>290.3333333333333</ele><time>2026-04-05T08:41:41.912Z</time></trkpt><trkpt lat="43.7485518" lon="12.7778653"><ele>291.16666666666663</ele><time>2026-04-05T08:41:42.911Z</time></trkpt><trkpt lat="43.7484802" lon="12.7777752"><ele>292.0</ele><time>2026-04-05T08:41:44.911Z</time></trkpt><trkpt lat="43.7484032" lon="12.7777735"><ele>292.0</ele><time>2026-04-05T08:41:46.911Z</time></trkpt><trkpt lat="43.7483334" lon="12.7778738"><ele>292.0</ele><time>2026-04-05T08:41:48.911Z</time></trkpt><trkpt lat="43.7482833" lon="12.7779613"><ele>292.0</ele><time>2026-04-05T08:41:49.911Z</time></trkpt><trkpt lat="43.7482276" lon="12.778055"><ele>292.0</ele><time>2026-04-05T08:41:50.911Z</time></trkpt><trkpt lat="43.7481692" lon="12.7781242"><ele>292.0</ele><time>2026-04-05T08:41:51.911Z</time></trkpt><trkpt lat="43.7481109" lon="12.7781785"><ele>292.0</ele><time>2026-04-05T08:41:52.91Z</time></trkpt><trkpt lat="43.7480575" lon="12.7782381"><ele>292.0</ele><time>2026-04-05T08:41:53.91Z</time></trkpt><trkpt lat="43.7480018" lon="12.7782902"><ele>292.0</ele><time>2026-04-05T08:41:54.91Z</time></trkpt><trkpt lat="43.7479434" lon="12.778346"><ele>292.0</ele><time>2026-04-05T08:41:55.911Z</time></trkpt><trkpt lat="43.7478823" lon="12.7784027"><ele>292.0</ele><time>2026-04-05T08:41:56.911Z</time></trkpt><trkpt lat="43.7478175" lon="12.7784665"><ele>292.0</ele><time>2026-04-05T08:41:58.91Z</time></trkpt><trkpt lat="43.7477562" lon="12.778557"><ele>292.0</ele><time>2026-04-05T08:42:01.91Z</time></trkpt><trkpt lat="43.7477393" lon="12.7787569"><ele>290.5</ele><time>2026-04-05T08:42:03.912Z</time></trkpt><trkpt lat="43.7477284" lon="12.7789029"><ele>289.0</ele><time>2026-04-05T08:42:04.911Z</time></trkpt><trkpt lat="43.7477278" lon="12.7790676"><ele>287.5</ele><time>2026-04-05T08:42:05.91Z</time></trkpt><trkpt lat="43.7477247" lon="12.7792468"><ele>286.0</ele><time>2026-04-05T08:42:06.911Z</time></trkpt><trkpt lat="43.7477174" lon="12.779439"><ele>284.0</ele><time>2026-04-05T08:42:07.911Z</time></trkpt><trkpt lat="43.7477106" lon="12.7796482"><ele>282.0</ele><time>2026-04-05T08:42:08.911Z</time></trkpt><trkpt lat="43.7477053" lon="12.7798716"><ele>280.0</ele><time>2026-04-05T08:42:09.911Z</time></trkpt><trkpt lat="43.7476987" lon="12.7801059"><ele>277.66666666666663</ele><time>2026-04-05T08:42:10.911Z</time></trkpt><trkpt lat="43.7476916" lon="12.7803521"><ele>275.3333333333333</ele><time>2026-04-05T08:42:11.911Z</time></trkpt><trkpt lat="43.7476848" lon="12.7806093"><ele>273.0</ele><time>2026-04-05T08:42:12.911Z</time></trkpt><trkpt lat="43.7476781" lon="12.7808716"><ele>272.0</ele><time>2026-04-05T08:42:13.911Z</time></trkpt><trkpt lat="43.7476702" lon="12.7811416"><ele>271.0</ele><time>2026-04-05T08:42:14.911Z</time></trkpt><trkpt lat="43.7476631" lon="12.7814428"><ele>270.0</ele><time>2026-04-05T08:42:15.91Z</time></trkpt><trkpt lat="43.747657" lon="12.7817652"><ele>269.3333333333333</ele><time>2026-04-05T08:42:16.911Z</time></trkpt><trkpt lat="43.7476498" lon="12.7820458"><ele>268.66666666666663</ele><time>2026-04-05T08:42:17.91Z</time></trkpt><trkpt lat="43.74764" lon="12.782296"><ele>268.0</ele><time>2026-04-05T08:42:18.911Z</time></trkpt><trkpt lat="43.7476309" lon="12.7825174"><ele>268.6</ele><time>2026-04-05T08:42:19.911Z</time></trkpt><trkpt lat="43.7476231" lon="12.7827083"><ele>269.20000000000005</ele><time>2026-04-05T08:42:20.911Z</time></trkpt><trkpt lat="43.7476125" lon="12.7828657"><ele>269.8</ele><time>2026-04-05T08:42:21.911Z</time></trkpt><trkpt lat="43.7475932" lon="12.7829895"><ele>270.40000000000003</ele><time>2026-04-05T08:42:22.911Z</time></trkpt><trkpt lat="43.7475662" lon="12.7830978"><ele>271.0</ele><time>2026-04-05T08:42:23.911Z</time></trkpt><trkpt lat="43.7475415" lon="12.7832103"><ele>271.0</ele><time>2026-04-05T08:42:24.911Z</time></trkpt><trkpt lat="43.7475035" lon="12.7833201"><ele>271.0</ele><time>2026-04-05T08:42:25.911Z</time></trkpt><trkpt lat="43.7474456" lon="12.7834241"><ele>271.0</ele><time>2026-04-05T08:42:26.91Z</time></trkpt><trkpt lat="43.7473585" lon="12.7835311"><ele>271.0</ele><time>2026-04-05T08:42:27.91Z</time></trkpt><trkpt lat="43.7472932" lon="12.783666"><ele>271.0</ele><time>2026-04-05T08:42:28.911Z</time></trkpt><trkpt lat="43.7472366" lon="12.7838287"><ele>274.0</ele><time>2026-04-05T08:42:29.911Z</time></trkpt><trkpt lat="43.7471876" lon="12.7839986"><ele>277.0</ele><time>2026-04-05T08:42:30.91Z</time></trkpt><trkpt lat="43.7471586" lon="12.7841459"><ele>280.0</ele><time>2026-04-05T08:42:31.911Z</time></trkpt><trkpt lat="43.7471424" lon="12.7843007"><ele>283.0</ele><time>2026-04-05T08:42:32.911Z</time></trkpt><trkpt lat="43.7471442" lon="12.7844634"><ele>285.75</ele><time>2026-04-05T08:42:33.91Z</time></trkpt><trkpt lat="43.7471448" lon="12.7846606"><ele>288.5</ele><time>2026-04-05T08:42:34.911Z</time></trkpt><trkpt lat="43.7471427" lon="12.7848651"><ele>291.25</ele><time>2026-04-05T08:42:35.911Z</time></trkpt><trkpt lat="43.7471295" lon="12.7850547"><ele>294.0</ele><time>2026-04-05T08:42:36.911Z</time></trkpt><trkpt lat="43.7470907" lon="12.7852343"><ele>297.25</ele><time>2026-04-05T08:42:37.911Z</time></trkpt><trkpt lat="43.7470392" lon="12.7854173"><ele>300.5</ele><time>2026-04-05T08:42:38.911Z</time></trkpt><trkpt lat="43.7469847" lon="12.7856066"><ele>303.75</ele><time>2026-04-05T08:42:39.911Z</time></trkpt><trkpt lat="43.7469394" lon="12.7858073"><ele>307.0</ele><time>2026-04-05T08:42:40.911Z</time></trkpt><trkpt lat="43.7469096" lon="12.7860195"><ele>310.0</ele><time>2026-04-05T08:42:41.911Z</time></trkpt><trkpt lat="43.7468993" lon="12.7862279"><ele>313.0</ele><time>2026-04-05T08:42:42.91Z</time></trkpt><trkpt lat="43.7469023" lon="12.7864073"><ele>316.0</ele><time>2026-04-05T08:42:43.912Z</time></trkpt><trkpt lat="43.7469228" lon="12.7865724"><ele>319.0</ele><time>2026-04-05T08:42:44.911Z</time></trkpt><trkpt lat="43.7469734" lon="12.786738"><ele>320.0</ele><time>2026-04-05T08:42:45.911Z</time></trkpt><trkpt lat="43.7470553" lon="12.7868903"><ele>321.0</ele><time>2026-04-05T08:42:46.911Z</time></trkpt><trkpt lat="43.7471629" lon="12.7870337"><ele>322.0</ele><time>2026-04-05T08:42:47.911Z</time></trkpt><trkpt lat="43.7472683" lon="12.7871827"><ele>323.0</ele><time>2026-04-05T08:42:48.912Z</time></trkpt><trkpt lat="43.747346" lon="12.7873407"><ele>323.0</ele><time>2026-04-05T08:42:49.911Z</time></trkpt><trkpt lat="43.7474102" lon="12.7875124"><ele>323.0</ele><time>2026-04-05T08:42:50.911Z</time></trkpt><trkpt lat="43.7474696" lon="12.7876632"><ele>323.0</ele><time>2026-04-05T08:42:51.911Z</time></trkpt><trkpt lat="43.7474941" lon="12.7878202"><ele>323.0</ele><time>2026-04-05T08:42:52.911Z</time></trkpt><trkpt lat="43.7475053" lon="12.7879733"><ele>324.0</ele><time>2026-04-05T08:42:53.911Z</time></trkpt><trkpt lat="43.7474818" lon="12.7881163"><ele>325.0</ele><time>2026-04-05T08:42:54.91Z</time></trkpt><trkpt lat="43.7474167" lon="12.7882482"><ele>326.0</ele><time>2026-04-05T08:42:55.911Z</time></trkpt><trkpt lat="43.7473357" lon="12.7883486"><ele>327.0</ele><time>2026-04-05T08:42:56.911Z</time></trkpt><trkpt lat="43.7472587" lon="12.7884172"><ele>328.0</ele><time>2026-04-05T08:42:57.91Z</time></trkpt><trkpt lat="43.7472051" lon="12.7884821"><ele>329.2857142857143</ele><time>2026-04-05T08:42:58.91Z</time></trkpt><trkpt lat="43.7471732" lon="12.7885645"><ele>330.57142857142856</ele><time>2026-04-05T08:42:59.911Z</time></trkpt><trkpt lat="43.7471362" lon="12.7886487"><ele>331.8571428571429</ele><time>2026-04-05T08:43:00.911Z</time></trkpt><trkpt lat="43.7470912" lon="12.7887214"><ele>333.1428571428571</ele><time>2026-04-05T08:43:01.911Z</time></trkpt><trkpt lat="43.7470419" lon="12.7887859"><ele>334.42857142857144</ele><time>2026-04-05T08:43:02.911Z</time></trkpt><trkpt lat="43.7469997" lon="12.7888673"><ele>335.7142857142857</ele><time>2026-04-05T08:43:03.91Z</time></trkpt><trkpt lat="43.7469683" lon="12.7889631"><ele>337.0</ele><time>2026-04-05T08:43:04.911Z</time></trkpt><trkpt lat="43.7469423" lon="12.7890582"><ele>337.0</ele><time>2026-04-05T08:43:05.912Z</time></trkpt><trkpt lat="43.746929" lon="12.7892183"><ele>337.0</ele><time>2026-04-05T08:43:07.911Z</time></trkpt><trkpt lat="43.7469774" lon="12.7893811"><ele>337.0</ele><time>2026-04-05T08:43:09.91Z</time></trkpt><trkpt lat="43.7470178" lon="12.7894545"><ele>337.0</ele><time>2026-04-05T08:43:10.912Z</time></trkpt><trkpt lat="43.7470747" lon="12.7895399"><ele>337.0</ele><time>2026-04-05T08:43:11.911Z</time></trkpt><trkpt lat="43.7471432" lon="12.7896261"><ele>337.40000000000003</ele><time>2026-04-05T08:43:12.91Z</time></trkpt><trkpt lat="43.7472209" lon="12.7897028"><ele>337.8</ele><time>2026-04-05T08:43:13.912Z</time></trkpt><trkpt lat="43.7473026" lon="12.7897642"><ele>338.2</ele><time>2026-04-05T08:43:14.911Z</time></trkpt><trkpt lat="43.7473876" lon="12.7898091"><ele>338.6</ele><time>2026-04-05T08:43:15.911Z</time></trkpt><trkpt lat="43.747472" lon="12.7898538"><ele>339.0</ele><time>2026-04-05T08:43:16.911Z</time></trkpt><trkpt lat="43.7475528" lon="12.7898909"><ele>339.0</ele><time>2026-04-05T08:43:17.91Z</time></trkpt><trkpt lat="43.7476307" lon="12.7899159"><ele>339.0</ele><time>2026-04-05T08:43:18.91Z</time></trkpt><trkpt lat="43.7477047" lon="12.7899424"><ele>339.0</ele><time>2026-04-05T08:43:19.911Z</time></trkpt><trkpt lat="43.7477823" lon="12.789968"><ele>339.0</ele><time>2026-04-05T08:43:20.911Z</time></trkpt><trkpt lat="43.7478597" lon="12.7899952"><ele>339.0</ele><time>2026-04-05T08:43:21.912Z</time></trkpt><trkpt lat="43.7479337" lon="12.7900258"><ele>339.0</ele><time>2026-04-05T08:43:22.911Z</time></trkpt><trkpt lat="43.7480063" lon="12.7900643"><ele>340.4285714285714</ele><time>2026-04-05T08:43:23.911Z</time></trkpt><trkpt lat="43.7480629" lon="12.7901175"><ele>341.8571428571429</ele><time>2026-04-05T08:43:24.911Z</time></trkpt><trkpt lat="43.7481151" lon="12.7901752"><ele>343.2857142857143</ele><time>2026-04-05T08:43:25.91Z</time></trkpt><trkpt lat="43.7481713" lon="12.7902452"><ele>344.71428571428567</ele><time>2026-04-05T08:43:26.91Z</time></trkpt><trkpt lat="43.7482272" lon="12.7903186"><ele>346.1428571428571</ele><time>2026-04-05T08:43:27.912Z</time></trkpt><trkpt lat="43.7482891" lon="12.7903872"><ele>347.57142857142856</ele><time>2026-04-05T08:43:28.911Z</time></trkpt><trkpt lat="43.7483514" lon="12.7904578"><ele>349.0</ele><time>2026-04-05T08:43:29.911Z</time></trkpt><trkpt lat="43.7484123" lon="12.7905264"><ele>348.8333333333333</ele><time>2026-04-05T08:43:30.912Z</time></trkpt><trkpt lat="43.7484698" lon="12.7905912"><ele>348.66666666666663</ele><time>2026-04-05T08:43:31.911Z</time></trkpt><trkpt lat="43.7485291" lon="12.7906649"><ele>348.5</ele><time>2026-04-05T08:43:32.911Z</time></trkpt><trkpt lat="43.7485909" lon="12.7907567"><ele>348.3333333333333</ele><time>2026-04-05T08:43:33.912Z</time></trkpt><trkpt lat="43.7486547" lon="12.7908576"><ele>348.1666666666667</ele><time>2026-04-05T08:43:34.911Z</time></trkpt><trkpt lat="43.7487297" lon="12.7909535"><ele>348.0</ele><time>2026-04-05T08:43:35.911Z</time></trkpt><trkpt lat="43.7488002" lon="12.7910533"><ele>348.59999999999997</ele><time>2026-04-05T08:43:36.911Z</time></trkpt><trkpt lat="43.7488721" lon="12.7911536"><ele>349.2</ele><time>2026-04-05T08:43:37.911Z</time></trkpt><trkpt lat="43.7489368" lon="12.7912558"><ele>349.8</ele><time>2026-04-05T08:43:38.911Z</time></trkpt><trkpt lat="43.7489957" lon="12.7913559"><ele>350.4</ele><time>2026-04-05T08:43:39.91Z</time></trkpt><trkpt lat="43.749047" lon="12.7914611"><ele>351.0</ele><time>2026-04-05T08:43:40.911Z</time></trkpt><trkpt lat="43.7490931" lon="12.7915775"><ele>351.0</ele><time>2026-04-05T08:43:41.911Z</time></trkpt><trkpt lat="43.7491309" lon="12.791697"><ele>351.0</ele><time>2026-04-05T08:43:42.911Z</time></trkpt><trkpt lat="43.7491481" lon="12.7918204"><ele>351.0</ele><time>2026-04-05T08:43:43.912Z</time></trkpt><trkpt lat="43.749157" lon="12.7919618"><ele>351.0</ele><time>2026-04-05T08:43:44.911Z</time></trkpt><trkpt lat="43.7491609" lon="12.7921111"><ele>351.0</ele><time>2026-04-05T08:43:45.911Z</time></trkpt><trkpt lat="43.7491644" lon="12.7922504"><ele>351.0</ele><time>2026-04-05T08:43:46.911Z</time></trkpt><trkpt lat="43.7491628" lon="12.7923945"><ele>351.0</ele><time>2026-04-05T08:43:47.91Z</time></trkpt><trkpt lat="43.7491549" lon="12.7925371"><ele>351.0</ele><time>2026-04-05T08:43:48.911Z</time></trkpt><trkpt lat="43.7491441" lon="12.79268"><ele>351.0</ele><time>2026-04-05T08:43:49.911Z</time></trkpt><trkpt lat="43.7491419" lon="12.7928324"><ele>351.0</ele><time>2026-04-05T08:43:50.911Z</time></trkpt><trkpt lat="43.7491373" lon="12.7929921"><ele>351.20000000000005</ele><time>2026-04-05T08:43:51.91Z</time></trkpt><trkpt lat="43.7491297" lon="12.7931519"><ele>351.40000000000003</ele><time>2026-04-05T08:43:52.911Z</time></trkpt><trkpt lat="43.7491252" lon="12.7932985"><ele>351.6</ele><time>2026-04-05T08:43:53.911Z</time></trkpt><trkpt lat="43.7491302" lon="12.7934288"><ele>351.8</ele><time>2026-04-05T08:43:54.911Z</time></trkpt><trkpt lat="43.7491531" lon="12.793541"><ele>352.0</ele><time>2026-04-05T08:43:55.911Z</time></trkpt><trkpt lat="43.7491969" lon="12.7936324"><ele>352.0</ele><time>2026-04-05T08:43:56.911Z</time></trkpt><trkpt lat="43.7492577" lon="12.7937119"><ele>352.0</ele><time>2026-04-05T08:43:57.912Z</time></trkpt><trkpt lat="43.7493285" lon="12.7937902"><ele>352.0</ele><time>2026-04-05T08:43:58.911Z</time></trkpt><trkpt lat="43.7493968" lon="12.7938486"><ele>352.0</ele><time>2026-04-05T08:43:59.911Z</time></trkpt><trkpt lat="43.7494633" lon="12.7939015"><ele>352.0</ele><time>2026-04-05T08:44:00.911Z</time></trkpt><trkpt lat="43.7495283" lon="12.7939519"><ele>352.0</ele><time>2026-04-05T08:44:01.911Z</time></trkpt><trkpt lat="43.7495914" lon="12.7940005"><ele>351.2857142857143</ele><time>2026-04-05T08:44:02.91Z</time></trkpt><trkpt lat="43.7496512" lon="12.7940492"><ele>350.57142857142856</ele><time>2026-04-05T08:44:03.91Z</time></trkpt><trkpt lat="43.7497077" lon="12.7941032"><ele>349.8571428571429</ele><time>2026-04-05T08:44:04.91Z</time></trkpt><trkpt lat="43.7497646" lon="12.7941576"><ele>349.1428571428571</ele><time>2026-04-05T08:44:05.911Z</time></trkpt><trkpt lat="43.7498233" lon="12.7942116"><ele>348.4285714285714</ele><time>2026-04-05T08:44:06.911Z</time></trkpt><trkpt lat="43.749883" lon="12.7942666"><ele>347.7142857142857</ele><time>2026-04-05T08:44:07.911Z</time></trkpt><trkpt lat="43.7499429" lon="12.7943218"><ele>347.0</ele><time>2026-04-05T08:44:08.911Z</time></trkpt><trkpt lat="43.750001" lon="12.7943779"><ele>347.0</ele><time>2026-04-05T08:44:09.911Z</time></trkpt><trkpt lat="43.7500577" lon="12.7944275"><ele>347.0</ele><time>2026-04-05T08:44:10.911Z</time></trkpt><trkpt lat="43.7501282" lon="12.7944842"><ele>347.0</ele><time>2026-04-05T08:44:12.911Z</time></trkpt><trkpt lat="43.7500689" lon="12.7944213"><ele>347.0</ele><time>2026-04-05T08:44:21.911Z</time></trkpt><trkpt lat="43.7500095" lon="12.7943689"><ele>347.0</ele><time>2026-04-05T08:44:22.912Z</time></trkpt><trkpt lat="43.7499499" lon="12.794314"><ele>347.0</ele><time>2026-04-05T08:44:23.91Z</time></trkpt><trkpt lat="43.749885" lon="12.7942514"><ele>347.0</ele><time>2026-04-05T08:44:24.91Z</time></trkpt><trkpt lat="43.7498163" lon="12.7941868"><ele>347.0</ele><time>2026-04-05T08:44:25.912Z</time></trkpt><trkpt lat="43.749742" lon="12.7941174"><ele>347.0</ele><time>2026-04-05T08:44:26.911Z</time></trkpt><trkpt lat="43.749663" lon="12.7940441"><ele>347.0</ele><time>2026-04-05T08:44:27.911Z</time></trkpt><trkpt lat="43.7495723" lon="12.7939678"><ele>347.0</ele><time>2026-04-05T08:44:28.91Z</time></trkpt><trkpt lat="43.7494686" lon="12.7938835"><ele>347.0</ele><time>2026-04-05T08:44:29.911Z</time></trkpt><trkpt lat="43.7493659" lon="12.7937954"><ele>347.83333333333337</ele><time>2026-04-05T08:44:30.911Z</time></trkpt><trkpt lat="43.7492869" lon="12.7937206"><ele>348.6666666666667</ele><time>2026-04-05T08:44:31.911Z</time></trkpt><trkpt lat="43.7492301" lon="12.7936561"><ele>349.5</ele><time>2026-04-05T08:44:32.911Z</time></trkpt><trkpt lat="43.7491711" lon="12.7935833"><ele>350.3333333333333</ele><time>2026-04-05T08:44:34.911Z</time></trkpt><trkpt lat="43.749135" lon="12.7934636"><ele>351.16666666666663</ele><time>2026-04-05T08:44:37.911Z</time></trkpt><trkpt lat="43.7491238" lon="12.7933458"><ele>352.0</ele><time>2026-04-05T08:44:39.912Z</time></trkpt><trkpt lat="43.7491252" lon="12.7932437"><ele>352.8333333333333</ele><time>2026-04-05T08:44:40.911Z</time></trkpt><trkpt lat="43.7491317" lon="12.7931122"><ele>353.66666666666663</ele><time>2026-04-05T08:44:41.911Z</time></trkpt><trkpt lat="43.749137" lon="12.7929873"><ele>354.5</ele><time>2026-04-05T08:44:42.911Z</time></trkpt><trkpt lat="43.7491395" lon="12.7928704"><ele>355.3333333333333</ele><time>2026-04-05T08:44:43.911Z</time></trkpt><trkpt lat="43.7491422" lon="12.7927759"><ele>356.1666666666667</ele><time>2026-04-05T08:44:44.91Z</time></trkpt><trkpt lat="43.749105" lon="12.7926917"><ele>357.0</ele><time>2026-04-05T08:44:47.911Z</time></trkpt><trkpt lat="43.749048" lon="12.7927483"><ele>357.0</ele><time>2026-04-05T08:44:49.91Z</time></trkpt><trkpt lat="43.7490048" lon="12.7928139"><ele>357.0</ele><time>2026-04-05T08:44:50.911Z</time></trkpt><trkpt lat="43.7489505" lon="12.7929014"><ele>357.0</ele><time>2026-04-05T08:44:51.911Z</time></trkpt><trkpt lat="43.7488866" lon="12.7930054"><ele>357.0</ele><time>2026-04-05T08:44:52.912Z</time></trkpt><trkpt lat="43.7488255" lon="12.7930994"><ele>357.0</ele><time>2026-04-05T08:44:53.91Z</time></trkpt><trkpt lat="43.7487681" lon="12.7931858"><ele>357.0</ele><time>2026-04-05T08:44:54.911Z</time></trkpt><trkpt lat="43.7487108" lon="12.7932674"><ele>357.0</ele><time>2026-04-05T08:44:55.911Z</time></trkpt><trkpt lat="43.7486554" lon="12.7933441"><ele>357.0</ele><time>2026-04-05T08:44:56.91Z</time></trkpt><trkpt lat="43.7486008" lon="12.7934118"><ele>357.0</ele><time>2026-04-05T08:44:57.912Z</time></trkpt><trkpt lat="43.7485482" lon="12.7934724"><ele>357.0</ele><time>2026-04-05T08:44:58.911Z</time></trkpt><trkpt lat="43.7484772" lon="12.7935779"><ele>357.0</ele><time>2026-04-05T08:45:00.911Z</time></trkpt><trkpt lat="43.7484003" lon="12.7937076"><ele>357.0</ele><time>2026-04-05T08:45:02.91Z</time></trkpt><trkpt lat="43.7483206" lon="12.7938166"><ele>353.40000000000003</ele><time>2026-04-05T08:45:04.911Z</time></trkpt><trkpt lat="43.748241" lon="12.7939221"><ele>349.8</ele><time>2026-04-05T08:45:06.91Z</time></trkpt><trkpt lat="43.7481689" lon="12.7940066"><ele>346.2</ele><time>2026-04-05T08:45:08.911Z</time></trkpt><trkpt lat="43.7481008" lon="12.794101"><ele>342.6</ele><time>2026-04-05T08:45:10.911Z</time></trkpt><trkpt lat="43.7480398" lon="12.7941848"><ele>339.0</ele><time>2026-04-05T08:45:12.911Z</time></trkpt><trkpt lat="43.7479797" lon="12.7942506"><ele>339.0</ele><time>2026-04-05T08:45:14.911Z</time></trkpt><trkpt lat="43.7479206" lon="12.7943202"><ele>339.0</ele><time>2026-04-05T08:45:16.911Z</time></trkpt><trkpt lat="43.7478606" lon="12.794384"><ele>339.0</ele><time>2026-04-05T08:45:18.911Z</time></trkpt><trkpt lat="43.7477631" lon="12.7944765"><ele>339.0</ele><time>2026-04-05T08:45:20.91Z</time></trkpt><trkpt lat="43.7476995" lon="12.794557"><ele>339.0</ele><time>2026-04-05T08:45:21.911Z</time></trkpt><trkpt lat="43.7476387" lon="12.7946573"><ele>334.8</ele><time>2026-04-05T08:45:22.911Z</time></trkpt><trkpt lat="43.7475696" lon="12.7947407"><ele>330.59999999999997</ele><time>2026-04-05T08:45:23.91Z</time></trkpt><trkpt lat="43.7474905" lon="12.794816"><ele>326.4</ele><time>2026-04-05T08:45:24.91Z</time></trkpt><trkpt lat="43.7473982" lon="12.7948968"><ele>322.2</ele><time>2026-04-05T08:45:25.91Z</time></trkpt><trkpt lat="43.7473019" lon="12.7949671"><ele>318.0</ele><time>2026-04-05T08:45:26.91Z</time></trkpt><trkpt lat="43.7471939" lon="12.7950405"><ele>318.0</ele><time>2026-04-05T08:45:27.91Z</time></trkpt><trkpt lat="43.7470787" lon="12.7951192"><ele>318.0</ele><time>2026-04-05T08:45:28.91Z</time></trkpt><trkpt lat="43.7469644" lon="12.7951956"><ele>318.0</ele><time>2026-04-05T08:45:29.911Z</time></trkpt><trkpt lat="43.7468601" lon="12.7952666"><ele>318.0</ele><time>2026-04-05T08:45:30.909Z</time></trkpt><trkpt lat="43.7467706" lon="12.7953273"><ele>316.8333333333333</ele><time>2026-04-05T08:45:31.91Z</time></trkpt><trkpt lat="43.7466919" lon="12.7953831"><ele>315.6666666666667</ele><time>2026-04-05T08:45:32.911Z</time></trkpt><trkpt lat="43.7466265" lon="12.7954339"><ele>314.5</ele><time>2026-04-05T08:45:33.91Z</time></trkpt><trkpt lat="43.7465681" lon="12.7954858"><ele>313.33333333333337</ele><time>2026-04-05T08:45:34.91Z</time></trkpt><trkpt lat="43.7465145" lon="12.7955381"><ele>312.1666666666667</ele><time>2026-04-05T08:45:35.91Z</time></trkpt><trkpt lat="43.7464628" lon="12.7956156"><ele>311.0</ele><time>2026-04-05T08:45:36.909Z</time></trkpt><trkpt lat="43.7464035" lon="12.7957085"><ele>311.0</ele><time>2026-04-05T08:45:37.91Z</time></trkpt><trkpt lat="43.746338" lon="12.7958116"><ele>311.0</ele><time>2026-04-05T08:45:38.909Z</time></trkpt><trkpt lat="43.7462693" lon="12.7959232"><ele>311.0</ele><time>2026-04-05T08:45:39.91Z</time></trkpt><trkpt lat="43.7461974" lon="12.7960378"><ele>311.0</ele><time>2026-04-05T08:45:40.911Z</time></trkpt><trkpt lat="43.7461262" lon="12.7961673"><ele>311.0</ele><time>2026-04-05T08:45:41.91Z</time></trkpt><trkpt lat="43.7460537" lon="12.7963054"><ele>316.0</ele><time>2026-04-05T08:45:42.909Z</time></trkpt><trkpt lat="43.7459772" lon="12.7964478"><ele>321.0</ele><time>2026-04-05T08:45:43.91Z</time></trkpt><trkpt lat="43.7459043" lon="12.7966043"><ele>326.0</ele><time>2026-04-05T08:45:44.91Z</time></trkpt><trkpt lat="43.7458302" lon="12.7967754"><ele>331.0</ele><time>2026-04-05T08:45:45.91Z</time></trkpt><trkpt lat="43.7457532" lon="12.7969489"><ele>332.5</ele><time>2026-04-05T08:45:46.911Z</time></trkpt><trkpt lat="43.7456843" lon="12.7971212"><ele>334.0</ele><time>2026-04-05T08:45:47.911Z</time></trkpt><trkpt lat="43.7456348" lon="12.7972936"><ele>335.5</ele><time>2026-04-05T08:45:48.91Z</time></trkpt><trkpt lat="43.7456108" lon="12.7974878"><ele>337.0</ele><time>2026-04-05T08:45:49.91Z</time></trkpt><trkpt lat="43.7456045" lon="12.7976998"><ele>340.0</ele><time>2026-04-05T08:45:50.91Z</time></trkpt><trkpt lat="43.7456043" lon="12.7979277"><ele>343.0</ele><time>2026-04-05T08:45:51.91Z</time></trkpt><trkpt lat="43.74559" lon="12.7981611"><ele>346.0</ele><time>2026-04-05T08:45:52.911Z</time></trkpt><trkpt lat="43.745554" lon="12.7983684"><ele>348.3333333333333</ele><time>2026-04-05T08:45:53.91Z</time></trkpt><trkpt lat="43.745486" lon="12.7985605"><ele>350.6666666666667</ele><time>2026-04-05T08:45:54.91Z</time></trkpt><trkpt lat="43.7453956" lon="12.7987474"><ele>353.0</ele><time>2026-04-05T08:45:55.909Z</time></trkpt><trkpt lat="43.7452985" lon="12.7989456"><ele>352.25</ele><time>2026-04-05T08:45:56.91Z</time></trkpt><trkpt lat="43.7452051" lon="12.7991371"><ele>351.5</ele><time>2026-04-05T08:45:57.91Z</time></trkpt><trkpt lat="43.7451199" lon="12.7992938"><ele>350.75</ele><time>2026-04-05T08:45:58.91Z</time></trkpt><trkpt lat="43.7450465" lon="12.799432"><ele>350.0</ele><time>2026-04-05T08:45:59.91Z</time></trkpt><trkpt lat="43.7449852" lon="12.7995701"><ele>350.0</ele><time>2026-04-05T08:46:00.91Z</time></trkpt><trkpt lat="43.7449385" lon="12.7997345"><ele>350.0</ele><time>2026-04-05T08:46:01.91Z</time></trkpt><trkpt lat="43.7449166" lon="12.7999243"><ele>350.0</ele><time>2026-04-05T08:46:02.91Z</time></trkpt><trkpt lat="43.7449123" lon="12.8001324"><ele>350.0</ele><time>2026-04-05T08:46:03.91Z</time></trkpt><trkpt lat="43.7449207" lon="12.800358"><ele>350.0</ele><time>2026-04-05T08:46:04.91Z</time></trkpt><trkpt lat="43.7449442" lon="12.8005856"><ele>350.0</ele><time>2026-04-05T08:46:05.909Z</time></trkpt><trkpt lat="43.7449813" lon="12.8008008"><ele>350.0</ele><time>2026-04-05T08:46:06.91Z</time></trkpt><trkpt lat="43.7450146" lon="12.8010029"><ele>348.0</ele><time>2026-04-05T08:46:07.91Z</time></trkpt><trkpt lat="43.745039" lon="12.8011863"><ele>346.0</ele><time>2026-04-05T08:46:08.91Z</time></trkpt><trkpt lat="43.745044" lon="12.801371"><ele>344.0</ele><time>2026-04-05T08:46:09.91Z</time></trkpt><trkpt lat="43.7450304" lon="12.8015798"><ele>342.0</ele><time>2026-04-05T08:46:10.91Z</time></trkpt><trkpt lat="43.7450115" lon="12.8017984"><ele>339.0</ele><time>2026-04-05T08:46:11.909Z</time></trkpt><trkpt lat="43.7450018" lon="12.8020223"><ele>336.0</ele><time>2026-04-05T08:46:12.91Z</time></trkpt><trkpt lat="43.7449991" lon="12.8022528"><ele>333.0</ele><time>2026-04-05T08:46:13.91Z</time></trkpt><trkpt lat="43.7450378" lon="12.8024908"><ele>332.0</ele><time>2026-04-05T08:46:14.91Z</time></trkpt><trkpt lat="43.74506" lon="12.8027235"><ele>331.0</ele><time>2026-04-05T08:46:15.91Z</time></trkpt><trkpt lat="43.7450821" lon="12.8029322"><ele>330.0</ele><time>2026-04-05T08:46:16.909Z</time></trkpt><trkpt lat="43.7450993" lon="12.8031145"><ele>330.0</ele><time>2026-04-05T08:46:17.91Z</time></trkpt><trkpt lat="43.7451052" lon="12.8032757"><ele>330.0</ele><time>2026-04-05T08:46:18.91Z</time></trkpt><trkpt lat="43.7450841" lon="12.8034375"><ele>330.0</ele><time>2026-04-05T08:46:19.91Z</time></trkpt><trkpt lat="43.7450321" lon="12.8036099"><ele>330.0</ele><time>2026-04-05T08:46:20.91Z</time></trkpt><trkpt lat="43.7449638" lon="12.8037967"><ele>331.3333333333333</ele><time>2026-04-05T08:46:21.91Z</time></trkpt><trkpt lat="43.7449069" lon="12.8040088"><ele>332.66666666666663</ele><time>2026-04-05T08:46:22.91Z</time></trkpt><trkpt lat="43.7448694" lon="12.8042534"><ele>334.0</ele><time>2026-04-05T08:46:23.909Z</time></trkpt><trkpt lat="43.7448452" lon="12.8045264"><ele>335.0</ele><time>2026-04-05T08:46:24.91Z</time></trkpt><trkpt lat="43.7448266" lon="12.8047855"><ele>336.0</ele><time>2026-04-05T08:46:25.911Z</time></trkpt><trkpt lat="43.7448071" lon="12.8050089"><ele>337.0</ele><time>2026-04-05T08:46:26.91Z</time></trkpt><trkpt lat="43.744796" lon="12.8052119"><ele>338.5</ele><time>2026-04-05T08:46:27.911Z</time></trkpt><trkpt lat="43.744819" lon="12.8053965"><ele>340.0</ele><time>2026-04-05T08:46:28.911Z</time></trkpt><trkpt lat="43.7448857" lon="12.8055695"><ele>341.5</ele><time>2026-04-05T08:46:29.91Z</time></trkpt><trkpt lat="43.7449783" lon="12.8057319"><ele>343.0</ele><time>2026-04-05T08:46:30.91Z</time></trkpt><trkpt lat="43.7450865" lon="12.8058955"><ele>343.0</ele><time>2026-04-05T08:46:31.909Z</time></trkpt><trkpt lat="43.7451963" lon="12.8060581"><ele>343.0</ele><time>2026-04-05T08:46:32.91Z</time></trkpt><trkpt lat="43.7453108" lon="12.8062245"><ele>343.0</ele><time>2026-04-05T08:46:33.909Z</time></trkpt><trkpt lat="43.7454215" lon="12.8063933"><ele>343.0</ele><time>2026-04-05T08:46:34.909Z</time></trkpt><trkpt lat="43.7455167" lon="12.8065403"><ele>343.0</ele><time>2026-04-05T08:46:35.91Z</time></trkpt><trkpt lat="43.7455942" lon="12.8066732"><ele>343.0</ele><time>2026-04-05T08:46:36.91Z</time></trkpt><trkpt lat="43.7456483" lon="12.8068149"><ele>343.0</ele><time>2026-04-05T08:46:37.909Z</time></trkpt><trkpt lat="43.7456636" lon="12.8069617"><ele>342.25</ele><time>2026-04-05T08:46:38.91Z</time></trkpt><trkpt lat="43.7456404" lon="12.8071113"><ele>341.5</ele><time>2026-04-05T08:46:39.91Z</time></trkpt><trkpt lat="43.7455919" lon="12.8072534"><ele>340.75</ele><time>2026-04-05T08:46:40.91Z</time></trkpt><trkpt lat="43.7455607" lon="12.8073952"><ele>340.0</ele><time>2026-04-05T08:46:41.91Z</time></trkpt><trkpt lat="43.7455648" lon="12.8075629"><ele>338.25</ele><time>2026-04-05T08:46:42.909Z</time></trkpt><trkpt lat="43.7455829" lon="12.8077526"><ele>336.5</ele><time>2026-04-05T08:46:43.91Z</time></trkpt><trkpt lat="43.7456022" lon="12.807958"><ele>334.75</ele><time>2026-04-05T08:46:44.91Z</time></trkpt><trkpt lat="43.7456166" lon="12.8081594"><ele>333.0</ele><time>2026-04-05T08:46:45.91Z</time></trkpt><trkpt lat="43.7456159" lon="12.8083614"><ele>331.0</ele><time>2026-04-05T08:46:46.91Z</time></trkpt><trkpt lat="43.7456031" lon="12.808547"><ele>329.0</ele><time>2026-04-05T08:46:47.91Z</time></trkpt><trkpt lat="43.745592" lon="12.8087086"><ele>327.0</ele><time>2026-04-05T08:46:48.91Z</time></trkpt><trkpt lat="43.7455746" lon="12.808867"><ele>325.0</ele><time>2026-04-05T08:46:49.91Z</time></trkpt><trkpt lat="43.7455455" lon="12.8090103"><ele>325.0</ele><time>2026-04-05T08:46:50.91Z</time></trkpt><trkpt lat="43.7454985" lon="12.8091584"><ele>325.0</ele><time>2026-04-05T08:46:51.909Z</time></trkpt><trkpt lat="43.7454315" lon="12.8093059"><ele>325.0</ele><time>2026-04-05T08:46:52.91Z</time></trkpt><trkpt lat="43.7453594" lon="12.8094558"><ele>325.0</ele><time>2026-04-05T08:46:53.91Z</time></trkpt><trkpt lat="43.7452784" lon="12.8096079"><ele>326.0</ele><time>2026-04-05T08:46:54.91Z</time></trkpt><trkpt lat="43.7451943" lon="12.8097525"><ele>327.0</ele><time>2026-04-05T08:46:55.91Z</time></trkpt><trkpt lat="43.7451086" lon="12.8098917"><ele>328.0</ele><time>2026-04-05T08:46:56.91Z</time></trkpt><trkpt lat="43.7450169" lon="12.8100198"><ele>329.0</ele><time>2026-04-05T08:46:57.91Z</time></trkpt><trkpt lat="43.7448941" lon="12.810136"><ele>320.0</ele><time>2026-04-05T08:46:58.91Z</time></trkpt><trkpt lat="43.7447668" lon="12.810204"><ele>311.0</ele><time>2026-04-05T08:46:59.91Z</time></trkpt><trkpt lat="43.7446305" lon="12.8102987"><ele>302.0</ele><time>2026-04-05T08:47:00.909Z</time></trkpt><trkpt lat="43.7444879" lon="12.8104022"><ele>305.25</ele><time>2026-04-05T08:47:01.91Z</time></trkpt><trkpt lat="43.7443475" lon="12.8104939"><ele>308.5</ele><time>2026-04-05T08:47:02.909Z</time></trkpt><trkpt lat="43.7442169" lon="12.8105749"><ele>311.75</ele><time>2026-04-05T08:47:03.91Z</time></trkpt><trkpt lat="43.7440996" lon="12.810655"><ele>315.0</ele><time>2026-04-05T08:47:04.91Z</time></trkpt><trkpt lat="43.7439939" lon="12.8107274"><ele>315.0</ele><time>2026-04-05T08:47:05.911Z</time></trkpt><trkpt lat="43.7438949" lon="12.8107782"><ele>315.0</ele><time>2026-04-05T08:47:06.91Z</time></trkpt><trkpt lat="43.7438072" lon="12.8108148"><ele>315.0</ele><time>2026-04-05T08:47:07.91Z</time></trkpt><trkpt lat="43.7437313" lon="12.8108583"><ele>315.0</ele><time>2026-04-05T08:47:08.91Z</time></trkpt><trkpt lat="43.7436837" lon="12.8109249"><ele>315.0</ele><time>2026-04-05T08:47:09.91Z</time></trkpt><trkpt lat="43.743674" lon="12.8110133"><ele>315.0</ele><time>2026-04-05T08:47:10.91Z</time></trkpt><trkpt lat="43.7437066" lon="12.8110922"><ele>310.4</ele><time>2026-04-05T08:47:11.911Z</time></trkpt><trkpt lat="43.7437767" lon="12.8111326"><ele>305.8</ele><time>2026-04-05T08:47:12.911Z</time></trkpt><trkpt lat="43.7438648" lon="12.8111264"><ele>301.2</ele><time>2026-04-05T08:47:13.911Z</time></trkpt><trkpt lat="43.7439686" lon="12.8110865"><ele>296.6</ele><time>2026-04-05T08:47:14.91Z</time></trkpt><trkpt lat="43.7440951" lon="12.8110339"><ele>292.0</ele><time>2026-04-05T08:47:15.91Z</time></trkpt><trkpt lat="43.7442336" lon="12.8109977"><ele>294.5</ele><time>2026-04-05T08:47:16.909Z</time></trkpt><trkpt lat="43.7443748" lon="12.8109543"><ele>297.0</ele><time>2026-04-05T08:47:17.91Z</time></trkpt><trkpt lat="43.7445142" lon="12.8109037"><ele>299.5</ele><time>2026-04-05T08:47:18.91Z</time></trkpt><trkpt lat="43.7446561" lon="12.8108584"><ele>302.0</ele><time>2026-04-05T08:47:19.91Z</time></trkpt><trkpt lat="43.7447985" lon="12.8108141"><ele>302.0</ele><time>2026-04-05T08:47:20.91Z</time></trkpt><trkpt lat="43.7449447" lon="12.8107618"><ele>302.0</ele><time>2026-04-05T08:47:21.91Z</time></trkpt><trkpt lat="43.7450946" lon="12.8107098"><ele>302.0</ele><time>2026-04-05T08:47:22.91Z</time></trkpt><trkpt lat="43.7452468" lon="12.8106493"><ele>298.6666666666667</ele><time>2026-04-05T08:47:23.91Z</time></trkpt><trkpt lat="43.7454007" lon="12.8105757"><ele>295.3333333333333</ele><time>2026-04-05T08:47:24.911Z</time></trkpt><trkpt lat="43.7455632" lon="12.8105038"><ele>292.0</ele><time>2026-04-05T08:47:25.91Z</time></trkpt><trkpt lat="43.745713" lon="12.8104449"><ele>292.0</ele><time>2026-04-05T08:47:26.909Z</time></trkpt><trkpt lat="43.7458452" lon="12.8103919"><ele>292.0</ele><time>2026-04-05T08:47:27.91Z</time></trkpt><trkpt lat="43.745959" lon="12.8103519"><ele>292.0</ele><time>2026-04-05T08:47:28.91Z</time></trkpt><trkpt lat="43.7460669" lon="12.810349"><ele>292.0</ele><time>2026-04-05T08:47:29.91Z</time></trkpt><trkpt lat="43.7461645" lon="12.8104086"><ele>290.75</ele><time>2026-04-05T08:47:30.91Z</time></trkpt><trkpt lat="43.7462584" lon="12.8105153"><ele>289.5</ele><time>2026-04-05T08:47:31.91Z</time></trkpt><trkpt lat="43.7463369" lon="12.8106681"><ele>288.25</ele><time>2026-04-05T08:47:32.91Z</time></trkpt><trkpt lat="43.7464003" lon="12.810812"><ele>287.0</ele><time>2026-04-05T08:47:33.91Z</time></trkpt><trkpt lat="43.7464327" lon="12.8109636"><ele>285.25</ele><time>2026-04-05T08:47:34.91Z</time></trkpt><trkpt lat="43.7464165" lon="12.8111125"><ele>283.5</ele><time>2026-04-05T08:47:35.91Z</time></trkpt><trkpt lat="43.746377" lon="12.8112607"><ele>281.75</ele><time>2026-04-05T08:47:36.91Z</time></trkpt><trkpt lat="43.7463315" lon="12.8114216"><ele>280.0</ele><time>2026-04-05T08:47:37.91Z</time></trkpt><trkpt lat="43.7462827" lon="12.8115914"><ele>280.0</ele><time>2026-04-05T08:47:38.909Z</time></trkpt><trkpt lat="43.7462625" lon="12.8117625"><ele>280.0</ele><time>2026-04-05T08:47:39.91Z</time></trkpt><trkpt lat="43.7462737" lon="12.8119256"><ele>280.0</ele><time>2026-04-05T08:47:40.91Z</time></trkpt><trkpt lat="43.746313" lon="12.8120731"><ele>280.0</ele><time>2026-04-05T08:47:41.91Z</time></trkpt><trkpt lat="43.7463803" lon="12.8122222"><ele>278.3333333333333</ele><time>2026-04-05T08:47:42.91Z</time></trkpt><trkpt lat="43.7464471" lon="12.8123898"><ele>276.6666666666667</ele><time>2026-04-05T08:47:43.909Z</time></trkpt><trkpt lat="43.7465135" lon="12.8125777"><ele>275.0</ele><time>2026-04-05T08:47:44.91Z</time></trkpt><trkpt lat="43.7465904" lon="12.812779"><ele>274.0</ele><time>2026-04-05T08:47:45.911Z</time></trkpt><trkpt lat="43.7466694" lon="12.812979"><ele>273.0</ele><time>2026-04-05T08:47:46.911Z</time></trkpt><trkpt lat="43.7467395" lon="12.8131759"><ele>272.0</ele><time>2026-04-05T08:47:47.91Z</time></trkpt><trkpt lat="43.7468067" lon="12.8133697"><ele>271.75</ele><time>2026-04-05T08:47:48.91Z</time></trkpt><trkpt lat="43.7468757" lon="12.8135499"><ele>271.5</ele><time>2026-04-05T08:47:49.91Z</time></trkpt><trkpt lat="43.7469475" lon="12.8137157"><ele>271.25</ele><time>2026-04-05T08:47:50.91Z</time></trkpt><trkpt lat="43.7470085" lon="12.8138784"><ele>271.0</ele><time>2026-04-05T08:47:51.909Z</time></trkpt><trkpt lat="43.7470528" lon="12.8140372"><ele>270.8</ele><time>2026-04-05T08:47:52.91Z</time></trkpt><trkpt lat="43.7470739" lon="12.8141935"><ele>270.6</ele><time>2026-04-05T08:47:53.91Z</time></trkpt><trkpt lat="43.7470619" lon="12.8143355"><ele>270.4</ele><time>2026-04-05T08:47:54.91Z</time></trkpt><trkpt lat="43.7470265" lon="12.8144716"><ele>270.2</ele><time>2026-04-05T08:47:55.91Z</time></trkpt><trkpt lat="43.7469784" lon="12.8146103"><ele>270.0</ele><time>2026-04-05T08:47:56.909Z</time></trkpt><trkpt lat="43.7469325" lon="12.8147633"><ele>270.0</ele><time>2026-04-05T08:47:57.91Z</time></trkpt><trkpt lat="43.7468946" lon="12.8149165"><ele>270.0</ele><time>2026-04-05T08:47:58.91Z</time></trkpt><trkpt lat="43.7468578" lon="12.815057"><ele>270.0</ele><time>2026-04-05T08:47:59.911Z</time></trkpt><trkpt lat="43.7468203" lon="12.815172"><ele>270.0</ele><time>2026-04-05T08:48:00.91Z</time></trkpt><trkpt lat="43.746784" lon="12.8152529"><ele>270.0</ele><time>2026-04-05T08:48:01.909Z</time></trkpt><trkpt lat="43.7467387" lon="12.8153247"><ele>270.0</ele><time>2026-04-05T08:48:02.91Z</time></trkpt><trkpt lat="43.7466756" lon="12.8153976"><ele>270.0</ele><time>2026-04-05T08:48:03.909Z</time></trkpt><trkpt lat="43.746607" lon="12.8154837"><ele>270.0</ele><time>2026-04-05T08:48:04.911Z</time></trkpt><trkpt lat="43.7465477" lon="12.8156035"><ele>270.0</ele><time>2026-04-05T08:48:05.91Z</time></trkpt><trkpt lat="43.7464947" lon="12.8157466"><ele>270.0</ele><time>2026-04-05T08:48:06.91Z</time></trkpt><trkpt lat="43.7464629" lon="12.8159184"><ele>269.6666666666667</ele><time>2026-04-05T08:48:07.91Z</time></trkpt><trkpt lat="43.7464571" lon="12.8161221"><ele>269.33333333333337</ele><time>2026-04-05T08:48:08.91Z</time></trkpt><trkpt lat="43.7464581" lon="12.816348"><ele>269.0</ele><time>2026-04-05T08:48:09.91Z</time></trkpt><trkpt lat="43.7464591" lon="12.816589"><ele>270.0</ele><time>2026-04-05T08:48:10.91Z</time></trkpt><trkpt lat="43.7464564" lon="12.8168318"><ele>271.0</ele><time>2026-04-05T08:48:11.91Z</time></trkpt><trkpt lat="43.7464553" lon="12.8170802"><ele>272.0</ele><time>2026-04-05T08:48:12.91Z</time></trkpt><trkpt lat="43.7464558" lon="12.8173377"><ele>272.0</ele><time>2026-04-05T08:48:13.91Z</time></trkpt><trkpt lat="43.7464546" lon="12.8175951"><ele>272.0</ele><time>2026-04-05T08:48:14.909Z</time></trkpt><trkpt lat="43.7464578" lon="12.8178425"><ele>272.0</ele><time>2026-04-05T08:48:15.91Z</time></trkpt><trkpt lat="43.7464789" lon="12.8180806"><ele>272.6666666666667</ele><time>2026-04-05T08:48:16.91Z</time></trkpt><trkpt lat="43.7465312" lon="12.8183142"><ele>273.3333333333333</ele><time>2026-04-05T08:48:17.909Z</time></trkpt><trkpt lat="43.7466145" lon="12.818543"><ele>274.0</ele><time>2026-04-05T08:48:18.91Z</time></trkpt><trkpt lat="43.7467219" lon="12.8187672"><ele>276.66666666666663</ele><time>2026-04-05T08:48:19.91Z</time></trkpt><trkpt lat="43.7468312" lon="12.8189761"><ele>279.3333333333333</ele><time>2026-04-05T08:48:20.909Z</time></trkpt><trkpt lat="43.7469287" lon="12.819168"><ele>282.0</ele><time>2026-04-05T08:48:21.91Z</time></trkpt><trkpt lat="43.7470181" lon="12.8193493"><ele>277.75</ele><time>2026-04-05T08:48:22.91Z</time></trkpt><trkpt lat="43.7470955" lon="12.8195246"><ele>273.5</ele><time>2026-04-05T08:48:23.91Z</time></trkpt><trkpt lat="43.7471494" lon="12.8196941"><ele>269.25</ele><time>2026-04-05T08:48:24.909Z</time></trkpt><trkpt lat="43.7471684" lon="12.819871"><ele>265.0</ele><time>2026-04-05T08:48:25.911Z</time></trkpt><trkpt lat="43.7471493" lon="12.8200608"><ele>263.3333333333333</ele><time>2026-04-05T08:48:26.91Z</time></trkpt><trkpt lat="43.7470898" lon="12.820247"><ele>261.6666666666667</ele><time>2026-04-05T08:48:27.91Z</time></trkpt><trkpt lat="43.7470017" lon="12.8204414"><ele>260.0</ele><time>2026-04-05T08:48:28.91Z</time></trkpt><trkpt lat="43.746903" lon="12.8206525"><ele>266.33333333333337</ele><time>2026-04-05T08:48:29.909Z</time></trkpt><trkpt lat="43.7468004" lon="12.8208831"><ele>272.6666666666667</ele><time>2026-04-05T08:48:30.91Z</time></trkpt><trkpt lat="43.7467013" lon="12.8211165"><ele>279.0</ele><time>2026-04-05T08:48:31.91Z</time></trkpt><trkpt lat="43.7466273" lon="12.8213505"><ele>279.0</ele><time>2026-04-05T08:48:32.909Z</time></trkpt><trkpt lat="43.7465877" lon="12.821601"><ele>279.0</ele><time>2026-04-05T08:48:33.911Z</time></trkpt><trkpt lat="43.7465677" lon="12.8218625"><ele>279.0</ele><time>2026-04-05T08:48:34.91Z</time></trkpt><trkpt lat="43.7465478" lon="12.8221351"><ele>277.3333333333333</ele><time>2026-04-05T08:48:35.909Z</time></trkpt><trkpt lat="43.7465292" lon="12.8224165"><ele>275.66666666666663</ele><time>2026-04-05T08:48:36.91Z</time></trkpt><trkpt lat="43.7465143" lon="12.8226932"><ele>274.0</ele><time>2026-04-05T08:48:37.91Z</time></trkpt><trkpt lat="43.7464969" lon="12.8229452"><ele>272.66666666666663</ele><time>2026-04-05T08:48:38.91Z</time></trkpt><trkpt lat="43.7464814" lon="12.8231803"><ele>271.3333333333333</ele><time>2026-04-05T08:48:39.909Z</time></trkpt><trkpt lat="43.7464514" lon="12.8233951"><ele>270.0</ele><time>2026-04-05T08:48:40.91Z</time></trkpt><trkpt lat="43.7463983" lon="12.8235991"><ele>268.6666666666667</ele><time>2026-04-05T08:48:41.91Z</time></trkpt><trkpt lat="43.7463293" lon="12.8238069"><ele>267.33333333333337</ele><time>2026-04-05T08:48:42.909Z</time></trkpt><trkpt lat="43.746249" lon="12.8240199"><ele>266.0</ele><time>2026-04-05T08:48:43.91Z</time></trkpt><trkpt lat="43.7461636" lon="12.8242396"><ele>265.0</ele><time>2026-04-05T08:48:44.91Z</time></trkpt><trkpt lat="43.7460692" lon="12.8244645"><ele>264.0</ele><time>2026-04-05T08:48:45.91Z</time></trkpt><trkpt lat="43.7459701" lon="12.8246976"><ele>263.0</ele><time>2026-04-05T08:48:46.911Z</time></trkpt><trkpt lat="43.7458698" lon="12.8249367"><ele>266.6666666666667</ele><time>2026-04-05T08:48:47.91Z</time></trkpt><trkpt lat="43.7457688" lon="12.8251804"><ele>270.3333333333333</ele><time>2026-04-05T08:48:48.91Z</time></trkpt><trkpt lat="43.7456712" lon="12.8254183"><ele>274.0</ele><time>2026-04-05T08:48:49.91Z</time></trkpt><trkpt lat="43.74558" lon="12.8256345"><ele>274.0</ele><time>2026-04-05T08:48:50.91Z</time></trkpt><trkpt lat="43.7454965" lon="12.8258364"><ele>274.0</ele><time>2026-04-05T08:48:51.909Z</time></trkpt><trkpt lat="43.7454177" lon="12.826028"><ele>274.0</ele><time>2026-04-05T08:48:52.91Z</time></trkpt><trkpt lat="43.7453429" lon="12.8262099"><ele>274.25</ele><time>2026-04-05T08:48:53.91Z</time></trkpt><trkpt lat="43.7452722" lon="12.8263765"><ele>274.5</ele><time>2026-04-05T08:48:54.91Z</time></trkpt><trkpt lat="43.745207" lon="12.826523"><ele>274.75</ele><time>2026-04-05T08:48:55.91Z</time></trkpt><trkpt lat="43.7451484" lon="12.8266433"><ele>275.0</ele><time>2026-04-05T08:48:56.91Z</time></trkpt><trkpt lat="43.7450924" lon="12.8267348"><ele>275.0</ele><time>2026-04-05T08:48:57.91Z</time></trkpt><trkpt lat="43.7450301" lon="12.8267828"><ele>275.0</ele><time>2026-04-05T08:48:58.909Z</time></trkpt><trkpt lat="43.7449417" lon="12.8269242"><ele>275.0</ele><time>2026-04-05T08:49:00.91Z</time></trkpt><trkpt lat="43.7449081" lon="12.8270488"><ele>275.0</ele><time>2026-04-05T08:49:01.91Z</time></trkpt><trkpt lat="43.7448825" lon="12.8271946"><ele>275.0</ele><time>2026-04-05T08:49:02.91Z</time></trkpt><trkpt lat="43.7448653" lon="12.8273653"><ele>274.25</ele><time>2026-04-05T08:49:03.909Z</time></trkpt><trkpt lat="43.7448394" lon="12.8275519"><ele>273.5</ele><time>2026-04-05T08:49:04.91Z</time></trkpt><trkpt lat="43.7448072" lon="12.827752"><ele>272.75</ele><time>2026-04-05T08:49:05.91Z</time></trkpt><trkpt lat="43.7447767" lon="12.8279668"><ele>272.0</ele><time>2026-04-05T08:49:06.91Z</time></trkpt><trkpt lat="43.7447481" lon="12.8281826"><ele>271.75</ele><time>2026-04-05T08:49:07.91Z</time></trkpt><trkpt lat="43.7447188" lon="12.8283791"><ele>271.5</ele><time>2026-04-05T08:49:08.909Z</time></trkpt><trkpt lat="43.7446906" lon="12.8285656"><ele>271.25</ele><time>2026-04-05T08:49:09.911Z</time></trkpt><trkpt lat="43.7446673" lon="12.8287401"><ele>271.0</ele><time>2026-04-05T08:49:10.91Z</time></trkpt><trkpt lat="43.7446362" lon="12.8289059"><ele>270.75</ele><time>2026-04-05T08:49:11.911Z</time></trkpt><trkpt lat="43.7445868" lon="12.8290691"><ele>270.5</ele><time>2026-04-05T08:49:12.909Z</time></trkpt><trkpt lat="43.74452" lon="12.8292331"><ele>270.25</ele><time>2026-04-05T08:49:13.91Z</time></trkpt><trkpt lat="43.7444461" lon="12.8293991"><ele>270.0</ele><time>2026-04-05T08:49:14.91Z</time></trkpt><trkpt lat="43.744369" lon="12.8295734"><ele>270.0</ele><time>2026-04-05T08:49:15.909Z</time></trkpt><trkpt lat="43.7442877" lon="12.8297539"><ele>270.0</ele><time>2026-04-05T08:49:16.911Z</time></trkpt><trkpt lat="43.7442039" lon="12.8299442"><ele>270.0</ele><time>2026-04-05T08:49:17.91Z</time></trkpt><trkpt lat="43.7441138" lon="12.8301372"><ele>271.6666666666667</ele><time>2026-04-05T08:49:18.91Z</time></trkpt><trkpt lat="43.7440129" lon="12.8303251"><ele>273.33333333333337</ele><time>2026-04-05T08:49:19.91Z</time></trkpt><trkpt lat="43.7439012" lon="12.8305097"><ele>275.0</ele><time>2026-04-05T08:49:20.91Z</time></trkpt><trkpt lat="43.7437893" lon="12.8307071"><ele>275.0</ele><time>2026-04-05T08:49:21.91Z</time></trkpt><trkpt lat="43.7436987" lon="12.8309137"><ele>275.0</ele><time>2026-04-05T08:49:22.91Z</time></trkpt><trkpt lat="43.7436276" lon="12.8311104"><ele>275.0</ele><time>2026-04-05T08:49:23.91Z</time></trkpt><trkpt lat="43.7435658" lon="12.8312996"><ele>272.75</ele><time>2026-04-05T08:49:24.91Z</time></trkpt><trkpt lat="43.7435057" lon="12.831476"><ele>270.5</ele><time>2026-04-05T08:49:25.909Z</time></trkpt><trkpt lat="43.7434423" lon="12.8316412"><ele>268.25</ele><time>2026-04-05T08:49:26.909Z</time></trkpt><trkpt lat="43.7433839" lon="12.8318104"><ele>266.0</ele><time>2026-04-05T08:49:27.91Z</time></trkpt><trkpt lat="43.7433351" lon="12.8319855"><ele>265.75</ele><time>2026-04-05T08:49:28.91Z</time></trkpt><trkpt lat="43.7433031" lon="12.8321687"><ele>265.5</ele><time>2026-04-05T08:49:29.91Z</time></trkpt><trkpt lat="43.7432836" lon="12.8323611"><ele>265.25</ele><time>2026-04-05T08:49:30.909Z</time></trkpt><trkpt lat="43.7432727" lon="12.8325584"><ele>265.0</ele><time>2026-04-05T08:49:31.91Z</time></trkpt><trkpt lat="43.7432754" lon="12.8327485"><ele>264.5</ele><time>2026-04-05T08:49:32.91Z</time></trkpt><trkpt lat="43.7432772" lon="12.8329374"><ele>264.0</ele><time>2026-04-05T08:49:33.91Z</time></trkpt><trkpt lat="43.7432726" lon="12.8331237"><ele>263.5</ele><time>2026-04-05T08:49:34.91Z</time></trkpt><trkpt lat="43.7432553" lon="12.8333017"><ele>263.0</ele><time>2026-04-05T08:49:35.91Z</time></trkpt><trkpt lat="43.7432071" lon="12.8334599"><ele>263.5</ele><time>2026-04-05T08:49:36.91Z</time></trkpt><trkpt lat="43.7431253" lon="12.8336025"><ele>264.0</ele><time>2026-04-05T08:49:37.91Z</time></trkpt><trkpt lat="43.7430158" lon="12.8337078"><ele>264.5</ele><time>2026-04-05T08:49:38.91Z</time></trkpt><trkpt lat="43.7428937" lon="12.8337502"><ele>265.0</ele><time>2026-04-05T08:49:39.909Z</time></trkpt><trkpt lat="43.7427569" lon="12.833756"><ele>264.66666666666663</ele><time>2026-04-05T08:49:40.91Z</time></trkpt><trkpt lat="43.7426139" lon="12.8337503"><ele>264.3333333333333</ele><time>2026-04-05T08:49:41.91Z</time></trkpt><trkpt lat="43.7424579" lon="12.8337472"><ele>264.0</ele><time>2026-04-05T08:49:42.91Z</time></trkpt><trkpt lat="43.7422965" lon="12.8337323"><ele>264.0</ele><time>2026-04-05T08:49:43.911Z</time></trkpt><trkpt lat="43.7421346" lon="12.8337086"><ele>264.0</ele><time>2026-04-05T08:49:44.909Z</time></trkpt><trkpt lat="43.7419787" lon="12.8336945"><ele>264.0</ele><time>2026-04-05T08:49:45.911Z</time></trkpt><trkpt lat="43.7418267" lon="12.8336823"><ele>261.75</ele><time>2026-04-05T08:49:46.91Z</time></trkpt><trkpt lat="43.7416783" lon="12.8336644"><ele>259.5</ele><time>2026-04-05T08:49:47.909Z</time></trkpt><trkpt lat="43.7415326" lon="12.8336602"><ele>257.25</ele><time>2026-04-05T08:49:48.909Z</time></trkpt><trkpt lat="43.7413958" lon="12.8336734"><ele>255.0</ele><time>2026-04-05T08:49:49.909Z</time></trkpt><trkpt lat="43.7412666" lon="12.8337125"><ele>255.0</ele><time>2026-04-05T08:49:50.911Z</time></trkpt><trkpt lat="43.7411436" lon="12.8337886"><ele>255.0</ele><time>2026-04-05T08:49:51.909Z</time></trkpt><trkpt lat="43.7410145" lon="12.8338828"><ele>255.0</ele><time>2026-04-05T08:49:52.91Z</time></trkpt><trkpt lat="43.7408826" lon="12.8339894"><ele>255.0</ele><time>2026-04-05T08:49:53.91Z</time></trkpt><trkpt lat="43.7407532" lon="12.834096"><ele>253.25</ele><time>2026-04-05T08:49:54.909Z</time></trkpt><trkpt lat="43.7406223" lon="12.8341834"><ele>251.5</ele><time>2026-04-05T08:49:55.91Z</time></trkpt><trkpt lat="43.7404845" lon="12.8342424"><ele>249.75</ele><time>2026-04-05T08:49:56.91Z</time></trkpt><trkpt lat="43.7403341" lon="12.8342723"><ele>248.0</ele><time>2026-04-05T08:49:57.91Z</time></trkpt><trkpt lat="43.7401711" lon="12.8343018"><ele>243.66666666666669</ele><time>2026-04-05T08:49:58.911Z</time></trkpt><trkpt lat="43.7399997" lon="12.8343318"><ele>239.33333333333331</ele><time>2026-04-05T08:49:59.91Z</time></trkpt><trkpt lat="43.7398224" lon="12.8343605"><ele>235.0</ele><time>2026-04-05T08:50:00.91Z</time></trkpt><trkpt lat="43.7396527" lon="12.8343941"><ele>235.0</ele><time>2026-04-05T08:50:01.91Z</time></trkpt><trkpt lat="43.7394964" lon="12.8344222"><ele>235.0</ele><time>2026-04-05T08:50:02.91Z</time></trkpt><trkpt lat="43.739348" lon="12.8344317"><ele>235.0</ele><time>2026-04-05T08:50:03.91Z</time></trkpt><trkpt lat="43.7392018" lon="12.8344139"><ele>235.0</ele><time>2026-04-05T08:50:04.91Z</time></trkpt><trkpt lat="43.7390584" lon="12.834366"><ele>235.0</ele><time>2026-04-05T08:50:05.911Z</time></trkpt><trkpt lat="43.7389251" lon="12.8342933"><ele>235.0</ele><time>2026-04-05T08:50:06.911Z</time></trkpt><trkpt lat="43.7388026" lon="12.8342228"><ele>235.0</ele><time>2026-04-05T08:50:07.91Z</time></trkpt><trkpt lat="43.7386745" lon="12.834193"><ele>236.75</ele><time>2026-04-05T08:50:08.91Z</time></trkpt><trkpt lat="43.7385347" lon="12.8342068"><ele>238.5</ele><time>2026-04-05T08:50:09.91Z</time></trkpt><trkpt lat="43.7383943" lon="12.8342628"><ele>240.25</ele><time>2026-04-05T08:50:10.91Z</time></trkpt><trkpt lat="43.7382478" lon="12.8343505"><ele>242.0</ele><time>2026-04-05T08:50:11.909Z</time></trkpt><trkpt lat="43.7381134" lon="12.834439"><ele>243.0</ele><time>2026-04-05T08:50:12.91Z</time></trkpt><trkpt lat="43.7379877" lon="12.8345231"><ele>244.0</ele><time>2026-04-05T08:50:13.909Z</time></trkpt><trkpt lat="43.7378715" lon="12.8345981"><ele>245.0</ele><time>2026-04-05T08:50:14.91Z</time></trkpt><trkpt lat="43.7377619" lon="12.8346791"><ele>246.0</ele><time>2026-04-05T08:50:15.91Z</time></trkpt><trkpt lat="43.7376844" lon="12.8348091"><ele>246.0</ele><time>2026-04-05T08:50:16.91Z</time></trkpt><trkpt lat="43.7375995" lon="12.8349425"><ele>246.0</ele><time>2026-04-05T08:50:17.91Z</time></trkpt><trkpt lat="43.7375111" lon="12.8350795"><ele>246.0</ele><time>2026-04-05T08:50:18.91Z</time></trkpt><trkpt lat="43.7374125" lon="12.835214"><ele>246.0</ele><time>2026-04-05T08:50:19.909Z</time></trkpt><trkpt lat="43.7372906" lon="12.8353273"><ele>246.0</ele><time>2026-04-05T08:50:20.91Z</time></trkpt><trkpt lat="43.7371627" lon="12.8354203"><ele>246.0</ele><time>2026-04-05T08:50:21.91Z</time></trkpt><trkpt lat="43.7370499" lon="12.8355233"><ele>246.0</ele><time>2026-04-05T08:50:22.909Z</time></trkpt><trkpt lat="43.7369388" lon="12.8356167"><ele>246.0</ele><time>2026-04-05T08:50:23.91Z</time></trkpt><trkpt lat="43.7368293" lon="12.8356786"><ele>245.75</ele><time>2026-04-05T08:50:24.91Z</time></trkpt><trkpt lat="43.7367193" lon="12.835699"><ele>245.5</ele><time>2026-04-05T08:50:25.91Z</time></trkpt><trkpt lat="43.7366052" lon="12.8356662"><ele>245.25</ele><time>2026-04-05T08:50:26.909Z</time></trkpt><trkpt lat="43.7364929" lon="12.8355867"><ele>245.0</ele><time>2026-04-05T08:50:27.909Z</time></trkpt><trkpt lat="43.7363816" lon="12.8354741"><ele>245.0</ele><time>2026-04-05T08:50:28.908Z</time></trkpt><trkpt lat="43.7362621" lon="12.8353631"><ele>245.0</ele><time>2026-04-05T08:50:29.909Z</time></trkpt><trkpt lat="43.7361377" lon="12.8352464"><ele>245.0</ele><time>2026-04-05T08:50:30.909Z</time></trkpt><trkpt lat="43.7360181" lon="12.8351084"><ele>247.0</ele><time>2026-04-05T08:50:31.909Z</time></trkpt><trkpt lat="43.7359005" lon="12.8349688"><ele>249.0</ele><time>2026-04-05T08:50:32.909Z</time></trkpt><trkpt lat="43.7357911" lon="12.8348415"><ele>251.0</ele><time>2026-04-05T08:50:33.909Z</time></trkpt><trkpt lat="43.7356927" lon="12.8347264"><ele>253.0</ele><time>2026-04-05T08:50:34.909Z</time></trkpt><trkpt lat="43.7355993" lon="12.834629"><ele>253.0</ele><time>2026-04-05T08:50:35.909Z</time></trkpt><trkpt lat="43.7355069" lon="12.8345585"><ele>253.0</ele><time>2026-04-05T08:50:36.908Z</time></trkpt><trkpt lat="43.7354192" lon="12.834512"><ele>253.0</ele><time>2026-04-05T08:50:37.909Z</time></trkpt><trkpt lat="43.7353474" lon="12.8345027"><ele>253.0</ele><time>2026-04-05T08:50:38.91Z</time></trkpt><trkpt lat="43.7352488" lon="12.8345343"><ele>253.0</ele><time>2026-04-05T08:50:40.909Z</time></trkpt><trkpt lat="43.7351296" lon="12.8346046"><ele>253.8</ele><time>2026-04-05T08:50:42.91Z</time></trkpt><trkpt lat="43.7350561" lon="12.8346468"><ele>254.60000000000002</ele><time>2026-04-05T08:50:43.908Z</time></trkpt><trkpt lat="43.7349724" lon="12.8346969"><ele>255.39999999999998</ele><time>2026-04-05T08:50:44.909Z</time></trkpt><trkpt lat="43.7348783" lon="12.8347499"><ele>256.2</ele><time>2026-04-05T08:50:45.909Z</time></trkpt><trkpt lat="43.7347783" lon="12.8348174"><ele>257.0</ele><time>2026-04-05T08:50:46.909Z</time></trkpt><trkpt lat="43.7346722" lon="12.8348929"><ele>257.0</ele><time>2026-04-05T08:50:47.909Z</time></trkpt><trkpt lat="43.7345628" lon="12.8349682"><ele>257.0</ele><time>2026-04-05T08:50:48.909Z</time></trkpt><trkpt lat="43.7344521" lon="12.8350453"><ele>257.0</ele><time>2026-04-05T08:50:49.909Z</time></trkpt><trkpt lat="43.7343458" lon="12.8351159"><ele>257.0</ele><time>2026-04-05T08:50:50.908Z</time></trkpt><trkpt lat="43.7342411" lon="12.8351758"><ele>256.1666666666667</ele><time>2026-04-05T08:50:51.909Z</time></trkpt><trkpt lat="43.7341417" lon="12.8352276"><ele>255.33333333333334</ele><time>2026-04-05T08:50:52.909Z</time></trkpt><trkpt lat="43.7340653" lon="12.8352644"><ele>254.5</ele><time>2026-04-05T08:50:53.909Z</time></trkpt><trkpt lat="43.7339862" lon="12.8352878"><ele>253.66666666666669</ele><time>2026-04-05T08:51:01.908Z</time></trkpt><trkpt lat="43.733891" lon="12.8352929"><ele>252.83333333333334</ele><time>2026-04-05T08:51:04.909Z</time></trkpt><trkpt lat="43.7338269" lon="12.8352983"><ele>252.0</ele><time>2026-04-05T08:51:05.909Z</time></trkpt><trkpt lat="43.7337492" lon="12.8352821"><ele>252.0</ele><time>2026-04-05T08:51:06.909Z</time></trkpt><trkpt lat="43.7336575" lon="12.8352348"><ele>252.0</ele><time>2026-04-05T08:51:07.909Z</time></trkpt><trkpt lat="43.7335527" lon="12.8351749"><ele>252.0</ele><time>2026-04-05T08:51:08.91Z</time></trkpt><trkpt lat="43.7334424" lon="12.8351106"><ele>252.0</ele><time>2026-04-05T08:51:09.908Z</time></trkpt><trkpt lat="43.7333399" lon="12.8350467"><ele>252.0</ele><time>2026-04-05T08:51:10.91Z</time></trkpt><trkpt lat="43.7332359" lon="12.8349974"><ele>249.5</ele><time>2026-04-05T08:51:11.909Z</time></trkpt><trkpt lat="43.7331313" lon="12.834986"><ele>247.0</ele><time>2026-04-05T08:51:12.908Z</time></trkpt><trkpt lat="43.733021" lon="12.8350083"><ele>244.5</ele><time>2026-04-05T08:51:13.91Z</time></trkpt><trkpt lat="43.7328999" lon="12.8350693"><ele>242.0</ele><time>2026-04-05T08:51:14.909Z</time></trkpt><trkpt lat="43.7327784" lon="12.8351337"><ele>239.8</ele><time>2026-04-05T08:51:15.909Z</time></trkpt><trkpt lat="43.7326652" lon="12.8351986"><ele>237.6</ele><time>2026-04-05T08:51:16.908Z</time></trkpt><trkpt lat="43.7325666" lon="12.8352885"><ele>235.40000000000003</ele><time>2026-04-05T08:51:17.908Z</time></trkpt><trkpt lat="43.7324989" lon="12.8353889"><ele>233.20000000000002</ele><time>2026-04-05T08:51:18.908Z</time></trkpt><trkpt lat="43.732453" lon="12.8354869"><ele>231.0</ele><time>2026-04-05T08:51:19.909Z</time></trkpt><trkpt lat="43.7323971" lon="12.8355574"><ele>231.0</ele><time>2026-04-05T08:51:20.909Z</time></trkpt><trkpt lat="43.7323201" lon="12.8355953"><ele>231.00000000000003</ele><time>2026-04-05T08:51:21.909Z</time></trkpt><trkpt lat="43.7322171" lon="12.83561"><ele>231.00000000000003</ele><time>2026-04-05T08:51:22.909Z</time></trkpt><trkpt lat="43.7321215" lon="12.8356085"><ele>231.0</ele><time>2026-04-05T08:51:23.908Z</time></trkpt><trkpt lat="43.732034" lon="12.8355784"><ele>231.0</ele><time>2026-04-05T08:51:24.91Z</time></trkpt><trkpt lat="43.7319417" lon="12.8355259"><ele>227.75</ele><time>2026-04-05T08:51:25.909Z</time></trkpt><trkpt lat="43.7318545" lon="12.8354529"><ele>224.5</ele><time>2026-04-05T08:51:26.909Z</time></trkpt><trkpt lat="43.7317616" lon="12.8353716"><ele>221.25</ele><time>2026-04-05T08:51:27.91Z</time></trkpt><trkpt lat="43.7316686" lon="12.8352711"><ele>218.0</ele><time>2026-04-05T08:51:28.909Z</time></trkpt><trkpt lat="43.731568" lon="12.8351417"><ele>217.66666666666669</ele><time>2026-04-05T08:51:29.909Z</time></trkpt><trkpt lat="43.7314567" lon="12.8349967"><ele>217.33333333333331</ele><time>2026-04-05T08:51:30.909Z</time></trkpt><trkpt lat="43.7313339" lon="12.8348589"><ele>217.0</ele><time>2026-04-05T08:51:31.91Z</time></trkpt><trkpt lat="43.7312054" lon="12.8347355"><ele>217.0</ele><time>2026-04-05T08:51:32.91Z</time></trkpt><trkpt lat="43.7310786" lon="12.834611"><ele>217.0</ele><time>2026-04-05T08:51:33.909Z</time></trkpt><trkpt lat="43.7309529" lon="12.8344926"><ele>217.0</ele><time>2026-04-05T08:51:34.909Z</time></trkpt><trkpt lat="43.7308253" lon="12.834397"><ele>213.75</ele><time>2026-04-05T08:51:35.909Z</time></trkpt><trkpt lat="43.7307033" lon="12.8343176"><ele>210.5</ele><time>2026-04-05T08:51:36.909Z</time></trkpt><trkpt lat="43.7305754" lon="12.8342509"><ele>207.25</ele><time>2026-04-05T08:51:37.909Z</time></trkpt><trkpt lat="43.7304331" lon="12.834185"><ele>204.0</ele><time>2026-04-05T08:51:38.908Z</time></trkpt><trkpt lat="43.7302792" lon="12.834111"><ele>198.0</ele><time>2026-04-05T08:51:39.909Z</time></trkpt><trkpt lat="43.7301168" lon="12.8340373"><ele>192.0</ele><time>2026-04-05T08:51:40.909Z</time></trkpt><trkpt lat="43.7299461" lon="12.8339677"><ele>186.0</ele><time>2026-04-05T08:51:41.909Z</time></trkpt><trkpt lat="43.7297856" lon="12.8339073"><ele>186.0</ele><time>2026-04-05T08:51:42.91Z</time></trkpt><trkpt lat="43.7296329" lon="12.8338395"><ele>186.0</ele><time>2026-04-05T08:51:43.909Z</time></trkpt><trkpt lat="43.7294934" lon="12.8337539"><ele>186.0</ele><time>2026-04-05T08:51:44.91Z</time></trkpt><trkpt lat="43.7293546" lon="12.8336273"><ele>183.0</ele><time>2026-04-05T08:51:45.909Z</time></trkpt><trkpt lat="43.7292196" lon="12.8334721"><ele>180.0</ele><time>2026-04-05T08:51:46.909Z</time></trkpt><trkpt lat="43.7290729" lon="12.8333171"><ele>177.0</ele><time>2026-04-05T08:51:47.909Z</time></trkpt><trkpt lat="43.7289206" lon="12.8331572"><ele>177.0</ele><time>2026-04-05T08:51:48.908Z</time></trkpt><trkpt lat="43.7287862" lon="12.8330045"><ele>177.0</ele><time>2026-04-05T08:51:49.908Z</time></trkpt><trkpt lat="43.7286573" lon="12.8328611"><ele>177.0</ele><time>2026-04-05T08:51:50.908Z</time></trkpt><trkpt lat="43.7285282" lon="12.8327241"><ele>174.0</ele><time>2026-04-05T08:51:51.909Z</time></trkpt><trkpt lat="43.7283937" lon="12.8326018"><ele>171.0</ele><time>2026-04-05T08:51:52.91Z</time></trkpt><trkpt lat="43.7282477" lon="12.8324892"><ele>168.0</ele><time>2026-04-05T08:51:53.909Z</time></trkpt><trkpt lat="43.7280929" lon="12.8323768"><ele>168.0</ele><time>2026-04-05T08:51:54.908Z</time></trkpt><trkpt lat="43.7279336" lon="12.8322621"><ele>168.0</ele><time>2026-04-05T08:51:55.909Z</time></trkpt><trkpt lat="43.7277686" lon="12.8321493"><ele>168.0</ele><time>2026-04-05T08:51:56.909Z</time></trkpt><trkpt lat="43.7276081" lon="12.8320505"><ele>165.0</ele><time>2026-04-05T08:51:57.909Z</time></trkpt><trkpt lat="43.7274487" lon="12.8319724"><ele>162.0</ele><time>2026-04-05T08:51:58.909Z</time></trkpt><trkpt lat="43.7272922" lon="12.831903"><ele>159.0</ele><time>2026-04-05T08:51:59.909Z</time></trkpt><trkpt lat="43.7271363" lon="12.8318402"><ele>158.0</ele><time>2026-04-05T08:52:00.91Z</time></trkpt><trkpt lat="43.7269855" lon="12.8317827"><ele>157.0</ele><time>2026-04-05T08:52:01.909Z</time></trkpt><trkpt lat="43.7268301" lon="12.8317407"><ele>156.0</ele><time>2026-04-05T08:52:02.909Z</time></trkpt><trkpt lat="43.7266721" lon="12.8317227"><ele>153.5</ele><time>2026-04-05T08:52:03.909Z</time></trkpt><trkpt lat="43.7265235" lon="12.8317235"><ele>151.0</ele><time>2026-04-05T08:52:04.908Z</time></trkpt><trkpt lat="43.7263956" lon="12.8317404"><ele>148.5</ele><time>2026-04-05T08:52:05.909Z</time></trkpt><trkpt lat="43.7262923" lon="12.8317569"><ele>146.0</ele><time>2026-04-05T08:52:06.909Z</time></trkpt><trkpt lat="43.7262109" lon="12.8317763"><ele>146.0</ele><time>2026-04-05T08:52:07.91Z</time></trkpt><trkpt lat="43.7261497" lon="12.8317971"><ele>146.0</ele><time>2026-04-05T08:52:08.908Z</time></trkpt><trkpt lat="43.7260723" lon="12.8318144"><ele>146.0</ele><time>2026-04-05T08:52:10.909Z</time></trkpt><trkpt lat="43.7260159" lon="12.8317725"><ele>146.0</ele><time>2026-04-05T08:52:12.908Z</time></trkpt><trkpt lat="43.7259692" lon="12.8315788"><ele>146.0</ele><time>2026-04-05T08:52:14.909Z</time></trkpt><trkpt lat="43.7259425" lon="12.8314542"><ele>146.0</ele><time>2026-04-05T08:52:15.91Z</time></trkpt><trkpt lat="43.7259084" lon="12.8312953"><ele>143.0</ele><time>2026-04-05T08:52:16.908Z</time></trkpt><trkpt lat="43.7258733" lon="12.8311109"><ele>140.0</ele><time>2026-04-05T08:52:17.908Z</time></trkpt><trkpt lat="43.7258405" lon="12.83092"><ele>137.0</ele><time>2026-04-05T08:52:18.909Z</time></trkpt><trkpt lat="43.7257967" lon="12.8307186"><ele>134.0</ele><time>2026-04-05T08:52:19.909Z</time></trkpt><trkpt lat="43.7257507" lon="12.8305045"><ele>134.0</ele><time>2026-04-05T08:52:20.91Z</time></trkpt><trkpt lat="43.7257061" lon="12.8302835"><ele>134.0</ele><time>2026-04-05T08:52:21.909Z</time></trkpt><trkpt lat="43.7256618" lon="12.8300615"><ele>134.0</ele><time>2026-04-05T08:52:22.909Z</time></trkpt><trkpt lat="43.7256239" lon="12.8298506"><ele>134.0</ele><time>2026-04-05T08:52:23.909Z</time></trkpt><trkpt lat="43.7255987" lon="12.8296474"><ele>134.0</ele><time>2026-04-05T08:52:24.909Z</time></trkpt><trkpt lat="43.7255999" lon="12.8294492"><ele>134.0</ele><time>2026-04-05T08:52:25.909Z</time></trkpt><trkpt lat="43.7256276" lon="12.8292409"><ele>134.0</ele><time>2026-04-05T08:52:26.909Z</time></trkpt><trkpt lat="43.7256768" lon="12.829031"><ele>134.0</ele><time>2026-04-05T08:52:27.91Z</time></trkpt><trkpt lat="43.7257302" lon="12.8288057"><ele>134.0</ele><time>2026-04-05T08:52:28.909Z</time></trkpt><trkpt lat="43.7257894" lon="12.8285681"><ele>134.0</ele><time>2026-04-05T08:52:29.909Z</time></trkpt><trkpt lat="43.7258542" lon="12.8283195"><ele>134.66666666666666</ele><time>2026-04-05T08:52:30.909Z</time></trkpt><trkpt lat="43.7259217" lon="12.8280653"><ele>135.33333333333334</ele><time>2026-04-05T08:52:31.908Z</time></trkpt><trkpt lat="43.7259976" lon="12.8278045"><ele>136.0</ele><time>2026-04-05T08:52:32.908Z</time></trkpt><trkpt lat="43.7260931" lon="12.8275509"><ele>136.0</ele><time>2026-04-05T08:52:33.908Z</time></trkpt><trkpt lat="43.7262035" lon="12.8273018"><ele>136.0</ele><time>2026-04-05T08:52:34.909Z</time></trkpt><trkpt lat="43.7263164" lon="12.8270535"><ele>136.0</ele><time>2026-04-05T08:52:35.909Z</time></trkpt><trkpt lat="43.7264229" lon="12.8268304"><ele>137.0</ele><time>2026-04-05T08:52:36.909Z</time></trkpt><trkpt lat="43.7265266" lon="12.8266264"><ele>138.0</ele><time>2026-04-05T08:52:37.909Z</time></trkpt><trkpt lat="43.7266237" lon="12.8264341"><ele>139.0</ele><time>2026-04-05T08:52:38.909Z</time></trkpt><trkpt lat="43.7267086" lon="12.8262564"><ele>139.0</ele><time>2026-04-05T08:52:39.909Z</time></trkpt><trkpt lat="43.7267796" lon="12.8261025"><ele>139.0</ele><time>2026-04-05T08:52:40.909Z</time></trkpt><trkpt lat="43.7268267" lon="12.8259546"><ele>139.0</ele><time>2026-04-05T08:52:41.909Z</time></trkpt><trkpt lat="43.7268373" lon="12.8258042"><ele>139.0</ele><time>2026-04-05T08:52:42.908Z</time></trkpt><trkpt lat="43.7267986" lon="12.8256701"><ele>138.75</ele><time>2026-04-05T08:52:43.909Z</time></trkpt><trkpt lat="43.7267157" lon="12.8255579"><ele>138.5</ele><time>2026-04-05T08:52:44.91Z</time></trkpt><trkpt lat="43.7265988" lon="12.8254614"><ele>138.25</ele><time>2026-04-05T08:52:45.909Z</time></trkpt><trkpt lat="43.726464" lon="12.8253585"><ele>138.0</ele><time>2026-04-05T08:52:46.909Z</time></trkpt><trkpt lat="43.7263122" lon="12.8252434"><ele>134.66666666666666</ele><time>2026-04-05T08:52:47.908Z</time></trkpt><trkpt lat="43.7261545" lon="12.8251187"><ele>131.33333333333331</ele><time>2026-04-05T08:52:48.91Z</time></trkpt><trkpt lat="43.7260018" lon="12.8250046"><ele>128.0</ele><time>2026-04-05T08:52:49.909Z</time></trkpt><trkpt lat="43.7258586" lon="12.8248917"><ele>128.0</ele><time>2026-04-05T08:52:50.909Z</time></trkpt><trkpt lat="43.7257335" lon="12.8247744"><ele>128.0</ele><time>2026-04-05T08:52:51.909Z</time></trkpt><trkpt lat="43.7256396" lon="12.8246242"><ele>128.0</ele><time>2026-04-05T08:52:52.909Z</time></trkpt><trkpt lat="43.725573" lon="12.8244451"><ele>128.0</ele><time>2026-04-05T08:52:53.908Z</time></trkpt><trkpt lat="43.7255329" lon="12.8242352"><ele>124.66666666666666</ele><time>2026-04-05T08:52:54.91Z</time></trkpt><trkpt lat="43.7255035" lon="12.8240115"><ele>121.33333333333334</ele><time>2026-04-05T08:52:55.909Z</time></trkpt><trkpt lat="43.7254729" lon="12.8237792"><ele>118.0</ele><time>2026-04-05T08:52:56.909Z</time></trkpt><trkpt lat="43.7254404" lon="12.8235419"><ele>120.0</ele><time>2026-04-05T08:52:57.908Z</time></trkpt><trkpt lat="43.7254101" lon="12.8233015"><ele>122.0</ele><time>2026-04-05T08:52:58.909Z</time></trkpt><trkpt lat="43.7253846" lon="12.8230752"><ele>124.0</ele><time>2026-04-05T08:52:59.908Z</time></trkpt><trkpt lat="43.7253625" lon="12.8228625"><ele>124.0</ele><time>2026-04-05T08:53:00.909Z</time></trkpt><trkpt lat="43.7253408" lon="12.8226648"><ele>124.0</ele><time>2026-04-05T08:53:01.909Z</time></trkpt><trkpt lat="43.7253165" lon="12.8224814"><ele>124.0</ele><time>2026-04-05T08:53:02.908Z</time></trkpt><trkpt lat="43.7252959" lon="12.8223093"><ele>124.0</ele><time>2026-04-05T08:53:03.909Z</time></trkpt><trkpt lat="43.7252807" lon="12.8221486"><ele>124.25</ele><time>2026-04-05T08:53:04.91Z</time></trkpt><trkpt lat="43.7252681" lon="12.8219953"><ele>124.5</ele><time>2026-04-05T08:53:05.909Z</time></trkpt><trkpt lat="43.7252517" lon="12.8218385"><ele>124.75</ele><time>2026-04-05T08:53:06.909Z</time></trkpt><trkpt lat="43.7252294" lon="12.8216793"><ele>125.0</ele><time>2026-04-05T08:53:07.909Z</time></trkpt><trkpt lat="43.7252097" lon="12.8215168"><ele>123.4</ele><time>2026-04-05T08:53:08.908Z</time></trkpt><trkpt lat="43.7251963" lon="12.8213528"><ele>121.8</ele><time>2026-04-05T08:53:09.909Z</time></trkpt><trkpt lat="43.7251893" lon="12.821201"><ele>120.19999999999999</ele><time>2026-04-05T08:53:10.909Z</time></trkpt><trkpt lat="43.7251815" lon="12.8210763"><ele>118.6</ele><time>2026-04-05T08:53:11.909Z</time></trkpt><trkpt lat="43.7251714" lon="12.820982"><ele>117.0</ele><time>2026-04-05T08:53:12.909Z</time></trkpt><trkpt lat="43.7251171" lon="12.8209247"><ele>116.6</ele><time>2026-04-05T08:53:14.91Z</time></trkpt><trkpt lat="43.7251324" lon="12.8210928"><ele>116.19999999999999</ele><time>2026-04-05T08:53:17.909Z</time></trkpt><trkpt lat="43.725154" lon="12.8212101"><ele>115.8</ele><time>2026-04-05T08:53:18.909Z</time></trkpt><trkpt lat="43.72517" lon="12.8213556"><ele>115.4</ele><time>2026-04-05T08:53:19.908Z</time></trkpt><trkpt lat="43.7251918" lon="12.82153"><ele>115.0</ele><time>2026-04-05T08:53:20.909Z</time></trkpt><trkpt lat="43.7252183" lon="12.821727"><ele>118.33333333333334</ele><time>2026-04-05T08:53:21.91Z</time></trkpt><trkpt lat="43.725246" lon="12.8219419"><ele>121.66666666666666</ele><time>2026-04-05T08:53:22.909Z</time></trkpt><trkpt lat="43.7252717" lon="12.8221786"><ele>125.0</ele><time>2026-04-05T08:53:23.909Z</time></trkpt><trkpt lat="43.7252957" lon="12.8224236"><ele>124.66666666666666</ele><time>2026-04-05T08:53:24.909Z</time></trkpt><trkpt lat="43.7253208" lon="12.822657"><ele>124.33333333333334</ele><time>2026-04-05T08:53:25.909Z</time></trkpt><trkpt lat="43.7253449" lon="12.8228655"><ele>124.0</ele><time>2026-04-05T08:53:26.909Z</time></trkpt><trkpt lat="43.7253668" lon="12.8230574"><ele>124.0</ele><time>2026-04-05T08:53:27.91Z</time></trkpt><trkpt lat="43.7253881" lon="12.8232279"><ele>124.0</ele><time>2026-04-05T08:53:28.909Z</time></trkpt><trkpt lat="43.7254033" lon="12.8233721"><ele>124.0</ele><time>2026-04-05T08:53:29.909Z</time></trkpt><trkpt lat="43.7254166" lon="12.8234928"><ele>124.0</ele><time>2026-04-05T08:53:30.91Z</time></trkpt><trkpt lat="43.7254245" lon="12.8235818"><ele>124.0</ele><time>2026-04-05T08:53:31.908Z</time></trkpt><trkpt lat="43.7254312" lon="12.8236848"><ele>124.00000000000001</ele><time>2026-04-05T08:53:34.909Z</time></trkpt><trkpt lat="43.7254828" lon="12.8237583"><ele>124.0</ele><time>2026-04-05T08:53:43.909Z</time></trkpt><trkpt lat="43.7255256" lon="12.8236907"><ele>124.0</ele><time>2026-04-05T08:53:46.909Z</time></trkpt><trkpt lat="43.7255127" lon="12.8235791"><ele>124.0</ele><time>2026-04-05T08:53:48.909Z</time></trkpt><trkpt lat="43.7255205" lon="12.8234401"><ele>124.00000000000001</ele><time>2026-04-05T08:53:50.909Z</time></trkpt><trkpt lat="43.7255757" lon="12.8233121"><ele>124.0</ele><time>2026-04-05T08:53:52.909Z</time></trkpt><trkpt lat="43.725668" lon="12.8232574"><ele>124.0</ele><time>2026-04-05T08:53:54.91Z</time></trkpt><trkpt lat="43.7257736" lon="12.8232114"><ele>124.0</ele><time>2026-04-05T08:53:56.909Z</time></trkpt><trkpt lat="43.7258399" lon="12.8231801"><ele>124.0</ele><time>2026-04-05T08:53:57.909Z</time></trkpt><trkpt lat="43.7259178" lon="12.8231528"><ele>124.0</ele><time>2026-04-05T08:53:58.909Z</time></trkpt><trkpt lat="43.7259907" lon="12.82315"><ele>124.0</ele><time>2026-04-05T08:53:59.909Z</time></trkpt><trkpt lat="43.7261095" lon="12.8231469"><ele>125.85714285714286</ele><time>2026-04-05T08:54:01.909Z</time></trkpt><trkpt lat="43.7261921" lon="12.8231441"><ele>127.71428571428572</ele><time>2026-04-05T08:54:03.909Z</time></trkpt><trkpt lat="43.726257" lon="12.8231493"><ele>129.57142857142858</ele><time>2026-04-05T08:54:05.909Z</time></trkpt><trkpt lat="43.7263397" lon="12.8231558"><ele>131.42857142857144</ele><time>2026-04-05T08:54:08.908Z</time></trkpt><trkpt lat="43.7264066" lon="12.8231592"><ele>133.28571428571428</ele><time>2026-04-05T08:54:10.91Z</time></trkpt><trkpt lat="43.7264843" lon="12.8231661"><ele>135.14285714285717</ele><time>2026-04-05T08:54:12.909Z</time></trkpt><trkpt lat="43.7265492" lon="12.8231975"><ele>137.0</ele><time>2026-04-05T08:54:14.909Z</time></trkpt><trkpt lat="43.7266423" lon="12.8232585"><ele>137.0</ele><time>2026-04-05T08:54:17.908Z</time></trkpt><trkpt lat="43.7267055" lon="12.8232917"><ele>137.0</ele><time>2026-04-05T08:54:18.909Z</time></trkpt><trkpt lat="43.7267613" lon="12.8233336"><ele>137.0</ele><time>2026-04-05T08:54:19.909Z</time></trkpt><trkpt lat="43.7268689" lon="12.8233554"><ele>137.0</ele><time>2026-04-05T08:54:21.91Z</time></trkpt><trkpt lat="43.7269953" lon="12.8233008"><ele>137.0</ele><time>2026-04-05T08:54:23.909Z</time></trkpt><trkpt lat="43.7270826" lon="12.8232759"><ele>137.83333333333331</ele><time>2026-04-05T08:54:24.91Z</time></trkpt><trkpt lat="43.7271723" lon="12.8232568"><ele>138.66666666666666</ele><time>2026-04-05T08:54:25.909Z</time></trkpt><trkpt lat="43.7272431" lon="12.8232237"><ele>139.5</ele><time>2026-04-05T08:54:26.909Z</time></trkpt><trkpt lat="43.7273271" lon="12.8231286"><ele>140.33333333333334</ele><time>2026-04-05T08:54:28.909Z</time></trkpt><trkpt lat="43.7273617" lon="12.8230435"><ele>141.16666666666669</ele><time>2026-04-05T08:54:29.909Z</time></trkpt><trkpt lat="43.7274028" lon="12.8229499"><ele>142.0</ele><time>2026-04-05T08:54:30.909Z</time></trkpt><trkpt lat="43.727456" lon="12.8228541"><ele>142.0</ele><time>2026-04-05T08:54:31.908Z</time></trkpt><trkpt lat="43.7275245" lon="12.8227513"><ele>142.0</ele><time>2026-04-05T08:54:32.908Z</time></trkpt><trkpt lat="43.7276061" lon="12.8226428"><ele>142.0</ele><time>2026-04-05T08:54:33.909Z</time></trkpt><trkpt lat="43.7276939" lon="12.8225305"><ele>142.0</ele><time>2026-04-05T08:54:34.909Z</time></trkpt><trkpt lat="43.7277892" lon="12.8224149"><ele>142.25</ele><time>2026-04-05T08:54:35.909Z</time></trkpt><trkpt lat="43.7278847" lon="12.8222996"><ele>142.5</ele><time>2026-04-05T08:54:36.909Z</time></trkpt><trkpt lat="43.7279769" lon="12.822182"><ele>142.75</ele><time>2026-04-05T08:54:37.91Z</time></trkpt><trkpt lat="43.7280614" lon="12.8220733"><ele>143.0</ele><time>2026-04-05T08:54:38.91Z</time></trkpt><trkpt lat="43.7281419" lon="12.8219742"><ele>143.0</ele><time>2026-04-05T08:54:39.91Z</time></trkpt><trkpt lat="43.7282199" lon="12.8218784"><ele>143.0</ele><time>2026-04-05T08:54:40.909Z</time></trkpt><trkpt lat="43.7283012" lon="12.821781"><ele>143.0</ele><time>2026-04-05T08:54:41.91Z</time></trkpt><trkpt lat="43.7283832" lon="12.8216807"><ele>143.0</ele><time>2026-04-05T08:54:42.909Z</time></trkpt><trkpt lat="43.7284625" lon="12.821568"><ele>143.0</ele><time>2026-04-05T08:54:43.908Z</time></trkpt><trkpt lat="43.7285407" lon="12.8214498"><ele>143.6</ele><time>2026-04-05T08:54:44.909Z</time></trkpt><trkpt lat="43.7286249" lon="12.8213357"><ele>144.20000000000002</ele><time>2026-04-05T08:54:45.909Z</time></trkpt><trkpt lat="43.7287025" lon="12.8212312"><ele>144.8</ele><time>2026-04-05T08:54:46.909Z</time></trkpt><trkpt lat="43.7287821" lon="12.8211419"><ele>145.4</ele><time>2026-04-05T08:54:47.908Z</time></trkpt><trkpt lat="43.728864" lon="12.8210624"><ele>146.0</ele><time>2026-04-05T08:54:48.91Z</time></trkpt><trkpt lat="43.728931" lon="12.8209934"><ele>149.2</ele><time>2026-04-05T08:54:49.909Z</time></trkpt><trkpt lat="43.7289883" lon="12.8209052"><ele>152.39999999999998</ele><time>2026-04-05T08:54:50.909Z</time></trkpt><trkpt lat="43.729029" lon="12.8208025"><ele>155.6</ele><time>2026-04-05T08:54:51.91Z</time></trkpt><trkpt lat="43.7290745" lon="12.8206877"><ele>158.79999999999998</ele><time>2026-04-05T08:54:52.909Z</time></trkpt><trkpt lat="43.7291212" lon="12.8205583"><ele>162.0</ele><time>2026-04-05T08:54:53.909Z</time></trkpt><trkpt lat="43.7291749" lon="12.8204256"><ele>162.0</ele><time>2026-04-05T08:54:54.908Z</time></trkpt><trkpt lat="43.7292261" lon="12.8202833"><ele>162.0</ele><time>2026-04-05T08:54:55.909Z</time></trkpt><trkpt lat="43.7292679" lon="12.8201362"><ele>162.0</ele><time>2026-04-05T08:54:56.908Z</time></trkpt><trkpt lat="43.7293216" lon="12.8199845"><ele>162.0</ele><time>2026-04-05T08:54:57.909Z</time></trkpt><trkpt lat="43.7293797" lon="12.8198394"><ele>161.4</ele><time>2026-04-05T08:54:58.91Z</time></trkpt><trkpt lat="43.7294424" lon="12.8197134"><ele>160.79999999999998</ele><time>2026-04-05T08:54:59.909Z</time></trkpt><trkpt lat="43.7294964" lon="12.8196087"><ele>160.2</ele><time>2026-04-05T08:55:00.909Z</time></trkpt><trkpt lat="43.7295529" lon="12.8195001"><ele>159.6</ele><time>2026-04-05T08:55:01.909Z</time></trkpt><trkpt lat="43.7296234" lon="12.8193829"><ele>159.0</ele><time>2026-04-05T08:55:02.909Z</time></trkpt><trkpt lat="43.7297045" lon="12.8192505"><ele>162.5</ele><time>2026-04-05T08:55:03.91Z</time></trkpt><trkpt lat="43.729783" lon="12.8191126"><ele>166.0</ele><time>2026-04-05T08:55:04.909Z</time></trkpt><trkpt lat="43.7298559" lon="12.8189639"><ele>169.5</ele><time>2026-04-05T08:55:05.909Z</time></trkpt><trkpt lat="43.7299292" lon="12.8187905"><ele>173.0</ele><time>2026-04-05T08:55:06.909Z</time></trkpt><trkpt lat="43.7299888" lon="12.818643"><ele>173.0</ele><time>2026-04-05T08:55:07.909Z</time></trkpt><trkpt lat="43.7300389" lon="12.8185068"><ele>173.0</ele><time>2026-04-05T08:55:08.91Z</time></trkpt><trkpt lat="43.7300937" lon="12.8183732"><ele>173.0</ele><time>2026-04-05T08:55:09.909Z</time></trkpt><trkpt lat="43.7301549" lon="12.8182361"><ele>173.0</ele><time>2026-04-05T08:55:10.909Z</time></trkpt><trkpt lat="43.7302182" lon="12.8180952"><ele>172.75</ele><time>2026-04-05T08:55:11.91Z</time></trkpt><trkpt lat="43.7302824" lon="12.817976"><ele>172.5</ele><time>2026-04-05T08:55:12.908Z</time></trkpt><trkpt lat="43.7303575" lon="12.8178527"><ele>172.25</ele><time>2026-04-05T08:55:13.909Z</time></trkpt><trkpt lat="43.7304381" lon="12.8177223"><ele>172.0</ele><time>2026-04-05T08:55:14.909Z</time></trkpt><trkpt lat="43.7305054" lon="12.8176092"><ele>175.6</ele><time>2026-04-05T08:55:15.909Z</time></trkpt><trkpt lat="43.7305739" lon="12.8175093"><ele>179.2</ele><time>2026-04-05T08:55:16.909Z</time></trkpt><trkpt lat="43.730655" lon="12.8174113"><ele>182.8</ele><time>2026-04-05T08:55:17.908Z</time></trkpt><trkpt lat="43.7307313" lon="12.8173035"><ele>186.4</ele><time>2026-04-05T08:55:18.909Z</time></trkpt><trkpt lat="43.7308052" lon="12.8171853"><ele>190.0</ele><time>2026-04-05T08:55:19.909Z</time></trkpt><trkpt lat="43.7308746" lon="12.8170728"><ele>190.0</ele><time>2026-04-05T08:55:20.908Z</time></trkpt><trkpt lat="43.7309394" lon="12.8169544"><ele>190.0</ele><time>2026-04-05T08:55:21.909Z</time></trkpt><trkpt lat="43.7310019" lon="12.8168346"><ele>190.0</ele><time>2026-04-05T08:55:22.91Z</time></trkpt><trkpt lat="43.7310675" lon="12.816716"><ele>190.0</ele><time>2026-04-05T08:55:23.907Z</time></trkpt><trkpt lat="43.7311236" lon="12.8165794"><ele>190.0</ele><time>2026-04-05T08:55:24.907Z</time></trkpt><trkpt lat="43.7311749" lon="12.8164317"><ele>189.8</ele><time>2026-04-05T08:55:25.908Z</time></trkpt><trkpt lat="43.7312281" lon="12.8162842"><ele>189.6</ele><time>2026-04-05T08:55:26.909Z</time></trkpt><trkpt lat="43.731282" lon="12.8161599"><ele>189.39999999999998</ele><time>2026-04-05T08:55:27.908Z</time></trkpt><trkpt lat="43.7313435" lon="12.8160665"><ele>189.2</ele><time>2026-04-05T08:55:28.908Z</time></trkpt><trkpt lat="43.7314208" lon="12.8159896"><ele>189.0</ele><time>2026-04-05T08:55:29.908Z</time></trkpt><trkpt lat="43.7315129" lon="12.8159119"><ele>192.39999999999998</ele><time>2026-04-05T08:55:30.908Z</time></trkpt><trkpt lat="43.7315919" lon="12.8158403"><ele>195.8</ele><time>2026-04-05T08:55:31.908Z</time></trkpt><trkpt lat="43.7316534" lon="12.8157609"><ele>199.2</ele><time>2026-04-05T08:55:32.909Z</time></trkpt><trkpt lat="43.731715" lon="12.8156718"><ele>202.60000000000002</ele><time>2026-04-05T08:55:33.908Z</time></trkpt><trkpt lat="43.7317896" lon="12.8155773"><ele>206.0</ele><time>2026-04-05T08:55:34.908Z</time></trkpt><trkpt lat="43.7318776" lon="12.8154808"><ele>207.5</ele><time>2026-04-05T08:55:35.908Z</time></trkpt><trkpt lat="43.7319701" lon="12.8153851"><ele>209.0</ele><time>2026-04-05T08:55:36.908Z</time></trkpt><trkpt lat="43.7320742" lon="12.8152877"><ele>210.5</ele><time>2026-04-05T08:55:37.908Z</time></trkpt><trkpt lat="43.7321736" lon="12.8151689"><ele>212.0</ele><time>2026-04-05T08:55:38.908Z</time></trkpt><trkpt lat="43.7322675" lon="12.81505"><ele>212.0</ele><time>2026-04-05T08:55:39.907Z</time></trkpt><trkpt lat="43.7323471" lon="12.8149506"><ele>212.0</ele><time>2026-04-05T08:55:40.908Z</time></trkpt><trkpt lat="43.7324082" lon="12.8148547"><ele>212.0</ele><time>2026-04-05T08:55:41.907Z</time></trkpt><trkpt lat="43.7324479" lon="12.8147403"><ele>212.0</ele><time>2026-04-05T08:55:42.908Z</time></trkpt><trkpt lat="43.7324714" lon="12.8146137"><ele>212.0</ele><time>2026-04-05T08:55:43.908Z</time></trkpt><trkpt lat="43.7325041" lon="12.8144817"><ele>212.0</ele><time>2026-04-05T08:55:44.909Z</time></trkpt><trkpt lat="43.732542" lon="12.8143428"><ele>212.0</ele><time>2026-04-05T08:55:45.908Z</time></trkpt><trkpt lat="43.7325798" lon="12.8141916"><ele>212.0</ele><time>2026-04-05T08:55:46.908Z</time></trkpt><trkpt lat="43.7326275" lon="12.814034"><ele>212.0</ele><time>2026-04-05T08:55:47.909Z</time></trkpt><trkpt lat="43.732685" lon="12.8138762"><ele>211.0</ele><time>2026-04-05T08:55:48.909Z</time></trkpt><trkpt lat="43.7327524" lon="12.8137246"><ele>210.0</ele><time>2026-04-05T08:55:49.907Z</time></trkpt><trkpt lat="43.7328174" lon="12.8135784"><ele>209.0</ele><time>2026-04-05T08:55:50.908Z</time></trkpt><trkpt lat="43.732867" lon="12.8134304"><ele>208.0</ele><time>2026-04-05T08:55:51.908Z</time></trkpt><trkpt lat="43.7329078" lon="12.8132762"><ele>212.5</ele><time>2026-04-05T08:55:52.907Z</time></trkpt><trkpt lat="43.7329548" lon="12.8131231"><ele>217.0</ele><time>2026-04-05T08:55:53.908Z</time></trkpt><trkpt lat="43.7330143" lon="12.812978"><ele>221.5</ele><time>2026-04-05T08:55:54.908Z</time></trkpt><trkpt lat="43.7330832" lon="12.8128411"><ele>226.0</ele><time>2026-04-05T08:55:55.908Z</time></trkpt><trkpt lat="43.7331628" lon="12.8127031"><ele>228.5</ele><time>2026-04-05T08:55:56.908Z</time></trkpt><trkpt lat="43.7332452" lon="12.8125589"><ele>231.0</ele><time>2026-04-05T08:55:57.909Z</time></trkpt><trkpt lat="43.7333165" lon="12.8124123"><ele>233.5</ele><time>2026-04-05T08:55:58.908Z</time></trkpt><trkpt lat="43.7333876" lon="12.8122638"><ele>236.0</ele><time>2026-04-05T08:55:59.908Z</time></trkpt><trkpt lat="43.7334612" lon="12.812116"><ele>236.0</ele><time>2026-04-05T08:56:00.908Z</time></trkpt><trkpt lat="43.733533" lon="12.8119782"><ele>236.0</ele><time>2026-04-05T08:56:01.908Z</time></trkpt><trkpt lat="43.7336059" lon="12.8118483"><ele>236.0</ele><time>2026-04-05T08:56:02.908Z</time></trkpt><trkpt lat="43.7336817" lon="12.8117213"><ele>236.0</ele><time>2026-04-05T08:56:03.908Z</time></trkpt><trkpt lat="43.7337609" lon="12.811593"><ele>237.8</ele><time>2026-04-05T08:56:04.908Z</time></trkpt><trkpt lat="43.7338393" lon="12.8114773"><ele>239.60000000000002</ele><time>2026-04-05T08:56:05.908Z</time></trkpt><trkpt lat="43.7339156" lon="12.8113967"><ele>241.4</ele><time>2026-04-05T08:56:06.908Z</time></trkpt><trkpt lat="43.7340067" lon="12.8113188"><ele>243.2</ele><time>2026-04-05T08:56:07.907Z</time></trkpt><trkpt lat="43.7341065" lon="12.8112615"><ele>245.0</ele><time>2026-04-05T08:56:08.908Z</time></trkpt><trkpt lat="43.7342051" lon="12.8112359"><ele>245.0</ele><time>2026-04-05T08:56:09.908Z</time></trkpt><trkpt lat="43.7342979" lon="12.8112456"><ele>245.0</ele><time>2026-04-05T08:56:10.908Z</time></trkpt><trkpt lat="43.7343956" lon="12.8112955"><ele>245.0</ele><time>2026-04-05T08:56:11.908Z</time></trkpt><trkpt lat="43.7345015" lon="12.8113653"><ele>245.0</ele><time>2026-04-05T08:56:12.908Z</time></trkpt><trkpt lat="43.7346094" lon="12.8114104"><ele>245.0</ele><time>2026-04-05T08:56:13.908Z</time></trkpt><trkpt lat="43.7347258" lon="12.8114318"><ele>248.0</ele><time>2026-04-05T08:56:14.907Z</time></trkpt><trkpt lat="43.7348592" lon="12.811435"><ele>251.0</ele><time>2026-04-05T08:56:15.908Z</time></trkpt><trkpt lat="43.7349926" lon="12.8114316"><ele>254.0</ele><time>2026-04-05T08:56:16.909Z</time></trkpt><trkpt lat="43.735126" lon="12.811421"><ele>257.0</ele><time>2026-04-05T08:56:17.908Z</time></trkpt><trkpt lat="43.7352611" lon="12.8113992"><ele>258.4</ele><time>2026-04-05T08:56:18.908Z</time></trkpt><trkpt lat="43.7353821" lon="12.8114016"><ele>259.79999999999995</ele><time>2026-04-05T08:56:19.908Z</time></trkpt><trkpt lat="43.7354835" lon="12.8114083"><ele>261.2</ele><time>2026-04-05T08:56:20.907Z</time></trkpt><trkpt lat="43.7355772" lon="12.8114092"><ele>262.59999999999997</ele><time>2026-04-05T08:56:21.908Z</time></trkpt><trkpt lat="43.735676" lon="12.8114237"><ele>264.0</ele><time>2026-04-05T08:56:22.908Z</time></trkpt><trkpt lat="43.7357787" lon="12.8114503"><ele>264.0</ele><time>2026-04-05T08:56:23.907Z</time></trkpt><trkpt lat="43.7358872" lon="12.8114827"><ele>264.0</ele><time>2026-04-05T08:56:24.908Z</time></trkpt><trkpt lat="43.736005" lon="12.8115067"><ele>264.0</ele><time>2026-04-05T08:56:25.908Z</time></trkpt><trkpt lat="43.7361287" lon="12.811521"><ele>264.0</ele><time>2026-04-05T08:56:26.908Z</time></trkpt><trkpt lat="43.7362541" lon="12.8115222"><ele>267.25</ele><time>2026-04-05T08:56:27.908Z</time></trkpt><trkpt lat="43.7363826" lon="12.8115255"><ele>270.5</ele><time>2026-04-05T08:56:28.908Z</time></trkpt><trkpt lat="43.7365103" lon="12.8115276"><ele>273.75</ele><time>2026-04-05T08:56:29.908Z</time></trkpt><trkpt lat="43.7366394" lon="12.8115361"><ele>277.0</ele><time>2026-04-05T08:56:30.908Z</time></trkpt><trkpt lat="43.7367663" lon="12.8115457"><ele>277.8</ele><time>2026-04-05T08:56:31.908Z</time></trkpt><trkpt lat="43.736894" lon="12.811563"><ele>278.6</ele><time>2026-04-05T08:56:32.908Z</time></trkpt><trkpt lat="43.7370069" lon="12.8115934"><ele>279.40000000000003</ele><time>2026-04-05T08:56:33.908Z</time></trkpt><trkpt lat="43.7371037" lon="12.8116297"><ele>280.2</ele><time>2026-04-05T08:56:34.908Z</time></trkpt><trkpt lat="43.7371921" lon="12.811642"><ele>281.0</ele><time>2026-04-05T08:56:35.908Z</time></trkpt><trkpt lat="43.7372741" lon="12.8116183"><ele>281.00000000000006</ele><time>2026-04-05T08:56:36.908Z</time></trkpt><trkpt lat="43.7373374" lon="12.8115817"><ele>281.0</ele><time>2026-04-05T08:56:37.908Z</time></trkpt><trkpt lat="43.7373958" lon="12.8115296"><ele>281.0</ele><time>2026-04-05T08:56:38.908Z</time></trkpt><trkpt lat="43.7374448" lon="12.8114693"><ele>281.0</ele><time>2026-04-05T08:56:39.908Z</time></trkpt><trkpt lat="43.7374995" lon="12.8114055"><ele>281.0</ele><time>2026-04-05T08:56:40.908Z</time></trkpt><trkpt lat="43.7375649" lon="12.8113611"><ele>281.00000000000006</ele><time>2026-04-05T08:56:41.909Z</time></trkpt><trkpt lat="43.7376398" lon="12.8113312"><ele>281.0</ele><time>2026-04-05T08:56:42.907Z</time></trkpt><trkpt lat="43.7377334" lon="12.811329"><ele>279.5</ele><time>2026-04-05T08:56:43.908Z</time></trkpt><trkpt lat="43.7378392" lon="12.8113563"><ele>278.0</ele><time>2026-04-05T08:56:44.909Z</time></trkpt><trkpt lat="43.7379589" lon="12.8114035"><ele>276.5</ele><time>2026-04-05T08:56:45.908Z</time></trkpt><trkpt lat="43.7380788" lon="12.8114511"><ele>275.0</ele><time>2026-04-05T08:56:46.908Z</time></trkpt><trkpt lat="43.7381963" lon="12.8114909"><ele>275.0</ele><time>2026-04-05T08:56:47.908Z</time></trkpt><trkpt lat="43.7383129" lon="12.8115194"><ele>275.0</ele><time>2026-04-05T08:56:48.908Z</time></trkpt><trkpt lat="43.738429" lon="12.8115281"><ele>275.0</ele><time>2026-04-05T08:56:49.908Z</time></trkpt><trkpt lat="43.7385496" lon="12.8115138"><ele>275.0</ele><time>2026-04-05T08:56:50.909Z</time></trkpt><trkpt lat="43.7386781" lon="12.8114927"><ele>274.75</ele><time>2026-04-05T08:56:51.907Z</time></trkpt><trkpt lat="43.7388137" lon="12.8114604"><ele>274.5</ele><time>2026-04-05T08:56:52.908Z</time></trkpt><trkpt lat="43.7389531" lon="12.8114214"><ele>274.25</ele><time>2026-04-05T08:56:53.908Z</time></trkpt><trkpt lat="43.7391002" lon="12.8113874"><ele>274.0</ele><time>2026-04-05T08:56:54.908Z</time></trkpt><trkpt lat="43.739254" lon="12.8113526"><ele>275.66666666666663</ele><time>2026-04-05T08:56:55.908Z</time></trkpt><trkpt lat="43.7394101" lon="12.8113155"><ele>277.3333333333333</ele><time>2026-04-05T08:56:56.908Z</time></trkpt><trkpt lat="43.7395671" lon="12.8112788"><ele>279.0</ele><time>2026-04-05T08:56:57.907Z</time></trkpt><trkpt lat="43.7397087" lon="12.8112386"><ele>279.0</ele><time>2026-04-05T08:56:58.908Z</time></trkpt><trkpt lat="43.7398383" lon="12.8112045"><ele>279.0</ele><time>2026-04-05T08:56:59.908Z</time></trkpt><trkpt lat="43.7399544" lon="12.8111726"><ele>279.0</ele><time>2026-04-05T08:57:00.907Z</time></trkpt><trkpt lat="43.7400587" lon="12.8111454"><ele>279.0</ele><time>2026-04-05T08:57:01.908Z</time></trkpt><trkpt lat="43.7401476" lon="12.8111229"><ele>279.0</ele><time>2026-04-05T08:57:02.908Z</time></trkpt><trkpt lat="43.7402235" lon="12.811102"><ele>278.4</ele><time>2026-04-05T08:57:03.908Z</time></trkpt><trkpt lat="43.7402914" lon="12.8110877"><ele>277.79999999999995</ele><time>2026-04-05T08:57:04.908Z</time></trkpt><trkpt lat="43.7404121" lon="12.8110603"><ele>277.20000000000005</ele><time>2026-04-05T08:57:06.907Z</time></trkpt><trkpt lat="43.7405102" lon="12.8110072"><ele>276.6</ele><time>2026-04-05T08:57:08.908Z</time></trkpt><trkpt lat="43.7405159" lon="12.8108918"><ele>276.0</ele><time>2026-04-05T08:57:10.907Z</time></trkpt><trkpt lat="43.7404698" lon="12.8108193"><ele>276.75</ele><time>2026-04-05T08:57:11.908Z</time></trkpt><trkpt lat="43.7404097" lon="12.8107124"><ele>277.5</ele><time>2026-04-05T08:57:12.908Z</time></trkpt><trkpt lat="43.7403432" lon="12.8105765"><ele>278.25</ele><time>2026-04-05T08:57:13.908Z</time></trkpt><trkpt lat="43.7402715" lon="12.8104314"><ele>279.0</ele><time>2026-04-05T08:57:14.908Z</time></trkpt><trkpt lat="43.7401993" lon="12.8102893"><ele>278.0</ele><time>2026-04-05T08:57:15.908Z</time></trkpt><trkpt lat="43.7401299" lon="12.8101461"><ele>277.0</ele><time>2026-04-05T08:57:16.909Z</time></trkpt><trkpt lat="43.7400616" lon="12.8100096"><ele>276.0</ele><time>2026-04-05T08:57:17.908Z</time></trkpt><trkpt lat="43.7399971" lon="12.8098801"><ele>275.0</ele><time>2026-04-05T08:57:18.908Z</time></trkpt><trkpt lat="43.7399376" lon="12.8097559"><ele>275.0</ele><time>2026-04-05T08:57:19.908Z</time></trkpt><trkpt lat="43.7398808" lon="12.8096387"><ele>275.0</ele><time>2026-04-05T08:57:20.907Z</time></trkpt><trkpt lat="43.7398229" lon="12.8095294"><ele>275.0</ele><time>2026-04-05T08:57:21.908Z</time></trkpt><trkpt lat="43.7397556" lon="12.8094173"><ele>275.0</ele><time>2026-04-05T08:57:22.908Z</time></trkpt><trkpt lat="43.7396794" lon="12.8093037"><ele>275.0</ele><time>2026-04-05T08:57:23.908Z</time></trkpt><trkpt lat="43.7395976" lon="12.8091929"><ele>273.4</ele><time>2026-04-05T08:57:24.908Z</time></trkpt><trkpt lat="43.739515" lon="12.8090939"><ele>271.8</ele><time>2026-04-05T08:57:25.908Z</time></trkpt><trkpt lat="43.7394292" lon="12.8090011"><ele>270.2</ele><time>2026-04-05T08:57:26.908Z</time></trkpt><trkpt lat="43.7393411" lon="12.8089178"><ele>268.6</ele><time>2026-04-05T08:57:27.908Z</time></trkpt><trkpt lat="43.7392423" lon="12.8088507"><ele>267.0</ele><time>2026-04-05T08:57:28.909Z</time></trkpt><trkpt lat="43.7391312" lon="12.8087796"><ele>266.25</ele><time>2026-04-05T08:57:29.909Z</time></trkpt><trkpt lat="43.7390152" lon="12.8087106"><ele>265.5</ele><time>2026-04-05T08:57:30.909Z</time></trkpt><trkpt lat="43.7388999" lon="12.8086457"><ele>264.75</ele><time>2026-04-05T08:57:31.907Z</time></trkpt><trkpt lat="43.7387932" lon="12.8085861"><ele>264.0</ele><time>2026-04-05T08:57:32.908Z</time></trkpt><trkpt lat="43.7386965" lon="12.8085295"><ele>262.3333333333333</ele><time>2026-04-05T08:57:33.908Z</time></trkpt><trkpt lat="43.738608" lon="12.8084807"><ele>260.6666666666667</ele><time>2026-04-05T08:57:34.907Z</time></trkpt><trkpt lat="43.7385239" lon="12.8084461"><ele>259.0</ele><time>2026-04-05T08:57:35.908Z</time></trkpt><trkpt lat="43.7384458" lon="12.8084321"><ele>257.33333333333337</ele><time>2026-04-05T08:57:36.908Z</time></trkpt><trkpt lat="43.7383742" lon="12.8084204"><ele>255.66666666666669</ele><time>2026-04-05T08:57:37.908Z</time></trkpt><trkpt lat="43.7383104" lon="12.8083988"><ele>254.0</ele><time>2026-04-05T08:57:38.907Z</time></trkpt><trkpt lat="43.7382202" lon="12.8083027"><ele>254.0</ele><time>2026-04-05T08:57:40.908Z</time></trkpt><trkpt lat="43.7382369" lon="12.8081621"><ele>253.99999999999997</ele><time>2026-04-05T08:57:42.909Z</time></trkpt><trkpt lat="43.7382854" lon="12.8080759"><ele>253.99999999999997</ele><time>2026-04-05T08:57:43.908Z</time></trkpt><trkpt lat="43.7383569" lon="12.8079686"><ele>254.0</ele><time>2026-04-05T08:57:44.908Z</time></trkpt><trkpt lat="43.7384555" lon="12.8078437"><ele>254.0</ele><time>2026-04-05T08:57:45.908Z</time></trkpt><trkpt lat="43.7385754" lon="12.8077004"><ele>250.33333333333334</ele><time>2026-04-05T08:57:46.908Z</time></trkpt><trkpt lat="43.7386967" lon="12.8075617"><ele>246.66666666666669</ele><time>2026-04-05T08:57:47.908Z</time></trkpt><trkpt lat="43.7388129" lon="12.8074298"><ele>243.0</ele><time>2026-04-05T08:57:48.907Z</time></trkpt><trkpt lat="43.7389266" lon="12.8073101"><ele>243.0</ele><time>2026-04-05T08:57:49.908Z</time></trkpt><trkpt lat="43.739035" lon="12.8072015"><ele>243.0</ele><time>2026-04-05T08:57:50.907Z</time></trkpt><trkpt lat="43.7391394" lon="12.8071003"><ele>243.0</ele><time>2026-04-05T08:57:51.908Z</time></trkpt><trkpt lat="43.7392354" lon="12.8070018"><ele>243.0</ele><time>2026-04-05T08:57:52.908Z</time></trkpt><trkpt lat="43.7393116" lon="12.8069026"><ele>242.0</ele><time>2026-04-05T08:57:53.907Z</time></trkpt><trkpt lat="43.739373" lon="12.8067867"><ele>241.0</ele><time>2026-04-05T08:57:54.908Z</time></trkpt><trkpt lat="43.7394117" lon="12.8066526"><ele>240.0</ele><time>2026-04-05T08:57:55.907Z</time></trkpt><trkpt lat="43.7394226" lon="12.8064969"><ele>239.0</ele><time>2026-04-05T08:57:56.908Z</time></trkpt><trkpt lat="43.739409" lon="12.8063077"><ele>241.66666666666669</ele><time>2026-04-05T08:57:57.907Z</time></trkpt><trkpt lat="43.7393879" lon="12.8060748"><ele>244.33333333333331</ele><time>2026-04-05T08:57:58.908Z</time></trkpt><trkpt lat="43.7393626" lon="12.8058135"><ele>247.0</ele><time>2026-04-05T08:57:59.909Z</time></trkpt><trkpt lat="43.7393422" lon="12.8055911"><ele>247.0</ele><time>2026-04-05T08:58:00.908Z</time></trkpt><trkpt lat="43.7393184" lon="12.805399"><ele>247.0</ele><time>2026-04-05T08:58:01.908Z</time></trkpt><trkpt lat="43.7392799" lon="12.8052293"><ele>247.0</ele><time>2026-04-05T08:58:02.908Z</time></trkpt><trkpt lat="43.73923" lon="12.8050859"><ele>247.0</ele><time>2026-04-05T08:58:03.907Z</time></trkpt><trkpt lat="43.7391632" lon="12.8049643"><ele>250.0</ele><time>2026-04-05T08:58:04.908Z</time></trkpt><trkpt lat="43.7390741" lon="12.8048645"><ele>253.0</ele><time>2026-04-05T08:58:05.907Z</time></trkpt><trkpt lat="43.7389653" lon="12.8047899"><ele>256.0</ele><time>2026-04-05T08:58:06.908Z</time></trkpt><trkpt lat="43.73888" lon="12.8047114"><ele>259.0</ele><time>2026-04-05T08:58:07.908Z</time></trkpt><trkpt lat="43.7387967" lon="12.8046107"><ele>262.0</ele><time>2026-04-05T08:58:08.907Z</time></trkpt><trkpt lat="43.7387293" lon="12.8044875"><ele>262.0</ele><time>2026-04-05T08:58:09.908Z</time></trkpt><trkpt lat="43.7386759" lon="12.8043329"><ele>262.0</ele><time>2026-04-05T08:58:10.908Z</time></trkpt><trkpt lat="43.7386312" lon="12.8041413"><ele>262.0</ele><time>2026-04-05T08:58:11.908Z</time></trkpt><trkpt lat="43.7385904" lon="12.8039519"><ele>262.0</ele><time>2026-04-05T08:58:12.908Z</time></trkpt><trkpt lat="43.7385601" lon="12.8037786"><ele>261.8</ele><time>2026-04-05T08:58:13.908Z</time></trkpt><trkpt lat="43.7385391" lon="12.8036099"><ele>261.6</ele><time>2026-04-05T08:58:14.907Z</time></trkpt><trkpt lat="43.7385275" lon="12.8034591"><ele>261.40000000000003</ele><time>2026-04-05T08:58:15.908Z</time></trkpt><trkpt lat="43.7385269" lon="12.8033113"><ele>261.2</ele><time>2026-04-05T08:58:16.909Z</time></trkpt><trkpt lat="43.7385421" lon="12.8031679"><ele>261.0</ele><time>2026-04-05T08:58:17.908Z</time></trkpt><trkpt lat="43.7385755" lon="12.8030184"><ele>263.8</ele><time>2026-04-05T08:58:18.909Z</time></trkpt><trkpt lat="43.7386213" lon="12.8028643"><ele>266.6</ele><time>2026-04-05T08:58:19.909Z</time></trkpt><trkpt lat="43.7386621" lon="12.8027217"><ele>269.4</ele><time>2026-04-05T08:58:20.908Z</time></trkpt><trkpt lat="43.7387095" lon="12.8025868"><ele>272.2</ele><time>2026-04-05T08:58:21.908Z</time></trkpt><trkpt lat="43.7387647" lon="12.8024585"><ele>275.0</ele><time>2026-04-05T08:58:22.908Z</time></trkpt><trkpt lat="43.7388423" lon="12.8023153"><ele>275.0</ele><time>2026-04-05T08:58:23.909Z</time></trkpt><trkpt lat="43.7389317" lon="12.8021603"><ele>275.0</ele><time>2026-04-05T08:58:24.907Z</time></trkpt><trkpt lat="43.739021" lon="12.8019993"><ele>275.0</ele><time>2026-04-05T08:58:25.908Z</time></trkpt><trkpt lat="43.7391074" lon="12.8018375"><ele>275.0</ele><time>2026-04-05T08:58:26.909Z</time></trkpt><trkpt lat="43.7391882" lon="12.8016749"><ele>277.25</ele><time>2026-04-05T08:58:27.908Z</time></trkpt><trkpt lat="43.7392591" lon="12.8014946"><ele>279.5</ele><time>2026-04-05T08:58:28.908Z</time></trkpt><trkpt lat="43.7393229" lon="12.8013209"><ele>281.75</ele><time>2026-04-05T08:58:29.908Z</time></trkpt><trkpt lat="43.7393776" lon="12.8011521"><ele>284.0</ele><time>2026-04-05T08:58:30.907Z</time></trkpt><trkpt lat="43.7394299" lon="12.8010041"><ele>278.75</ele><time>2026-04-05T08:58:31.908Z</time></trkpt><trkpt lat="43.7394976" lon="12.8008622"><ele>273.5</ele><time>2026-04-05T08:58:32.908Z</time></trkpt><trkpt lat="43.7395953" lon="12.8007109"><ele>268.25</ele><time>2026-04-05T08:58:33.908Z</time></trkpt><trkpt lat="43.739695" lon="12.8005489"><ele>263.0</ele><time>2026-04-05T08:58:34.908Z</time></trkpt><trkpt lat="43.7397743" lon="12.8004125"><ele>263.0</ele><time>2026-04-05T08:58:35.908Z</time></trkpt><trkpt lat="43.7398481" lon="12.8003012"><ele>263.0</ele><time>2026-04-05T08:58:36.907Z</time></trkpt><trkpt lat="43.7399191" lon="12.800224"><ele>263.0</ele><time>2026-04-05T08:58:37.908Z</time></trkpt><trkpt lat="43.7399835" lon="12.8001588"><ele>263.0</ele><time>2026-04-05T08:58:38.908Z</time></trkpt><trkpt lat="43.7400197" lon="12.8000741"><ele>263.0</ele><time>2026-04-05T08:58:39.907Z</time></trkpt><trkpt lat="43.7400257" lon="12.7999698"><ele>263.0</ele><time>2026-04-05T08:58:40.909Z</time></trkpt><trkpt lat="43.7399793" lon="12.7999013"><ele>262.25</ele><time>2026-04-05T08:58:41.908Z</time></trkpt><trkpt lat="43.7399039" lon="12.799816"><ele>261.5</ele><time>2026-04-05T08:58:42.909Z</time></trkpt><trkpt lat="43.7397939" lon="12.7997181"><ele>260.75</ele><time>2026-04-05T08:58:43.908Z</time></trkpt><trkpt lat="43.7396897" lon="12.7996227"><ele>260.0</ele><time>2026-04-05T08:58:44.908Z</time></trkpt><trkpt lat="43.7395924" lon="12.7995391"><ele>260.0</ele><time>2026-04-05T08:58:45.909Z</time></trkpt><trkpt lat="43.7395087" lon="12.7994417"><ele>260.0</ele><time>2026-04-05T08:58:46.908Z</time></trkpt><trkpt lat="43.7394375" lon="12.7993172"><ele>260.0</ele><time>2026-04-05T08:58:47.908Z</time></trkpt><trkpt lat="43.7393802" lon="12.7991772"><ele>260.0</ele><time>2026-04-05T08:58:48.908Z</time></trkpt><trkpt lat="43.7393429" lon="12.7990321"><ele>257.8</ele><time>2026-04-05T08:58:49.907Z</time></trkpt><trkpt lat="43.7393215" lon="12.7988989"><ele>255.6</ele><time>2026-04-05T08:58:50.908Z</time></trkpt><trkpt lat="43.7392961" lon="12.7987922"><ele>253.39999999999998</ele><time>2026-04-05T08:58:51.908Z</time></trkpt><trkpt lat="43.7392122" lon="12.7986898"><ele>251.2</ele><time>2026-04-05T08:58:53.908Z</time></trkpt><trkpt lat="43.7391436" lon="12.7986645"><ele>249.0</ele><time>2026-04-05T08:58:54.908Z</time></trkpt><trkpt lat="43.739057" lon="12.7986011"><ele>249.0</ele><time>2026-04-05T08:58:55.908Z</time></trkpt><trkpt lat="43.7389737" lon="12.7985263"><ele>249.0</ele><time>2026-04-05T08:58:56.909Z</time></trkpt><trkpt lat="43.7388959" lon="12.7983681"><ele>249.0</ele><time>2026-04-05T08:58:57.908Z</time></trkpt><trkpt lat="43.738834" lon="12.7982171"><ele>249.0</ele><time>2026-04-05T08:58:58.908Z</time></trkpt><trkpt lat="43.7388008" lon="12.7980394"><ele>250.0</ele><time>2026-04-05T08:58:59.908Z</time></trkpt><trkpt lat="43.7387894" lon="12.7978302"><ele>251.0</ele><time>2026-04-05T08:59:00.908Z</time></trkpt><trkpt lat="43.7387949" lon="12.7976413"><ele>252.0</ele><time>2026-04-05T08:59:01.908Z</time></trkpt><trkpt lat="43.7388166" lon="12.7974579"><ele>253.0</ele><time>2026-04-05T08:59:02.908Z</time></trkpt><trkpt lat="43.7388451" lon="12.7972812"><ele>253.0</ele><time>2026-04-05T08:59:03.908Z</time></trkpt><trkpt lat="43.7388769" lon="12.797112"><ele>253.0</ele><time>2026-04-05T08:59:04.907Z</time></trkpt><trkpt lat="43.738905" lon="12.7969488"><ele>253.0</ele><time>2026-04-05T08:59:05.908Z</time></trkpt><trkpt lat="43.7389385" lon="12.7967882"><ele>253.0</ele><time>2026-04-05T08:59:06.908Z</time></trkpt><trkpt lat="43.7389857" lon="12.796617"><ele>250.33333333333331</ele><time>2026-04-05T08:59:07.909Z</time></trkpt><trkpt lat="43.7390409" lon="12.7964385"><ele>247.66666666666669</ele><time>2026-04-05T08:59:08.908Z</time></trkpt><trkpt lat="43.7391079" lon="12.7962503"><ele>245.0</ele><time>2026-04-05T08:59:09.907Z</time></trkpt><trkpt lat="43.739183" lon="12.7960494"><ele>241.0</ele><time>2026-04-05T08:59:10.908Z</time></trkpt><trkpt lat="43.7392542" lon="12.7958411"><ele>237.0</ele><time>2026-04-05T08:59:11.908Z</time></trkpt><trkpt lat="43.7393176" lon="12.7956414"><ele>233.0</ele><time>2026-04-05T08:59:12.909Z</time></trkpt><trkpt lat="43.7393803" lon="12.7954459"><ele>234.5</ele><time>2026-04-05T08:59:13.908Z</time></trkpt><trkpt lat="43.7394398" lon="12.7952588"><ele>236.0</ele><time>2026-04-05T08:59:14.908Z</time></trkpt><trkpt lat="43.7394807" lon="12.7950693"><ele>237.5</ele><time>2026-04-05T08:59:15.908Z</time></trkpt><trkpt lat="43.739498" lon="12.7948875"><ele>239.0</ele><time>2026-04-05T08:59:16.908Z</time></trkpt><trkpt lat="43.7394931" lon="12.794726"><ele>239.0</ele><time>2026-04-05T08:59:17.908Z</time></trkpt><trkpt lat="43.7394465" lon="12.7945784"><ele>239.0</ele><time>2026-04-05T08:59:18.907Z</time></trkpt><trkpt lat="43.73936" lon="12.7944463"><ele>239.0</ele><time>2026-04-05T08:59:19.908Z</time></trkpt><trkpt lat="43.7392441" lon="12.7943217"><ele>239.0</ele><time>2026-04-05T08:59:20.908Z</time></trkpt><trkpt lat="43.7391358" lon="12.7942036"><ele>234.0</ele><time>2026-04-05T08:59:21.907Z</time></trkpt><trkpt lat="43.7390484" lon="12.7940712"><ele>228.99999999999997</ele><time>2026-04-05T08:59:22.908Z</time></trkpt><trkpt lat="43.7389766" lon="12.7939519"><ele>223.99999999999997</ele><time>2026-04-05T08:59:23.908Z</time></trkpt><trkpt lat="43.7389013" lon="12.7938698"><ele>219.0</ele><time>2026-04-05T08:59:24.908Z</time></trkpt><trkpt lat="43.7388217" lon="12.7938334"><ele>214.0</ele><time>2026-04-05T08:59:25.909Z</time></trkpt><trkpt lat="43.7387321" lon="12.7938448"><ele>213.99999999999997</ele><time>2026-04-05T08:59:26.909Z</time></trkpt><trkpt lat="43.7386416" lon="12.7938805"><ele>214.0</ele><time>2026-04-05T08:59:27.908Z</time></trkpt><trkpt lat="43.7385678" lon="12.7938708"><ele>214.0</ele><time>2026-04-05T08:59:28.908Z</time></trkpt><trkpt lat="43.7385048" lon="12.7938245"><ele>214.0</ele><time>2026-04-05T08:59:29.907Z</time></trkpt><trkpt lat="43.7384689" lon="12.793742"><ele>213.99999999999997</ele><time>2026-04-05T08:59:30.908Z</time></trkpt><trkpt lat="43.7385007" lon="12.7936224"><ele>214.0</ele><time>2026-04-05T08:59:31.908Z</time></trkpt><trkpt lat="43.7385421" lon="12.7935005"><ele>212.16666666666666</ele><time>2026-04-05T08:59:32.907Z</time></trkpt><trkpt lat="43.7385531" lon="12.7933911"><ele>210.33333333333331</ele><time>2026-04-05T08:59:33.909Z</time></trkpt><trkpt lat="43.7385227" lon="12.7932946"><ele>208.5</ele><time>2026-04-05T08:59:34.908Z</time></trkpt><trkpt lat="43.7384511" lon="12.7932335"><ele>206.66666666666669</ele><time>2026-04-05T08:59:35.908Z</time></trkpt><trkpt lat="43.73837" lon="12.7932435"><ele>204.83333333333334</ele><time>2026-04-05T08:59:36.908Z</time></trkpt><trkpt lat="43.7382638" lon="12.7932931"><ele>203.0</ele><time>2026-04-05T08:59:37.908Z</time></trkpt><trkpt lat="43.7381511" lon="12.7933388"><ele>201.8</ele><time>2026-04-05T08:59:38.908Z</time></trkpt><trkpt lat="43.7380434" lon="12.7933596"><ele>200.60000000000002</ele><time>2026-04-05T08:59:39.907Z</time></trkpt><trkpt lat="43.7379391" lon="12.7933466"><ele>199.39999999999998</ele><time>2026-04-05T08:59:40.907Z</time></trkpt><trkpt lat="43.7378441" lon="12.7932803"><ele>198.2</ele><time>2026-04-05T08:59:41.908Z</time></trkpt><trkpt lat="43.737764" lon="12.7931917"><ele>197.0</ele><time>2026-04-05T08:59:42.908Z</time></trkpt><trkpt lat="43.7376976" lon="12.7931135"><ele>195.57142857142858</ele><time>2026-04-05T08:59:43.908Z</time></trkpt><trkpt lat="43.7376364" lon="12.7930476"><ele>194.14285714285717</ele><time>2026-04-05T08:59:44.908Z</time></trkpt><trkpt lat="43.7375872" lon="12.7929928"><ele>192.71428571428572</ele><time>2026-04-05T08:59:45.908Z</time></trkpt><trkpt lat="43.7375344" lon="12.7929249"><ele>191.28571428571428</ele><time>2026-04-05T08:59:47.907Z</time></trkpt><trkpt lat="43.7374988" lon="12.7928516"><ele>189.85714285714286</ele><time>2026-04-05T08:59:52.909Z</time></trkpt><trkpt lat="43.7375172" lon="12.7927515"><ele>188.42857142857142</ele><time>2026-04-05T08:59:54.907Z</time></trkpt><trkpt lat="43.7375592" lon="12.7926786"><ele>187.0</ele><time>2026-04-05T08:59:55.907Z</time></trkpt><trkpt lat="43.7376138" lon="12.7925954"><ele>187.0</ele><time>2026-04-05T08:59:56.908Z</time></trkpt><trkpt lat="43.7376857" lon="12.7924948"><ele>187.0</ele><time>2026-04-05T08:59:57.908Z</time></trkpt><trkpt lat="43.737772" lon="12.7923737"><ele>187.0</ele><time>2026-04-05T08:59:58.908Z</time></trkpt><trkpt lat="43.7378601" lon="12.7922435"><ele>187.0</ele><time>2026-04-05T08:59:59.907Z</time></trkpt><trkpt lat="43.7379613" lon="12.7921005"><ele>187.0</ele><time>2026-04-05T09:00:00.907Z</time></trkpt><trkpt lat="43.7380732" lon="12.7919472"><ele>187.0</ele><time>2026-04-05T09:00:01.907Z</time></trkpt><trkpt lat="43.7381772" lon="12.7917731"><ele>187.0</ele><time>2026-04-05T09:00:02.906Z</time></trkpt><trkpt lat="43.7382548" lon="12.7915956"><ele>183.33333333333334</ele><time>2026-04-05T09:00:03.907Z</time></trkpt><trkpt lat="43.7383154" lon="12.7914107"><ele>179.66666666666666</ele><time>2026-04-05T09:00:04.907Z</time></trkpt><trkpt lat="43.7383554" lon="12.7912131"><ele>176.0</ele><time>2026-04-05T09:00:05.907Z</time></trkpt><trkpt lat="43.7383712" lon="12.7909995"><ele>173.0</ele><time>2026-04-05T09:00:06.907Z</time></trkpt><trkpt lat="43.738366" lon="12.7907791"><ele>170.0</ele><time>2026-04-05T09:00:07.907Z</time></trkpt><trkpt lat="43.7383523" lon="12.7905327"><ele>167.0</ele><time>2026-04-05T09:00:08.907Z</time></trkpt><trkpt lat="43.7383303" lon="12.7902622"><ele>166.33333333333331</ele><time>2026-04-05T09:00:09.906Z</time></trkpt><trkpt lat="43.7383085" lon="12.7900162"><ele>165.66666666666666</ele><time>2026-04-05T09:00:10.906Z</time></trkpt><trkpt lat="43.7382874" lon="12.7897811"><ele>165.0</ele><time>2026-04-05T09:00:11.908Z</time></trkpt><trkpt lat="43.7382692" lon="12.7895577"><ele>165.0</ele><time>2026-04-05T09:00:12.907Z</time></trkpt><trkpt lat="43.7382563" lon="12.789345"><ele>165.0</ele><time>2026-04-05T09:00:13.907Z</time></trkpt><trkpt lat="43.7382668" lon="12.7891476"><ele>165.0</ele><time>2026-04-05T09:00:14.908Z</time></trkpt><trkpt lat="43.7382973" lon="12.7889581"><ele>165.0</ele><time>2026-04-05T09:00:15.908Z</time></trkpt><trkpt lat="43.7383483" lon="12.788768"><ele>165.66666666666666</ele><time>2026-04-05T09:00:16.907Z</time></trkpt><trkpt lat="43.7384255" lon="12.7885879"><ele>166.33333333333331</ele><time>2026-04-05T09:00:17.907Z</time></trkpt><trkpt lat="43.7385078" lon="12.7883996"><ele>167.0</ele><time>2026-04-05T09:00:18.907Z</time></trkpt><trkpt lat="43.7385682" lon="12.788183"><ele>173.33333333333331</ele><time>2026-04-05T09:00:19.907Z</time></trkpt><trkpt lat="43.7386013" lon="12.787941"><ele>179.66666666666666</ele><time>2026-04-05T09:00:20.907Z</time></trkpt><trkpt lat="43.7386141" lon="12.7876851"><ele>186.0</ele><time>2026-04-05T09:00:21.906Z</time></trkpt><trkpt lat="43.7386101" lon="12.7874156"><ele>186.0</ele><time>2026-04-05T09:00:22.907Z</time></trkpt><trkpt lat="43.7385908" lon="12.7871466"><ele>186.0</ele><time>2026-04-05T09:00:23.907Z</time></trkpt><trkpt lat="43.7385665" lon="12.786899"><ele>186.0</ele><time>2026-04-05T09:00:24.906Z</time></trkpt><trkpt lat="43.7385446" lon="12.7866671"><ele>185.0</ele><time>2026-04-05T09:00:25.907Z</time></trkpt><trkpt lat="43.7385331" lon="12.7864381"><ele>184.0</ele><time>2026-04-05T09:00:26.907Z</time></trkpt><trkpt lat="43.7385343" lon="12.7862095"><ele>183.0</ele><time>2026-04-05T09:00:27.907Z</time></trkpt><trkpt lat="43.7385549" lon="12.7859991"><ele>183.0</ele><time>2026-04-05T09:00:28.907Z</time></trkpt><trkpt lat="43.7385859" lon="12.785795"><ele>183.0</ele><time>2026-04-05T09:00:29.907Z</time></trkpt><trkpt lat="43.7386139" lon="12.7856111"><ele>183.0</ele><time>2026-04-05T09:00:30.907Z</time></trkpt><trkpt lat="43.7386345" lon="12.7854417"><ele>183.0</ele><time>2026-04-05T09:00:31.907Z</time></trkpt><trkpt lat="43.7386501" lon="12.7852955"><ele>183.0</ele><time>2026-04-05T09:00:32.907Z</time></trkpt><trkpt lat="43.7386523" lon="12.7851878"><ele>183.0</ele><time>2026-04-05T09:00:33.906Z</time></trkpt><trkpt lat="43.738611" lon="12.7850496"><ele>183.0</ele><time>2026-04-05T09:00:35.907Z</time></trkpt><trkpt lat="43.7385148" lon="12.7849677"><ele>183.0</ele><time>2026-04-05T09:00:37.907Z</time></trkpt><trkpt lat="43.7383938" lon="12.7849195"><ele>183.0</ele><time>2026-04-05T09:00:39.906Z</time></trkpt><trkpt lat="43.7383212" lon="12.784849"><ele>182.2</ele><time>2026-04-05T09:00:41.907Z</time></trkpt><trkpt lat="43.7383137" lon="12.7847453"><ele>181.4</ele><time>2026-04-05T09:00:56.906Z</time></trkpt><trkpt lat="43.7383847" lon="12.7845709"><ele>180.6</ele><time>2026-04-05T09:00:58.907Z</time></trkpt><trkpt lat="43.7384411" lon="12.7844405"><ele>179.79999999999998</ele><time>2026-04-05T09:00:59.907Z</time></trkpt><trkpt lat="43.7385003" lon="12.7842983"><ele>179.0</ele><time>2026-04-05T09:01:00.906Z</time></trkpt><trkpt lat="43.7385683" lon="12.7841387"><ele>177.25</ele><time>2026-04-05T09:01:01.906Z</time></trkpt><trkpt lat="43.7386413" lon="12.7839772"><ele>175.5</ele><time>2026-04-05T09:01:02.907Z</time></trkpt><trkpt lat="43.7387143" lon="12.7838168"><ele>173.75</ele><time>2026-04-05T09:01:03.907Z</time></trkpt><trkpt lat="43.7387739" lon="12.7836416"><ele>172.0</ele><time>2026-04-05T09:01:04.907Z</time></trkpt><trkpt lat="43.7388091" lon="12.7834534"><ele>172.0</ele><time>2026-04-05T09:01:05.907Z</time></trkpt><trkpt lat="43.7388134" lon="12.7832498"><ele>172.0</ele><time>2026-04-05T09:01:06.907Z</time></trkpt><trkpt lat="43.738788" lon="12.7830252"><ele>172.0</ele><time>2026-04-05T09:01:07.907Z</time></trkpt><trkpt lat="43.7387456" lon="12.7827781"><ele>172.0</ele><time>2026-04-05T09:01:08.907Z</time></trkpt><trkpt lat="43.73869" lon="12.7825147"><ele>172.0</ele><time>2026-04-05T09:01:09.907Z</time></trkpt><trkpt lat="43.73862" lon="12.782278"><ele>172.0</ele><time>2026-04-05T09:01:10.907Z</time></trkpt><trkpt lat="43.7385546" lon="12.7820716"><ele>172.5</ele><time>2026-04-05T09:01:11.906Z</time></trkpt><trkpt lat="43.7385188" lon="12.7818833"><ele>173.0</ele><time>2026-04-05T09:01:12.908Z</time></trkpt><trkpt lat="43.7385278" lon="12.781703"><ele>173.5</ele><time>2026-04-05T09:01:13.907Z</time></trkpt><trkpt lat="43.7385746" lon="12.781524"><ele>174.0</ele><time>2026-04-05T09:01:14.907Z</time></trkpt><trkpt lat="43.7386525" lon="12.78134"><ele>174.0</ele><time>2026-04-05T09:01:15.907Z</time></trkpt><trkpt lat="43.7387464" lon="12.7811366"><ele>174.0</ele><time>2026-04-05T09:01:16.907Z</time></trkpt><trkpt lat="43.7388377" lon="12.7809038"><ele>174.0</ele><time>2026-04-05T09:01:17.907Z</time></trkpt><trkpt lat="43.7389117" lon="12.7806492"><ele>175.33333333333334</ele><time>2026-04-05T09:01:18.907Z</time></trkpt><trkpt lat="43.7389792" lon="12.7803531"><ele>176.66666666666669</ele><time>2026-04-05T09:01:19.907Z</time></trkpt><trkpt lat="43.7390505" lon="12.7800608"><ele>178.0</ele><time>2026-04-05T09:01:20.907Z</time></trkpt><trkpt lat="43.7391138" lon="12.7798097"><ele>179.66666666666669</ele><time>2026-04-05T09:01:21.908Z</time></trkpt><trkpt lat="43.7391711" lon="12.7795783"><ele>181.33333333333334</ele><time>2026-04-05T09:01:22.908Z</time></trkpt><trkpt lat="43.7392161" lon="12.7793686"><ele>183.0</ele><time>2026-04-05T09:01:23.908Z</time></trkpt><trkpt lat="43.7392354" lon="12.7791563"><ele>186.0</ele><time>2026-04-05T09:01:24.906Z</time></trkpt><trkpt lat="43.7392315" lon="12.7789286"><ele>189.0</ele><time>2026-04-05T09:01:25.907Z</time></trkpt><trkpt lat="43.7392311" lon="12.7786884"><ele>192.0</ele><time>2026-04-05T09:01:26.907Z</time></trkpt><trkpt lat="43.7392397" lon="12.7784463"><ele>193.66666666666669</ele><time>2026-04-05T09:01:27.907Z</time></trkpt><trkpt lat="43.7392463" lon="12.77821"><ele>195.33333333333334</ele><time>2026-04-05T09:01:28.906Z</time></trkpt><trkpt lat="43.7392465" lon="12.7779891"><ele>197.0</ele><time>2026-04-05T09:01:29.906Z</time></trkpt><trkpt lat="43.7392411" lon="12.7777994"><ele>198.6</ele><time>2026-04-05T09:01:30.907Z</time></trkpt><trkpt lat="43.7392403" lon="12.777639"><ele>200.2</ele><time>2026-04-05T09:01:31.907Z</time></trkpt><trkpt lat="43.7392251" lon="12.7775064"><ele>201.8</ele><time>2026-04-05T09:01:32.907Z</time></trkpt><trkpt lat="43.7391731" lon="12.777417"><ele>203.4</ele><time>2026-04-05T09:01:33.907Z</time></trkpt><trkpt lat="43.7390941" lon="12.7773855"><ele>205.0</ele><time>2026-04-05T09:01:34.907Z</time></trkpt><trkpt lat="43.7389944" lon="12.7774112"><ele>205.0</ele><time>2026-04-05T09:01:35.906Z</time></trkpt><trkpt lat="43.7388806" lon="12.7774511"><ele>205.0</ele><time>2026-04-05T09:01:36.907Z</time></trkpt><trkpt lat="43.738761" lon="12.7775048"><ele>205.0</ele><time>2026-04-05T09:01:37.907Z</time></trkpt><trkpt lat="43.738645" lon="12.7776005"><ele>205.0</ele><time>2026-04-05T09:01:38.907Z</time></trkpt><trkpt lat="43.7385316" lon="12.7777451"><ele>207.0</ele><time>2026-04-05T09:01:39.906Z</time></trkpt><trkpt lat="43.7384123" lon="12.7779171"><ele>209.0</ele><time>2026-04-05T09:01:40.907Z</time></trkpt><trkpt lat="43.7383024" lon="12.7781155"><ele>211.0</ele><time>2026-04-05T09:01:41.907Z</time></trkpt><trkpt lat="43.7382055" lon="12.7783429"><ele>209.33333333333331</ele><time>2026-04-05T09:01:42.906Z</time></trkpt><trkpt lat="43.7381048" lon="12.7785885"><ele>207.66666666666669</ele><time>2026-04-05T09:01:43.908Z</time></trkpt><trkpt lat="43.737997" lon="12.7788315"><ele>206.0</ele><time>2026-04-05T09:01:44.907Z</time></trkpt><trkpt lat="43.7378966" lon="12.7790342"><ele>206.0</ele><time>2026-04-05T09:01:45.907Z</time></trkpt><trkpt lat="43.7378021" lon="12.7792045"><ele>206.0</ele><time>2026-04-05T09:01:46.906Z</time></trkpt><trkpt lat="43.7377156" lon="12.7793567"><ele>206.0</ele><time>2026-04-05T09:01:47.907Z</time></trkpt><trkpt lat="43.737631" lon="12.7794808"><ele>206.0</ele><time>2026-04-05T09:01:48.908Z</time></trkpt><trkpt lat="43.737547" lon="12.7795591"><ele>207.16666666666669</ele><time>2026-04-05T09:01:49.907Z</time></trkpt><trkpt lat="43.7374844" lon="12.7795783"><ele>208.33333333333334</ele><time>2026-04-05T09:01:50.906Z</time></trkpt><trkpt lat="43.7374042" lon="12.7795089"><ele>209.5</ele><time>2026-04-05T09:01:52.907Z</time></trkpt><trkpt lat="43.7373994" lon="12.7793483"><ele>210.66666666666669</ele><time>2026-04-05T09:01:54.907Z</time></trkpt><trkpt lat="43.7374035" lon="12.7792385"><ele>211.83333333333334</ele><time>2026-04-05T09:01:55.906Z</time></trkpt><trkpt lat="43.7374087" lon="12.7791161"><ele>213.0</ele><time>2026-04-05T09:01:56.907Z</time></trkpt><trkpt lat="43.7374179" lon="12.7789788"><ele>215.0</ele><time>2026-04-05T09:01:57.906Z</time></trkpt><trkpt lat="43.737424" lon="12.7788275"><ele>217.0</ele><time>2026-04-05T09:01:58.908Z</time></trkpt><trkpt lat="43.7374196" lon="12.7786646"><ele>219.0</ele><time>2026-04-05T09:01:59.907Z</time></trkpt><trkpt lat="43.7374105" lon="12.7784897"><ele>221.0</ele><time>2026-04-05T09:02:00.907Z</time></trkpt><trkpt lat="43.7373956" lon="12.7783034"><ele>222.66666666666669</ele><time>2026-04-05T09:02:01.906Z</time></trkpt><trkpt lat="43.7373677" lon="12.7781071"><ele>224.33333333333331</ele><time>2026-04-05T09:02:02.906Z</time></trkpt><trkpt lat="43.7373335" lon="12.7778981"><ele>226.0</ele><time>2026-04-05T09:02:03.907Z</time></trkpt><trkpt lat="43.7372975" lon="12.7776918"><ele>226.33333333333331</ele><time>2026-04-05T09:02:04.907Z</time></trkpt><trkpt lat="43.737258" lon="12.777485"><ele>226.66666666666669</ele><time>2026-04-05T09:02:05.908Z</time></trkpt><trkpt lat="43.7372195" lon="12.7772815"><ele>227.0</ele><time>2026-04-05T09:02:06.907Z</time></trkpt><trkpt lat="43.737187" lon="12.7770838"><ele>227.0</ele><time>2026-04-05T09:02:07.907Z</time></trkpt><trkpt lat="43.7371571" lon="12.7768885"><ele>227.0</ele><time>2026-04-05T09:02:08.907Z</time></trkpt><trkpt lat="43.7371248" lon="12.776692"><ele>227.0</ele><time>2026-04-05T09:02:09.907Z</time></trkpt><trkpt lat="43.73709" lon="12.7764951"><ele>227.0</ele><time>2026-04-05T09:02:10.907Z</time></trkpt><trkpt lat="43.7370529" lon="12.7762989"><ele>226.75</ele><time>2026-04-05T09:02:11.907Z</time></trkpt><trkpt lat="43.7370229" lon="12.776099"><ele>226.5</ele><time>2026-04-05T09:02:12.907Z</time></trkpt><trkpt lat="43.7370076" lon="12.7758941"><ele>226.25</ele><time>2026-04-05T09:02:13.907Z</time></trkpt><trkpt lat="43.7370087" lon="12.7756871"><ele>226.0</ele><time>2026-04-05T09:02:14.906Z</time></trkpt><trkpt lat="43.7370227" lon="12.775477"><ele>228.33333333333331</ele><time>2026-04-05T09:02:15.906Z</time></trkpt><trkpt lat="43.7370483" lon="12.7752669"><ele>230.66666666666669</ele><time>2026-04-05T09:02:16.907Z</time></trkpt><trkpt lat="43.7370804" lon="12.7750584"><ele>233.0</ele><time>2026-04-05T09:02:17.908Z</time></trkpt><trkpt lat="43.7371111" lon="12.7748505"><ele>235.0</ele><time>2026-04-05T09:02:18.907Z</time></trkpt><trkpt lat="43.7371439" lon="12.7746607"><ele>237.0</ele><time>2026-04-05T09:02:19.907Z</time></trkpt><trkpt lat="43.737192" lon="12.7745026"><ele>239.0</ele><time>2026-04-05T09:02:20.907Z</time></trkpt><trkpt lat="43.7372616" lon="12.774398"><ele>241.0</ele><time>2026-04-05T09:02:21.907Z</time></trkpt><trkpt lat="43.7373467" lon="12.7743529"><ele>241.0</ele><time>2026-04-05T09:02:22.907Z</time></trkpt><trkpt lat="43.7374435" lon="12.7743575"><ele>241.0</ele><time>2026-04-05T09:02:23.907Z</time></trkpt><trkpt lat="43.7375482" lon="12.7743838"><ele>241.0</ele><time>2026-04-05T09:02:24.907Z</time></trkpt><trkpt lat="43.7376657" lon="12.7743931"><ele>241.0</ele><time>2026-04-05T09:02:25.907Z</time></trkpt><trkpt lat="43.737798" lon="12.7743691"><ele>244.0</ele><time>2026-04-05T09:02:26.907Z</time></trkpt><trkpt lat="43.7379376" lon="12.7743148"><ele>247.0</ele><time>2026-04-05T09:02:27.906Z</time></trkpt><trkpt lat="43.738072" lon="12.7742513"><ele>250.0</ele><time>2026-04-05T09:02:28.907Z</time></trkpt><trkpt lat="43.7381969" lon="12.7741879"><ele>253.0</ele><time>2026-04-05T09:02:29.907Z</time></trkpt><trkpt lat="43.7382979" lon="12.7741067"><ele>253.0</ele><time>2026-04-05T09:02:30.906Z</time></trkpt><trkpt lat="43.7383838" lon="12.7739874"><ele>253.0</ele><time>2026-04-05T09:02:31.907Z</time></trkpt><trkpt lat="43.738456" lon="12.7738394"><ele>253.0</ele><time>2026-04-05T09:02:32.906Z</time></trkpt><trkpt lat="43.7385237" lon="12.7736736"><ele>253.0</ele><time>2026-04-05T09:02:33.906Z</time></trkpt><trkpt lat="43.7385901" lon="12.773492"><ele>252.25</ele><time>2026-04-05T09:02:34.908Z</time></trkpt><trkpt lat="43.7386506" lon="12.7733023"><ele>251.5</ele><time>2026-04-05T09:02:35.907Z</time></trkpt><trkpt lat="43.7387047" lon="12.7731198"><ele>250.75</ele><time>2026-04-05T09:02:36.906Z</time></trkpt><trkpt lat="43.7387591" lon="12.7729359"><ele>250.0</ele><time>2026-04-05T09:02:37.907Z</time></trkpt><trkpt lat="43.7388034" lon="12.7727507"><ele>253.0</ele><time>2026-04-05T09:02:38.908Z</time></trkpt><trkpt lat="43.7388181" lon="12.7725535"><ele>256.0</ele><time>2026-04-05T09:02:39.907Z</time></trkpt><trkpt lat="43.7388083" lon="12.7723463"><ele>259.0</ele><time>2026-04-05T09:02:40.907Z</time></trkpt><trkpt lat="43.7387857" lon="12.7721296"><ele>259.0</ele><time>2026-04-05T09:02:41.907Z</time></trkpt><trkpt lat="43.7387675" lon="12.7718972"><ele>259.0</ele><time>2026-04-05T09:02:42.907Z</time></trkpt><trkpt lat="43.7387552" lon="12.7716769"><ele>259.0</ele><time>2026-04-05T09:02:43.906Z</time></trkpt><trkpt lat="43.7387426" lon="12.7714856"><ele>259.5</ele><time>2026-04-05T09:02:44.908Z</time></trkpt><trkpt lat="43.7387272" lon="12.7713109"><ele>260.0</ele><time>2026-04-05T09:02:45.906Z</time></trkpt><trkpt lat="43.7387036" lon="12.7711434"><ele>260.5</ele><time>2026-04-05T09:02:46.907Z</time></trkpt><trkpt lat="43.7386628" lon="12.7709759"><ele>261.0</ele><time>2026-04-05T09:02:47.907Z</time></trkpt><trkpt lat="43.738606" lon="12.7708082"><ele>265.0</ele><time>2026-04-05T09:02:48.907Z</time></trkpt><trkpt lat="43.7385369" lon="12.7706343"><ele>269.0</ele><time>2026-04-05T09:02:49.906Z</time></trkpt><trkpt lat="43.7384594" lon="12.7704529"><ele>273.0</ele><time>2026-04-05T09:02:50.907Z</time></trkpt><trkpt lat="43.7383741" lon="12.7702669"><ele>274.3333333333333</ele><time>2026-04-05T09:02:51.907Z</time></trkpt><trkpt lat="43.7382882" lon="12.7700853"><ele>275.66666666666663</ele><time>2026-04-05T09:02:52.907Z</time></trkpt><trkpt lat="43.7381988" lon="12.7698981"><ele>277.0</ele><time>2026-04-05T09:02:53.907Z</time></trkpt><trkpt lat="43.7381021" lon="12.7697123"><ele>277.0</ele><time>2026-04-05T09:02:54.906Z</time></trkpt><trkpt lat="43.7379936" lon="12.7695325"><ele>277.0</ele><time>2026-04-05T09:02:55.907Z</time></trkpt><trkpt lat="43.7378747" lon="12.769352"><ele>277.0</ele><time>2026-04-05T09:02:56.906Z</time></trkpt><trkpt lat="43.7377505" lon="12.7691633"><ele>277.0</ele><time>2026-04-05T09:02:57.907Z</time></trkpt><trkpt lat="43.7376225" lon="12.7689648"><ele>277.0</ele><time>2026-04-05T09:02:58.907Z</time></trkpt><trkpt lat="43.7374796" lon="12.7687575"><ele>277.0</ele><time>2026-04-05T09:02:59.907Z</time></trkpt><trkpt lat="43.7373253" lon="12.7685375"><ele>278.0</ele><time>2026-04-05T09:03:00.907Z</time></trkpt><trkpt lat="43.7371614" lon="12.7683056"><ele>279.0</ele><time>2026-04-05T09:03:01.907Z</time></trkpt><trkpt lat="43.736986" lon="12.7680622"><ele>281.0</ele><time>2026-04-05T09:03:02.907Z</time></trkpt><trkpt lat="43.7368128" lon="12.7678204"><ele>283.0</ele><time>2026-04-05T09:03:03.908Z</time></trkpt><trkpt lat="43.7366667" lon="12.7676011"><ele>284.66666666666663</ele><time>2026-04-05T09:03:04.906Z</time></trkpt><trkpt lat="43.7365425" lon="12.7673911"><ele>286.3333333333333</ele><time>2026-04-05T09:03:05.907Z</time></trkpt><trkpt lat="43.7364215" lon="12.7671895"><ele>288.0</ele><time>2026-04-05T09:03:06.907Z</time></trkpt><trkpt lat="43.736288" lon="12.7670012"><ele>289.0</ele><time>2026-04-05T09:03:07.907Z</time></trkpt><trkpt lat="43.7361468" lon="12.7668162"><ele>290.0</ele><time>2026-04-05T09:03:08.907Z</time></trkpt><trkpt lat="43.7360088" lon="12.7666224"><ele>291.0</ele><time>2026-04-05T09:03:09.906Z</time></trkpt><trkpt lat="43.7358733" lon="12.7664345"><ele>293.0</ele><time>2026-04-05T09:03:10.907Z</time></trkpt><trkpt lat="43.735749" lon="12.7662745"><ele>295.0</ele><time>2026-04-05T09:03:11.907Z</time></trkpt><trkpt lat="43.7356253" lon="12.7661426"><ele>297.0</ele><time>2026-04-05T09:03:12.907Z</time></trkpt><trkpt lat="43.7354862" lon="12.7660537"><ele>298.0</ele><time>2026-04-05T09:03:13.907Z</time></trkpt><trkpt lat="43.7353325" lon="12.7660002"><ele>299.0</ele><time>2026-04-05T09:03:14.907Z</time></trkpt><trkpt lat="43.7351905" lon="12.7659577"><ele>300.0</ele><time>2026-04-05T09:03:15.907Z</time></trkpt><trkpt lat="43.735079" lon="12.765891"><ele>301.0</ele><time>2026-04-05T09:03:16.907Z</time></trkpt><trkpt lat="43.7349888" lon="12.7657974"><ele>302.5</ele><time>2026-04-05T09:03:17.907Z</time></trkpt><trkpt lat="43.7349033" lon="12.7656818"><ele>304.0</ele><time>2026-04-05T09:03:18.907Z</time></trkpt><trkpt lat="43.7348236" lon="12.7655556"><ele>305.5</ele><time>2026-04-05T09:03:19.907Z</time></trkpt><trkpt lat="43.7347477" lon="12.7654167"><ele>307.0</ele><time>2026-04-05T09:03:20.906Z</time></trkpt><trkpt lat="43.7346798" lon="12.7652619"><ele>307.0</ele><time>2026-04-05T09:03:21.906Z</time></trkpt><trkpt lat="43.7346117" lon="12.7650948"><ele>307.0</ele><time>2026-04-05T09:03:22.907Z</time></trkpt><trkpt lat="43.7345368" lon="12.7649217"><ele>307.0</ele><time>2026-04-05T09:03:23.907Z</time></trkpt><trkpt lat="43.7344528" lon="12.7647468"><ele>307.0</ele><time>2026-04-05T09:03:24.907Z</time></trkpt><trkpt lat="43.7343599" lon="12.7645742"><ele>307.0</ele><time>2026-04-05T09:03:25.908Z</time></trkpt><trkpt lat="43.7342571" lon="12.764405"><ele>307.0</ele><time>2026-04-05T09:03:26.907Z</time></trkpt><trkpt lat="43.7341465" lon="12.7642418"><ele>307.0</ele><time>2026-04-05T09:03:27.907Z</time></trkpt><trkpt lat="43.7340248" lon="12.764091"><ele>310.0</ele><time>2026-04-05T09:03:28.908Z</time></trkpt><trkpt lat="43.7338986" lon="12.7639463"><ele>313.0</ele><time>2026-04-05T09:03:29.907Z</time></trkpt><trkpt lat="43.7337737" lon="12.7638025"><ele>316.0</ele><time>2026-04-05T09:03:30.908Z</time></trkpt><trkpt lat="43.7336571" lon="12.7636621"><ele>317.0</ele><time>2026-04-05T09:03:31.908Z</time></trkpt><trkpt lat="43.7335479" lon="12.7635353"><ele>318.0</ele><time>2026-04-05T09:03:32.907Z</time></trkpt><trkpt lat="43.7334531" lon="12.7634155"><ele>319.0</ele><time>2026-04-05T09:03:33.906Z</time></trkpt><trkpt lat="43.7333771" lon="12.7632911"><ele>320.0</ele><time>2026-04-05T09:03:34.908Z</time></trkpt><trkpt lat="43.7333169" lon="12.7631596"><ele>320.0</ele><time>2026-04-05T09:03:35.906Z</time></trkpt><trkpt lat="43.7332706" lon="12.7630243"><ele>320.0</ele><time>2026-04-05T09:03:36.907Z</time></trkpt><trkpt lat="43.7332375" lon="12.762887"><ele>320.0</ele><time>2026-04-05T09:03:37.907Z</time></trkpt><trkpt lat="43.7332112" lon="12.7627422"><ele>320.0</ele><time>2026-04-05T09:03:38.907Z</time></trkpt><trkpt lat="43.7331855" lon="12.7625918"><ele>320.0</ele><time>2026-04-05T09:03:39.907Z</time></trkpt><trkpt lat="43.7331649" lon="12.7624369"><ele>321.5</ele><time>2026-04-05T09:03:40.907Z</time></trkpt><trkpt lat="43.7331446" lon="12.7622761"><ele>323.0</ele><time>2026-04-05T09:03:41.907Z</time></trkpt><trkpt lat="43.733126" lon="12.7621082"><ele>324.5</ele><time>2026-04-05T09:03:42.907Z</time></trkpt><trkpt lat="43.7331077" lon="12.7619318"><ele>326.0</ele><time>2026-04-05T09:03:43.907Z</time></trkpt><trkpt lat="43.7330921" lon="12.7617454"><ele>326.25</ele><time>2026-04-05T09:03:44.907Z</time></trkpt><trkpt lat="43.7330761" lon="12.761553"><ele>326.5</ele><time>2026-04-05T09:03:45.907Z</time></trkpt><trkpt lat="43.7330646" lon="12.7613496"><ele>326.75</ele><time>2026-04-05T09:03:46.907Z</time></trkpt><trkpt lat="43.7330547" lon="12.7611413"><ele>327.0</ele><time>2026-04-05T09:03:47.907Z</time></trkpt><trkpt lat="43.7330384" lon="12.7609279"><ele>328.0</ele><time>2026-04-05T09:03:48.906Z</time></trkpt><trkpt lat="43.7330158" lon="12.7607141"><ele>329.0</ele><time>2026-04-05T09:03:49.907Z</time></trkpt><trkpt lat="43.7329959" lon="12.7604968"><ele>330.0</ele><time>2026-04-05T09:03:50.908Z</time></trkpt><trkpt lat="43.7329789" lon="12.7602745"><ele>330.3333333333333</ele><time>2026-04-05T09:03:51.907Z</time></trkpt><trkpt lat="43.732962" lon="12.7600477"><ele>330.66666666666663</ele><time>2026-04-05T09:03:52.907Z</time></trkpt><trkpt lat="43.7329429" lon="12.7598185"><ele>331.0</ele><time>2026-04-05T09:03:53.907Z</time></trkpt><trkpt lat="43.7329317" lon="12.759583"><ele>331.0</ele><time>2026-04-05T09:03:54.908Z</time></trkpt><trkpt lat="43.732935" lon="12.7593775"><ele>331.0</ele><time>2026-04-05T09:03:55.907Z</time></trkpt><trkpt lat="43.7329525" lon="12.7591933"><ele>331.0</ele><time>2026-04-05T09:03:56.907Z</time></trkpt><trkpt lat="43.7329863" lon="12.7590238"><ele>331.0</ele><time>2026-04-05T09:03:57.907Z</time></trkpt><trkpt lat="43.7330284" lon="12.7588526"><ele>331.8</ele><time>2026-04-05T09:03:58.907Z</time></trkpt><trkpt lat="43.7330656" lon="12.7586841"><ele>332.6</ele><time>2026-04-05T09:03:59.907Z</time></trkpt><trkpt lat="43.7330989" lon="12.7585321"><ele>333.4</ele><time>2026-04-05T09:04:00.907Z</time></trkpt><trkpt lat="43.7331313" lon="12.7584042"><ele>334.2</ele><time>2026-04-05T09:04:01.907Z</time></trkpt><trkpt lat="43.7331573" lon="12.7583002"><ele>335.0</ele><time>2026-04-05T09:04:02.906Z</time></trkpt><trkpt lat="43.7331783" lon="12.7582138"><ele>336.1666666666667</ele><time>2026-04-05T09:04:03.907Z</time></trkpt><trkpt lat="43.73321" lon="12.7580953"><ele>337.33333333333337</ele><time>2026-04-05T09:04:05.907Z</time></trkpt><trkpt lat="43.7332231" lon="12.7579728"><ele>338.5</ele><time>2026-04-05T09:04:08.907Z</time></trkpt><trkpt lat="43.7332301" lon="12.7578828"><ele>339.6666666666667</ele><time>2026-04-05T09:04:11.908Z</time></trkpt><trkpt lat="43.7332765" lon="12.7577469"><ele>340.8333333333333</ele><time>2026-04-05T09:04:14.907Z</time></trkpt><trkpt lat="43.7333149" lon="12.7576667"><ele>342.0</ele><time>2026-04-05T09:04:15.907Z</time></trkpt><trkpt lat="43.7333794" lon="12.7575724"><ele>339.25</ele><time>2026-04-05T09:04:16.907Z</time></trkpt><trkpt lat="43.7334606" lon="12.7574615"><ele>336.5</ele><time>2026-04-05T09:04:17.907Z</time></trkpt><trkpt lat="43.7335541" lon="12.7573277"><ele>333.75</ele><time>2026-04-05T09:04:18.906Z</time></trkpt><trkpt lat="43.7336318" lon="12.7571908"><ele>331.0</ele><time>2026-04-05T09:04:19.907Z</time></trkpt><trkpt lat="43.7336944" lon="12.7570347"><ele>333.75</ele><time>2026-04-05T09:04:20.907Z</time></trkpt><trkpt lat="43.7337302" lon="12.756864"><ele>336.5</ele><time>2026-04-05T09:04:21.908Z</time></trkpt><trkpt lat="43.7337342" lon="12.7566806"><ele>339.25</ele><time>2026-04-05T09:04:22.908Z</time></trkpt><trkpt lat="43.7337226" lon="12.7565113"><ele>342.0</ele><time>2026-04-05T09:04:23.906Z</time></trkpt><trkpt lat="43.7337085" lon="12.7563597"><ele>342.0</ele><time>2026-04-05T09:04:24.907Z</time></trkpt><trkpt lat="43.7336989" lon="12.7562331"><ele>342.0</ele><time>2026-04-05T09:04:25.906Z</time></trkpt><trkpt lat="43.7336914" lon="12.7561365"><ele>342.0</ele><time>2026-04-05T09:04:26.907Z</time></trkpt><trkpt lat="43.7336694" lon="12.7560102"><ele>342.0</ele><time>2026-04-05T09:04:28.906Z</time></trkpt><trkpt lat="43.7335827" lon="12.7559656"><ele>342.0</ele><time>2026-04-05T09:04:30.907Z</time></trkpt><trkpt lat="43.7334479" lon="12.7559295"><ele>345.20000000000005</ele><time>2026-04-05T09:04:32.907Z</time></trkpt><trkpt lat="43.7333662" lon="12.7558975"><ele>348.4</ele><time>2026-04-05T09:04:33.906Z</time></trkpt><trkpt lat="43.7332697" lon="12.7558734"><ele>351.6</ele><time>2026-04-05T09:04:34.907Z</time></trkpt><trkpt lat="43.7331646" lon="12.7558398"><ele>354.79999999999995</ele><time>2026-04-05T09:04:35.907Z</time></trkpt><trkpt lat="43.7330511" lon="12.7558032"><ele>358.0</ele><time>2026-04-05T09:04:36.906Z</time></trkpt><trkpt lat="43.7329343" lon="12.7557838"><ele>358.0</ele><time>2026-04-05T09:04:37.907Z</time></trkpt><trkpt lat="43.7328091" lon="12.7557892"><ele>358.0</ele><time>2026-04-05T09:04:38.907Z</time></trkpt><trkpt lat="43.7326801" lon="12.7558296"><ele>358.0</ele><time>2026-04-05T09:04:39.908Z</time></trkpt><trkpt lat="43.7325474" lon="12.7558956"><ele>358.0</ele><time>2026-04-05T09:04:40.907Z</time></trkpt><trkpt lat="43.732406" lon="12.7559607"><ele>358.75</ele><time>2026-04-05T09:04:41.907Z</time></trkpt><trkpt lat="43.7322696" lon="12.756003"><ele>359.5</ele><time>2026-04-05T09:04:42.907Z</time></trkpt><trkpt lat="43.7321459" lon="12.7560401"><ele>360.25</ele><time>2026-04-05T09:04:43.906Z</time></trkpt><trkpt lat="43.7320377" lon="12.7560678"><ele>361.0</ele><time>2026-04-05T09:04:44.906Z</time></trkpt><trkpt lat="43.7319438" lon="12.7560853"><ele>362.5714285714286</ele><time>2026-04-05T09:04:45.906Z</time></trkpt><trkpt lat="43.7318635" lon="12.7561118"><ele>364.1428571428571</ele><time>2026-04-05T09:04:46.906Z</time></trkpt><trkpt lat="43.7318103" lon="12.7561745"><ele>365.7142857142857</ele><time>2026-04-05T09:04:47.905Z</time></trkpt><trkpt lat="43.7317909" lon="12.7562668"><ele>367.28571428571433</ele><time>2026-04-05T09:04:48.906Z</time></trkpt><trkpt lat="43.7318098" lon="12.7563589"><ele>368.8571428571429</ele><time>2026-04-05T09:04:49.906Z</time></trkpt><trkpt lat="43.7318687" lon="12.7564274"><ele>370.42857142857144</ele><time>2026-04-05T09:04:50.905Z</time></trkpt><trkpt lat="43.7319485" lon="12.7564425"><ele>372.0</ele><time>2026-04-05T09:04:51.906Z</time></trkpt><trkpt lat="43.732038" lon="12.7564128"><ele>372.0</ele><time>2026-04-05T09:04:52.906Z</time></trkpt><trkpt lat="43.7321409" lon="12.7563634"><ele>372.0</ele><time>2026-04-05T09:04:53.906Z</time></trkpt><trkpt lat="43.7322683" lon="12.7563077"><ele>372.0</ele><time>2026-04-05T09:04:54.906Z</time></trkpt><trkpt lat="43.7323976" lon="12.7562424"><ele>372.0</ele><time>2026-04-05T09:04:55.905Z</time></trkpt><trkpt lat="43.7325087" lon="12.7561955"><ele>372.0</ele><time>2026-04-05T09:04:56.907Z</time></trkpt><trkpt lat="43.7326054" lon="12.7561674"><ele>372.0</ele><time>2026-04-05T09:04:57.905Z</time></trkpt><trkpt lat="43.7326926" lon="12.7561825"><ele>372.0</ele><time>2026-04-05T09:04:58.906Z</time></trkpt><trkpt lat="43.7327478" lon="12.7562577"><ele>372.0</ele><time>2026-04-05T09:04:59.906Z</time></trkpt><trkpt lat="43.7327553" lon="12.7563479"><ele>372.0</ele><time>2026-04-05T09:05:00.905Z</time></trkpt><trkpt lat="43.7327219" lon="12.7564276"><ele>372.0</ele><time>2026-04-05T09:05:01.907Z</time></trkpt><trkpt lat="43.732656" lon="12.7564693"><ele>372.0</ele><time>2026-04-05T09:05:02.905Z</time></trkpt><trkpt lat="43.7325706" lon="12.7564798"><ele>372.0</ele><time>2026-04-05T09:05:03.906Z</time></trkpt><trkpt lat="43.7324721" lon="12.7564772"><ele>372.0</ele><time>2026-04-05T09:05:04.906Z</time></trkpt><trkpt lat="43.7323621" lon="12.7565044"><ele>372.0</ele><time>2026-04-05T09:05:05.907Z</time></trkpt><trkpt lat="43.7322409" lon="12.7565688"><ele>372.0</ele><time>2026-04-05T09:05:06.906Z</time></trkpt><trkpt lat="43.732106" lon="12.7566365"><ele>372.0</ele><time>2026-04-05T09:05:07.906Z</time></trkpt><trkpt lat="43.7319793" lon="12.7566816"><ele>372.0</ele><time>2026-04-05T09:05:08.905Z</time></trkpt><trkpt lat="43.7318633" lon="12.7566996"><ele>372.0</ele><time>2026-04-05T09:05:09.905Z</time></trkpt><trkpt lat="43.7317554" lon="12.7566763"><ele>372.0</ele><time>2026-04-05T09:05:10.906Z</time></trkpt><trkpt lat="43.7316412" lon="12.7566051"><ele>372.75</ele><time>2026-04-05T09:05:11.906Z</time></trkpt><trkpt lat="43.7315473" lon="12.7564744"><ele>373.5</ele><time>2026-04-05T09:05:12.906Z</time></trkpt><trkpt lat="43.7314593" lon="12.7563031"><ele>374.25</ele><time>2026-04-05T09:05:13.906Z</time></trkpt><trkpt lat="43.7313722" lon="12.7561423"><ele>375.0</ele><time>2026-04-05T09:05:14.906Z</time></trkpt><trkpt lat="43.7312881" lon="12.7559879"><ele>376.0</ele><time>2026-04-05T09:05:15.905Z</time></trkpt><trkpt lat="43.7311881" lon="12.7558698"><ele>377.0</ele><time>2026-04-05T09:05:16.906Z</time></trkpt><trkpt lat="43.7310634" lon="12.7557836"><ele>378.0</ele><time>2026-04-05T09:05:17.906Z</time></trkpt><trkpt lat="43.7309339" lon="12.7556899"><ele>379.0</ele><time>2026-04-05T09:05:18.905Z</time></trkpt><trkpt lat="43.7308151" lon="12.7555562"><ele>379.0</ele><time>2026-04-05T09:05:19.906Z</time></trkpt><trkpt lat="43.7307096" lon="12.7553844"><ele>379.0</ele><time>2026-04-05T09:05:20.906Z</time></trkpt><trkpt lat="43.7306103" lon="12.7551907"><ele>379.0</ele><time>2026-04-05T09:05:21.906Z</time></trkpt><trkpt lat="43.7304998" lon="12.7549914"><ele>378.66666666666663</ele><time>2026-04-05T09:05:22.907Z</time></trkpt><trkpt lat="43.7303738" lon="12.7547919"><ele>378.3333333333333</ele><time>2026-04-05T09:05:23.906Z</time></trkpt><trkpt lat="43.7302393" lon="12.7545972"><ele>378.0</ele><time>2026-04-05T09:05:24.906Z</time></trkpt><trkpt lat="43.730096" lon="12.7544104"><ele>381.33333333333337</ele><time>2026-04-05T09:05:25.906Z</time></trkpt><trkpt lat="43.729954" lon="12.7542122"><ele>384.6666666666667</ele><time>2026-04-05T09:05:26.905Z</time></trkpt><trkpt lat="43.7298185" lon="12.7539942"><ele>388.0</ele><time>2026-04-05T09:05:27.906Z</time></trkpt><trkpt lat="43.7296818" lon="12.7537696"><ele>388.0</ele><time>2026-04-05T09:05:28.906Z</time></trkpt><trkpt lat="43.7295305" lon="12.7535498"><ele>388.0</ele><time>2026-04-05T09:05:29.906Z</time></trkpt><trkpt lat="43.72938" lon="12.7533478"><ele>388.0</ele><time>2026-04-05T09:05:30.906Z</time></trkpt><trkpt lat="43.7292416" lon="12.7531708"><ele>392.0</ele><time>2026-04-05T09:05:31.906Z</time></trkpt><trkpt lat="43.7291112" lon="12.7530134"><ele>396.0</ele><time>2026-04-05T09:05:32.906Z</time></trkpt><trkpt lat="43.7289793" lon="12.7528916"><ele>400.0</ele><time>2026-04-05T09:05:33.906Z</time></trkpt><trkpt lat="43.7288369" lon="12.7528127"><ele>400.0</ele><time>2026-04-05T09:05:34.907Z</time></trkpt><trkpt lat="43.7286846" lon="12.7527559"><ele>400.0</ele><time>2026-04-05T09:05:35.906Z</time></trkpt><trkpt lat="43.7285559" lon="12.7526861"><ele>400.0</ele><time>2026-04-05T09:05:36.905Z</time></trkpt><trkpt lat="43.7284461" lon="12.7526028"><ele>400.0</ele><time>2026-04-05T09:05:37.906Z</time></trkpt><trkpt lat="43.7283492" lon="12.7524883"><ele>403.25</ele><time>2026-04-05T09:05:38.905Z</time></trkpt><trkpt lat="43.7282767" lon="12.7523385"><ele>406.5</ele><time>2026-04-05T09:05:39.906Z</time></trkpt><trkpt lat="43.7282567" lon="12.7521565"><ele>409.75</ele><time>2026-04-05T09:05:40.907Z</time></trkpt><trkpt lat="43.7282498" lon="12.7519517"><ele>413.0</ele><time>2026-04-05T09:05:41.905Z</time></trkpt><trkpt lat="43.7282494" lon="12.7517343"><ele>413.0</ele><time>2026-04-05T09:05:42.906Z</time></trkpt><trkpt lat="43.7282261" lon="12.7515403"><ele>413.0</ele><time>2026-04-05T09:05:43.906Z</time></trkpt><trkpt lat="43.7281739" lon="12.7513771"><ele>413.0</ele><time>2026-04-05T09:05:44.906Z</time></trkpt><trkpt lat="43.7280944" lon="12.7512209"><ele>413.0</ele><time>2026-04-05T09:05:45.906Z</time></trkpt><trkpt lat="43.7279943" lon="12.7510722"><ele>412.25</ele><time>2026-04-05T09:05:46.906Z</time></trkpt><trkpt lat="43.7278739" lon="12.7509437"><ele>411.5</ele><time>2026-04-05T09:05:47.905Z</time></trkpt><trkpt lat="43.7277383" lon="12.7508411"><ele>410.75</ele><time>2026-04-05T09:05:48.906Z</time></trkpt><trkpt lat="43.7276052" lon="12.7507724"><ele>410.0</ele><time>2026-04-05T09:05:49.906Z</time></trkpt><trkpt lat="43.72749" lon="12.7507135"><ele>413.3333333333333</ele><time>2026-04-05T09:05:50.906Z</time></trkpt><trkpt lat="43.7274003" lon="12.7506462"><ele>416.66666666666663</ele><time>2026-04-05T09:05:51.906Z</time></trkpt><trkpt lat="43.7273382" lon="12.7505505"><ele>420.0</ele><time>2026-04-05T09:05:52.906Z</time></trkpt><trkpt lat="43.7272872" lon="12.7504458"><ele>423.33333333333337</ele><time>2026-04-05T09:05:53.907Z</time></trkpt><trkpt lat="43.7272969" lon="12.7503472"><ele>426.6666666666667</ele><time>2026-04-05T09:05:54.906Z</time></trkpt><trkpt lat="43.7273035" lon="12.7502489"><ele>430.0</ele><time>2026-04-05T09:05:55.906Z</time></trkpt><trkpt lat="43.7273205" lon="12.7501506"><ele>430.00000000000006</ele><time>2026-04-05T09:05:56.905Z</time></trkpt><trkpt lat="43.7273425" lon="12.7500526"><ele>430.0</ele><time>2026-04-05T09:05:57.907Z</time></trkpt><trkpt lat="43.7273643" lon="12.7499518"><ele>430.0</ele><time>2026-04-05T09:05:58.905Z</time></trkpt><trkpt lat="43.7273911" lon="12.7498379"><ele>430.0</ele><time>2026-04-05T09:05:59.906Z</time></trkpt><trkpt lat="43.7274251" lon="12.7497129"><ele>430.00000000000006</ele><time>2026-04-05T09:06:00.906Z</time></trkpt><trkpt lat="43.7274609" lon="12.7495768"><ele>430.0</ele><time>2026-04-05T09:06:01.907Z</time></trkpt><trkpt lat="43.727495" lon="12.7494272"><ele>432.0</ele><time>2026-04-05T09:06:02.906Z</time></trkpt><trkpt lat="43.7275316" lon="12.7492659"><ele>434.0</ele><time>2026-04-05T09:06:03.906Z</time></trkpt><trkpt lat="43.727572" lon="12.7491041"><ele>436.0</ele><time>2026-04-05T09:06:04.906Z</time></trkpt><trkpt lat="43.7275967" lon="12.7489522"><ele>438.0</ele><time>2026-04-05T09:06:05.906Z</time></trkpt><trkpt lat="43.7275857" lon="12.7487888"><ele>438.0</ele><time>2026-04-05T09:06:06.906Z</time></trkpt><trkpt lat="43.7275599" lon="12.7486175"><ele>438.0</ele><time>2026-04-05T09:06:07.906Z</time></trkpt><trkpt lat="43.7275647" lon="12.7484597"><ele>438.0</ele><time>2026-04-05T09:06:08.906Z</time></trkpt><trkpt lat="43.727597" lon="12.7483157"><ele>438.0</ele><time>2026-04-05T09:06:09.905Z</time></trkpt><trkpt lat="43.7276404" lon="12.748171"><ele>438.4</ele><time>2026-04-05T09:06:10.906Z</time></trkpt><trkpt lat="43.7276689" lon="12.748024"><ele>438.79999999999995</ele><time>2026-04-05T09:06:11.906Z</time></trkpt><trkpt lat="43.7276648" lon="12.7478814"><ele>439.2</ele><time>2026-04-05T09:06:12.906Z</time></trkpt><trkpt lat="43.7276233" lon="12.7477747"><ele>439.6</ele><time>2026-04-05T09:06:13.906Z</time></trkpt><trkpt lat="43.7275505" lon="12.747706"><ele>440.0</ele><time>2026-04-05T09:06:14.906Z</time></trkpt><trkpt lat="43.7274671" lon="12.7476876"><ele>440.0</ele><time>2026-04-05T09:06:15.905Z</time></trkpt><trkpt lat="43.7273834" lon="12.7477228"><ele>440.0</ele><time>2026-04-05T09:06:16.906Z</time></trkpt><trkpt lat="43.7272983" lon="12.7477932"><ele>440.0</ele><time>2026-04-05T09:06:17.905Z</time></trkpt><trkpt lat="43.7272121" lon="12.7478795"><ele>440.0</ele><time>2026-04-05T09:06:18.906Z</time></trkpt><trkpt lat="43.7271173" lon="12.7479753"><ele>440.0</ele><time>2026-04-05T09:06:19.906Z</time></trkpt><trkpt lat="43.7270173" lon="12.748072"><ele>440.0</ele><time>2026-04-05T09:06:20.906Z</time></trkpt><trkpt lat="43.7269131" lon="12.748158"><ele>440.0</ele><time>2026-04-05T09:06:21.906Z</time></trkpt><trkpt lat="43.7268014" lon="12.7482134"><ele>440.0</ele><time>2026-04-05T09:06:22.905Z</time></trkpt><trkpt lat="43.7266827" lon="12.7482548"><ele>440.0</ele><time>2026-04-05T09:06:23.906Z</time></trkpt><trkpt lat="43.7265627" lon="12.7482819"><ele>442.8</ele><time>2026-04-05T09:06:24.906Z</time></trkpt><trkpt lat="43.7264539" lon="12.748272"><ele>445.6</ele><time>2026-04-05T09:06:25.906Z</time></trkpt><trkpt lat="43.726365" lon="12.7482089"><ele>448.4</ele><time>2026-04-05T09:06:26.906Z</time></trkpt><trkpt lat="43.7263121" lon="12.7481092"><ele>451.2</ele><time>2026-04-05T09:06:27.906Z</time></trkpt><trkpt lat="43.7262909" lon="12.74798"><ele>454.0</ele><time>2026-04-05T09:06:28.906Z</time></trkpt><trkpt lat="43.7262923" lon="12.7478319"><ele>453.0</ele><time>2026-04-05T09:06:29.905Z</time></trkpt><trkpt lat="43.7262835" lon="12.7476943"><ele>452.0</ele><time>2026-04-05T09:06:30.905Z</time></trkpt><trkpt lat="43.7262425" lon="12.7475798"><ele>451.0</ele><time>2026-04-05T09:06:31.906Z</time></trkpt><trkpt lat="43.7261745" lon="12.7475197"><ele>450.0</ele><time>2026-04-05T09:06:32.906Z</time></trkpt><trkpt lat="43.7260929" lon="12.7475269"><ele>449.0</ele><time>2026-04-05T09:06:33.906Z</time></trkpt><trkpt lat="43.7259994" lon="12.7475603"><ele>449.0</ele><time>2026-04-05T09:06:34.906Z</time></trkpt><trkpt lat="43.7258915" lon="12.7475918"><ele>449.0</ele><time>2026-04-05T09:06:35.906Z</time></trkpt><trkpt lat="43.7257713" lon="12.747626"><ele>449.0</ele><time>2026-04-05T09:06:36.906Z</time></trkpt><trkpt lat="43.7256354" lon="12.7476627"><ele>449.0</ele><time>2026-04-05T09:06:37.906Z</time></trkpt><trkpt lat="43.7254889" lon="12.7477146"><ele>456.3333333333333</ele><time>2026-04-05T09:06:38.906Z</time></trkpt><trkpt lat="43.725332" lon="12.7477649"><ele>463.66666666666663</ele><time>2026-04-05T09:06:39.906Z</time></trkpt><trkpt lat="43.7251719" lon="12.7478084"><ele>471.0</ele><time>2026-04-05T09:06:40.905Z</time></trkpt><trkpt lat="43.7250016" lon="12.7478574"><ele>474.0</ele><time>2026-04-05T09:06:41.905Z</time></trkpt><trkpt lat="43.7248224" lon="12.7479116"><ele>477.0</ele><time>2026-04-05T09:06:42.906Z</time></trkpt><trkpt lat="43.7246332" lon="12.7479764"><ele>480.0</ele><time>2026-04-05T09:06:43.906Z</time></trkpt><trkpt lat="43.7244448" lon="12.7480381"><ele>478.0</ele><time>2026-04-05T09:06:44.905Z</time></trkpt><trkpt lat="43.7242647" lon="12.7481295"><ele>476.0</ele><time>2026-04-05T09:06:45.906Z</time></trkpt><trkpt lat="43.7240941" lon="12.7482468"><ele>474.0</ele><time>2026-04-05T09:06:46.905Z</time></trkpt><trkpt lat="43.7239467" lon="12.748355"><ele>474.0</ele><time>2026-04-05T09:06:47.906Z</time></trkpt><trkpt lat="43.7238045" lon="12.7484405"><ele>474.0</ele><time>2026-04-05T09:06:48.906Z</time></trkpt><trkpt lat="43.7236486" lon="12.7485096"><ele>474.0</ele><time>2026-04-05T09:06:49.907Z</time></trkpt><trkpt lat="43.7235026" lon="12.7485647"><ele>473.0</ele><time>2026-04-05T09:06:50.905Z</time></trkpt><trkpt lat="43.7233718" lon="12.7485956"><ele>472.0</ele><time>2026-04-05T09:06:51.907Z</time></trkpt><trkpt lat="43.723241" lon="12.7486006"><ele>471.0</ele><time>2026-04-05T09:06:52.906Z</time></trkpt><trkpt lat="43.7231137" lon="12.7485766"><ele>470.0</ele><time>2026-04-05T09:06:53.906Z</time></trkpt><trkpt lat="43.722982" lon="12.7485414"><ele>470.0</ele><time>2026-04-05T09:06:54.907Z</time></trkpt><trkpt lat="43.722842" lon="12.7484981"><ele>470.0</ele><time>2026-04-05T09:06:55.907Z</time></trkpt><trkpt lat="43.7226912" lon="12.7484497"><ele>470.0</ele><time>2026-04-05T09:06:56.905Z</time></trkpt><trkpt lat="43.7225348" lon="12.748394"><ele>472.66666666666663</ele><time>2026-04-05T09:06:57.905Z</time></trkpt><trkpt lat="43.722372" lon="12.7483415"><ele>475.33333333333337</ele><time>2026-04-05T09:06:58.906Z</time></trkpt><trkpt lat="43.7222051" lon="12.7482859"><ele>478.0</ele><time>2026-04-05T09:06:59.906Z</time></trkpt><trkpt lat="43.722046" lon="12.7482134"><ele>478.0</ele><time>2026-04-05T09:07:00.906Z</time></trkpt><trkpt lat="43.7219032" lon="12.7481156"><ele>478.0</ele><time>2026-04-05T09:07:01.906Z</time></trkpt><trkpt lat="43.7217914" lon="12.7479937"><ele>478.0</ele><time>2026-04-05T09:07:02.906Z</time></trkpt><trkpt lat="43.7216969" lon="12.7478707"><ele>478.0</ele><time>2026-04-05T09:07:03.906Z</time></trkpt><trkpt lat="43.7216088" lon="12.7477733"><ele>479.83333333333337</ele><time>2026-04-05T09:07:04.906Z</time></trkpt><trkpt lat="43.7215279" lon="12.7477228"><ele>481.6666666666667</ele><time>2026-04-05T09:07:05.905Z</time></trkpt><trkpt lat="43.7214555" lon="12.7477246"><ele>483.5</ele><time>2026-04-05T09:07:06.907Z</time></trkpt><trkpt lat="43.7213996" lon="12.7477754"><ele>485.33333333333337</ele><time>2026-04-05T09:07:07.906Z</time></trkpt><trkpt lat="43.7213753" lon="12.7478738"><ele>487.1666666666667</ele><time>2026-04-05T09:07:08.906Z</time></trkpt><trkpt lat="43.7213897" lon="12.747997"><ele>489.0</ele><time>2026-04-05T09:07:09.905Z</time></trkpt><trkpt lat="43.721445" lon="12.7481274"><ele>489.0</ele><time>2026-04-05T09:07:10.907Z</time></trkpt><trkpt lat="43.721528" lon="12.7482687"><ele>489.0</ele><time>2026-04-05T09:07:11.906Z</time></trkpt><trkpt lat="43.7216201" lon="12.7484393"><ele>489.0</ele><time>2026-04-05T09:07:12.906Z</time></trkpt><trkpt lat="43.7217273" lon="12.7486267"><ele>490.0</ele><time>2026-04-05T09:07:13.906Z</time></trkpt><trkpt lat="43.7218609" lon="12.748805"><ele>491.0</ele><time>2026-04-05T09:07:14.906Z</time></trkpt><trkpt lat="43.7219885" lon="12.7489461"><ele>492.0</ele><time>2026-04-05T09:07:15.906Z</time></trkpt><trkpt lat="43.7221041" lon="12.7490716"><ele>492.0</ele><time>2026-04-05T09:07:16.905Z</time></trkpt><trkpt lat="43.7221985" lon="12.7491929"><ele>492.00000000000006</ele><time>2026-04-05T09:07:17.905Z</time></trkpt><trkpt lat="43.7222594" lon="12.749313"><ele>492.00000000000006</ele><time>2026-04-05T09:07:18.906Z</time></trkpt><trkpt lat="43.7222747" lon="12.7494246"><ele>492.0</ele><time>2026-04-05T09:07:19.906Z</time></trkpt><trkpt lat="43.7222414" lon="12.7495142"><ele>492.0</ele><time>2026-04-05T09:07:20.906Z</time></trkpt><trkpt lat="43.722172" lon="12.7495588"><ele>494.1666666666667</ele><time>2026-04-05T09:07:21.906Z</time></trkpt><trkpt lat="43.7220934" lon="12.7495401"><ele>496.33333333333337</ele><time>2026-04-05T09:07:22.905Z</time></trkpt><trkpt lat="43.7220246" lon="12.7494994"><ele>498.5</ele><time>2026-04-05T09:07:23.905Z</time></trkpt><trkpt lat="43.7219588" lon="12.7494552"><ele>500.6666666666667</ele><time>2026-04-05T09:07:25.906Z</time></trkpt><trkpt lat="43.7218928" lon="12.7493817"><ele>502.83333333333337</ele><time>2026-04-05T09:07:28.906Z</time></trkpt><trkpt lat="43.7218044" lon="12.7493052"><ele>505.0</ele><time>2026-04-05T09:07:30.906Z</time></trkpt><trkpt lat="43.7217378" lon="12.7492507"><ele>505.0</ele><time>2026-04-05T09:07:31.906Z</time></trkpt><trkpt lat="43.7216595" lon="12.7491953"><ele>505.0</ele><time>2026-04-05T09:07:32.906Z</time></trkpt><trkpt lat="43.7215684" lon="12.7491509"><ele>505.0</ele><time>2026-04-05T09:07:33.906Z</time></trkpt><trkpt lat="43.7214676" lon="12.7491217"><ele>505.0</ele><time>2026-04-05T09:07:34.905Z</time></trkpt><trkpt lat="43.7213638" lon="12.7490875"><ele>505.0</ele><time>2026-04-05T09:07:35.905Z</time></trkpt><trkpt lat="43.7212568" lon="12.7490411"><ele>505.0</ele><time>2026-04-05T09:07:36.906Z</time></trkpt><trkpt lat="43.7211427" lon="12.7489871"><ele>505.0</ele><time>2026-04-05T09:07:37.906Z</time></trkpt><trkpt lat="43.7210199" lon="12.7489331"><ele>505.0</ele><time>2026-04-05T09:07:38.906Z</time></trkpt><trkpt lat="43.7208858" lon="12.7488786"><ele>505.0</ele><time>2026-04-05T09:07:39.906Z</time></trkpt><trkpt lat="43.7207474" lon="12.7488142"><ele>507.0</ele><time>2026-04-05T09:07:40.905Z</time></trkpt><trkpt lat="43.7206116" lon="12.7487405"><ele>509.0</ele><time>2026-04-05T09:07:41.906Z</time></trkpt><trkpt lat="43.7204738" lon="12.7486652"><ele>511.0</ele><time>2026-04-05T09:07:42.906Z</time></trkpt><trkpt lat="43.7203445" lon="12.7485943"><ele>513.0</ele><time>2026-04-05T09:07:43.906Z</time></trkpt><trkpt lat="43.7202293" lon="12.7485205"><ele>514.25</ele><time>2026-04-05T09:07:44.907Z</time></trkpt><trkpt lat="43.7201288" lon="12.7484243"><ele>515.5</ele><time>2026-04-05T09:07:45.906Z</time></trkpt><trkpt lat="43.7200503" lon="12.7483004"><ele>516.75</ele><time>2026-04-05T09:07:46.906Z</time></trkpt><trkpt lat="43.7199956" lon="12.7481406"><ele>518.0</ele><time>2026-04-05T09:07:47.906Z</time></trkpt><trkpt lat="43.7199385" lon="12.7479654"><ele>518.0</ele><time>2026-04-05T09:07:48.906Z</time></trkpt><trkpt lat="43.7198797" lon="12.7477744"><ele>518.0</ele><time>2026-04-05T09:07:49.906Z</time></trkpt><trkpt lat="43.7198184" lon="12.7475759"><ele>518.0</ele><time>2026-04-05T09:07:50.906Z</time></trkpt><trkpt lat="43.7197552" lon="12.7473981"><ele>518.0</ele><time>2026-04-05T09:07:51.906Z</time></trkpt><trkpt lat="43.7196826" lon="12.7472565"><ele>516.5</ele><time>2026-04-05T09:07:52.906Z</time></trkpt><trkpt lat="43.7195832" lon="12.7471469"><ele>515.0</ele><time>2026-04-05T09:07:53.906Z</time></trkpt><trkpt lat="43.7194619" lon="12.7470546"><ele>513.5</ele><time>2026-04-05T09:07:54.905Z</time></trkpt><trkpt lat="43.7193283" lon="12.7469663"><ele>512.0</ele><time>2026-04-05T09:07:55.906Z</time></trkpt><trkpt lat="43.7191879" lon="12.7468781"><ele>515.6666666666666</ele><time>2026-04-05T09:07:56.906Z</time></trkpt><trkpt lat="43.71904" lon="12.7468025"><ele>519.3333333333334</ele><time>2026-04-05T09:07:57.906Z</time></trkpt><trkpt lat="43.7188734" lon="12.7467368"><ele>523.0</ele><time>2026-04-05T09:07:58.906Z</time></trkpt><trkpt lat="43.7186933" lon="12.7466702"><ele>526.0</ele><time>2026-04-05T09:07:59.907Z</time></trkpt><trkpt lat="43.7185143" lon="12.7466013"><ele>529.0</ele><time>2026-04-05T09:08:00.906Z</time></trkpt><trkpt lat="43.7183439" lon="12.7465344"><ele>532.0</ele><time>2026-04-05T09:08:01.907Z</time></trkpt><trkpt lat="43.7181887" lon="12.7464969"><ele>532.0</ele><time>2026-04-05T09:08:02.906Z</time></trkpt><trkpt lat="43.7180447" lon="12.7464967"><ele>532.0</ele><time>2026-04-05T09:08:03.905Z</time></trkpt><trkpt lat="43.7179197" lon="12.7465229"><ele>532.0</ele><time>2026-04-05T09:08:04.905Z</time></trkpt><trkpt lat="43.7178095" lon="12.746576"><ele>532.0</ele><time>2026-04-05T09:08:05.906Z</time></trkpt><trkpt lat="43.7177147" lon="12.7466612"><ele>532.8000000000001</ele><time>2026-04-05T09:08:06.905Z</time></trkpt><trkpt lat="43.7176438" lon="12.7467824"><ele>533.6</ele><time>2026-04-05T09:08:07.906Z</time></trkpt><trkpt lat="43.7175837" lon="12.7469166"><ele>534.4000000000001</ele><time>2026-04-05T09:08:08.906Z</time></trkpt><trkpt lat="43.71753" lon="12.7470335"><ele>535.2</ele><time>2026-04-05T09:08:09.906Z</time></trkpt><trkpt lat="43.7174791" lon="12.7471506"><ele>536.0</ele><time>2026-04-05T09:08:10.906Z</time></trkpt><trkpt lat="43.7174402" lon="12.7472624"><ele>538.5</ele><time>2026-04-05T09:08:11.906Z</time></trkpt><trkpt lat="43.7174156" lon="12.7473949"><ele>541.0</ele><time>2026-04-05T09:08:12.906Z</time></trkpt><trkpt lat="43.7174099" lon="12.7475736"><ele>543.5</ele><time>2026-04-05T09:08:13.905Z</time></trkpt><trkpt lat="43.7174114" lon="12.7477845"><ele>546.0</ele><time>2026-04-05T09:08:14.906Z</time></trkpt><trkpt lat="43.7174058" lon="12.7480132"><ele>547.6666666666666</ele><time>2026-04-05T09:08:15.907Z</time></trkpt><trkpt lat="43.7174011" lon="12.7482415"><ele>549.3333333333333</ele><time>2026-04-05T09:08:16.905Z</time></trkpt><trkpt lat="43.717398" lon="12.7484493"><ele>551.0</ele><time>2026-04-05T09:08:17.906Z</time></trkpt><trkpt lat="43.7173913" lon="12.7486405"><ele>551.0</ele><time>2026-04-05T09:08:18.905Z</time></trkpt><trkpt lat="43.7173902" lon="12.7488086"><ele>551.0</ele><time>2026-04-05T09:08:19.906Z</time></trkpt><trkpt lat="43.7173943" lon="12.7489572"><ele>551.0</ele><time>2026-04-05T09:08:20.906Z</time></trkpt><trkpt lat="43.7174004" lon="12.7491012"><ele>551.0</ele><time>2026-04-05T09:08:21.906Z</time></trkpt><trkpt lat="43.7173995" lon="12.7492449"><ele>551.0</ele><time>2026-04-05T09:08:22.906Z</time></trkpt><trkpt lat="43.717372" lon="12.7493897"><ele>550.2</ele><time>2026-04-05T09:08:23.907Z</time></trkpt><trkpt lat="43.7173104" lon="12.7495174"><ele>549.4000000000001</ele><time>2026-04-05T09:08:24.906Z</time></trkpt><trkpt lat="43.7172268" lon="12.7495966"><ele>548.6</ele><time>2026-04-05T09:08:25.905Z</time></trkpt><trkpt lat="43.7171404" lon="12.7496008"><ele>547.8000000000001</ele><time>2026-04-05T09:08:26.906Z</time></trkpt><trkpt lat="43.7170497" lon="12.7495492"><ele>547.0</ele><time>2026-04-05T09:08:27.906Z</time></trkpt><trkpt lat="43.7169591" lon="12.7494513"><ele>549.6666666666667</ele><time>2026-04-05T09:08:28.906Z</time></trkpt><trkpt lat="43.7168606" lon="12.7493277"><ele>552.3333333333334</ele><time>2026-04-05T09:08:29.907Z</time></trkpt><trkpt lat="43.7167466" lon="12.7491863"><ele>555.0</ele><time>2026-04-05T09:08:30.906Z</time></trkpt><trkpt lat="43.7166182" lon="12.7490311"><ele>555.0</ele><time>2026-04-05T09:08:31.906Z</time></trkpt><trkpt lat="43.7164935" lon="12.7488728"><ele>555.0</ele><time>2026-04-05T09:08:32.907Z</time></trkpt><trkpt lat="43.7163542" lon="12.7486952"><ele>555.0</ele><time>2026-04-05T09:08:33.905Z</time></trkpt><trkpt lat="43.7162015" lon="12.7485051"><ele>555.6666666666666</ele><time>2026-04-05T09:08:34.906Z</time></trkpt><trkpt lat="43.7160477" lon="12.7483197"><ele>556.3333333333333</ele><time>2026-04-05T09:08:35.906Z</time></trkpt><trkpt lat="43.7158928" lon="12.7481263"><ele>557.0</ele><time>2026-04-05T09:08:36.906Z</time></trkpt><trkpt lat="43.7157377" lon="12.7479263"><ele>557.0</ele><time>2026-04-05T09:08:37.905Z</time></trkpt><trkpt lat="43.7155812" lon="12.747724"><ele>557.0</ele><time>2026-04-05T09:08:38.906Z</time></trkpt><trkpt lat="43.7154219" lon="12.7475286"><ele>557.0</ele><time>2026-04-05T09:08:39.905Z</time></trkpt><trkpt lat="43.7152657" lon="12.7473347"><ele>559.6666666666666</ele><time>2026-04-05T09:08:40.906Z</time></trkpt><trkpt lat="43.7151136" lon="12.747146"><ele>562.3333333333334</ele><time>2026-04-05T09:08:41.905Z</time></trkpt><trkpt lat="43.7149696" lon="12.7469606"><ele>565.0</ele><time>2026-04-05T09:08:42.906Z</time></trkpt><trkpt lat="43.7148403" lon="12.7467956"><ele>566.0</ele><time>2026-04-05T09:08:43.906Z</time></trkpt><trkpt lat="43.7147216" lon="12.7466449"><ele>567.0</ele><time>2026-04-05T09:08:44.906Z</time></trkpt><trkpt lat="43.7146093" lon="12.7465041"><ele>568.0</ele><time>2026-04-05T09:08:45.906Z</time></trkpt><trkpt lat="43.7145019" lon="12.7463707"><ele>568.0</ele><time>2026-04-05T09:08:46.906Z</time></trkpt><trkpt lat="43.7144069" lon="12.7462259"><ele>568.0</ele><time>2026-04-05T09:08:47.906Z</time></trkpt><trkpt lat="43.7143372" lon="12.7460596"><ele>568.0</ele><time>2026-04-05T09:08:48.906Z</time></trkpt><trkpt lat="43.7142833" lon="12.7458701"><ele>568.0</ele><time>2026-04-05T09:08:49.906Z</time></trkpt><trkpt lat="43.7142283" lon="12.7456706"><ele>570.3333333333334</ele><time>2026-04-05T09:08:50.905Z</time></trkpt><trkpt lat="43.7141685" lon="12.7454611"><ele>572.6666666666666</ele><time>2026-04-05T09:08:51.906Z</time></trkpt><trkpt lat="43.7141072" lon="12.7452392"><ele>575.0</ele><time>2026-04-05T09:08:52.906Z</time></trkpt><trkpt lat="43.7140469" lon="12.7450065"><ele>575.0</ele><time>2026-04-05T09:08:53.906Z</time></trkpt><trkpt lat="43.7139804" lon="12.7447657"><ele>575.0</ele><time>2026-04-05T09:08:54.906Z</time></trkpt><trkpt lat="43.7139109" lon="12.7445171"><ele>575.0</ele><time>2026-04-05T09:08:55.906Z</time></trkpt><trkpt lat="43.7138426" lon="12.7442578"><ele>574.3333333333333</ele><time>2026-04-05T09:08:56.906Z</time></trkpt><trkpt lat="43.7137703" lon="12.7439928"><ele>573.6666666666666</ele><time>2026-04-05T09:08:57.906Z</time></trkpt><trkpt lat="43.7136934" lon="12.7437275"><ele>573.0</ele><time>2026-04-05T09:08:58.906Z</time></trkpt><trkpt lat="43.7136209" lon="12.7434591"><ele>577.6666666666666</ele><time>2026-04-05T09:08:59.906Z</time></trkpt><trkpt lat="43.7135519" lon="12.7431947"><ele>582.3333333333333</ele><time>2026-04-05T09:09:00.907Z</time></trkpt><trkpt lat="43.7134835" lon="12.7429489"><ele>587.0</ele><time>2026-04-05T09:09:01.906Z</time></trkpt><trkpt lat="43.7134158" lon="12.7427191"><ele>586.0</ele><time>2026-04-05T09:09:02.906Z</time></trkpt><trkpt lat="43.7133412" lon="12.7424943"><ele>585.0</ele><time>2026-04-05T09:09:03.906Z</time></trkpt><trkpt lat="43.7132508" lon="12.7422792"><ele>584.0</ele><time>2026-04-05T09:09:04.906Z</time></trkpt><trkpt lat="43.7131568" lon="12.7420621"><ele>582.0</ele><time>2026-04-05T09:09:05.907Z</time></trkpt><trkpt lat="43.7130557" lon="12.7418393"><ele>580.0</ele><time>2026-04-05T09:09:06.906Z</time></trkpt><trkpt lat="43.7129499" lon="12.7416092"><ele>578.0</ele><time>2026-04-05T09:09:07.906Z</time></trkpt><trkpt lat="43.7128414" lon="12.7413724"><ele>581.6666666666666</ele><time>2026-04-05T09:09:08.906Z</time></trkpt><trkpt lat="43.7127342" lon="12.7411323"><ele>585.3333333333334</ele><time>2026-04-05T09:09:09.906Z</time></trkpt><trkpt lat="43.7126379" lon="12.7409114"><ele>589.0</ele><time>2026-04-05T09:09:10.906Z</time></trkpt><trkpt lat="43.7125491" lon="12.7407062"><ele>589.0</ele><time>2026-04-05T09:09:11.907Z</time></trkpt><trkpt lat="43.7124683" lon="12.7405171"><ele>589.0</ele><time>2026-04-05T09:09:12.905Z</time></trkpt><trkpt lat="43.7123888" lon="12.7403431"><ele>589.0</ele><time>2026-04-05T09:09:13.906Z</time></trkpt><trkpt lat="43.7123114" lon="12.7401761"><ele>588.5</ele><time>2026-04-05T09:09:14.906Z</time></trkpt><trkpt lat="43.7122371" lon="12.740015"><ele>588.0</ele><time>2026-04-05T09:09:15.905Z</time></trkpt><trkpt lat="43.7121727" lon="12.7398642"><ele>587.5</ele><time>2026-04-05T09:09:16.906Z</time></trkpt><trkpt lat="43.7121139" lon="12.739721"><ele>587.0</ele><time>2026-04-05T09:09:17.905Z</time></trkpt><trkpt lat="43.712058" lon="12.739589"><ele>587.0</ele><time>2026-04-05T09:09:18.906Z</time></trkpt><trkpt lat="43.7119973" lon="12.7394598"><ele>587.0</ele><time>2026-04-05T09:09:19.906Z</time></trkpt><trkpt lat="43.7119179" lon="12.7393134"><ele>587.0</ele><time>2026-04-05T09:09:20.906Z</time></trkpt><trkpt lat="43.7118339" lon="12.7391461"><ele>587.0</ele><time>2026-04-05T09:09:21.906Z</time></trkpt><trkpt lat="43.7117374" lon="12.738976"><ele>588.25</ele><time>2026-04-05T09:09:22.905Z</time></trkpt><trkpt lat="43.7116476" lon="12.7388092"><ele>589.5</ele><time>2026-04-05T09:09:23.906Z</time></trkpt><trkpt lat="43.7115588" lon="12.7386535"><ele>590.75</ele><time>2026-04-05T09:09:24.906Z</time></trkpt><trkpt lat="43.7114766" lon="12.7384966"><ele>592.0</ele><time>2026-04-05T09:09:25.905Z</time></trkpt><trkpt lat="43.711397" lon="12.7383462"><ele>588.25</ele><time>2026-04-05T09:09:26.905Z</time></trkpt><trkpt lat="43.7113258" lon="12.7381959"><ele>584.5</ele><time>2026-04-05T09:09:27.906Z</time></trkpt><trkpt lat="43.7112752" lon="12.7380356"><ele>580.75</ele><time>2026-04-05T09:09:28.906Z</time></trkpt><trkpt lat="43.7112505" lon="12.7378694"><ele>577.0</ele><time>2026-04-05T09:09:29.906Z</time></trkpt><trkpt lat="43.7112292" lon="12.7377035"><ele>573.75</ele><time>2026-04-05T09:09:30.906Z</time></trkpt><trkpt lat="43.7112035" lon="12.7375429"><ele>570.5</ele><time>2026-04-05T09:09:31.905Z</time></trkpt><trkpt lat="43.7111859" lon="12.7373864"><ele>567.25</ele><time>2026-04-05T09:09:32.905Z</time></trkpt><trkpt lat="43.7111793" lon="12.7372269"><ele>564.0</ele><time>2026-04-05T09:09:33.905Z</time></trkpt><trkpt lat="43.7111828" lon="12.7370659"><ele>564.0</ele><time>2026-04-05T09:09:34.904Z</time></trkpt><trkpt lat="43.7112029" lon="12.736901"><ele>564.0</ele><time>2026-04-05T09:09:35.905Z</time></trkpt><trkpt lat="43.7112371" lon="12.7367338"><ele>564.0</ele><time>2026-04-05T09:09:36.905Z</time></trkpt><trkpt lat="43.7112851" lon="12.7365616"><ele>564.0</ele><time>2026-04-05T09:09:37.906Z</time></trkpt><trkpt lat="43.7113495" lon="12.7363897"><ele>564.75</ele><time>2026-04-05T09:09:38.905Z</time></trkpt><trkpt lat="43.7114249" lon="12.7362368"><ele>565.5</ele><time>2026-04-05T09:09:39.905Z</time></trkpt><trkpt lat="43.7115172" lon="12.7361242"><ele>566.25</ele><time>2026-04-05T09:09:40.904Z</time></trkpt><trkpt lat="43.7116227" lon="12.736055"><ele>567.0</ele><time>2026-04-05T09:09:41.905Z</time></trkpt><trkpt lat="43.7117297" lon="12.736029"><ele>566.5</ele><time>2026-04-05T09:09:42.904Z</time></trkpt><trkpt lat="43.7118405" lon="12.7360313"><ele>566.0</ele><time>2026-04-05T09:09:43.905Z</time></trkpt><trkpt lat="43.7119552" lon="12.7360533"><ele>565.5</ele><time>2026-04-05T09:09:44.905Z</time></trkpt><trkpt lat="43.7120748" lon="12.7360742"><ele>565.0</ele><time>2026-04-05T09:09:45.905Z</time></trkpt><trkpt lat="43.7121971" lon="12.7360978"><ele>565.0</ele><time>2026-04-05T09:09:46.905Z</time></trkpt><trkpt lat="43.7123238" lon="12.73613"><ele>565.0</ele><time>2026-04-05T09:09:47.904Z</time></trkpt><trkpt lat="43.7124535" lon="12.7361601"><ele>565.0</ele><time>2026-04-05T09:09:48.905Z</time></trkpt><trkpt lat="43.712588" lon="12.7361799"><ele>565.0</ele><time>2026-04-05T09:09:49.905Z</time></trkpt><trkpt lat="43.712727" lon="12.7361938"><ele>565.3333333333334</ele><time>2026-04-05T09:09:50.905Z</time></trkpt><trkpt lat="43.7128844" lon="12.736193"><ele>565.6666666666666</ele><time>2026-04-05T09:09:51.905Z</time></trkpt><trkpt lat="43.7130681" lon="12.7361928"><ele>566.0</ele><time>2026-04-05T09:09:52.904Z</time></trkpt><trkpt lat="43.7132626" lon="12.7362179"><ele>566.0</ele><time>2026-04-05T09:09:53.905Z</time></trkpt><trkpt lat="43.7134571" lon="12.7362577"><ele>566.0</ele><time>2026-04-05T09:09:54.906Z</time></trkpt><trkpt lat="43.7136626" lon="12.7363132"><ele>566.0</ele><time>2026-04-05T09:09:55.904Z</time></trkpt><trkpt lat="43.7138738" lon="12.7363866"><ele>566.3333333333333</ele><time>2026-04-05T09:09:56.904Z</time></trkpt><trkpt lat="43.7140697" lon="12.7364464"><ele>566.6666666666666</ele><time>2026-04-05T09:09:57.906Z</time></trkpt><trkpt lat="43.7142565" lon="12.7364844"><ele>567.0</ele><time>2026-04-05T09:09:58.905Z</time></trkpt><trkpt lat="43.7144303" lon="12.7365046"><ele>567.0</ele><time>2026-04-05T09:09:59.905Z</time></trkpt><trkpt lat="43.7145875" lon="12.7365067"><ele>567.0</ele><time>2026-04-05T09:10:00.905Z</time></trkpt><trkpt lat="43.7147252" lon="12.7364825"><ele>567.0</ele><time>2026-04-05T09:10:01.905Z</time></trkpt><trkpt lat="43.7148399" lon="12.736419"><ele>567.0</ele><time>2026-04-05T09:10:02.905Z</time></trkpt><trkpt lat="43.714926" lon="12.7363132"><ele>567.0</ele><time>2026-04-05T09:10:03.905Z</time></trkpt><trkpt lat="43.7149779" lon="12.7361739"><ele>567.0</ele><time>2026-04-05T09:10:04.906Z</time></trkpt><trkpt lat="43.7149904" lon="12.7360253"><ele>567.0</ele><time>2026-04-05T09:10:05.905Z</time></trkpt><trkpt lat="43.7149638" lon="12.7358665"><ele>567.0</ele><time>2026-04-05T09:10:06.904Z</time></trkpt><trkpt lat="43.7149105" lon="12.7356968"><ele>567.3333333333334</ele><time>2026-04-05T09:10:07.906Z</time></trkpt><trkpt lat="43.7148345" lon="12.7355175"><ele>567.6666666666667</ele><time>2026-04-05T09:10:08.905Z</time></trkpt><trkpt lat="43.7147418" lon="12.7353169"><ele>568.0</ele><time>2026-04-05T09:10:09.905Z</time></trkpt><trkpt lat="43.7146462" lon="12.7351007"><ele>568.0</ele><time>2026-04-05T09:10:10.905Z</time></trkpt><trkpt lat="43.7145473" lon="12.7348663"><ele>568.0</ele><time>2026-04-05T09:10:11.906Z</time></trkpt><trkpt lat="43.7144407" lon="12.7346199"><ele>568.0</ele><time>2026-04-05T09:10:12.905Z</time></trkpt><trkpt lat="43.7143375" lon="12.7343934"><ele>571.6666666666667</ele><time>2026-04-05T09:10:13.905Z</time></trkpt><trkpt lat="43.7142417" lon="12.7341752"><ele>575.3333333333334</ele><time>2026-04-05T09:10:14.905Z</time></trkpt><trkpt lat="43.7141573" lon="12.733963"><ele>579.0</ele><time>2026-04-05T09:10:15.905Z</time></trkpt><trkpt lat="43.714084" lon="12.7337602"><ele>579.0</ele><time>2026-04-05T09:10:16.905Z</time></trkpt><trkpt lat="43.7140243" lon="12.733559"><ele>579.0</ele><time>2026-04-05T09:10:17.906Z</time></trkpt><trkpt lat="43.7139708" lon="12.7333648"><ele>579.0</ele><time>2026-04-05T09:10:18.905Z</time></trkpt><trkpt lat="43.7139224" lon="12.7331743"><ele>576.5</ele><time>2026-04-05T09:10:19.905Z</time></trkpt><trkpt lat="43.713877" lon="12.7329769"><ele>574.0</ele><time>2026-04-05T09:10:20.905Z</time></trkpt><trkpt lat="43.7138358" lon="12.7327788"><ele>571.5</ele><time>2026-04-05T09:10:21.904Z</time></trkpt><trkpt lat="43.7137904" lon="12.7325829"><ele>569.0</ele><time>2026-04-05T09:10:22.905Z</time></trkpt><trkpt lat="43.7137446" lon="12.7323891"><ele>568.5</ele><time>2026-04-05T09:10:23.905Z</time></trkpt><trkpt lat="43.7137131" lon="12.7322013"><ele>568.0</ele><time>2026-04-05T09:10:24.905Z</time></trkpt><trkpt lat="43.7136996" lon="12.7320133"><ele>567.5</ele><time>2026-04-05T09:10:25.905Z</time></trkpt><trkpt lat="43.7137013" lon="12.7318205"><ele>567.0</ele><time>2026-04-05T09:10:26.905Z</time></trkpt><trkpt lat="43.7137102" lon="12.7316206"><ele>567.0</ele><time>2026-04-05T09:10:27.906Z</time></trkpt><trkpt lat="43.7137228" lon="12.7314151"><ele>567.0</ele><time>2026-04-05T09:10:28.905Z</time></trkpt><trkpt lat="43.7137376" lon="12.7311987"><ele>567.0</ele><time>2026-04-05T09:10:29.905Z</time></trkpt><trkpt lat="43.7137511" lon="12.7309875"><ele>566.0</ele><time>2026-04-05T09:10:30.905Z</time></trkpt><trkpt lat="43.7137793" lon="12.73078"><ele>565.0</ele><time>2026-04-05T09:10:31.905Z</time></trkpt><trkpt lat="43.7138374" lon="12.7305736"><ele>564.0</ele><time>2026-04-05T09:10:32.906Z</time></trkpt><trkpt lat="43.7139284" lon="12.7303805"><ele>565.0</ele><time>2026-04-05T09:10:33.905Z</time></trkpt><trkpt lat="43.7140287" lon="12.7301971"><ele>566.0</ele><time>2026-04-05T09:10:34.905Z</time></trkpt><trkpt lat="43.7141223" lon="12.7300279"><ele>567.0</ele><time>2026-04-05T09:10:35.905Z</time></trkpt><trkpt lat="43.7142129" lon="12.7298667"><ele>567.0</ele><time>2026-04-05T09:10:36.905Z</time></trkpt><trkpt lat="43.7143074" lon="12.7297366"><ele>567.0</ele><time>2026-04-05T09:10:37.905Z</time></trkpt><trkpt lat="43.7144136" lon="12.7296424"><ele>567.0</ele><time>2026-04-05T09:10:38.905Z</time></trkpt><trkpt lat="43.7145214" lon="12.7295894"><ele>567.0</ele><time>2026-04-05T09:10:39.904Z</time></trkpt><trkpt lat="43.7146347" lon="12.7295625"><ele>565.0</ele><time>2026-04-05T09:10:40.905Z</time></trkpt><trkpt lat="43.7147539" lon="12.7295623"><ele>563.0</ele><time>2026-04-05T09:10:41.905Z</time></trkpt><trkpt lat="43.7148865" lon="12.7295591"><ele>561.0</ele><time>2026-04-05T09:10:42.904Z</time></trkpt><trkpt lat="43.7150201" lon="12.7295612"><ele>559.0</ele><time>2026-04-05T09:10:43.906Z</time></trkpt><trkpt lat="43.7151496" lon="12.7295517"><ele>558.5</ele><time>2026-04-05T09:10:44.904Z</time></trkpt><trkpt lat="43.715281" lon="12.729535"><ele>558.0</ele><time>2026-04-05T09:10:45.905Z</time></trkpt><trkpt lat="43.7153715" lon="12.7294549"><ele>557.5</ele><time>2026-04-05T09:10:46.905Z</time></trkpt><trkpt lat="43.7154627" lon="12.7293369"><ele>557.0</ele><time>2026-04-05T09:10:47.905Z</time></trkpt><trkpt lat="43.7155386" lon="12.7291908"><ele>560.0</ele><time>2026-04-05T09:10:48.905Z</time></trkpt><trkpt lat="43.7155943" lon="12.7290243"><ele>563.0</ele><time>2026-04-05T09:10:49.905Z</time></trkpt><trkpt lat="43.7156276" lon="12.7288435"><ele>566.0</ele><time>2026-04-05T09:10:50.905Z</time></trkpt><trkpt lat="43.7156616" lon="12.7286763"><ele>569.0</ele><time>2026-04-05T09:10:51.906Z</time></trkpt><trkpt lat="43.7157324" lon="12.7285344"><ele>570.25</ele><time>2026-04-05T09:10:52.904Z</time></trkpt><trkpt lat="43.7158296" lon="12.7284229"><ele>571.5</ele><time>2026-04-05T09:10:53.905Z</time></trkpt><trkpt lat="43.7159366" lon="12.7283114"><ele>572.75</ele><time>2026-04-05T09:10:54.905Z</time></trkpt><trkpt lat="43.7160223" lon="12.7281767"><ele>574.0</ele><time>2026-04-05T09:10:55.905Z</time></trkpt><trkpt lat="43.7160873" lon="12.7280223"><ele>574.25</ele><time>2026-04-05T09:10:56.905Z</time></trkpt><trkpt lat="43.7161202" lon="12.7278554"><ele>574.5</ele><time>2026-04-05T09:10:57.905Z</time></trkpt><trkpt lat="43.7161159" lon="12.7276781"><ele>574.75</ele><time>2026-04-05T09:10:58.905Z</time></trkpt><trkpt lat="43.7160748" lon="12.7275009"><ele>575.0</ele><time>2026-04-05T09:10:59.904Z</time></trkpt><trkpt lat="43.7160038" lon="12.727332"><ele>575.0</ele><time>2026-04-05T09:11:00.905Z</time></trkpt><trkpt lat="43.7159045" lon="12.7271699"><ele>575.0</ele><time>2026-04-05T09:11:01.905Z</time></trkpt><trkpt lat="43.7157848" lon="12.7270182"><ele>575.0</ele><time>2026-04-05T09:11:02.906Z</time></trkpt><trkpt lat="43.7156538" lon="12.7268648"><ele>572.0</ele><time>2026-04-05T09:11:03.904Z</time></trkpt><trkpt lat="43.715516" lon="12.7267029"><ele>569.0</ele><time>2026-04-05T09:11:04.906Z</time></trkpt><trkpt lat="43.7153746" lon="12.7265339"><ele>566.0</ele><time>2026-04-05T09:11:05.906Z</time></trkpt><trkpt lat="43.7152533" lon="12.7263628"><ele>567.3333333333333</ele><time>2026-04-05T09:11:06.905Z</time></trkpt><trkpt lat="43.7151541" lon="12.7261773"><ele>568.6666666666666</ele><time>2026-04-05T09:11:07.905Z</time></trkpt><trkpt lat="43.715077" lon="12.7259637"><ele>570.0</ele><time>2026-04-05T09:11:08.905Z</time></trkpt><trkpt lat="43.7150241" lon="12.7257329"><ele>570.0</ele><time>2026-04-05T09:11:09.905Z</time></trkpt><trkpt lat="43.7149806" lon="12.7254878"><ele>570.0</ele><time>2026-04-05T09:11:10.906Z</time></trkpt><trkpt lat="43.7149293" lon="12.7252312"><ele>570.0</ele><time>2026-04-05T09:11:11.904Z</time></trkpt><trkpt lat="43.7148729" lon="12.724965"><ele>571.0</ele><time>2026-04-05T09:11:12.906Z</time></trkpt><trkpt lat="43.7148091" lon="12.7246938"><ele>572.0</ele><time>2026-04-05T09:11:13.905Z</time></trkpt><trkpt lat="43.714742" lon="12.7244446"><ele>573.0</ele><time>2026-04-05T09:11:14.906Z</time></trkpt><trkpt lat="43.7146762" lon="12.7242149"><ele>574.6666666666666</ele><time>2026-04-05T09:11:15.905Z</time></trkpt><trkpt lat="43.7146128" lon="12.7240034"><ele>576.3333333333333</ele><time>2026-04-05T09:11:16.904Z</time></trkpt><trkpt lat="43.7145589" lon="12.7238071"><ele>578.0</ele><time>2026-04-05T09:11:17.905Z</time></trkpt><trkpt lat="43.7145239" lon="12.7236177"><ele>578.0</ele><time>2026-04-05T09:11:18.906Z</time></trkpt><trkpt lat="43.7145228" lon="12.7234244"><ele>578.0</ele><time>2026-04-05T09:11:19.905Z</time></trkpt><trkpt lat="43.7145569" lon="12.723224"><ele>578.0</ele><time>2026-04-05T09:11:20.905Z</time></trkpt><trkpt lat="43.7146003" lon="12.723012"><ele>578.0</ele><time>2026-04-05T09:11:21.904Z</time></trkpt><trkpt lat="43.7146381" lon="12.7227884"><ele>577.3333333333333</ele><time>2026-04-05T09:11:22.906Z</time></trkpt><trkpt lat="43.7146716" lon="12.722573"><ele>576.6666666666666</ele><time>2026-04-05T09:11:23.904Z</time></trkpt><trkpt lat="43.7147058" lon="12.7223721"><ele>576.0</ele><time>2026-04-05T09:11:24.906Z</time></trkpt><trkpt lat="43.7147533" lon="12.7221874"><ele>576.0</ele><time>2026-04-05T09:11:25.904Z</time></trkpt><trkpt lat="43.7148198" lon="12.7220341"><ele>576.0</ele><time>2026-04-05T09:11:26.904Z</time></trkpt><trkpt lat="43.7149138" lon="12.7219379"><ele>576.0</ele><time>2026-04-05T09:11:27.904Z</time></trkpt><trkpt lat="43.7150354" lon="12.7218754"><ele>576.0</ele><time>2026-04-05T09:11:28.904Z</time></trkpt><trkpt lat="43.715169" lon="12.7218153"><ele>574.6666666666666</ele><time>2026-04-05T09:11:29.905Z</time></trkpt><trkpt lat="43.7153" lon="12.7217107"><ele>573.3333333333333</ele><time>2026-04-05T09:11:30.905Z</time></trkpt><trkpt lat="43.7154077" lon="12.7215588"><ele>572.0</ele><time>2026-04-05T09:11:31.906Z</time></trkpt><trkpt lat="43.7154821" lon="12.7213678"><ele>572.0</ele><time>2026-04-05T09:11:32.906Z</time></trkpt><trkpt lat="43.7155317" lon="12.7211509"><ele>572.0</ele><time>2026-04-05T09:11:33.905Z</time></trkpt><trkpt lat="43.7155639" lon="12.72091"><ele>572.0</ele><time>2026-04-05T09:11:34.905Z</time></trkpt><trkpt lat="43.7155999" lon="12.7206553"><ele>570.6666666666666</ele><time>2026-04-05T09:11:35.905Z</time></trkpt><trkpt lat="43.7156431" lon="12.7204013"><ele>569.3333333333334</ele><time>2026-04-05T09:11:36.904Z</time></trkpt><trkpt lat="43.7156822" lon="12.7201608"><ele>568.0</ele><time>2026-04-05T09:11:37.905Z</time></trkpt><trkpt lat="43.7157138" lon="12.7199292"><ele>566.0</ele><time>2026-04-05T09:11:38.906Z</time></trkpt><trkpt lat="43.7157465" lon="12.7197063"><ele>564.0</ele><time>2026-04-05T09:11:39.905Z</time></trkpt><trkpt lat="43.7157773" lon="12.7194907"><ele>562.0</ele><time>2026-04-05T09:11:40.905Z</time></trkpt><trkpt lat="43.7158039" lon="12.7192844"><ele>562.0</ele><time>2026-04-05T09:11:41.905Z</time></trkpt><trkpt lat="43.715833" lon="12.7190863"><ele>562.0</ele><time>2026-04-05T09:11:42.906Z</time></trkpt><trkpt lat="43.7158617" lon="12.7188969"><ele>562.0</ele><time>2026-04-05T09:11:43.906Z</time></trkpt><trkpt lat="43.715888" lon="12.7187174"><ele>562.0</ele><time>2026-04-05T09:11:44.905Z</time></trkpt><trkpt lat="43.7159089" lon="12.7185426"><ele>562.0</ele><time>2026-04-05T09:11:45.905Z</time></trkpt><trkpt lat="43.71593" lon="12.7183738"><ele>562.0</ele><time>2026-04-05T09:11:46.905Z</time></trkpt><trkpt lat="43.7159549" lon="12.7182029"><ele>562.0</ele><time>2026-04-05T09:11:47.905Z</time></trkpt><trkpt lat="43.7159799" lon="12.7180249"><ele>562.0</ele><time>2026-04-05T09:11:48.905Z</time></trkpt><trkpt lat="43.7160045" lon="12.7178383"><ele>561.25</ele><time>2026-04-05T09:11:49.905Z</time></trkpt><trkpt lat="43.7160321" lon="12.7176468"><ele>560.5</ele><time>2026-04-05T09:11:50.904Z</time></trkpt><trkpt lat="43.7160608" lon="12.7174521"><ele>559.75</ele><time>2026-04-05T09:11:51.905Z</time></trkpt><trkpt lat="43.7160918" lon="12.7172548"><ele>559.0</ele><time>2026-04-05T09:11:52.905Z</time></trkpt><trkpt lat="43.7161243" lon="12.7170615"><ele>558.5</ele><time>2026-04-05T09:11:53.904Z</time></trkpt><trkpt lat="43.7161591" lon="12.7168792"><ele>558.0</ele><time>2026-04-05T09:11:54.904Z</time></trkpt><trkpt lat="43.7162086" lon="12.7167114"><ele>557.5</ele><time>2026-04-05T09:11:55.905Z</time></trkpt><trkpt lat="43.7162629" lon="12.7165504"><ele>557.0</ele><time>2026-04-05T09:11:56.905Z</time></trkpt><trkpt lat="43.7163885" lon="12.7164884"><ele>557.0</ele><time>2026-04-05T09:11:57.905Z</time></trkpt><trkpt lat="43.7165088" lon="12.7164392"><ele>557.0</ele><time>2026-04-05T09:11:58.905Z</time></trkpt><trkpt lat="43.7166449" lon="12.7164305"><ele>557.0</ele><time>2026-04-05T09:11:59.905Z</time></trkpt><trkpt lat="43.716793" lon="12.716438"><ele>557.0</ele><time>2026-04-05T09:12:00.905Z</time></trkpt><trkpt lat="43.7169485" lon="12.7164544"><ele>554.6666666666666</ele><time>2026-04-05T09:12:01.905Z</time></trkpt><trkpt lat="43.7171098" lon="12.7164772"><ele>552.3333333333334</ele><time>2026-04-05T09:12:02.906Z</time></trkpt><trkpt lat="43.7172739" lon="12.7165044"><ele>550.0</ele><time>2026-04-05T09:12:03.905Z</time></trkpt><trkpt lat="43.7174299" lon="12.7165379"><ele>550.0</ele><time>2026-04-05T09:12:04.905Z</time></trkpt><trkpt lat="43.717577" lon="12.7165603"><ele>550.0</ele><time>2026-04-05T09:12:05.905Z</time></trkpt><trkpt lat="43.7177063" lon="12.7165438"><ele>550.0</ele><time>2026-04-05T09:12:06.905Z</time></trkpt><trkpt lat="43.7178105" lon="12.7164795"><ele>550.0</ele><time>2026-04-05T09:12:07.905Z</time></trkpt><trkpt lat="43.717882" lon="12.7163705"><ele>547.75</ele><time>2026-04-05T09:12:08.906Z</time></trkpt><trkpt lat="43.7179144" lon="12.7162281"><ele>545.5</ele><time>2026-04-05T09:12:09.905Z</time></trkpt><trkpt lat="43.7179138" lon="12.7160614"><ele>543.25</ele><time>2026-04-05T09:12:10.905Z</time></trkpt><trkpt lat="43.7179115" lon="12.7158784"><ele>541.0</ele><time>2026-04-05T09:12:11.905Z</time></trkpt><trkpt lat="43.7179443" lon="12.7156985"><ele>541.0</ele><time>2026-04-05T09:12:12.905Z</time></trkpt><trkpt lat="43.7180105" lon="12.7155388"><ele>541.0</ele><time>2026-04-05T09:12:13.905Z</time></trkpt><trkpt lat="43.7181146" lon="12.7154188"><ele>541.0</ele><time>2026-04-05T09:12:14.904Z</time></trkpt><trkpt lat="43.7182468" lon="12.715318"><ele>541.0</ele><time>2026-04-05T09:12:15.904Z</time></trkpt><trkpt lat="43.7183823" lon="12.7152478"><ele>542.5</ele><time>2026-04-05T09:12:16.905Z</time></trkpt><trkpt lat="43.718519" lon="12.7152158"><ele>544.0</ele><time>2026-04-05T09:12:17.905Z</time></trkpt><trkpt lat="43.718649" lon="12.7152175"><ele>545.5</ele><time>2026-04-05T09:12:18.904Z</time></trkpt><trkpt lat="43.7187689" lon="12.7151999"><ele>547.0</ele><time>2026-04-05T09:12:19.906Z</time></trkpt><trkpt lat="43.7188756" lon="12.7151252"><ele>543.5</ele><time>2026-04-05T09:12:20.906Z</time></trkpt><trkpt lat="43.7189483" lon="12.7150087"><ele>540.0</ele><time>2026-04-05T09:12:21.905Z</time></trkpt><trkpt lat="43.7189946" lon="12.7148477"><ele>536.5</ele><time>2026-04-05T09:12:22.905Z</time></trkpt><trkpt lat="43.7190296" lon="12.7146678"><ele>533.0</ele><time>2026-04-05T09:12:23.905Z</time></trkpt><trkpt lat="43.7190575" lon="12.714469"><ele>532.3333333333333</ele><time>2026-04-05T09:12:24.905Z</time></trkpt><trkpt lat="43.7190614" lon="12.7142506"><ele>531.6666666666666</ele><time>2026-04-05T09:12:25.905Z</time></trkpt><trkpt lat="43.7190436" lon="12.7140175"><ele>531.0</ele><time>2026-04-05T09:12:26.905Z</time></trkpt><trkpt lat="43.7190218" lon="12.7137709"><ele>529.0</ele><time>2026-04-05T09:12:27.905Z</time></trkpt><trkpt lat="43.7189977" lon="12.7135088"><ele>527.0</ele><time>2026-04-05T09:12:28.905Z</time></trkpt><trkpt lat="43.7189763" lon="12.7132524"><ele>525.0</ele><time>2026-04-05T09:12:29.905Z</time></trkpt><trkpt lat="43.7189556" lon="12.7130141"><ele>525.0</ele><time>2026-04-05T09:12:30.905Z</time></trkpt><trkpt lat="43.7189346" lon="12.7127883"><ele>525.0</ele><time>2026-04-05T09:12:31.906Z</time></trkpt><trkpt lat="43.7189141" lon="12.7125747"><ele>525.0</ele><time>2026-04-05T09:12:32.905Z</time></trkpt><trkpt lat="43.7188915" lon="12.7123726"><ele>524.5</ele><time>2026-04-05T09:12:33.905Z</time></trkpt><trkpt lat="43.7188698" lon="12.7121713"><ele>524.0</ele><time>2026-04-05T09:12:34.905Z</time></trkpt><trkpt lat="43.7188481" lon="12.7119724"><ele>523.5</ele><time>2026-04-05T09:12:35.905Z</time></trkpt><trkpt lat="43.7188294" lon="12.7117724"><ele>523.0</ele><time>2026-04-05T09:12:36.905Z</time></trkpt><trkpt lat="43.7188082" lon="12.7115744"><ele>521.5</ele><time>2026-04-05T09:12:37.906Z</time></trkpt><trkpt lat="43.7187852" lon="12.7113763"><ele>520.0</ele><time>2026-04-05T09:12:38.904Z</time></trkpt><trkpt lat="43.7187674" lon="12.7111828"><ele>518.5</ele><time>2026-04-05T09:12:39.905Z</time></trkpt><trkpt lat="43.7187615" lon="12.7109943"><ele>517.0</ele><time>2026-04-05T09:12:40.905Z</time></trkpt><trkpt lat="43.7187765" lon="12.7108133"><ele>516.25</ele><time>2026-04-05T09:12:41.905Z</time></trkpt><trkpt lat="43.7188291" lon="12.7106476"><ele>515.5</ele><time>2026-04-05T09:12:42.905Z</time></trkpt><trkpt lat="43.7189135" lon="12.7105047"><ele>514.75</ele><time>2026-04-05T09:12:43.905Z</time></trkpt><trkpt lat="43.7190252" lon="12.7103866"><ele>514.0</ele><time>2026-04-05T09:12:44.905Z</time></trkpt><trkpt lat="43.719155" lon="12.7102839"><ele>513.6666666666667</ele><time>2026-04-05T09:12:45.904Z</time></trkpt><trkpt lat="43.7192916" lon="12.7101732"><ele>513.3333333333334</ele><time>2026-04-05T09:12:46.905Z</time></trkpt><trkpt lat="43.7194306" lon="12.71005"><ele>513.0</ele><time>2026-04-05T09:12:47.906Z</time></trkpt><trkpt lat="43.7195738" lon="12.7099284"><ele>512.25</ele><time>2026-04-05T09:12:48.905Z</time></trkpt><trkpt lat="43.7197112" lon="12.7098264"><ele>511.5</ele><time>2026-04-05T09:12:49.905Z</time></trkpt><trkpt lat="43.7198427" lon="12.7097354"><ele>510.75</ele><time>2026-04-05T09:12:50.905Z</time></trkpt><trkpt lat="43.7199652" lon="12.7096466"><ele>510.0</ele><time>2026-04-05T09:12:51.905Z</time></trkpt><trkpt lat="43.7200767" lon="12.7095624"><ele>510.0</ele><time>2026-04-05T09:12:52.906Z</time></trkpt><trkpt lat="43.7201771" lon="12.7094895"><ele>510.0</ele><time>2026-04-05T09:12:53.905Z</time></trkpt><trkpt lat="43.7202558" lon="12.7094283"><ele>510.0</ele><time>2026-04-05T09:12:54.905Z</time></trkpt><trkpt lat="43.7203122" lon="12.70935"><ele>510.0</ele><time>2026-04-05T09:12:55.905Z</time></trkpt><trkpt lat="43.7203264" lon="12.7092554"><ele>510.0</ele><time>2026-04-05T09:12:56.905Z</time></trkpt><trkpt lat="43.7202974" lon="12.709172"><ele>510.0</ele><time>2026-04-05T09:12:57.905Z</time></trkpt><trkpt lat="43.7202425" lon="12.7090995"><ele>510.6</ele><time>2026-04-05T09:12:58.905Z</time></trkpt><trkpt lat="43.7201797" lon="12.7090115"><ele>511.2</ele><time>2026-04-05T09:12:59.905Z</time></trkpt><trkpt lat="43.7201185" lon="12.7089042"><ele>511.79999999999995</ele><time>2026-04-05T09:13:00.905Z</time></trkpt><trkpt lat="43.7200468" lon="12.7087871"><ele>512.4</ele><time>2026-04-05T09:13:01.905Z</time></trkpt><trkpt lat="43.7199622" lon="12.7086665"><ele>513.0</ele><time>2026-04-05T09:13:02.905Z</time></trkpt><trkpt lat="43.7198744" lon="12.7085359"><ele>513.5</ele><time>2026-04-05T09:13:03.904Z</time></trkpt><trkpt lat="43.7197829" lon="12.7083948"><ele>514.0</ele><time>2026-04-05T09:13:04.905Z</time></trkpt><trkpt lat="43.7196802" lon="12.7082503"><ele>514.5</ele><time>2026-04-05T09:13:05.905Z</time></trkpt><trkpt lat="43.7195633" lon="12.708094"><ele>515.0</ele><time>2026-04-05T09:13:06.904Z</time></trkpt><trkpt lat="43.7194363" lon="12.7079206"><ele>514.6666666666666</ele><time>2026-04-05T09:13:07.905Z</time></trkpt><trkpt lat="43.7193113" lon="12.7077422"><ele>514.3333333333334</ele><time>2026-04-05T09:13:08.904Z</time></trkpt><trkpt lat="43.7191733" lon="12.707558"><ele>514.0</ele><time>2026-04-05T09:13:09.905Z</time></trkpt><trkpt lat="43.71902" lon="12.7073787"><ele>514.0</ele><time>2026-04-05T09:13:10.905Z</time></trkpt><trkpt lat="43.7188582" lon="12.7071906"><ele>514.0</ele><time>2026-04-05T09:13:11.905Z</time></trkpt><trkpt lat="43.7186932" lon="12.7069899"><ele>514.0</ele><time>2026-04-05T09:13:12.905Z</time></trkpt><trkpt lat="43.7185152" lon="12.7067952"><ele>515.3333333333334</ele><time>2026-04-05T09:13:13.905Z</time></trkpt><trkpt lat="43.7183251" lon="12.7066132"><ele>516.6666666666666</ele><time>2026-04-05T09:13:14.906Z</time></trkpt><trkpt lat="43.7181472" lon="12.706457"><ele>518.0</ele><time>2026-04-05T09:13:15.904Z</time></trkpt><trkpt lat="43.7179808" lon="12.7063141"><ele>518.0</ele><time>2026-04-05T09:13:16.905Z</time></trkpt><trkpt lat="43.7178261" lon="12.7061835"><ele>518.0</ele><time>2026-04-05T09:13:17.905Z</time></trkpt><trkpt lat="43.7176737" lon="12.7060781"><ele>518.0</ele><time>2026-04-05T09:13:18.905Z</time></trkpt><trkpt lat="43.7175079" lon="12.7060109"><ele>520.6666666666666</ele><time>2026-04-05T09:13:19.905Z</time></trkpt><trkpt lat="43.7173266" lon="12.7059572"><ele>523.3333333333334</ele><time>2026-04-05T09:13:20.905Z</time></trkpt><trkpt lat="43.717159" lon="12.7058878"><ele>526.0</ele><time>2026-04-05T09:13:21.905Z</time></trkpt><trkpt lat="43.7170134" lon="12.7058161"><ele>523.25</ele><time>2026-04-05T09:13:22.905Z</time></trkpt><trkpt lat="43.7168912" lon="12.7057267"><ele>520.5</ele><time>2026-04-05T09:13:23.905Z</time></trkpt><trkpt lat="43.7167936" lon="12.7055957"><ele>517.75</ele><time>2026-04-05T09:13:24.905Z</time></trkpt><trkpt lat="43.7167148" lon="12.7054245"><ele>515.0</ele><time>2026-04-05T09:13:25.906Z</time></trkpt><trkpt lat="43.7166295" lon="12.7052413"><ele>515.0</ele><time>2026-04-05T09:13:26.905Z</time></trkpt><trkpt lat="43.7165288" lon="12.7050802"><ele>515.0</ele><time>2026-04-05T09:13:27.904Z</time></trkpt><trkpt lat="43.7164094" lon="12.7049548"><ele>515.0</ele><time>2026-04-05T09:13:28.906Z</time></trkpt><trkpt lat="43.7162792" lon="12.7048644"><ele>515.0</ele><time>2026-04-05T09:13:29.905Z</time></trkpt><trkpt lat="43.7161345" lon="12.7048261"><ele>515.0</ele><time>2026-04-05T09:13:30.905Z</time></trkpt><trkpt lat="43.7159847" lon="12.7048348"><ele>515.0</ele><time>2026-04-05T09:13:31.905Z</time></trkpt><trkpt lat="43.7158429" lon="12.7048744"><ele>515.0</ele><time>2026-04-05T09:13:32.905Z</time></trkpt><trkpt lat="43.7157135" lon="12.7049071"><ele>512.0</ele><time>2026-04-05T09:13:33.904Z</time></trkpt><trkpt lat="43.7155992" lon="12.7049023"><ele>509.0</ele><time>2026-04-05T09:13:34.906Z</time></trkpt><trkpt lat="43.7154906" lon="12.7048394"><ele>506.0</ele><time>2026-04-05T09:13:35.905Z</time></trkpt><trkpt lat="43.715389" lon="12.7047314"><ele>503.0</ele><time>2026-04-05T09:13:36.904Z</time></trkpt><trkpt lat="43.7152868" lon="12.7045897"><ele>499.0</ele><time>2026-04-05T09:13:37.905Z</time></trkpt><trkpt lat="43.7151875" lon="12.7044207"><ele>495.0</ele><time>2026-04-05T09:13:38.905Z</time></trkpt><trkpt lat="43.7150819" lon="12.7042378"><ele>491.0</ele><time>2026-04-05T09:13:39.905Z</time></trkpt><trkpt lat="43.7149752" lon="12.7040362"><ele>491.0</ele><time>2026-04-05T09:13:40.905Z</time></trkpt><trkpt lat="43.7148773" lon="12.7038272"><ele>491.0</ele><time>2026-04-05T09:13:41.905Z</time></trkpt><trkpt lat="43.7147891" lon="12.7036251"><ele>491.0</ele><time>2026-04-05T09:13:42.904Z</time></trkpt><trkpt lat="43.7147069" lon="12.70344"><ele>491.0</ele><time>2026-04-05T09:13:43.905Z</time></trkpt><trkpt lat="43.7146392" lon="12.7032728"><ele>491.0</ele><time>2026-04-05T09:13:44.905Z</time></trkpt><trkpt lat="43.7145742" lon="12.7031329"><ele>491.0</ele><time>2026-04-05T09:13:45.904Z</time></trkpt><trkpt lat="43.7145" lon="12.7030224"><ele>491.0</ele><time>2026-04-05T09:13:46.905Z</time></trkpt><trkpt lat="43.7143949" lon="12.7029473"><ele>487.25</ele><time>2026-04-05T09:13:47.906Z</time></trkpt><trkpt lat="43.7142724" lon="12.7028885"><ele>483.5</ele><time>2026-04-05T09:13:48.904Z</time></trkpt><trkpt lat="43.714133" lon="12.7028571"><ele>479.75</ele><time>2026-04-05T09:13:49.905Z</time></trkpt><trkpt lat="43.7139807" lon="12.7028548"><ele>476.0</ele><time>2026-04-05T09:13:50.905Z</time></trkpt><trkpt lat="43.7138295" lon="12.7028651"><ele>476.0</ele><time>2026-04-05T09:13:51.906Z</time></trkpt><trkpt lat="43.7136815" lon="12.7028629"><ele>476.0</ele><time>2026-04-05T09:13:52.905Z</time></trkpt><trkpt lat="43.7135352" lon="12.7028474"><ele>476.0</ele><time>2026-04-05T09:13:53.904Z</time></trkpt><trkpt lat="43.713394" lon="12.7028078"><ele>476.0</ele><time>2026-04-05T09:13:54.905Z</time></trkpt><trkpt lat="43.7132787" lon="12.7027433"><ele>475.16666666666663</ele><time>2026-04-05T09:13:55.906Z</time></trkpt><trkpt lat="43.7132058" lon="12.7026689"><ele>474.3333333333333</ele><time>2026-04-05T09:13:56.904Z</time></trkpt><trkpt lat="43.7131629" lon="12.7025907"><ele>473.5</ele><time>2026-04-05T09:13:57.906Z</time></trkpt><trkpt lat="43.7131629" lon="12.7024885"><ele>472.66666666666663</ele><time>2026-04-05T09:13:58.906Z</time></trkpt><trkpt lat="43.7131844" lon="12.7023662"><ele>471.8333333333333</ele><time>2026-04-05T09:13:59.904Z</time></trkpt><trkpt lat="43.7132078" lon="12.7022135"><ele>471.0</ele><time>2026-04-05T09:14:00.904Z</time></trkpt><trkpt lat="43.7132491" lon="12.7020679"><ele>471.0</ele><time>2026-04-05T09:14:01.905Z</time></trkpt><trkpt lat="43.7133157" lon="12.7019758"><ele>471.0</ele><time>2026-04-05T09:14:02.905Z</time></trkpt><trkpt lat="43.713412" lon="12.7019227"><ele>471.0</ele><time>2026-04-05T09:14:03.905Z</time></trkpt><trkpt lat="43.713523" lon="12.7019048"><ele>471.0</ele><time>2026-04-05T09:14:04.904Z</time></trkpt><trkpt lat="43.7136207" lon="12.7018769"><ele>471.0</ele><time>2026-04-05T09:14:05.905Z</time></trkpt><trkpt lat="43.7136969" lon="12.7018174"><ele>468.20000000000005</ele><time>2026-04-05T09:14:06.905Z</time></trkpt><trkpt lat="43.7137352" lon="12.7017301"><ele>465.40000000000003</ele><time>2026-04-05T09:14:07.906Z</time></trkpt><trkpt lat="43.7137249" lon="12.7016314"><ele>462.6</ele><time>2026-04-05T09:14:08.905Z</time></trkpt><trkpt lat="43.7136713" lon="12.7015439"><ele>459.8</ele><time>2026-04-05T09:14:09.905Z</time></trkpt><trkpt lat="43.7135798" lon="12.7014661"><ele>457.0</ele><time>2026-04-05T09:14:10.905Z</time></trkpt><trkpt lat="43.7134663" lon="12.7013839"><ele>457.0</ele><time>2026-04-05T09:14:11.904Z</time></trkpt><trkpt lat="43.7133343" lon="12.701279"><ele>457.0</ele><time>2026-04-05T09:14:12.905Z</time></trkpt><trkpt lat="43.7132056" lon="12.7011793"><ele>457.0</ele><time>2026-04-05T09:14:13.905Z</time></trkpt><trkpt lat="43.7130872" lon="12.7010953"><ele>457.0</ele><time>2026-04-05T09:14:14.905Z</time></trkpt><trkpt lat="43.7129671" lon="12.7010469"><ele>457.0</ele><time>2026-04-05T09:14:15.906Z</time></trkpt><trkpt lat="43.7128529" lon="12.7010502"><ele>457.0</ele><time>2026-04-05T09:14:16.905Z</time></trkpt><trkpt lat="43.7127437" lon="12.7011118"><ele>457.0</ele><time>2026-04-05T09:14:17.904Z</time></trkpt><trkpt lat="43.7126286" lon="12.7012235"><ele>457.0</ele><time>2026-04-05T09:14:18.905Z</time></trkpt><trkpt lat="43.7124937" lon="12.7013407"><ele>453.6666666666667</ele><time>2026-04-05T09:14:19.905Z</time></trkpt><trkpt lat="43.7123384" lon="12.7014534"><ele>450.33333333333337</ele><time>2026-04-05T09:14:20.905Z</time></trkpt><trkpt lat="43.7121724" lon="12.7015652"><ele>447.0</ele><time>2026-04-05T09:14:21.905Z</time></trkpt><trkpt lat="43.7120138" lon="12.701667"><ele>441.0</ele><time>2026-04-05T09:14:22.905Z</time></trkpt><trkpt lat="43.7118565" lon="12.7017632"><ele>435.0</ele><time>2026-04-05T09:14:23.903Z</time></trkpt><trkpt lat="43.7117054" lon="12.7018478"><ele>429.0</ele><time>2026-04-05T09:14:24.904Z</time></trkpt><trkpt lat="43.711572" lon="12.7019355"><ele>429.0</ele><time>2026-04-05T09:14:25.905Z</time></trkpt><trkpt lat="43.7114632" lon="12.7020543"><ele>429.0</ele><time>2026-04-05T09:14:26.904Z</time></trkpt><trkpt lat="43.7113805" lon="12.7021828"><ele>429.0</ele><time>2026-04-05T09:14:27.905Z</time></trkpt><trkpt lat="43.7113126" lon="12.7022944"><ele>429.0</ele><time>2026-04-05T09:14:28.904Z</time></trkpt><trkpt lat="43.7112461" lon="12.7023645"><ele>429.0</ele><time>2026-04-05T09:14:29.904Z</time></trkpt><trkpt lat="43.7111697" lon="12.7023911"><ele>429.0</ele><time>2026-04-05T09:14:30.904Z</time></trkpt><trkpt lat="43.711095" lon="12.7023539"><ele>429.0</ele><time>2026-04-05T09:14:31.904Z</time></trkpt><trkpt lat="43.7110454" lon="12.7022654"><ele>429.0</ele><time>2026-04-05T09:14:32.904Z</time></trkpt><trkpt lat="43.7110457" lon="12.7021514"><ele>429.0</ele><time>2026-04-05T09:14:33.904Z</time></trkpt><trkpt lat="43.7110832" lon="12.702017"><ele>429.0</ele><time>2026-04-05T09:14:34.904Z</time></trkpt><trkpt lat="43.7111482" lon="12.7018689"><ele>428.33333333333337</ele><time>2026-04-05T09:14:35.904Z</time></trkpt><trkpt lat="43.71121" lon="12.7016867"><ele>427.6666666666667</ele><time>2026-04-05T09:14:36.904Z</time></trkpt><trkpt lat="43.7112838" lon="12.7014782"><ele>427.0</ele><time>2026-04-05T09:14:37.904Z</time></trkpt><trkpt lat="43.7113743" lon="12.7012774"><ele>427.0</ele><time>2026-04-05T09:14:38.905Z</time></trkpt><trkpt lat="43.7114588" lon="12.7011033"><ele>427.0</ele><time>2026-04-05T09:14:39.904Z</time></trkpt><trkpt lat="43.7115308" lon="12.7009535"><ele>427.0</ele><time>2026-04-05T09:14:40.904Z</time></trkpt><trkpt lat="43.7115862" lon="12.7008247"><ele>427.0</ele><time>2026-04-05T09:14:41.904Z</time></trkpt><trkpt lat="43.7116053" lon="12.7007004"><ele>424.8</ele><time>2026-04-05T09:14:42.904Z</time></trkpt><trkpt lat="43.7115784" lon="12.7005998"><ele>422.6</ele><time>2026-04-05T09:14:43.904Z</time></trkpt><trkpt lat="43.7115177" lon="12.7005355"><ele>420.40000000000003</ele><time>2026-04-05T09:14:44.905Z</time></trkpt><trkpt lat="43.7114328" lon="12.7005224"><ele>418.20000000000005</ele><time>2026-04-05T09:14:45.904Z</time></trkpt><trkpt lat="43.7113339" lon="12.7005649"><ele>416.0</ele><time>2026-04-05T09:14:46.903Z</time></trkpt><trkpt lat="43.711221" lon="12.7006373"><ele>416.0</ele><time>2026-04-05T09:14:47.904Z</time></trkpt><trkpt lat="43.7110828" lon="12.7007038"><ele>416.0</ele><time>2026-04-05T09:14:48.904Z</time></trkpt><trkpt lat="43.7109403" lon="12.7007217"><ele>416.0</ele><time>2026-04-05T09:14:49.904Z</time></trkpt><trkpt lat="43.7108028" lon="12.7007225"><ele>416.0</ele><time>2026-04-05T09:14:50.904Z</time></trkpt><trkpt lat="43.7106782" lon="12.7007481"><ele>415.0</ele><time>2026-04-05T09:14:51.904Z</time></trkpt><trkpt lat="43.7105654" lon="12.7008203"><ele>414.0</ele><time>2026-04-05T09:14:52.905Z</time></trkpt><trkpt lat="43.7104833" lon="12.7009374"><ele>413.0</ele><time>2026-04-05T09:14:53.903Z</time></trkpt><trkpt lat="43.7104267" lon="12.7010948"><ele>412.0</ele><time>2026-04-05T09:14:54.903Z</time></trkpt><trkpt lat="43.7103842" lon="12.7012684"><ele>412.0</ele><time>2026-04-05T09:14:55.904Z</time></trkpt><trkpt lat="43.7103561" lon="12.7014245"><ele>412.0</ele><time>2026-04-05T09:14:56.904Z</time></trkpt><trkpt lat="43.7103117" lon="12.7015539"><ele>412.0</ele><time>2026-04-05T09:14:57.904Z</time></trkpt><trkpt lat="43.7102445" lon="12.7016327"><ele>412.0</ele><time>2026-04-05T09:14:58.904Z</time></trkpt><trkpt lat="43.7101658" lon="12.7016855"><ele>412.0</ele><time>2026-04-05T09:14:59.904Z</time></trkpt><trkpt lat="43.7100799" lon="12.7016915"><ele>406.75</ele><time>2026-04-05T09:15:00.904Z</time></trkpt><trkpt lat="43.7100302" lon="12.7016113"><ele>401.5</ele><time>2026-04-05T09:15:01.904Z</time></trkpt><trkpt lat="43.7099959" lon="12.7014777"><ele>396.25</ele><time>2026-04-05T09:15:02.904Z</time></trkpt><trkpt lat="43.7100044" lon="12.7012418"><ele>391.0</ele><time>2026-04-05T09:15:03.904Z</time></trkpt><trkpt lat="43.7100103" lon="12.7010479"><ele>389.0</ele><time>2026-04-05T09:15:04.905Z</time></trkpt><trkpt lat="43.7100233" lon="12.700853"><ele>387.0</ele><time>2026-04-05T09:15:05.904Z</time></trkpt><trkpt lat="43.7101088" lon="12.7006465"><ele>385.0</ele><time>2026-04-05T09:15:06.904Z</time></trkpt><trkpt lat="43.7101946" lon="12.7004509"><ele>386.25</ele><time>2026-04-05T09:15:07.905Z</time></trkpt><trkpt lat="43.7102658" lon="12.7002622"><ele>387.5</ele><time>2026-04-05T09:15:08.904Z</time></trkpt><trkpt lat="43.7103325" lon="12.7000805"><ele>388.75</ele><time>2026-04-05T09:15:09.905Z</time></trkpt><trkpt lat="43.7103951" lon="12.6999156"><ele>390.0</ele><time>2026-04-05T09:15:10.905Z</time></trkpt><trkpt lat="43.7104571" lon="12.6997684"><ele>390.0</ele><time>2026-04-05T09:15:11.905Z</time></trkpt><trkpt lat="43.7105048" lon="12.6996376"><ele>390.0</ele><time>2026-04-05T09:15:12.904Z</time></trkpt><trkpt lat="43.7105366" lon="12.6995153"><ele>390.0</ele><time>2026-04-05T09:15:13.904Z</time></trkpt><trkpt lat="43.7105333" lon="12.699399"><ele>390.0</ele><time>2026-04-05T09:15:14.904Z</time></trkpt><trkpt lat="43.7104976" lon="12.6992945"><ele>390.0</ele><time>2026-04-05T09:15:15.904Z</time></trkpt><trkpt lat="43.7104371" lon="12.6992154"><ele>387.8</ele><time>2026-04-05T09:15:16.904Z</time></trkpt><trkpt lat="43.7103538" lon="12.6991857"><ele>385.6</ele><time>2026-04-05T09:15:17.904Z</time></trkpt><trkpt lat="43.7102713" lon="12.6992221"><ele>383.4</ele><time>2026-04-05T09:15:18.903Z</time></trkpt><trkpt lat="43.7101865" lon="12.6993129"><ele>381.2</ele><time>2026-04-05T09:15:19.904Z</time></trkpt><trkpt lat="43.7100876" lon="12.6994237"><ele>379.0</ele><time>2026-04-05T09:15:20.904Z</time></trkpt><trkpt lat="43.7099756" lon="12.6995554"><ele>377.66666666666663</ele><time>2026-04-05T09:15:21.903Z</time></trkpt><trkpt lat="43.7098464" lon="12.699685"><ele>376.3333333333333</ele><time>2026-04-05T09:15:22.904Z</time></trkpt><trkpt lat="43.7097148" lon="12.6998002"><ele>375.0</ele><time>2026-04-05T09:15:23.904Z</time></trkpt><trkpt lat="43.7095887" lon="12.699918"><ele>375.0</ele><time>2026-04-05T09:15:24.904Z</time></trkpt><trkpt lat="43.7094706" lon="12.700051"><ele>375.0</ele><time>2026-04-05T09:15:25.904Z</time></trkpt><trkpt lat="43.7093527" lon="12.7002075"><ele>375.0</ele><time>2026-04-05T09:15:26.903Z</time></trkpt><trkpt lat="43.7092343" lon="12.7003778"><ele>370.3333333333333</ele><time>2026-04-05T09:15:27.904Z</time></trkpt><trkpt lat="43.7091211" lon="12.7005653"><ele>365.66666666666663</ele><time>2026-04-05T09:15:28.904Z</time></trkpt><trkpt lat="43.7090184" lon="12.7007501"><ele>361.0</ele><time>2026-04-05T09:15:29.904Z</time></trkpt><trkpt lat="43.7089205" lon="12.7009313"><ele>362.3333333333333</ele><time>2026-04-05T09:15:30.904Z</time></trkpt><trkpt lat="43.7088266" lon="12.7011089"><ele>363.6666666666667</ele><time>2026-04-05T09:15:31.905Z</time></trkpt><trkpt lat="43.708739" lon="12.7012938"><ele>365.0</ele><time>2026-04-05T09:15:32.903Z</time></trkpt><trkpt lat="43.7086723" lon="12.7014839"><ele>365.0</ele><time>2026-04-05T09:15:33.904Z</time></trkpt><trkpt lat="43.7086382" lon="12.7016856"><ele>365.0</ele><time>2026-04-05T09:15:34.904Z</time></trkpt><trkpt lat="43.7086254" lon="12.7019097"><ele>365.0</ele><time>2026-04-05T09:15:35.904Z</time></trkpt><trkpt lat="43.7086136" lon="12.7021508"><ele>363.6666666666667</ele><time>2026-04-05T09:15:36.904Z</time></trkpt><trkpt lat="43.7085931" lon="12.702392"><ele>362.3333333333333</ele><time>2026-04-05T09:15:37.904Z</time></trkpt><trkpt lat="43.7085586" lon="12.7026182"><ele>361.0</ele><time>2026-04-05T09:15:38.903Z</time></trkpt><trkpt lat="43.708511" lon="12.7028383"><ele>351.0</ele><time>2026-04-05T09:15:39.905Z</time></trkpt><trkpt lat="43.7084681" lon="12.7030472"><ele>341.0</ele><time>2026-04-05T09:15:40.904Z</time></trkpt><trkpt lat="43.7084034" lon="12.7032509"><ele>331.0</ele><time>2026-04-05T09:15:41.904Z</time></trkpt><trkpt lat="43.7083084" lon="12.70342"><ele>330.0</ele><time>2026-04-05T09:15:42.903Z</time></trkpt><trkpt lat="43.708238" lon="12.7036062"><ele>329.0</ele><time>2026-04-05T09:15:43.904Z</time></trkpt><trkpt lat="43.7081612" lon="12.7037848"><ele>328.0</ele><time>2026-04-05T09:15:44.905Z</time></trkpt><trkpt lat="43.7080868" lon="12.703962"><ele>328.0</ele><time>2026-04-05T09:15:45.904Z</time></trkpt><trkpt lat="43.7080154" lon="12.7041365"><ele>328.0</ele><time>2026-04-05T09:15:46.904Z</time></trkpt><trkpt lat="43.7079471" lon="12.7043081"><ele>328.0</ele><time>2026-04-05T09:15:47.904Z</time></trkpt><trkpt lat="43.7078956" lon="12.7044798"><ele>328.0</ele><time>2026-04-05T09:15:48.904Z</time></trkpt><trkpt lat="43.7078626" lon="12.7046411"><ele>326.3333333333333</ele><time>2026-04-05T09:15:49.904Z</time></trkpt><trkpt lat="43.70784" lon="12.7047911"><ele>324.66666666666663</ele><time>2026-04-05T09:15:50.904Z</time></trkpt><trkpt lat="43.7078089" lon="12.7049209"><ele>323.0</ele><time>2026-04-05T09:15:51.904Z</time></trkpt><trkpt lat="43.7077562" lon="12.7050067"><ele>321.3333333333333</ele><time>2026-04-05T09:15:52.903Z</time></trkpt><trkpt lat="43.7076797" lon="12.7050318"><ele>319.6666666666667</ele><time>2026-04-05T09:15:53.903Z</time></trkpt><trkpt lat="43.7076032" lon="12.7050013"><ele>318.0</ele><time>2026-04-05T09:15:54.904Z</time></trkpt><trkpt lat="43.7075557" lon="12.7049148"><ele>315.8</ele><time>2026-04-05T09:15:55.904Z</time></trkpt><trkpt lat="43.7075453" lon="12.7047969"><ele>313.6</ele><time>2026-04-05T09:15:56.903Z</time></trkpt><trkpt lat="43.7075613" lon="12.7046448"><ele>311.4</ele><time>2026-04-05T09:15:57.904Z</time></trkpt><trkpt lat="43.7075897" lon="12.7044709"><ele>309.2</ele><time>2026-04-05T09:15:58.904Z</time></trkpt><trkpt lat="43.7076058" lon="12.7043215"><ele>307.0</ele><time>2026-04-05T09:15:59.904Z</time></trkpt><trkpt lat="43.7075932" lon="12.7041868"><ele>306.8</ele><time>2026-04-05T09:16:00.904Z</time></trkpt><trkpt lat="43.7075485" lon="12.7040785"><ele>306.6</ele><time>2026-04-05T09:16:01.904Z</time></trkpt><trkpt lat="43.7074759" lon="12.7040225"><ele>306.40000000000003</ele><time>2026-04-05T09:16:02.904Z</time></trkpt><trkpt lat="43.7073918" lon="12.7040323"><ele>306.2</ele><time>2026-04-05T09:16:03.904Z</time></trkpt><trkpt lat="43.7073168" lon="12.7041111"><ele>306.0</ele><time>2026-04-05T09:16:04.904Z</time></trkpt><trkpt lat="43.7072528" lon="12.704247"><ele>306.3333333333333</ele><time>2026-04-05T09:16:05.904Z</time></trkpt><trkpt lat="43.7071942" lon="12.7044256"><ele>306.66666666666663</ele><time>2026-04-05T09:16:06.904Z</time></trkpt><trkpt lat="43.7071187" lon="12.7046287"><ele>307.0</ele><time>2026-04-05T09:16:07.903Z</time></trkpt><trkpt lat="43.7070375" lon="12.7048369"><ele>307.0</ele><time>2026-04-05T09:16:08.904Z</time></trkpt><trkpt lat="43.7069449" lon="12.7050602"><ele>307.0</ele><time>2026-04-05T09:16:09.903Z</time></trkpt><trkpt lat="43.7068296" lon="12.7052828"><ele>307.0</ele><time>2026-04-05T09:16:10.903Z</time></trkpt><trkpt lat="43.7066883" lon="12.7055155"><ele>301.3333333333333</ele><time>2026-04-05T09:16:11.903Z</time></trkpt><trkpt lat="43.7065317" lon="12.7057439"><ele>295.6666666666667</ele><time>2026-04-05T09:16:12.904Z</time></trkpt><trkpt lat="43.7063774" lon="12.7059409"><ele>290.0</ele><time>2026-04-05T09:16:13.904Z</time></trkpt><trkpt lat="43.7062283" lon="12.7061313"><ele>290.0</ele><time>2026-04-05T09:16:14.904Z</time></trkpt><trkpt lat="43.7060815" lon="12.7063044"><ele>290.0</ele><time>2026-04-05T09:16:15.905Z</time></trkpt><trkpt lat="43.705937" lon="12.7064677"><ele>290.0</ele><time>2026-04-05T09:16:16.904Z</time></trkpt><trkpt lat="43.7057966" lon="12.7066234"><ele>287.0</ele><time>2026-04-05T09:16:17.904Z</time></trkpt><trkpt lat="43.7056573" lon="12.706771"><ele>284.0</ele><time>2026-04-05T09:16:18.904Z</time></trkpt><trkpt lat="43.7055154" lon="12.7068991"><ele>281.0</ele><time>2026-04-05T09:16:19.903Z</time></trkpt><trkpt lat="43.705373" lon="12.7069973"><ele>276.0</ele><time>2026-04-05T09:16:20.904Z</time></trkpt><trkpt lat="43.7052156" lon="12.7070695"><ele>271.0</ele><time>2026-04-05T09:16:21.904Z</time></trkpt><trkpt lat="43.7050414" lon="12.7071473"><ele>266.0</ele><time>2026-04-05T09:16:22.904Z</time></trkpt><trkpt lat="43.7048514" lon="12.7072505"><ele>266.0</ele><time>2026-04-05T09:16:23.904Z</time></trkpt><trkpt lat="43.7046507" lon="12.7073524"><ele>266.0</ele><time>2026-04-05T09:16:24.904Z</time></trkpt><trkpt lat="43.7044585" lon="12.7074398"><ele>266.0</ele><time>2026-04-05T09:16:25.904Z</time></trkpt><trkpt lat="43.7042891" lon="12.7075109"><ele>263.25</ele><time>2026-04-05T09:16:26.905Z</time></trkpt><trkpt lat="43.7041382" lon="12.707557"><ele>260.5</ele><time>2026-04-05T09:16:27.903Z</time></trkpt><trkpt lat="43.7039973" lon="12.7075611"><ele>257.75</ele><time>2026-04-05T09:16:28.904Z</time></trkpt><trkpt lat="43.7038566" lon="12.7075251"><ele>255.0</ele><time>2026-04-05T09:16:29.903Z</time></trkpt><trkpt lat="43.7037009" lon="12.7075117"><ele>252.0</ele><time>2026-04-05T09:16:30.904Z</time></trkpt><trkpt lat="43.7035309" lon="12.7075162"><ele>249.0</ele><time>2026-04-05T09:16:31.903Z</time></trkpt><trkpt lat="43.7033697" lon="12.7075036"><ele>246.0</ele><time>2026-04-05T09:16:32.904Z</time></trkpt><trkpt lat="43.7032149" lon="12.707486"><ele>246.0</ele><time>2026-04-05T09:16:33.904Z</time></trkpt><trkpt lat="43.7030598" lon="12.7074846"><ele>246.0</ele><time>2026-04-05T09:16:34.904Z</time></trkpt><trkpt lat="43.7028998" lon="12.7075138"><ele>246.0</ele><time>2026-04-05T09:16:35.903Z</time></trkpt><trkpt lat="43.7027397" lon="12.7075769"><ele>245.0</ele><time>2026-04-05T09:16:36.904Z</time></trkpt><trkpt lat="43.7025855" lon="12.7076521"><ele>244.0</ele><time>2026-04-05T09:16:37.903Z</time></trkpt><trkpt lat="43.7024368" lon="12.7077243"><ele>243.0</ele><time>2026-04-05T09:16:38.904Z</time></trkpt><trkpt lat="43.7022817" lon="12.7077733"><ele>243.0</ele><time>2026-04-05T09:16:39.904Z</time></trkpt><trkpt lat="43.7021123" lon="12.7078021"><ele>243.0</ele><time>2026-04-05T09:16:40.904Z</time></trkpt><trkpt lat="43.7019521" lon="12.7078051"><ele>243.0</ele><time>2026-04-05T09:16:41.904Z</time></trkpt><trkpt lat="43.7018094" lon="12.7077968"><ele>243.5</ele><time>2026-04-05T09:16:42.905Z</time></trkpt><trkpt lat="43.7016744" lon="12.7077608"><ele>244.0</ele><time>2026-04-05T09:16:43.905Z</time></trkpt><trkpt lat="43.7015492" lon="12.7076893"><ele>244.5</ele><time>2026-04-05T09:16:44.904Z</time></trkpt><trkpt lat="43.7014375" lon="12.7075518"><ele>245.0</ele><time>2026-04-05T09:16:45.904Z</time></trkpt><trkpt lat="43.7013505" lon="12.7073955"><ele>242.0</ele><time>2026-04-05T09:16:46.904Z</time></trkpt><trkpt lat="43.7012269" lon="12.7072782"><ele>239.0</ele><time>2026-04-05T09:16:47.903Z</time></trkpt><trkpt lat="43.701076" lon="12.7071768"><ele>236.0</ele><time>2026-04-05T09:16:48.904Z</time></trkpt><trkpt lat="43.7009041" lon="12.7070765"><ele>236.66666666666669</ele><time>2026-04-05T09:16:49.903Z</time></trkpt><trkpt lat="43.7007341" lon="12.7069441"><ele>237.33333333333331</ele><time>2026-04-05T09:16:50.903Z</time></trkpt><trkpt lat="43.7005891" lon="12.7068118"><ele>238.0</ele><time>2026-04-05T09:16:51.904Z</time></trkpt><trkpt lat="43.7004622" lon="12.7066658"><ele>238.0</ele><time>2026-04-05T09:16:52.904Z</time></trkpt><trkpt lat="43.7003504" lon="12.7064707"><ele>238.0</ele><time>2026-04-05T09:16:53.903Z</time></trkpt><trkpt lat="43.7002437" lon="12.7062491"><ele>238.0</ele><time>2026-04-05T09:16:54.905Z</time></trkpt><trkpt lat="43.7001299" lon="12.7060197"><ele>232.0</ele><time>2026-04-05T09:16:55.904Z</time></trkpt><trkpt lat="43.7000219" lon="12.7058071"><ele>226.0</ele><time>2026-04-05T09:16:56.904Z</time></trkpt><trkpt lat="43.6999222" lon="12.7056045"><ele>220.0</ele><time>2026-04-05T09:16:57.903Z</time></trkpt><trkpt lat="43.6998211" lon="12.7054166"><ele>220.0</ele><time>2026-04-05T09:16:58.904Z</time></trkpt><trkpt lat="43.6997096" lon="12.7052494"><ele>220.0</ele><time>2026-04-05T09:16:59.904Z</time></trkpt><trkpt lat="43.6995944" lon="12.7050977"><ele>220.0</ele><time>2026-04-05T09:17:00.904Z</time></trkpt><trkpt lat="43.6994809" lon="12.7049523"><ele>216.33333333333331</ele><time>2026-04-05T09:17:01.904Z</time></trkpt><trkpt lat="43.6993683" lon="12.7048018"><ele>212.66666666666669</ele><time>2026-04-05T09:17:02.904Z</time></trkpt><trkpt lat="43.6992559" lon="12.7046476"><ele>209.0</ele><time>2026-04-05T09:17:03.904Z</time></trkpt><trkpt lat="43.6991403" lon="12.7044982"><ele>208.75</ele><time>2026-04-05T09:17:04.903Z</time></trkpt><trkpt lat="43.6990245" lon="12.7043537"><ele>208.5</ele><time>2026-04-05T09:17:05.904Z</time></trkpt><trkpt lat="43.6989129" lon="12.7042176"><ele>208.25</ele><time>2026-04-05T09:17:06.904Z</time></trkpt><trkpt lat="43.698807" lon="12.7040837"><ele>208.0</ele><time>2026-04-05T09:17:07.904Z</time></trkpt><trkpt lat="43.6987087" lon="12.7039519"><ele>208.0</ele><time>2026-04-05T09:17:08.904Z</time></trkpt><trkpt lat="43.6986133" lon="12.7038357"><ele>208.0</ele><time>2026-04-05T09:17:09.904Z</time></trkpt><trkpt lat="43.6985152" lon="12.7037298"><ele>208.0</ele><time>2026-04-05T09:17:10.904Z</time></trkpt><trkpt lat="43.6984155" lon="12.7036262"><ele>208.0</ele><time>2026-04-05T09:17:11.903Z</time></trkpt><trkpt lat="43.6983141" lon="12.7035192"><ele>206.0</ele><time>2026-04-05T09:17:12.904Z</time></trkpt><trkpt lat="43.698202" lon="12.7034208"><ele>204.0</ele><time>2026-04-05T09:17:13.905Z</time></trkpt><trkpt lat="43.6980819" lon="12.7033447"><ele>202.0</ele><time>2026-04-05T09:17:14.904Z</time></trkpt><trkpt lat="43.6979485" lon="12.7033123"><ele>200.0</ele><time>2026-04-05T09:17:15.904Z</time></trkpt><trkpt lat="43.6978019" lon="12.7033148"><ele>198.5</ele><time>2026-04-05T09:17:16.904Z</time></trkpt><trkpt lat="43.6976618" lon="12.7033129"><ele>197.0</ele><time>2026-04-05T09:17:17.905Z</time></trkpt><trkpt lat="43.6975278" lon="12.7032756"><ele>195.5</ele><time>2026-04-05T09:17:18.903Z</time></trkpt><trkpt lat="43.6974101" lon="12.703188"><ele>194.0</ele><time>2026-04-05T09:17:19.903Z</time></trkpt><trkpt lat="43.6973014" lon="12.703056"><ele>194.0</ele><time>2026-04-05T09:17:20.903Z</time></trkpt><trkpt lat="43.6971927" lon="12.7029008"><ele>194.0</ele><time>2026-04-05T09:17:21.904Z</time></trkpt><trkpt lat="43.6970813" lon="12.7027316"><ele>194.0</ele><time>2026-04-05T09:17:22.904Z</time></trkpt><trkpt lat="43.6969791" lon="12.7025659"><ele>193.0</ele><time>2026-04-05T09:17:23.904Z</time></trkpt><trkpt lat="43.6968868" lon="12.7023976"><ele>192.0</ele><time>2026-04-05T09:17:24.904Z</time></trkpt><trkpt lat="43.6968056" lon="12.7022391"><ele>191.0</ele><time>2026-04-05T09:17:25.904Z</time></trkpt><trkpt lat="43.6967355" lon="12.7020987"><ele>190.0</ele><time>2026-04-05T09:17:26.903Z</time></trkpt><trkpt lat="43.6966785" lon="12.7019747"><ele>189.4</ele><time>2026-04-05T09:17:27.904Z</time></trkpt><trkpt lat="43.6966379" lon="12.7018803"><ele>188.8</ele><time>2026-04-05T09:17:28.905Z</time></trkpt><trkpt lat="43.6966029" lon="12.7017845"><ele>188.2</ele><time>2026-04-05T09:17:30.904Z</time></trkpt><trkpt lat="43.6965283" lon="12.7017192"><ele>187.6</ele><time>2026-04-05T09:17:33.904Z</time></trkpt><trkpt lat="43.6964108" lon="12.7017199"><ele>187.0</ele><time>2026-04-05T09:17:35.904Z</time></trkpt><trkpt lat="43.6963061" lon="12.7016422"><ele>187.0</ele><time>2026-04-05T09:17:37.903Z</time></trkpt><trkpt lat="43.6962499" lon="12.7015641"><ele>187.0</ele><time>2026-04-05T09:17:38.904Z</time></trkpt><trkpt lat="43.6961713" lon="12.7014916"><ele>187.0</ele><time>2026-04-05T09:17:39.904Z</time></trkpt><trkpt lat="43.6960724" lon="12.7014319"><ele>187.0</ele><time>2026-04-05T09:17:40.904Z</time></trkpt><trkpt lat="43.695967" lon="12.7013473"><ele>187.0</ele><time>2026-04-05T09:17:41.904Z</time></trkpt><trkpt lat="43.6958474" lon="12.7012564"><ele>186.25</ele><time>2026-04-05T09:17:42.904Z</time></trkpt><trkpt lat="43.6957176" lon="12.7011603"><ele>185.5</ele><time>2026-04-05T09:17:43.904Z</time></trkpt><trkpt lat="43.6955982" lon="12.7010696"><ele>184.75</ele><time>2026-04-05T09:17:44.904Z</time></trkpt><trkpt lat="43.6954817" lon="12.7009793"><ele>184.0</ele><time>2026-04-05T09:17:45.904Z</time></trkpt><trkpt lat="43.6953707" lon="12.7008958"><ele>183.75</ele><time>2026-04-05T09:17:46.904Z</time></trkpt><trkpt lat="43.695262" lon="12.7008229"><ele>183.5</ele><time>2026-04-05T09:17:47.904Z</time></trkpt><trkpt lat="43.6951576" lon="12.7007585"><ele>183.25</ele><time>2026-04-05T09:17:48.904Z</time></trkpt><trkpt lat="43.6950589" lon="12.700694"><ele>183.0</ele><time>2026-04-05T09:17:49.904Z</time></trkpt><trkpt lat="43.6949605" lon="12.700631"><ele>182.0</ele><time>2026-04-05T09:17:50.904Z</time></trkpt><trkpt lat="43.6948643" lon="12.7005653"><ele>181.0</ele><time>2026-04-05T09:17:51.904Z</time></trkpt><trkpt lat="43.694773" lon="12.7004959"><ele>180.0</ele><time>2026-04-05T09:17:52.903Z</time></trkpt><trkpt lat="43.6946859" lon="12.7004248"><ele>179.0</ele><time>2026-04-05T09:17:53.903Z</time></trkpt><trkpt lat="43.6946036" lon="12.7003547"><ele>178.0</ele><time>2026-04-05T09:17:54.904Z</time></trkpt><trkpt lat="43.6945294" lon="12.7002911"><ele>177.5</ele><time>2026-04-05T09:17:55.904Z</time></trkpt><trkpt lat="43.6944683" lon="12.7002287"><ele>177.0</ele><time>2026-04-05T09:17:56.904Z</time></trkpt><trkpt lat="43.6944164" lon="12.7001695"><ele>176.5</ele><time>2026-04-05T09:17:57.904Z</time></trkpt><trkpt lat="43.694318" lon="12.7000797"><ele>176.0</ele><time>2026-04-05T09:17:59.905Z</time></trkpt><trkpt lat="43.694254" lon="12.7000158"><ele>175.5</ele><time>2026-04-05T09:18:01.904Z</time></trkpt><trkpt lat="43.6941881" lon="12.7000158"><ele>175.0</ele><time>2026-04-05T09:18:04.904Z</time></trkpt><trkpt lat="43.6941137" lon="12.7001728"><ele>174.5</ele><time>2026-04-05T09:18:06.904Z</time></trkpt><trkpt lat="43.6940836" lon="12.700294"><ele>174.0</ele><time>2026-04-05T09:18:07.903Z</time></trkpt><trkpt lat="43.694039" lon="12.7004441"><ele>173.5</ele><time>2026-04-05T09:18:08.904Z</time></trkpt><trkpt lat="43.693988" lon="12.7006197"><ele>173.0</ele><time>2026-04-05T09:18:09.905Z</time></trkpt><trkpt lat="43.6939376" lon="12.7008005"><ele>173.0</ele><time>2026-04-05T09:18:10.904Z</time></trkpt><trkpt lat="43.6938769" lon="12.7009992"><ele>173.0</ele><time>2026-04-05T09:18:11.904Z</time></trkpt><trkpt lat="43.6938051" lon="12.7012111"><ele>173.0</ele><time>2026-04-05T09:18:12.904Z</time></trkpt><trkpt lat="43.6937276" lon="12.7014377"><ele>173.0</ele><time>2026-04-05T09:18:13.904Z</time></trkpt><trkpt lat="43.6936509" lon="12.7016611"><ele>173.0</ele><time>2026-04-05T09:18:14.904Z</time></trkpt><trkpt lat="43.6935733" lon="12.7018817"><ele>173.0</ele><time>2026-04-05T09:18:15.904Z</time></trkpt><trkpt lat="43.6934944" lon="12.7020942"><ele>171.66666666666666</ele><time>2026-04-05T09:18:16.904Z</time></trkpt><trkpt lat="43.6934176" lon="12.7023035"><ele>170.33333333333334</ele><time>2026-04-05T09:18:17.904Z</time></trkpt><trkpt lat="43.6933447" lon="12.7025084"><ele>169.0</ele><time>2026-04-05T09:18:18.904Z</time></trkpt><trkpt lat="43.6932719" lon="12.7027137"><ele>168.33333333333334</ele><time>2026-04-05T09:18:19.904Z</time></trkpt><trkpt lat="43.6932003" lon="12.7029185"><ele>167.66666666666666</ele><time>2026-04-05T09:18:20.904Z</time></trkpt><trkpt lat="43.6931257" lon="12.7031241"><ele>167.0</ele><time>2026-04-05T09:18:21.904Z</time></trkpt><trkpt lat="43.6930497" lon="12.7033269"><ele>167.0</ele><time>2026-04-05T09:18:22.903Z</time></trkpt><trkpt lat="43.6929739" lon="12.7035311"><ele>167.0</ele><time>2026-04-05T09:18:23.904Z</time></trkpt><trkpt lat="43.6928989" lon="12.7037378"><ele>167.0</ele><time>2026-04-05T09:18:24.904Z</time></trkpt><trkpt lat="43.6928222" lon="12.7039465"><ele>166.33333333333331</ele><time>2026-04-05T09:18:25.904Z</time></trkpt><trkpt lat="43.6927436" lon="12.7041538"><ele>165.66666666666666</ele><time>2026-04-05T09:18:26.904Z</time></trkpt><trkpt lat="43.6926671" lon="12.7043649"><ele>165.0</ele><time>2026-04-05T09:18:27.904Z</time></trkpt><trkpt lat="43.6925872" lon="12.7045781"><ele>165.0</ele><time>2026-04-05T09:18:28.904Z</time></trkpt><trkpt lat="43.6925065" lon="12.7047943"><ele>165.0</ele><time>2026-04-05T09:18:29.904Z</time></trkpt><trkpt lat="43.6924203" lon="12.705014"><ele>165.0</ele><time>2026-04-05T09:18:30.904Z</time></trkpt><trkpt lat="43.6923384" lon="12.7052388"><ele>164.0</ele><time>2026-04-05T09:18:31.904Z</time></trkpt><trkpt lat="43.6922567" lon="12.7054653"><ele>163.0</ele><time>2026-04-05T09:18:32.904Z</time></trkpt><trkpt lat="43.6921753" lon="12.7056924"><ele>162.0</ele><time>2026-04-05T09:18:33.904Z</time></trkpt><trkpt lat="43.6920935" lon="12.7059154"><ele>161.66666666666666</ele><time>2026-04-05T09:18:34.904Z</time></trkpt><trkpt lat="43.6920141" lon="12.7061359"><ele>161.33333333333331</ele><time>2026-04-05T09:18:35.904Z</time></trkpt><trkpt lat="43.6919435" lon="12.706358"><ele>161.0</ele><time>2026-04-05T09:18:36.904Z</time></trkpt><trkpt lat="43.6918887" lon="12.7065928"><ele>160.66666666666666</ele><time>2026-04-05T09:18:37.904Z</time></trkpt><trkpt lat="43.6918564" lon="12.7068458"><ele>160.33333333333334</ele><time>2026-04-05T09:18:38.904Z</time></trkpt><trkpt lat="43.6918327" lon="12.7071221"><ele>160.0</ele><time>2026-04-05T09:18:39.904Z</time></trkpt><trkpt lat="43.6918165" lon="12.7073751"><ele>160.0</ele><time>2026-04-05T09:18:40.904Z</time></trkpt><trkpt lat="43.691791" lon="12.7075988"><ele>160.0</ele><time>2026-04-05T09:18:41.904Z</time></trkpt><trkpt lat="43.6917431" lon="12.7078057"><ele>160.0</ele><time>2026-04-05T09:18:42.904Z</time></trkpt><trkpt lat="43.6916693" lon="12.7079807"><ele>159.75</ele><time>2026-04-05T09:18:43.904Z</time></trkpt><trkpt lat="43.6915864" lon="12.7081366"><ele>159.5</ele><time>2026-04-05T09:18:44.904Z</time></trkpt><trkpt lat="43.6915058" lon="12.7082849"><ele>159.25</ele><time>2026-04-05T09:18:45.905Z</time></trkpt><trkpt lat="43.6914172" lon="12.7084228"><ele>159.0</ele><time>2026-04-05T09:18:46.905Z</time></trkpt><trkpt lat="43.6913196" lon="12.7085356"><ele>159.5</ele><time>2026-04-05T09:18:47.903Z</time></trkpt><trkpt lat="43.6912143" lon="12.7086235"><ele>160.0</ele><time>2026-04-05T09:18:48.904Z</time></trkpt><trkpt lat="43.6911183" lon="12.7087143"><ele>160.5</ele><time>2026-04-05T09:18:49.905Z</time></trkpt><trkpt lat="43.6910462" lon="12.7088451"><ele>161.0</ele><time>2026-04-05T09:18:50.904Z</time></trkpt><trkpt lat="43.6909952" lon="12.7090084"><ele>158.66666666666666</ele><time>2026-04-05T09:18:51.904Z</time></trkpt><trkpt lat="43.6909393" lon="12.7091967"><ele>156.33333333333334</ele><time>2026-04-05T09:18:52.904Z</time></trkpt><trkpt lat="43.6908462" lon="12.709395"><ele>154.0</ele><time>2026-04-05T09:18:53.904Z</time></trkpt><trkpt lat="43.6907262" lon="12.709603"><ele>154.0</ele><time>2026-04-05T09:18:54.904Z</time></trkpt><trkpt lat="43.6905907" lon="12.7098351"><ele>154.0</ele><time>2026-04-05T09:18:55.904Z</time></trkpt><trkpt lat="43.6904455" lon="12.7100952"><ele>154.0</ele><time>2026-04-05T09:18:56.904Z</time></trkpt><trkpt lat="43.690296" lon="12.710349"><ele>154.0</ele><time>2026-04-05T09:18:57.904Z</time></trkpt><trkpt lat="43.6901604" lon="12.7105748"><ele>154.0</ele><time>2026-04-05T09:18:58.903Z</time></trkpt><trkpt lat="43.690035" lon="12.7107846"><ele>153.66666666666669</ele><time>2026-04-05T09:18:59.904Z</time></trkpt><trkpt lat="43.6899162" lon="12.7109795"><ele>153.33333333333334</ele><time>2026-04-05T09:19:00.905Z</time></trkpt><trkpt lat="43.6898036" lon="12.7111661"><ele>153.0</ele><time>2026-04-05T09:19:01.904Z</time></trkpt><trkpt lat="43.6896878" lon="12.7113474"><ele>154.33333333333334</ele><time>2026-04-05T09:19:02.903Z</time></trkpt><trkpt lat="43.6895696" lon="12.7115236"><ele>155.66666666666669</ele><time>2026-04-05T09:19:03.904Z</time></trkpt><trkpt lat="43.6894542" lon="12.711688"><ele>157.0</ele><time>2026-04-05T09:19:04.904Z</time></trkpt><trkpt lat="43.6893443" lon="12.7118443"><ele>155.0</ele><time>2026-04-05T09:19:05.904Z</time></trkpt><trkpt lat="43.6892403" lon="12.7119951"><ele>153.0</ele><time>2026-04-05T09:19:06.904Z</time></trkpt><trkpt lat="43.6891386" lon="12.7121419"><ele>151.0</ele><time>2026-04-05T09:19:07.903Z</time></trkpt><trkpt lat="43.6890392" lon="12.712279"><ele>149.0</ele><time>2026-04-05T09:19:08.904Z</time></trkpt><trkpt lat="43.6889391" lon="12.7124062"><ele>149.0</ele><time>2026-04-05T09:19:09.904Z</time></trkpt><trkpt lat="43.6888397" lon="12.7125265"><ele>149.0</ele><time>2026-04-05T09:19:10.904Z</time></trkpt><trkpt lat="43.6887457" lon="12.712645"><ele>149.0</ele><time>2026-04-05T09:19:11.904Z</time></trkpt><trkpt lat="43.6886671" lon="12.7127566"><ele>149.0</ele><time>2026-04-05T09:19:12.904Z</time></trkpt><trkpt lat="43.6886182" lon="12.7128734"><ele>148.8</ele><time>2026-04-05T09:19:13.904Z</time></trkpt><trkpt lat="43.6886083" lon="12.7130029"><ele>148.60000000000002</ele><time>2026-04-05T09:19:14.905Z</time></trkpt><trkpt lat="43.688634" lon="12.7131485"><ele>148.4</ele><time>2026-04-05T09:19:15.904Z</time></trkpt><trkpt lat="43.6886853" lon="12.7132912"><ele>148.20000000000002</ele><time>2026-04-05T09:19:16.904Z</time></trkpt><trkpt lat="43.6887328" lon="12.7134144"><ele>148.0</ele><time>2026-04-05T09:19:17.904Z</time></trkpt><trkpt lat="43.6887551" lon="12.7135445"><ele>147.25</ele><time>2026-04-05T09:19:18.904Z</time></trkpt><trkpt lat="43.6887394" lon="12.7136804"><ele>146.5</ele><time>2026-04-05T09:19:19.903Z</time></trkpt><trkpt lat="43.6886986" lon="12.7138318"><ele>145.75</ele><time>2026-04-05T09:19:20.903Z</time></trkpt><trkpt lat="43.6886311" lon="12.7139881"><ele>145.0</ele><time>2026-04-05T09:19:21.904Z</time></trkpt><trkpt lat="43.688551" lon="12.7141595"><ele>145.0</ele><time>2026-04-05T09:19:22.904Z</time></trkpt><trkpt lat="43.6884706" lon="12.7143509"><ele>145.0</ele><time>2026-04-05T09:19:23.903Z</time></trkpt><trkpt lat="43.68838" lon="12.7145477"><ele>145.0</ele><time>2026-04-05T09:19:24.904Z</time></trkpt><trkpt lat="43.6882873" lon="12.7147518"><ele>145.0</ele><time>2026-04-05T09:19:25.905Z</time></trkpt><trkpt lat="43.6882044" lon="12.7149737"><ele>145.0</ele><time>2026-04-05T09:19:26.903Z</time></trkpt><trkpt lat="43.6881381" lon="12.7151873"><ele>145.0</ele><time>2026-04-05T09:19:27.902Z</time></trkpt><trkpt lat="43.6880784" lon="12.71539"><ele>145.25</ele><time>2026-04-05T09:19:28.903Z</time></trkpt><trkpt lat="43.6880152" lon="12.7155932"><ele>145.5</ele><time>2026-04-05T09:19:29.903Z</time></trkpt><trkpt lat="43.6879797" lon="12.7157659"><ele>145.75</ele><time>2026-04-05T09:19:30.903Z</time></trkpt><trkpt lat="43.6879358" lon="12.7159428"><ele>146.0</ele><time>2026-04-05T09:19:31.904Z</time></trkpt><trkpt lat="43.6878945" lon="12.7161063"><ele>146.0</ele><time>2026-04-05T09:19:32.903Z</time></trkpt><trkpt lat="43.6878632" lon="12.7162428"><ele>146.0</ele><time>2026-04-05T09:19:33.903Z</time></trkpt><trkpt lat="43.6878435" lon="12.7163631"><ele>146.0</ele><time>2026-04-05T09:19:34.902Z</time></trkpt><trkpt lat="43.6878463" lon="12.716469"><ele>146.0</ele><time>2026-04-05T09:19:35.903Z</time></trkpt><trkpt lat="43.6878744" lon="12.7165571"><ele>146.0</ele><time>2026-04-05T09:19:36.903Z</time></trkpt><trkpt lat="43.6879241" lon="12.7166115"><ele>146.0</ele><time>2026-04-05T09:19:37.903Z</time></trkpt><trkpt lat="43.6880004" lon="12.7166411"><ele>146.0</ele><time>2026-04-05T09:19:38.903Z</time></trkpt><trkpt lat="43.6881" lon="12.716666"><ele>146.0</ele><time>2026-04-05T09:19:39.903Z</time></trkpt><trkpt lat="43.6882142" lon="12.716693"><ele>146.0</ele><time>2026-04-05T09:19:40.903Z</time></trkpt><trkpt lat="43.6883393" lon="12.7167028"><ele>146.0</ele><time>2026-04-05T09:19:41.903Z</time></trkpt><trkpt lat="43.6884657" lon="12.7166599"><ele>146.0</ele><time>2026-04-05T09:19:42.903Z</time></trkpt><trkpt lat="43.6885752" lon="12.7165719"><ele>146.0</ele><time>2026-04-05T09:19:43.902Z</time></trkpt><trkpt lat="43.6886621" lon="12.7164303"><ele>146.0</ele><time>2026-04-05T09:19:44.902Z</time></trkpt><trkpt lat="43.688717" lon="12.7162543"><ele>146.0</ele><time>2026-04-05T09:19:45.903Z</time></trkpt><trkpt lat="43.688722" lon="12.7160727"><ele>146.0</ele><time>2026-04-05T09:19:46.903Z</time></trkpt><trkpt lat="43.6886858" lon="12.7158954"><ele>146.0</ele><time>2026-04-05T09:19:47.903Z</time></trkpt><trkpt lat="43.6886072" lon="12.7157492"><ele>146.0</ele><time>2026-04-05T09:19:48.903Z</time></trkpt><trkpt lat="43.6884945" lon="12.715637"><ele>146.0</ele><time>2026-04-05T09:19:49.903Z</time></trkpt><trkpt lat="43.688354" lon="12.7155628"><ele>146.0</ele><time>2026-04-05T09:19:50.902Z</time></trkpt><trkpt lat="43.6881927" lon="12.7155078"><ele>146.0</ele><time>2026-04-05T09:19:51.903Z</time></trkpt><trkpt lat="43.6880233" lon="12.715443"><ele>146.0</ele><time>2026-04-05T09:19:52.903Z</time></trkpt><trkpt lat="43.6878432" lon="12.7153721"><ele>145.66666666666666</ele><time>2026-04-05T09:19:53.904Z</time></trkpt><trkpt lat="43.6876574" lon="12.7152966"><ele>145.33333333333334</ele><time>2026-04-05T09:19:54.903Z</time></trkpt><trkpt lat="43.687496" lon="12.7152393"><ele>145.0</ele><time>2026-04-05T09:19:55.902Z</time></trkpt><trkpt lat="43.6873478" lon="12.7151886"><ele>145.0</ele><time>2026-04-05T09:19:56.902Z</time></trkpt><trkpt lat="43.6872093" lon="12.7151545"><ele>145.0</ele><time>2026-04-05T09:19:57.903Z</time></trkpt><trkpt lat="43.687074" lon="12.7151446"><ele>145.0</ele><time>2026-04-05T09:19:58.903Z</time></trkpt><trkpt lat="43.686944" lon="12.7151474"><ele>145.0</ele><time>2026-04-05T09:19:59.903Z</time></trkpt><trkpt lat="43.6868131" lon="12.7151561"><ele>143.75</ele><time>2026-04-05T09:20:00.903Z</time></trkpt><trkpt lat="43.6866876" lon="12.7151615"><ele>142.5</ele><time>2026-04-05T09:20:01.903Z</time></trkpt><trkpt lat="43.6865602" lon="12.7151751"><ele>141.25</ele><time>2026-04-05T09:20:02.903Z</time></trkpt><trkpt lat="43.6864348" lon="12.7152023"><ele>140.0</ele><time>2026-04-05T09:20:03.904Z</time></trkpt><trkpt lat="43.6863139" lon="12.7152205"><ele>140.0</ele><time>2026-04-05T09:20:04.903Z</time></trkpt><trkpt lat="43.686191" lon="12.7152246"><ele>140.0</ele><time>2026-04-05T09:20:05.903Z</time></trkpt><trkpt lat="43.6860644" lon="12.7152361"><ele>140.0</ele><time>2026-04-05T09:20:06.903Z</time></trkpt><trkpt lat="43.685934" lon="12.7152531"><ele>140.0</ele><time>2026-04-05T09:20:07.903Z</time></trkpt><trkpt lat="43.6857939" lon="12.7152701"><ele>141.25</ele><time>2026-04-05T09:20:08.903Z</time></trkpt><trkpt lat="43.68565" lon="12.7152902"><ele>142.5</ele><time>2026-04-05T09:20:09.903Z</time></trkpt><trkpt lat="43.6855044" lon="12.7153284"><ele>143.75</ele><time>2026-04-05T09:20:10.904Z</time></trkpt><trkpt lat="43.6853799" lon="12.7153935"><ele>145.0</ele><time>2026-04-05T09:20:11.903Z</time></trkpt><trkpt lat="43.6852728" lon="12.715468"><ele>146.75</ele><time>2026-04-05T09:20:12.903Z</time></trkpt><trkpt lat="43.6851623" lon="12.7155284"><ele>148.5</ele><time>2026-04-05T09:20:13.903Z</time></trkpt><trkpt lat="43.6850425" lon="12.7155717"><ele>150.25</ele><time>2026-04-05T09:20:14.903Z</time></trkpt><trkpt lat="43.684915" lon="12.7156037"><ele>152.0</ele><time>2026-04-05T09:20:15.903Z</time></trkpt><trkpt lat="43.6847733" lon="12.7156271"><ele>152.0</ele><time>2026-04-05T09:20:16.903Z</time></trkpt><trkpt lat="43.6846137" lon="12.715626"><ele>152.0</ele><time>2026-04-05T09:20:17.903Z</time></trkpt><trkpt lat="43.6844216" lon="12.7156275"><ele>152.0</ele><time>2026-04-05T09:20:18.902Z</time></trkpt><trkpt lat="43.6842274" lon="12.7156187"><ele>153.0</ele><time>2026-04-05T09:20:19.903Z</time></trkpt><trkpt lat="43.6840659" lon="12.715609"><ele>154.0</ele><time>2026-04-05T09:20:20.903Z</time></trkpt><trkpt lat="43.6839218" lon="12.7155903"><ele>155.0</ele><time>2026-04-05T09:20:21.902Z</time></trkpt><trkpt lat="43.6837899" lon="12.7155719"><ele>156.0</ele><time>2026-04-05T09:20:22.904Z</time></trkpt><trkpt lat="43.68366" lon="12.7155618"><ele>159.0</ele><time>2026-04-05T09:20:23.904Z</time></trkpt><trkpt lat="43.6835323" lon="12.7155331"><ele>162.0</ele><time>2026-04-05T09:20:24.904Z</time></trkpt><trkpt lat="43.683404" lon="12.7154953"><ele>165.0</ele><time>2026-04-05T09:20:25.903Z</time></trkpt><trkpt lat="43.6832689" lon="12.7154543"><ele>168.0</ele><time>2026-04-05T09:20:26.903Z</time></trkpt><trkpt lat="43.6831312" lon="12.7153958"><ele>168.0</ele><time>2026-04-05T09:20:27.903Z</time></trkpt><trkpt lat="43.6829976" lon="12.7153185"><ele>168.0</ele><time>2026-04-05T09:20:28.903Z</time></trkpt><trkpt lat="43.6828732" lon="12.7152247"><ele>168.0</ele><time>2026-04-05T09:20:29.903Z</time></trkpt><trkpt lat="43.6827552" lon="12.7150915"><ele>168.0</ele><time>2026-04-05T09:20:30.902Z</time></trkpt><trkpt lat="43.6826425" lon="12.7149428"><ele>170.66666666666666</ele><time>2026-04-05T09:20:31.903Z</time></trkpt><trkpt lat="43.6825282" lon="12.7147669"><ele>173.33333333333331</ele><time>2026-04-05T09:20:32.903Z</time></trkpt><trkpt lat="43.6824131" lon="12.7145607"><ele>176.0</ele><time>2026-04-05T09:20:33.903Z</time></trkpt><trkpt lat="43.6822879" lon="12.7143336"><ele>176.33333333333331</ele><time>2026-04-05T09:20:34.903Z</time></trkpt><trkpt lat="43.6821715" lon="12.714124"><ele>176.66666666666666</ele><time>2026-04-05T09:20:35.903Z</time></trkpt><trkpt lat="43.6820664" lon="12.7139445"><ele>177.0</ele><time>2026-04-05T09:20:36.903Z</time></trkpt><trkpt lat="43.681969" lon="12.713792"><ele>178.0</ele><time>2026-04-05T09:20:37.903Z</time></trkpt><trkpt lat="43.6818747" lon="12.7136621"><ele>179.0</ele><time>2026-04-05T09:20:38.902Z</time></trkpt><trkpt lat="43.6817879" lon="12.713546"><ele>180.0</ele><time>2026-04-05T09:20:39.902Z</time></trkpt><trkpt lat="43.6817082" lon="12.7134297"><ele>181.0</ele><time>2026-04-05T09:20:40.903Z</time></trkpt><trkpt lat="43.6816494" lon="12.7133085"><ele>181.75</ele><time>2026-04-05T09:20:41.902Z</time></trkpt><trkpt lat="43.6816267" lon="12.7131728"><ele>182.5</ele><time>2026-04-05T09:20:42.904Z</time></trkpt><trkpt lat="43.6816351" lon="12.7130124"><ele>183.25</ele><time>2026-04-05T09:20:43.903Z</time></trkpt><trkpt lat="43.6816613" lon="12.7128169"><ele>184.0</ele><time>2026-04-05T09:20:44.903Z</time></trkpt><trkpt lat="43.6817063" lon="12.7125656"><ele>184.33333333333334</ele><time>2026-04-05T09:20:45.902Z</time></trkpt><trkpt lat="43.6817498" lon="12.7123428"><ele>184.66666666666666</ele><time>2026-04-05T09:20:46.903Z</time></trkpt><trkpt lat="43.681789" lon="12.7121342"><ele>185.0</ele><time>2026-04-05T09:20:47.903Z</time></trkpt><trkpt lat="43.6818454" lon="12.7119458"><ele>181.66666666666666</ele><time>2026-04-05T09:20:48.903Z</time></trkpt><trkpt lat="43.6819379" lon="12.7117635"><ele>178.33333333333334</ele><time>2026-04-05T09:20:49.903Z</time></trkpt><trkpt lat="43.682065" lon="12.7115965"><ele>175.0</ele><time>2026-04-05T09:20:50.903Z</time></trkpt><trkpt lat="43.6822127" lon="12.7114027"><ele>175.0</ele><time>2026-04-05T09:20:51.903Z</time></trkpt><trkpt lat="43.6823451" lon="12.711238"><ele>175.0</ele><time>2026-04-05T09:20:52.902Z</time></trkpt><trkpt lat="43.6824712" lon="12.7110773"><ele>175.0</ele><time>2026-04-05T09:20:53.902Z</time></trkpt><trkpt lat="43.6825833" lon="12.7109143"><ele>176.33333333333334</ele><time>2026-04-05T09:20:54.903Z</time></trkpt><trkpt lat="43.6826915" lon="12.7107568"><ele>177.66666666666666</ele><time>2026-04-05T09:20:55.903Z</time></trkpt><trkpt lat="43.6827959" lon="12.7105941"><ele>179.0</ele><time>2026-04-05T09:20:56.903Z</time></trkpt><trkpt lat="43.6828953" lon="12.7104383"><ele>177.5</ele><time>2026-04-05T09:20:57.903Z</time></trkpt><trkpt lat="43.6829989" lon="12.7102969"><ele>176.0</ele><time>2026-04-05T09:20:58.903Z</time></trkpt><trkpt lat="43.6831082" lon="12.710156"><ele>174.5</ele><time>2026-04-05T09:20:59.903Z</time></trkpt><trkpt lat="43.6832145" lon="12.7100017"><ele>173.0</ele><time>2026-04-05T09:21:00.903Z</time></trkpt><trkpt lat="43.6833089" lon="12.7098506"><ele>173.0</ele><time>2026-04-05T09:21:01.903Z</time></trkpt><trkpt lat="43.6833927" lon="12.7096979"><ele>173.0</ele><time>2026-04-05T09:21:02.903Z</time></trkpt><trkpt lat="43.6834686" lon="12.7095344"><ele>173.0</ele><time>2026-04-05T09:21:03.903Z</time></trkpt><trkpt lat="43.6835383" lon="12.7093343"><ele>173.0</ele><time>2026-04-05T09:21:04.903Z</time></trkpt><trkpt lat="43.6836052" lon="12.7091134"><ele>170.66666666666666</ele><time>2026-04-05T09:21:05.904Z</time></trkpt><trkpt lat="43.6836785" lon="12.7088888"><ele>168.33333333333334</ele><time>2026-04-05T09:21:06.903Z</time></trkpt><trkpt lat="43.6837577" lon="12.708656"><ele>166.0</ele><time>2026-04-05T09:21:07.903Z</time></trkpt><trkpt lat="43.6838362" lon="12.7084114"><ele>166.0</ele><time>2026-04-05T09:21:08.902Z</time></trkpt><trkpt lat="43.68392" lon="12.7081643"><ele>166.0</ele><time>2026-04-05T09:21:09.903Z</time></trkpt><trkpt lat="43.6840026" lon="12.7079394"><ele>166.0</ele><time>2026-04-05T09:21:10.903Z</time></trkpt><trkpt lat="43.6840844" lon="12.7077286"><ele>167.66666666666669</ele><time>2026-04-05T09:21:11.903Z</time></trkpt><trkpt lat="43.6841714" lon="12.7075296"><ele>169.33333333333334</ele><time>2026-04-05T09:21:12.903Z</time></trkpt><trkpt lat="43.6842667" lon="12.707331"><ele>171.0</ele><time>2026-04-05T09:21:13.903Z</time></trkpt><trkpt lat="43.6843576" lon="12.7071436"><ele>170.0</ele><time>2026-04-05T09:21:14.904Z</time></trkpt><trkpt lat="43.6844523" lon="12.7069595"><ele>169.0</ele><time>2026-04-05T09:21:15.903Z</time></trkpt><trkpt lat="43.6845606" lon="12.7067729"><ele>168.0</ele><time>2026-04-05T09:21:16.903Z</time></trkpt><trkpt lat="43.6846877" lon="12.7065825"><ele>168.0</ele><time>2026-04-05T09:21:17.902Z</time></trkpt><trkpt lat="43.6848209" lon="12.7064067"><ele>168.0</ele><time>2026-04-05T09:21:18.902Z</time></trkpt><trkpt lat="43.6849356" lon="12.7062601"><ele>168.0</ele><time>2026-04-05T09:21:19.903Z</time></trkpt><trkpt lat="43.6850374" lon="12.706134"><ele>169.0</ele><time>2026-04-05T09:21:20.904Z</time></trkpt><trkpt lat="43.6851294" lon="12.7060285"><ele>170.0</ele><time>2026-04-05T09:21:21.903Z</time></trkpt><trkpt lat="43.6852069" lon="12.7059315"><ele>171.0</ele><time>2026-04-05T09:21:22.903Z</time></trkpt><trkpt lat="43.6852674" lon="12.7058484"><ele>172.0</ele><time>2026-04-05T09:21:23.903Z</time></trkpt><trkpt lat="43.6853098" lon="12.7057568"><ele>173.0</ele><time>2026-04-05T09:21:24.902Z</time></trkpt><trkpt lat="43.6853162" lon="12.7056572"><ele>173.0</ele><time>2026-04-05T09:21:25.902Z</time></trkpt><trkpt lat="43.6852899" lon="12.7055351"><ele>173.0</ele><time>2026-04-05T09:21:26.904Z</time></trkpt><trkpt lat="43.6852262" lon="12.7053815"><ele>173.0</ele><time>2026-04-05T09:21:27.903Z</time></trkpt><trkpt lat="43.6851328" lon="12.7051884"><ele>173.0</ele><time>2026-04-05T09:21:28.903Z</time></trkpt><trkpt lat="43.685025" lon="12.7049698"><ele>175.0</ele><time>2026-04-05T09:21:29.903Z</time></trkpt><trkpt lat="43.6849099" lon="12.7047383"><ele>177.0</ele><time>2026-04-05T09:21:30.903Z</time></trkpt><trkpt lat="43.6848196" lon="12.7045466"><ele>179.0</ele><time>2026-04-05T09:21:31.903Z</time></trkpt><trkpt lat="43.6847455" lon="12.704368"><ele>179.75</ele><time>2026-04-05T09:21:32.902Z</time></trkpt><trkpt lat="43.6847028" lon="12.7041966"><ele>180.5</ele><time>2026-04-05T09:21:33.903Z</time></trkpt><trkpt lat="43.684687" lon="12.7040038"><ele>181.25</ele><time>2026-04-05T09:21:34.902Z</time></trkpt><trkpt lat="43.6846868" lon="12.7037875"><ele>182.0</ele><time>2026-04-05T09:21:35.903Z</time></trkpt><trkpt lat="43.6846899" lon="12.7035756"><ele>182.75</ele><time>2026-04-05T09:21:36.903Z</time></trkpt><trkpt lat="43.6846834" lon="12.703395"><ele>183.5</ele><time>2026-04-05T09:21:37.903Z</time></trkpt><trkpt lat="43.6846613" lon="12.7032324"><ele>184.25</ele><time>2026-04-05T09:21:38.903Z</time></trkpt><trkpt lat="43.6846178" lon="12.7030828"><ele>185.0</ele><time>2026-04-05T09:21:39.903Z</time></trkpt><trkpt lat="43.6845488" lon="12.7029299"><ele>185.0</ele><time>2026-04-05T09:21:40.903Z</time></trkpt><trkpt lat="43.6844562" lon="12.7027612"><ele>185.0</ele><time>2026-04-05T09:21:41.902Z</time></trkpt><trkpt lat="43.6843513" lon="12.7025777"><ele>185.0</ele><time>2026-04-05T09:21:42.903Z</time></trkpt><trkpt lat="43.6842643" lon="12.7024131"><ele>188.2</ele><time>2026-04-05T09:21:43.903Z</time></trkpt><trkpt lat="43.6841936" lon="12.702271"><ele>191.4</ele><time>2026-04-05T09:21:44.904Z</time></trkpt><trkpt lat="43.6841313" lon="12.7021504"><ele>194.60000000000002</ele><time>2026-04-05T09:21:45.903Z</time></trkpt><trkpt lat="43.6840721" lon="12.7020587"><ele>197.8</ele><time>2026-04-05T09:21:46.903Z</time></trkpt><trkpt lat="43.6840032" lon="12.7020047"><ele>201.0</ele><time>2026-04-05T09:21:47.903Z</time></trkpt><trkpt lat="43.6839258" lon="12.7020018"><ele>201.0</ele><time>2026-04-05T09:21:48.903Z</time></trkpt><trkpt lat="43.6838496" lon="12.702053"><ele>201.0</ele><time>2026-04-05T09:21:49.903Z</time></trkpt><trkpt lat="43.6837942" lon="12.7021578"><ele>201.0</ele><time>2026-04-05T09:21:50.903Z</time></trkpt><trkpt lat="43.6837546" lon="12.7023118"><ele>201.0</ele><time>2026-04-05T09:21:51.903Z</time></trkpt><trkpt lat="43.6837216" lon="12.702496"><ele>201.0</ele><time>2026-04-05T09:21:52.903Z</time></trkpt><trkpt lat="43.6836931" lon="12.7026986"><ele>200.25</ele><time>2026-04-05T09:21:53.902Z</time></trkpt><trkpt lat="43.6836599" lon="12.7028976"><ele>199.5</ele><time>2026-04-05T09:21:54.904Z</time></trkpt><trkpt lat="43.6836184" lon="12.7030691"><ele>198.75</ele><time>2026-04-05T09:21:55.903Z</time></trkpt><trkpt lat="43.6835611" lon="12.7032172"><ele>198.0</ele><time>2026-04-05T09:21:56.903Z</time></trkpt><trkpt lat="43.6834817" lon="12.70334"><ele>200.60000000000002</ele><time>2026-04-05T09:21:57.903Z</time></trkpt><trkpt lat="43.6833947" lon="12.7034251"><ele>203.20000000000002</ele><time>2026-04-05T09:21:58.903Z</time></trkpt><trkpt lat="43.6833097" lon="12.7034742"><ele>205.8</ele><time>2026-04-05T09:21:59.903Z</time></trkpt><trkpt lat="43.6832188" lon="12.7034923"><ele>208.4</ele><time>2026-04-05T09:22:00.903Z</time></trkpt><trkpt lat="43.6831173" lon="12.7034758"><ele>211.0</ele><time>2026-04-05T09:22:01.903Z</time></trkpt><trkpt lat="43.6830103" lon="12.7034333"><ele>211.0</ele><time>2026-04-05T09:22:02.903Z</time></trkpt><trkpt lat="43.6829083" lon="12.7033539"><ele>211.0</ele><time>2026-04-05T09:22:03.903Z</time></trkpt><trkpt lat="43.6828152" lon="12.7032548"><ele>211.0</ele><time>2026-04-05T09:22:04.903Z</time></trkpt><trkpt lat="43.682734" lon="12.7031329"><ele>211.0</ele><time>2026-04-05T09:22:05.903Z</time></trkpt><trkpt lat="43.6826644" lon="12.7029854"><ele>213.75</ele><time>2026-04-05T09:22:06.903Z</time></trkpt><trkpt lat="43.6826069" lon="12.7028071"><ele>216.5</ele><time>2026-04-05T09:22:07.903Z</time></trkpt><trkpt lat="43.6825547" lon="12.7026269"><ele>219.25</ele><time>2026-04-05T09:22:08.903Z</time></trkpt><trkpt lat="43.6825176" lon="12.702463"><ele>222.0</ele><time>2026-04-05T09:22:09.903Z</time></trkpt><trkpt lat="43.682487" lon="12.7023009"><ele>223.16666666666666</ele><time>2026-04-05T09:22:10.903Z</time></trkpt><trkpt lat="43.6824806" lon="12.7021672"><ele>224.33333333333331</ele><time>2026-04-05T09:22:11.904Z</time></trkpt><trkpt lat="43.6824689" lon="12.7020456"><ele>225.5</ele><time>2026-04-05T09:22:12.904Z</time></trkpt><trkpt lat="43.6824315" lon="12.7019462"><ele>226.66666666666666</ele><time>2026-04-05T09:22:13.903Z</time></trkpt><trkpt lat="43.6823734" lon="12.7018892"><ele>227.83333333333331</ele><time>2026-04-05T09:22:14.903Z</time></trkpt><trkpt lat="43.6823103" lon="12.701889"><ele>229.0</ele><time>2026-04-05T09:22:15.904Z</time></trkpt><trkpt lat="43.6822409" lon="12.7019377"><ele>229.0</ele><time>2026-04-05T09:22:16.903Z</time></trkpt><trkpt lat="43.6821846" lon="12.7020348"><ele>229.0</ele><time>2026-04-05T09:22:17.902Z</time></trkpt><trkpt lat="43.6821301" lon="12.7021889"><ele>229.0</ele><time>2026-04-05T09:22:18.903Z</time></trkpt><trkpt lat="43.6820793" lon="12.7023487"><ele>229.0</ele><time>2026-04-05T09:22:19.903Z</time></trkpt><trkpt lat="43.6820272" lon="12.7024965"><ele>228.99999999999997</ele><time>2026-04-05T09:22:20.902Z</time></trkpt><trkpt lat="43.681977" lon="12.7026063"><ele>229.0</ele><time>2026-04-05T09:22:21.904Z</time></trkpt><trkpt lat="43.6819192" lon="12.7026715"><ele>229.0</ele><time>2026-04-05T09:22:22.903Z</time></trkpt><trkpt lat="43.6818117" lon="12.7026523"><ele>229.0</ele><time>2026-04-05T09:22:24.903Z</time></trkpt><trkpt lat="43.681775" lon="12.702573"><ele>228.99999999999997</ele><time>2026-04-05T09:22:25.903Z</time></trkpt><trkpt lat="43.6817675" lon="12.7024757"><ele>229.0</ele><time>2026-04-05T09:22:26.902Z</time></trkpt><trkpt lat="43.6817746" lon="12.702384"><ele>233.0</ele><time>2026-04-05T09:22:27.903Z</time></trkpt><trkpt lat="43.6817741" lon="12.7022161"><ele>236.99999999999997</ele><time>2026-04-05T09:22:29.903Z</time></trkpt><trkpt lat="43.6817837" lon="12.7020955"><ele>240.99999999999997</ele><time>2026-04-05T09:22:30.904Z</time></trkpt><trkpt lat="43.6818078" lon="12.7019578"><ele>245.0</ele><time>2026-04-05T09:22:31.903Z</time></trkpt><trkpt lat="43.6818514" lon="12.7018103"><ele>249.0</ele><time>2026-04-05T09:22:32.903Z</time></trkpt><trkpt lat="43.681919" lon="12.7016592"><ele>243.66666666666669</ele><time>2026-04-05T09:22:33.904Z</time></trkpt><trkpt lat="43.6820077" lon="12.7015102"><ele>238.33333333333334</ele><time>2026-04-05T09:22:34.902Z</time></trkpt><trkpt lat="43.6821137" lon="12.7013571"><ele>233.0</ele><time>2026-04-05T09:22:35.903Z</time></trkpt><trkpt lat="43.6822272" lon="12.7011971"><ele>238.5</ele><time>2026-04-05T09:22:36.903Z</time></trkpt><trkpt lat="43.682324" lon="12.7010582"><ele>244.0</ele><time>2026-04-05T09:22:37.903Z</time></trkpt><trkpt lat="43.6823958" lon="12.7009292"><ele>249.5</ele><time>2026-04-05T09:22:38.903Z</time></trkpt><trkpt lat="43.6824457" lon="12.700789"><ele>255.0</ele><time>2026-04-05T09:22:39.903Z</time></trkpt><trkpt lat="43.6824884" lon="12.7006181"><ele>255.0</ele><time>2026-04-05T09:22:40.903Z</time></trkpt><trkpt lat="43.6825335" lon="12.7004268"><ele>255.0</ele><time>2026-04-05T09:22:41.902Z</time></trkpt><trkpt lat="43.6825667" lon="12.7002498"><ele>255.0</ele><time>2026-04-05T09:22:42.903Z</time></trkpt><trkpt lat="43.682584" lon="12.7001018"><ele>255.0</ele><time>2026-04-05T09:22:43.904Z</time></trkpt><trkpt lat="43.6825777" lon="12.6999813"><ele>257.2</ele><time>2026-04-05T09:22:44.903Z</time></trkpt><trkpt lat="43.6825413" lon="12.6998865"><ele>259.4</ele><time>2026-04-05T09:22:45.902Z</time></trkpt><trkpt lat="43.6824815" lon="12.6997948"><ele>261.6</ele><time>2026-04-05T09:22:46.903Z</time></trkpt><trkpt lat="43.6824044" lon="12.6996768"><ele>263.8</ele><time>2026-04-05T09:22:47.903Z</time></trkpt><trkpt lat="43.6823155" lon="12.6995433"><ele>266.0</ele><time>2026-04-05T09:22:48.903Z</time></trkpt><trkpt lat="43.6822183" lon="12.6994395"><ele>267.6</ele><time>2026-04-05T09:22:49.902Z</time></trkpt><trkpt lat="43.6821113" lon="12.6993674"><ele>269.20000000000005</ele><time>2026-04-05T09:22:50.903Z</time></trkpt><trkpt lat="43.6820117" lon="12.6993182"><ele>270.79999999999995</ele><time>2026-04-05T09:22:51.903Z</time></trkpt><trkpt lat="43.6819253" lon="12.6992917"><ele>272.4</ele><time>2026-04-05T09:22:52.902Z</time></trkpt><trkpt lat="43.6818264" lon="12.6992875"><ele>274.0</ele><time>2026-04-05T09:22:53.903Z</time></trkpt><trkpt lat="43.6817112" lon="12.6992985"><ele>274.0</ele><time>2026-04-05T09:22:54.903Z</time></trkpt><trkpt lat="43.6815874" lon="12.6993019"><ele>274.0</ele><time>2026-04-05T09:22:55.904Z</time></trkpt><trkpt lat="43.681464" lon="12.6992841"><ele>274.0</ele><time>2026-04-05T09:22:56.903Z</time></trkpt><trkpt lat="43.6813571" lon="12.6992339"><ele>274.0</ele><time>2026-04-05T09:22:57.903Z</time></trkpt><trkpt lat="43.6812438" lon="12.6991408"><ele>274.0</ele><time>2026-04-05T09:22:58.903Z</time></trkpt><trkpt lat="43.6811249" lon="12.6990191"><ele>274.0</ele><time>2026-04-05T09:22:59.903Z</time></trkpt><trkpt lat="43.6810005" lon="12.6989022"><ele>274.0</ele><time>2026-04-05T09:23:00.903Z</time></trkpt><trkpt lat="43.6808902" lon="12.6987986"><ele>274.0</ele><time>2026-04-05T09:23:01.903Z</time></trkpt><trkpt lat="43.6808075" lon="12.6987003"><ele>273.7142857142857</ele><time>2026-04-05T09:23:02.903Z</time></trkpt><trkpt lat="43.6807469" lon="12.6986013"><ele>273.42857142857144</ele><time>2026-04-05T09:23:03.904Z</time></trkpt><trkpt lat="43.6807062" lon="12.6985079"><ele>273.1428571428571</ele><time>2026-04-05T09:23:04.903Z</time></trkpt><trkpt lat="43.6806588" lon="12.6984379"><ele>272.8571428571429</ele><time>2026-04-05T09:23:05.902Z</time></trkpt><trkpt lat="43.6806009" lon="12.6983833"><ele>272.57142857142856</ele><time>2026-04-05T09:23:06.903Z</time></trkpt><trkpt lat="43.6805437" lon="12.6983299"><ele>272.2857142857143</ele><time>2026-04-05T09:23:07.903Z</time></trkpt><trkpt lat="43.6804962" lon="12.6982727"><ele>272.0</ele><time>2026-04-05T09:23:08.902Z</time></trkpt><trkpt lat="43.6804558" lon="12.6981626"><ele>272.0</ele><time>2026-04-05T09:23:10.903Z</time></trkpt><trkpt lat="43.6805161" lon="12.6980422"><ele>272.0</ele><time>2026-04-05T09:23:12.903Z</time></trkpt><trkpt lat="43.6805882" lon="12.6979935"><ele>272.0</ele><time>2026-04-05T09:23:13.903Z</time></trkpt><trkpt lat="43.6806755" lon="12.6979559"><ele>272.0</ele><time>2026-04-05T09:23:14.903Z</time></trkpt><trkpt lat="43.6807574" lon="12.6979382"><ele>272.0</ele><time>2026-04-05T09:23:15.903Z</time></trkpt><trkpt lat="43.6808351" lon="12.6979419"><ele>272.0</ele><time>2026-04-05T09:23:16.903Z</time></trkpt><trkpt lat="43.6809015" lon="12.6979654"><ele>272.0</ele><time>2026-04-05T09:23:17.903Z</time></trkpt><trkpt lat="43.6809676" lon="12.6980096"><ele>272.0</ele><time>2026-04-05T09:23:18.903Z</time></trkpt><trkpt lat="43.6810356" lon="12.6980799"><ele>272.0</ele><time>2026-04-05T09:23:19.903Z</time></trkpt><trkpt lat="43.6810904" lon="12.6981769"><ele>272.0</ele><time>2026-04-05T09:23:20.903Z</time></trkpt><trkpt lat="43.6811287" lon="12.6983013"><ele>272.0</ele><time>2026-04-05T09:23:21.903Z</time></trkpt><trkpt lat="43.6811594" lon="12.6984255"><ele>272.0</ele><time>2026-04-05T09:23:22.903Z</time></trkpt><trkpt lat="43.6811923" lon="12.6985329"><ele>272.4</ele><time>2026-04-05T09:23:23.904Z</time></trkpt><trkpt lat="43.6812483" lon="12.6986377"><ele>272.79999999999995</ele><time>2026-04-05T09:23:25.903Z</time></trkpt><trkpt lat="43.6813067" lon="12.6985692"><ele>273.2</ele><time>2026-04-05T09:23:27.903Z</time></trkpt><trkpt lat="43.6812943" lon="12.698384"><ele>273.59999999999997</ele><time>2026-04-05T09:23:29.903Z</time></trkpt><trkpt lat="43.6812716" lon="12.6982392"><ele>274.0</ele><time>2026-04-05T09:23:30.903Z</time></trkpt><trkpt lat="43.6812604" lon="12.6981124"><ele>269.4</ele><time>2026-04-05T09:23:31.902Z</time></trkpt><trkpt lat="43.6812274" lon="12.6979631"><ele>264.79999999999995</ele><time>2026-04-05T09:23:32.903Z</time></trkpt><trkpt lat="43.681175" lon="12.6978195"><ele>260.20000000000005</ele><time>2026-04-05T09:23:33.903Z</time></trkpt><trkpt lat="43.681114" lon="12.6976885"><ele>255.60000000000002</ele><time>2026-04-05T09:23:34.904Z</time></trkpt><trkpt lat="43.6810521" lon="12.6975861"><ele>251.0</ele><time>2026-04-05T09:23:35.902Z</time></trkpt><trkpt lat="43.6809832" lon="12.6975137"><ele>251.0</ele><time>2026-04-05T09:23:36.903Z</time></trkpt><trkpt lat="43.6809024" lon="12.6974668"><ele>251.0</ele><time>2026-04-05T09:23:37.903Z</time></trkpt><trkpt lat="43.6807957" lon="12.6974459"><ele>251.0</ele><time>2026-04-05T09:23:38.903Z</time></trkpt><trkpt lat="43.6806589" lon="12.6974454"><ele>251.0</ele><time>2026-04-05T09:23:39.902Z</time></trkpt><trkpt lat="43.6805323" lon="12.6974505"><ele>251.00000000000003</ele><time>2026-04-05T09:23:40.903Z</time></trkpt><trkpt lat="43.6804155" lon="12.6974647"><ele>251.0</ele><time>2026-04-05T09:23:41.902Z</time></trkpt><trkpt lat="43.6803206" lon="12.6974862"><ele>251.0</ele><time>2026-04-05T09:23:42.903Z</time></trkpt><trkpt lat="43.6802401" lon="12.6974985"><ele>251.0</ele><time>2026-04-05T09:23:43.903Z</time></trkpt><trkpt lat="43.6801699" lon="12.6974746"><ele>251.00000000000003</ele><time>2026-04-05T09:23:44.902Z</time></trkpt><trkpt lat="43.6801104" lon="12.6974157"><ele>251.0</ele><time>2026-04-05T09:23:45.903Z</time></trkpt><trkpt lat="43.6800501" lon="12.6973238"><ele>250.60000000000002</ele><time>2026-04-05T09:23:46.903Z</time></trkpt><trkpt lat="43.6799773" lon="12.6972416"><ele>250.20000000000002</ele><time>2026-04-05T09:23:47.902Z</time></trkpt><trkpt lat="43.6798872" lon="12.697188"><ele>249.79999999999998</ele><time>2026-04-05T09:23:48.903Z</time></trkpt><trkpt lat="43.6798055" lon="12.6971287"><ele>249.39999999999998</ele><time>2026-04-05T09:23:49.903Z</time></trkpt><trkpt lat="43.6797385" lon="12.6970763"><ele>249.0</ele><time>2026-04-05T09:23:50.902Z</time></trkpt><trkpt lat="43.6796673" lon="12.6969604"><ele>249.6</ele><time>2026-04-05T09:23:52.903Z</time></trkpt><trkpt lat="43.6797069" lon="12.6968136"><ele>250.2</ele><time>2026-04-05T09:23:54.903Z</time></trkpt><trkpt lat="43.6797604" lon="12.6967642"><ele>250.79999999999998</ele><time>2026-04-05T09:23:55.903Z</time></trkpt><trkpt lat="43.6798202" lon="12.6967237"><ele>251.39999999999998</ele><time>2026-04-05T09:23:56.903Z</time></trkpt><trkpt lat="43.6799061" lon="12.6966206"><ele>252.0</ele><time>2026-04-05T09:23:58.903Z</time></trkpt><trkpt lat="43.6799196" lon="12.6964659"><ele>252.0</ele><time>2026-04-05T09:24:00.903Z</time></trkpt><trkpt lat="43.6799342" lon="12.6963808"><ele>252.0</ele><time>2026-04-05T09:24:01.903Z</time></trkpt><trkpt lat="43.6799699" lon="12.6963047"><ele>252.0</ele><time>2026-04-05T09:24:02.904Z</time></trkpt><trkpt lat="43.6800166" lon="12.6962368"><ele>252.0</ele><time>2026-04-05T09:24:03.903Z</time></trkpt><trkpt lat="43.680077" lon="12.6961827"><ele>252.0</ele><time>2026-04-05T09:24:04.903Z</time></trkpt><trkpt lat="43.6801434" lon="12.696127"><ele>252.0</ele><time>2026-04-05T09:24:05.903Z</time></trkpt><trkpt lat="43.6802108" lon="12.6960612"><ele>252.0</ele><time>2026-04-05T09:24:06.904Z</time></trkpt><trkpt lat="43.6802839" lon="12.6959983"><ele>255.39999999999998</ele><time>2026-04-05T09:24:07.902Z</time></trkpt><trkpt lat="43.6803668" lon="12.6959402"><ele>258.79999999999995</ele><time>2026-04-05T09:24:08.903Z</time></trkpt><trkpt lat="43.6804595" lon="12.6958848"><ele>262.2</ele><time>2026-04-05T09:24:09.904Z</time></trkpt><trkpt lat="43.6805622" lon="12.6958359"><ele>265.59999999999997</ele><time>2026-04-05T09:24:10.904Z</time></trkpt><trkpt lat="43.6806718" lon="12.6957898"><ele>269.0</ele><time>2026-04-05T09:24:11.903Z</time></trkpt><trkpt lat="43.6807913" lon="12.695744"><ele>269.0</ele><time>2026-04-05T09:24:12.903Z</time></trkpt><trkpt lat="43.6809106" lon="12.6957093"><ele>269.0</ele><time>2026-04-05T09:24:13.903Z</time></trkpt><trkpt lat="43.6810314" lon="12.695672"><ele>269.0</ele><time>2026-04-05T09:24:14.903Z</time></trkpt><trkpt lat="43.681148" lon="12.6956166"><ele>269.0</ele><time>2026-04-05T09:24:15.904Z</time></trkpt><trkpt lat="43.6812632" lon="12.6955483"><ele>270.2</ele><time>2026-04-05T09:24:16.903Z</time></trkpt><trkpt lat="43.6813639" lon="12.6955033"><ele>271.4</ele><time>2026-04-05T09:24:17.904Z</time></trkpt><trkpt lat="43.6814519" lon="12.6954807"><ele>272.6</ele><time>2026-04-05T09:24:18.904Z</time></trkpt><trkpt lat="43.68152" lon="12.6954376"><ele>273.8</ele><time>2026-04-05T09:24:19.903Z</time></trkpt><trkpt lat="43.6815705" lon="12.6952935"><ele>275.0</ele><time>2026-04-05T09:24:21.902Z</time></trkpt><trkpt lat="43.681573" lon="12.6951995"><ele>275.0</ele><time>2026-04-05T09:24:22.904Z</time></trkpt><trkpt lat="43.6815512" lon="12.6950884"><ele>275.0</ele><time>2026-04-05T09:24:23.902Z</time></trkpt><trkpt lat="43.6815323" lon="12.694957"><ele>275.0</ele><time>2026-04-05T09:24:24.903Z</time></trkpt><trkpt lat="43.68151" lon="12.6948091"><ele>275.0</ele><time>2026-04-05T09:24:25.902Z</time></trkpt><trkpt lat="43.6814893" lon="12.6946614"><ele>275.0</ele><time>2026-04-05T09:24:26.903Z</time></trkpt><trkpt lat="43.681483" lon="12.6945367"><ele>275.0</ele><time>2026-04-05T09:24:27.903Z</time></trkpt><trkpt lat="43.6815312" lon="12.6944294"><ele>275.0</ele><time>2026-04-05T09:24:28.903Z</time></trkpt><trkpt lat="43.6815897" lon="12.6943603"><ele>275.0</ele><time>2026-04-05T09:24:29.903Z</time></trkpt><trkpt lat="43.6816614" lon="12.6943261"><ele>275.0</ele><time>2026-04-05T09:24:30.903Z</time></trkpt><trkpt lat="43.6817412" lon="12.6942967"><ele>275.0</ele><time>2026-04-05T09:24:31.903Z</time></trkpt><trkpt lat="43.6818071" lon="12.6942268"><ele>275.0</ele><time>2026-04-05T09:24:32.903Z</time></trkpt><trkpt lat="43.6818888" lon="12.6940963"><ele>277.8</ele><time>2026-04-05T09:24:33.903Z</time></trkpt><trkpt lat="43.6819648" lon="12.6939934"><ele>280.6</ele><time>2026-04-05T09:24:34.902Z</time></trkpt><trkpt lat="43.6820442" lon="12.6939295"><ele>283.4</ele><time>2026-04-05T09:24:35.903Z</time></trkpt><trkpt lat="43.6821293" lon="12.6939121"><ele>286.2</ele><time>2026-04-05T09:24:36.903Z</time></trkpt><trkpt lat="43.6822247" lon="12.6939438"><ele>289.0</ele><time>2026-04-05T09:24:37.903Z</time></trkpt><trkpt lat="43.6823321" lon="12.6940382"><ele>289.0</ele><time>2026-04-05T09:24:38.904Z</time></trkpt><trkpt lat="43.6824554" lon="12.6941186"><ele>289.0</ele><time>2026-04-05T09:24:39.903Z</time></trkpt><trkpt lat="43.682572" lon="12.6941812"><ele>289.0</ele><time>2026-04-05T09:24:40.903Z</time></trkpt><trkpt lat="43.6826976" lon="12.6942361"><ele>289.0</ele><time>2026-04-05T09:24:41.903Z</time></trkpt><trkpt lat="43.6828153" lon="12.69428"><ele>290.2</ele><time>2026-04-05T09:24:42.903Z</time></trkpt><trkpt lat="43.6829526" lon="12.6943037"><ele>291.4</ele><time>2026-04-05T09:24:43.902Z</time></trkpt><trkpt lat="43.6830587" lon="12.6943242"><ele>292.6</ele><time>2026-04-05T09:24:44.903Z</time></trkpt><trkpt lat="43.6831448" lon="12.6943593"><ele>293.8</ele><time>2026-04-05T09:24:45.902Z</time></trkpt><trkpt lat="43.6832132" lon="12.6943808"><ele>295.0</ele><time>2026-04-05T09:24:46.902Z</time></trkpt><trkpt lat="43.6833037" lon="12.6942927"><ele>295.0</ele><time>2026-04-05T09:24:48.901Z</time></trkpt><trkpt lat="43.6832707" lon="12.6941611"><ele>295.0</ele><time>2026-04-05T09:24:50.902Z</time></trkpt><trkpt lat="43.6832063" lon="12.6941166"><ele>295.0</ele><time>2026-04-05T09:24:51.902Z</time></trkpt><trkpt lat="43.6831191" lon="12.6940567"><ele>295.0</ele><time>2026-04-05T09:24:52.901Z</time></trkpt><trkpt lat="43.6830238" lon="12.6939928"><ele>295.0</ele><time>2026-04-05T09:24:53.902Z</time></trkpt><trkpt lat="43.6829419" lon="12.693924"><ele>295.0</ele><time>2026-04-05T09:24:54.901Z</time></trkpt><trkpt lat="43.6828631" lon="12.6938279"><ele>295.0</ele><time>2026-04-05T09:24:55.902Z</time></trkpt><trkpt lat="43.6827842" lon="12.693718"><ele>295.0</ele><time>2026-04-05T09:24:56.901Z</time></trkpt><trkpt lat="43.6827133" lon="12.6935873"><ele>295.0</ele><time>2026-04-05T09:24:57.902Z</time></trkpt><trkpt lat="43.6826581" lon="12.6934403"><ele>298.5</ele><time>2026-04-05T09:24:58.902Z</time></trkpt><trkpt lat="43.6826211" lon="12.6932718"><ele>302.0</ele><time>2026-04-05T09:24:59.902Z</time></trkpt><trkpt lat="43.6825755" lon="12.6930814"><ele>305.5</ele><time>2026-04-05T09:25:00.902Z</time></trkpt><trkpt lat="43.6825293" lon="12.6929116"><ele>309.0</ele><time>2026-04-05T09:25:01.902Z</time></trkpt><trkpt lat="43.682484" lon="12.6927648"><ele>310.59999999999997</ele><time>2026-04-05T09:25:02.902Z</time></trkpt><trkpt lat="43.6824333" lon="12.6926439"><ele>312.2</ele><time>2026-04-05T09:25:03.903Z</time></trkpt><trkpt lat="43.6823646" lon="12.6925477"><ele>313.79999999999995</ele><time>2026-04-05T09:25:04.902Z</time></trkpt><trkpt lat="43.6822731" lon="12.6924796"><ele>315.4</ele><time>2026-04-05T09:25:05.902Z</time></trkpt><trkpt lat="43.6821505" lon="12.6924399"><ele>317.0</ele><time>2026-04-05T09:25:06.902Z</time></trkpt><trkpt lat="43.6820134" lon="12.6924504"><ele>319.33333333333337</ele><time>2026-04-05T09:25:07.902Z</time></trkpt><trkpt lat="43.6818378" lon="12.6924914"><ele>321.6666666666667</ele><time>2026-04-05T09:25:08.902Z</time></trkpt><trkpt lat="43.6816766" lon="12.6925317"><ele>324.0</ele><time>2026-04-05T09:25:09.902Z</time></trkpt><trkpt lat="43.6815366" lon="12.6925503"><ele>324.0</ele><time>2026-04-05T09:25:10.902Z</time></trkpt><trkpt lat="43.6814152" lon="12.6925415"><ele>324.0</ele><time>2026-04-05T09:25:11.902Z</time></trkpt><trkpt lat="43.6813114" lon="12.6925452"><ele>324.0</ele><time>2026-04-05T09:25:12.902Z</time></trkpt><trkpt lat="43.6812129" lon="12.6925796"><ele>324.0</ele><time>2026-04-05T09:25:13.901Z</time></trkpt><trkpt lat="43.6811267" lon="12.6926487"><ele>324.0</ele><time>2026-04-05T09:25:14.902Z</time></trkpt><trkpt lat="43.6810585" lon="12.6927482"><ele>325.2</ele><time>2026-04-05T09:25:15.901Z</time></trkpt><trkpt lat="43.6809829" lon="12.6928773"><ele>326.4</ele><time>2026-04-05T09:25:16.902Z</time></trkpt><trkpt lat="43.6809073" lon="12.6930125"><ele>327.6</ele><time>2026-04-05T09:25:17.901Z</time></trkpt><trkpt lat="43.6808413" lon="12.6931193"><ele>328.8</ele><time>2026-04-05T09:25:18.902Z</time></trkpt><trkpt lat="43.6807694" lon="12.6932107"><ele>330.0</ele><time>2026-04-05T09:25:19.902Z</time></trkpt><trkpt lat="43.6806866" lon="12.6932795"><ele>330.0</ele><time>2026-04-05T09:25:20.902Z</time></trkpt><trkpt lat="43.6806164" lon="12.6933035"><ele>330.0</ele><time>2026-04-05T09:25:21.902Z</time></trkpt><trkpt lat="43.6805326" lon="12.6932826"><ele>330.0</ele><time>2026-04-05T09:25:23.901Z</time></trkpt><trkpt lat="43.6805286" lon="12.6931547"><ele>330.0</ele><time>2026-04-05T09:25:36.902Z</time></trkpt><trkpt lat="43.6805876" lon="12.6929852"><ele>330.0</ele><time>2026-04-05T09:25:38.902Z</time></trkpt><trkpt lat="43.6806246" lon="12.6928965"><ele>330.0</ele><time>2026-04-05T09:25:39.902Z</time></trkpt><trkpt lat="43.6806565" lon="12.6928117"><ele>330.0</ele><time>2026-04-05T09:25:40.902Z</time></trkpt><trkpt lat="43.6806941" lon="12.6927065"><ele>330.0</ele><time>2026-04-05T09:25:41.902Z</time></trkpt><trkpt lat="43.6807373" lon="12.692588"><ele>330.0</ele><time>2026-04-05T09:25:42.902Z</time></trkpt><trkpt lat="43.6807883" lon="12.692453"><ele>330.0</ele><time>2026-04-05T09:25:43.901Z</time></trkpt><trkpt lat="43.6808419" lon="12.6923085"><ele>334.0</ele><time>2026-04-05T09:25:44.902Z</time></trkpt><trkpt lat="43.6808905" lon="12.6921496"><ele>338.0</ele><time>2026-04-05T09:25:45.902Z</time></trkpt><trkpt lat="43.6809287" lon="12.6919815"><ele>342.0</ele><time>2026-04-05T09:25:46.902Z</time></trkpt><trkpt lat="43.6809558" lon="12.6917926"><ele>346.0</ele><time>2026-04-05T09:25:47.902Z</time></trkpt><trkpt lat="43.6809815" lon="12.6915728"><ele>349.3333333333333</ele><time>2026-04-05T09:25:48.901Z</time></trkpt><trkpt lat="43.681017" lon="12.691345"><ele>352.6666666666667</ele><time>2026-04-05T09:25:49.902Z</time></trkpt><trkpt lat="43.6810513" lon="12.6911417"><ele>356.0</ele><time>2026-04-05T09:25:50.902Z</time></trkpt><trkpt lat="43.6810825" lon="12.6909492"><ele>348.6</ele><time>2026-04-05T09:25:51.902Z</time></trkpt><trkpt lat="43.6811107" lon="12.6907647"><ele>341.20000000000005</ele><time>2026-04-05T09:25:52.902Z</time></trkpt><trkpt lat="43.681136" lon="12.6905988"><ele>333.79999999999995</ele><time>2026-04-05T09:25:53.903Z</time></trkpt><trkpt lat="43.6811555" lon="12.6904614"><ele>326.4</ele><time>2026-04-05T09:25:54.902Z</time></trkpt><trkpt lat="43.6811591" lon="12.6903453"><ele>319.0</ele><time>2026-04-05T09:25:55.903Z</time></trkpt><trkpt lat="43.6811323" lon="12.6902443"><ele>327.6</ele><time>2026-04-05T09:25:56.902Z</time></trkpt><trkpt lat="43.6810736" lon="12.6901425"><ele>336.2</ele><time>2026-04-05T09:25:57.902Z</time></trkpt><trkpt lat="43.6810189" lon="12.6900187"><ele>344.8</ele><time>2026-04-05T09:25:58.903Z</time></trkpt><trkpt lat="43.6809941" lon="12.6898886"><ele>353.40000000000003</ele><time>2026-04-05T09:25:59.902Z</time></trkpt><trkpt lat="43.6810016" lon="12.6897234"><ele>362.0</ele><time>2026-04-05T09:26:00.902Z</time></trkpt><trkpt lat="43.6810221" lon="12.6895222"><ele>360.25</ele><time>2026-04-05T09:26:01.902Z</time></trkpt><trkpt lat="43.6810545" lon="12.6893396"><ele>358.5</ele><time>2026-04-05T09:26:02.901Z</time></trkpt><trkpt lat="43.6811005" lon="12.6891614"><ele>356.75</ele><time>2026-04-05T09:26:03.902Z</time></trkpt><trkpt lat="43.6811492" lon="12.6889908"><ele>355.0</ele><time>2026-04-05T09:26:04.903Z</time></trkpt><trkpt lat="43.6811921" lon="12.6888349"><ele>344.75</ele><time>2026-04-05T09:26:05.902Z</time></trkpt><trkpt lat="43.6812128" lon="12.6886873"><ele>334.5</ele><time>2026-04-05T09:26:06.902Z</time></trkpt><trkpt lat="43.6812067" lon="12.6885398"><ele>324.25</ele><time>2026-04-05T09:26:07.902Z</time></trkpt><trkpt lat="43.6811688" lon="12.6883862"><ele>314.0</ele><time>2026-04-05T09:26:08.901Z</time></trkpt><trkpt lat="43.6811143" lon="12.6882176"><ele>318.83333333333337</ele><time>2026-04-05T09:26:09.902Z</time></trkpt><trkpt lat="43.6810731" lon="12.6880663"><ele>323.6666666666667</ele><time>2026-04-05T09:26:10.902Z</time></trkpt><trkpt lat="43.6810396" lon="12.6879537"><ele>328.5</ele><time>2026-04-05T09:26:11.902Z</time></trkpt><trkpt lat="43.6809889" lon="12.6878811"><ele>333.3333333333333</ele><time>2026-04-05T09:26:12.901Z</time></trkpt><trkpt lat="43.6809247" lon="12.6878475"><ele>338.16666666666663</ele><time>2026-04-05T09:26:13.902Z</time></trkpt><trkpt lat="43.680853" lon="12.6878389"><ele>343.0</ele><time>2026-04-05T09:26:14.903Z</time></trkpt><trkpt lat="43.6807609" lon="12.6878445"><ele>343.0</ele><time>2026-04-05T09:26:15.901Z</time></trkpt><trkpt lat="43.6806476" lon="12.6878524"><ele>343.0</ele><time>2026-04-05T09:26:16.901Z</time></trkpt><trkpt lat="43.6805119" lon="12.6878476"><ele>343.0</ele><time>2026-04-05T09:26:17.901Z</time></trkpt><trkpt lat="43.6803567" lon="12.6878263"><ele>343.0</ele><time>2026-04-05T09:26:18.902Z</time></trkpt><trkpt lat="43.680193" lon="12.6878139"><ele>339.75</ele><time>2026-04-05T09:26:19.902Z</time></trkpt><trkpt lat="43.6800543" lon="12.6878171"><ele>336.5</ele><time>2026-04-05T09:26:20.902Z</time></trkpt><trkpt lat="43.6799278" lon="12.6878028"><ele>333.25</ele><time>2026-04-05T09:26:21.903Z</time></trkpt><trkpt lat="43.6798134" lon="12.6877693"><ele>330.0</ele><time>2026-04-05T09:26:22.902Z</time></trkpt><trkpt lat="43.679709" lon="12.6877089"><ele>330.0</ele><time>2026-04-05T09:26:23.902Z</time></trkpt><trkpt lat="43.6796038" lon="12.6876066"><ele>330.0</ele><time>2026-04-05T09:26:24.901Z</time></trkpt><trkpt lat="43.6794993" lon="12.6874828"><ele>330.0</ele><time>2026-04-05T09:26:25.902Z</time></trkpt><trkpt lat="43.6794134" lon="12.6873581"><ele>330.0</ele><time>2026-04-05T09:26:26.903Z</time></trkpt><trkpt lat="43.6793393" lon="12.6872447"><ele>331.2</ele><time>2026-04-05T09:26:27.902Z</time></trkpt><trkpt lat="43.6792915" lon="12.6871287"><ele>332.4</ele><time>2026-04-05T09:26:28.902Z</time></trkpt><trkpt lat="43.6792688" lon="12.6870077"><ele>333.6</ele><time>2026-04-05T09:26:29.901Z</time></trkpt><trkpt lat="43.6792773" lon="12.6868885"><ele>334.8</ele><time>2026-04-05T09:26:30.902Z</time></trkpt><trkpt lat="43.6793188" lon="12.686781"><ele>336.0</ele><time>2026-04-05T09:26:31.902Z</time></trkpt><trkpt lat="43.6793978" lon="12.686691"><ele>335.0</ele><time>2026-04-05T09:26:32.902Z</time></trkpt><trkpt lat="43.6794879" lon="12.6865959"><ele>334.0</ele><time>2026-04-05T09:26:33.901Z</time></trkpt><trkpt lat="43.6795672" lon="12.6865059"><ele>333.0</ele><time>2026-04-05T09:26:34.903Z</time></trkpt><trkpt lat="43.6796514" lon="12.6864427"><ele>332.0</ele><time>2026-04-05T09:26:35.902Z</time></trkpt><trkpt lat="43.6797449" lon="12.6864291"><ele>331.0</ele><time>2026-04-05T09:26:36.903Z</time></trkpt><trkpt lat="43.6798367" lon="12.6864813"><ele>331.0</ele><time>2026-04-05T09:26:37.902Z</time></trkpt><trkpt lat="43.6799186" lon="12.686541"><ele>331.0</ele><time>2026-04-05T09:26:38.902Z</time></trkpt><trkpt lat="43.6800068" lon="12.6865601"><ele>331.0</ele><time>2026-04-05T09:26:39.901Z</time></trkpt><trkpt lat="43.680101" lon="12.6865304"><ele>331.0</ele><time>2026-04-05T09:26:40.902Z</time></trkpt><trkpt lat="43.6801958" lon="12.6864597"><ele>331.0</ele><time>2026-04-05T09:26:41.902Z</time></trkpt><trkpt lat="43.6802992" lon="12.6863625"><ele>335.66666666666663</ele><time>2026-04-05T09:26:42.902Z</time></trkpt><trkpt lat="43.6804145" lon="12.6862563"><ele>340.3333333333333</ele><time>2026-04-05T09:26:43.902Z</time></trkpt><trkpt lat="43.6805454" lon="12.6861314"><ele>345.0</ele><time>2026-04-05T09:26:44.902Z</time></trkpt><trkpt lat="43.6806944" lon="12.6860085"><ele>345.0</ele><time>2026-04-05T09:26:45.901Z</time></trkpt><trkpt lat="43.6808531" lon="12.6858629"><ele>345.0</ele><time>2026-04-05T09:26:46.902Z</time></trkpt><trkpt lat="43.6810219" lon="12.6857009"><ele>345.0</ele><time>2026-04-05T09:26:47.902Z</time></trkpt><trkpt lat="43.681159" lon="12.6855813"><ele>345.0</ele><time>2026-04-05T09:26:48.902Z</time></trkpt><trkpt lat="43.681277" lon="12.6854807"><ele>345.0</ele><time>2026-04-05T09:26:49.902Z</time></trkpt><trkpt lat="43.6813731" lon="12.6854"><ele>345.0</ele><time>2026-04-05T09:26:50.901Z</time></trkpt><trkpt lat="43.6814471" lon="12.6853216"><ele>345.0</ele><time>2026-04-05T09:26:51.901Z</time></trkpt><trkpt lat="43.6814947" lon="12.6852302"><ele>345.0</ele><time>2026-04-05T09:26:52.902Z</time></trkpt><trkpt lat="43.6815231" lon="12.6851145"><ele>345.0</ele><time>2026-04-05T09:26:53.903Z</time></trkpt><trkpt lat="43.6815425" lon="12.684972"><ele>345.0</ele><time>2026-04-05T09:26:54.902Z</time></trkpt><trkpt lat="43.6815644" lon="12.6848155"><ele>345.0</ele><time>2026-04-05T09:26:55.902Z</time></trkpt><trkpt lat="43.6816105" lon="12.6846894"><ele>345.0</ele><time>2026-04-05T09:26:56.902Z</time></trkpt><trkpt lat="43.6816845" lon="12.684582"><ele>345.0</ele><time>2026-04-05T09:26:57.902Z</time></trkpt><trkpt lat="43.6817713" lon="12.6844799"><ele>346.0</ele><time>2026-04-05T09:26:58.902Z</time></trkpt><trkpt lat="43.6818339" lon="12.6843673"><ele>347.0</ele><time>2026-04-05T09:26:59.903Z</time></trkpt><trkpt lat="43.6818877" lon="12.6842146"><ele>348.0</ele><time>2026-04-05T09:27:00.902Z</time></trkpt><trkpt lat="43.6819393" lon="12.6840281"><ele>349.0</ele><time>2026-04-05T09:27:01.902Z</time></trkpt><trkpt lat="43.6819924" lon="12.683821"><ele>349.0</ele><time>2026-04-05T09:27:02.902Z</time></trkpt><trkpt lat="43.6820511" lon="12.683617"><ele>349.0</ele><time>2026-04-05T09:27:03.902Z</time></trkpt><trkpt lat="43.682113" lon="12.6834315"><ele>349.0</ele><time>2026-04-05T09:27:04.902Z</time></trkpt><trkpt lat="43.6821792" lon="12.6832796"><ele>349.0</ele><time>2026-04-05T09:27:05.902Z</time></trkpt><trkpt lat="43.6822487" lon="12.6831552"><ele>352.0</ele><time>2026-04-05T09:27:06.901Z</time></trkpt><trkpt lat="43.6823198" lon="12.6830584"><ele>355.0</ele><time>2026-04-05T09:27:07.902Z</time></trkpt><trkpt lat="43.6824026" lon="12.6829793"><ele>358.0</ele><time>2026-04-05T09:27:08.902Z</time></trkpt><trkpt lat="43.6824906" lon="12.6829212"><ele>361.0</ele><time>2026-04-05T09:27:09.903Z</time></trkpt><trkpt lat="43.6825578" lon="12.6828922"><ele>364.0</ele><time>2026-04-05T09:27:10.902Z</time></trkpt><trkpt lat="43.6826205" lon="12.6828341"><ele>367.0</ele><time>2026-04-05T09:27:13.902Z</time></trkpt><trkpt lat="43.6826341" lon="12.6827468"><ele>368.25</ele><time>2026-04-05T09:27:15.903Z</time></trkpt><trkpt lat="43.6825733" lon="12.682579"><ele>369.5</ele><time>2026-04-05T09:27:17.902Z</time></trkpt><trkpt lat="43.6825101" lon="12.6824413"><ele>370.75</ele><time>2026-04-05T09:27:18.902Z</time></trkpt><trkpt lat="43.6824554" lon="12.6822711"><ele>372.0</ele><time>2026-04-05T09:27:19.901Z</time></trkpt><trkpt lat="43.6824069" lon="12.6820825"><ele>371.0</ele><time>2026-04-05T09:27:20.902Z</time></trkpt><trkpt lat="43.6823598" lon="12.681883"><ele>370.0</ele><time>2026-04-05T09:27:21.901Z</time></trkpt><trkpt lat="43.6823095" lon="12.6816686"><ele>369.0</ele><time>2026-04-05T09:27:22.902Z</time></trkpt><trkpt lat="43.6822589" lon="12.6814395"><ele>369.0</ele><time>2026-04-05T09:27:23.902Z</time></trkpt><trkpt lat="43.6822034" lon="12.6812067"><ele>369.0</ele><time>2026-04-05T09:27:24.902Z</time></trkpt><trkpt lat="43.6821506" lon="12.6809945"><ele>369.0</ele><time>2026-04-05T09:27:25.902Z</time></trkpt><trkpt lat="43.6821085" lon="12.6808129"><ele>368.79999999999995</ele><time>2026-04-05T09:27:26.901Z</time></trkpt><trkpt lat="43.6820742" lon="12.6806491"><ele>368.59999999999997</ele><time>2026-04-05T09:27:27.901Z</time></trkpt><trkpt lat="43.6820523" lon="12.6804969"><ele>368.4</ele><time>2026-04-05T09:27:28.902Z</time></trkpt><trkpt lat="43.6820452" lon="12.6803443"><ele>368.2</ele><time>2026-04-05T09:27:29.902Z</time></trkpt><trkpt lat="43.6820532" lon="12.6802077"><ele>368.0</ele><time>2026-04-05T09:27:30.902Z</time></trkpt><trkpt lat="43.6820662" lon="12.680089"><ele>369.0</ele><time>2026-04-05T09:27:31.902Z</time></trkpt><trkpt lat="43.6820691" lon="12.6799787"><ele>370.0</ele><time>2026-04-05T09:27:32.903Z</time></trkpt><trkpt lat="43.682072" lon="12.6798855"><ele>371.0</ele><time>2026-04-05T09:27:33.902Z</time></trkpt><trkpt lat="43.6821048" lon="12.6797888"><ele>372.0</ele><time>2026-04-05T09:27:34.902Z</time></trkpt><trkpt lat="43.6821507" lon="12.6796826"><ele>373.0</ele><time>2026-04-05T09:27:35.901Z</time></trkpt><trkpt lat="43.6822116" lon="12.6795769"><ele>374.0</ele><time>2026-04-05T09:27:36.902Z</time></trkpt><trkpt lat="43.6822722" lon="12.6794931"><ele>374.0</ele><time>2026-04-05T09:27:37.902Z</time></trkpt><trkpt lat="43.6823356" lon="12.6794297"><ele>374.0</ele><time>2026-04-05T09:27:38.902Z</time></trkpt><trkpt lat="43.682398" lon="12.679384"><ele>374.0</ele><time>2026-04-05T09:27:39.902Z</time></trkpt><trkpt lat="43.6824681" lon="12.6793673"><ele>374.0</ele><time>2026-04-05T09:27:40.902Z</time></trkpt><trkpt lat="43.6825639" lon="12.6793398"><ele>374.0</ele><time>2026-04-05T09:27:41.902Z</time></trkpt><trkpt lat="43.6826857" lon="12.6793336"><ele>374.0</ele><time>2026-04-05T09:27:42.901Z</time></trkpt><trkpt lat="43.6828274" lon="12.6793406"><ele>374.0</ele><time>2026-04-05T09:27:43.902Z</time></trkpt><trkpt lat="43.6829525" lon="12.6793507"><ele>374.0</ele><time>2026-04-05T09:27:44.902Z</time></trkpt><trkpt lat="43.6830669" lon="12.6793667"><ele>374.0</ele><time>2026-04-05T09:27:45.902Z</time></trkpt><trkpt lat="43.6831583" lon="12.6793925"><ele>374.0</ele><time>2026-04-05T09:27:46.903Z</time></trkpt><trkpt lat="43.683226" lon="12.6794231"><ele>374.0</ele><time>2026-04-05T09:27:47.902Z</time></trkpt><trkpt lat="43.6833045" lon="12.6795005"><ele>370.79999999999995</ele><time>2026-04-05T09:27:49.902Z</time></trkpt><trkpt lat="43.6832693" lon="12.6796138"><ele>367.59999999999997</ele><time>2026-04-05T09:27:51.901Z</time></trkpt><trkpt lat="43.6831134" lon="12.6797386"><ele>364.4</ele><time>2026-04-05T09:27:53.902Z</time></trkpt><trkpt lat="43.683051" lon="12.6798117"><ele>361.2</ele><time>2026-04-05T09:27:54.902Z</time></trkpt><trkpt lat="43.6829923" lon="12.6799193"><ele>358.0</ele><time>2026-04-05T09:27:55.901Z</time></trkpt><trkpt lat="43.6829252" lon="12.6800617"><ele>358.0</ele><time>2026-04-05T09:27:56.902Z</time></trkpt><trkpt lat="43.6828656" lon="12.6801697"><ele>358.0</ele><time>2026-04-05T09:27:57.901Z</time></trkpt><trkpt lat="43.682792" lon="12.6802391"><ele>358.0</ele><time>2026-04-05T09:27:58.902Z</time></trkpt><trkpt lat="43.6827149" lon="12.680308"><ele>358.0</ele><time>2026-04-05T09:27:59.902Z</time></trkpt><trkpt lat="43.6826465" lon="12.6803886"><ele>358.0</ele><time>2026-04-05T09:28:00.902Z</time></trkpt><trkpt lat="43.6825873" lon="12.6804723"><ele>357.0</ele><time>2026-04-05T09:28:01.902Z</time></trkpt><trkpt lat="43.6825678" lon="12.6805772"><ele>356.0</ele><time>2026-04-05T09:28:02.902Z</time></trkpt><trkpt lat="43.6825665" lon="12.6807275"><ele>355.0</ele><time>2026-04-05T09:28:03.903Z</time></trkpt><trkpt lat="43.6825937" lon="12.680834"><ele>354.0</ele><time>2026-04-05T09:28:05.903Z</time></trkpt><trkpt lat="43.6826761" lon="12.680831"><ele>353.0</ele><time>2026-04-05T09:28:07.902Z</time></trkpt><trkpt lat="43.6827418" lon="12.6807805"><ele>352.0</ele><time>2026-04-05T09:28:08.902Z</time></trkpt><trkpt lat="43.6827948" lon="12.680697"><ele>352.0</ele><time>2026-04-05T09:28:09.903Z</time></trkpt><trkpt lat="43.6828478" lon="12.6805905"><ele>352.0</ele><time>2026-04-05T09:28:10.902Z</time></trkpt><trkpt lat="43.6829054" lon="12.680514"><ele>352.0</ele><time>2026-04-05T09:28:11.902Z</time></trkpt><trkpt lat="43.6829767" lon="12.6804584"><ele>352.0</ele><time>2026-04-05T09:28:12.902Z</time></trkpt><trkpt lat="43.6830744" lon="12.6804289"><ele>352.0</ele><time>2026-04-05T09:28:13.903Z</time></trkpt><trkpt lat="43.6831946" lon="12.6803932"><ele>352.0</ele><time>2026-04-05T09:28:14.901Z</time></trkpt><trkpt lat="43.6832829" lon="12.680351"><ele>352.0</ele><time>2026-04-05T09:28:15.902Z</time></trkpt><trkpt lat="43.6833686" lon="12.680282"><ele>352.0</ele><time>2026-04-05T09:28:16.901Z</time></trkpt><trkpt lat="43.6834425" lon="12.6802165"><ele>352.0</ele><time>2026-04-05T09:28:17.902Z</time></trkpt><trkpt lat="43.683499" lon="12.6801555"><ele>352.0</ele><time>2026-04-05T09:28:18.902Z</time></trkpt><trkpt lat="43.6835592" lon="12.680066"><ele>352.0</ele><time>2026-04-05T09:28:19.902Z</time></trkpt><trkpt lat="43.6836279" lon="12.6799674"><ele>349.40000000000003</ele><time>2026-04-05T09:28:20.903Z</time></trkpt><trkpt lat="43.683697" lon="12.6798777"><ele>346.8</ele><time>2026-04-05T09:28:21.902Z</time></trkpt><trkpt lat="43.6837776" lon="12.6798107"><ele>344.2</ele><time>2026-04-05T09:28:22.901Z</time></trkpt><trkpt lat="43.6838807" lon="12.6797321"><ele>341.6</ele><time>2026-04-05T09:28:23.902Z</time></trkpt><trkpt lat="43.6839897" lon="12.6796392"><ele>339.0</ele><time>2026-04-05T09:28:24.902Z</time></trkpt><trkpt lat="43.6840971" lon="12.6795436"><ele>339.0</ele><time>2026-04-05T09:28:25.902Z</time></trkpt><trkpt lat="43.6841899" lon="12.6794549"><ele>339.0</ele><time>2026-04-05T09:28:26.902Z</time></trkpt><trkpt lat="43.6842819" lon="12.6793718"><ele>339.0</ele><time>2026-04-05T09:28:27.902Z</time></trkpt><trkpt lat="43.6843829" lon="12.6793015"><ele>339.0</ele><time>2026-04-05T09:28:28.902Z</time></trkpt><trkpt lat="43.6844802" lon="12.6792355"><ele>339.0</ele><time>2026-04-05T09:28:29.902Z</time></trkpt><trkpt lat="43.6845589" lon="12.6791787"><ele>337.7142857142857</ele><time>2026-04-05T09:28:30.902Z</time></trkpt><trkpt lat="43.6846196" lon="12.6791162"><ele>336.42857142857144</ele><time>2026-04-05T09:28:31.902Z</time></trkpt><trkpt lat="43.6846705" lon="12.6790328"><ele>335.14285714285717</ele><time>2026-04-05T09:28:32.902Z</time></trkpt><trkpt lat="43.6847046" lon="12.678949"><ele>333.8571428571429</ele><time>2026-04-05T09:28:33.902Z</time></trkpt><trkpt lat="43.6847372" lon="12.6788624"><ele>332.57142857142856</ele><time>2026-04-05T09:28:34.902Z</time></trkpt><trkpt lat="43.6847817" lon="12.6787827"><ele>331.28571428571433</ele><time>2026-04-05T09:28:35.902Z</time></trkpt><trkpt lat="43.6848166" lon="12.6786896"><ele>330.0</ele><time>2026-04-05T09:28:36.902Z</time></trkpt><trkpt lat="43.6848571" lon="12.6786043"><ele>329.8</ele><time>2026-04-05T09:28:37.903Z</time></trkpt><trkpt lat="43.6848986" lon="12.6785237"><ele>329.6</ele><time>2026-04-05T09:28:38.903Z</time></trkpt><trkpt lat="43.6849722" lon="12.6783989"><ele>329.4</ele><time>2026-04-05T09:28:40.902Z</time></trkpt><trkpt lat="43.6850714" lon="12.6783198"><ele>329.2</ele><time>2026-04-05T09:28:42.903Z</time></trkpt><trkpt lat="43.6851351" lon="12.6783167"><ele>329.0</ele><time>2026-04-05T09:28:43.902Z</time></trkpt><trkpt lat="43.6852203" lon="12.678343"><ele>326.2</ele><time>2026-04-05T09:28:44.902Z</time></trkpt><trkpt lat="43.6853075" lon="12.6783709"><ele>323.4</ele><time>2026-04-05T09:28:45.903Z</time></trkpt><trkpt lat="43.6853952" lon="12.6783849"><ele>320.6</ele><time>2026-04-05T09:28:46.902Z</time></trkpt><trkpt lat="43.6854866" lon="12.6783972"><ele>317.8</ele><time>2026-04-05T09:28:47.902Z</time></trkpt><trkpt lat="43.6855819" lon="12.6784049"><ele>315.0</ele><time>2026-04-05T09:28:48.902Z</time></trkpt><trkpt lat="43.6856731" lon="12.6784034"><ele>315.0</ele><time>2026-04-05T09:28:49.901Z</time></trkpt><trkpt lat="43.6857534" lon="12.678394"><ele>315.0</ele><time>2026-04-05T09:28:50.902Z</time></trkpt><trkpt lat="43.685834" lon="12.6783626"><ele>315.0</ele><time>2026-04-05T09:28:51.902Z</time></trkpt><trkpt lat="43.6859122" lon="12.6782999"><ele>315.0</ele><time>2026-04-05T09:28:52.903Z</time></trkpt><trkpt lat="43.6859881" lon="12.6782321"><ele>315.0</ele><time>2026-04-05T09:28:53.901Z</time></trkpt><trkpt lat="43.686052" lon="12.6781703"><ele>315.0</ele><time>2026-04-05T09:28:54.902Z</time></trkpt><trkpt lat="43.6861563" lon="12.6780883"><ele>315.0</ele><time>2026-04-05T09:28:56.902Z</time></trkpt><trkpt lat="43.6862097" lon="12.6780163"><ele>315.0</ele><time>2026-04-05T09:28:58.902Z</time></trkpt><trkpt lat="43.6861983" lon="12.6779263"><ele>315.0</ele><time>2026-04-05T09:29:00.903Z</time></trkpt><trkpt lat="43.6861109" lon="12.6778356"><ele>315.0</ele><time>2026-04-05T09:29:02.902Z</time></trkpt><trkpt lat="43.6860376" lon="12.677826"><ele>315.0</ele><time>2026-04-05T09:29:03.902Z</time></trkpt><trkpt lat="43.685972" lon="12.6778464"><ele>315.0</ele><time>2026-04-05T09:29:04.903Z</time></trkpt><trkpt lat="43.685904" lon="12.6778948"><ele>315.0</ele><time>2026-04-05T09:29:05.902Z</time></trkpt><trkpt lat="43.6858455" lon="12.6779295"><ele>315.0</ele><time>2026-04-05T09:29:06.903Z</time></trkpt><trkpt lat="43.6857317" lon="12.6779077"><ele>315.0</ele><time>2026-04-05T09:29:08.901Z</time></trkpt><trkpt lat="43.6856522" lon="12.6778835"><ele>315.0</ele><time>2026-04-05T09:29:09.901Z</time></trkpt><trkpt lat="43.6855695" lon="12.6778626"><ele>315.0</ele><time>2026-04-05T09:29:10.902Z</time></trkpt><trkpt lat="43.6854723" lon="12.6778348"><ele>315.0</ele><time>2026-04-05T09:29:11.902Z</time></trkpt><trkpt lat="43.6853601" lon="12.6778098"><ele>314.3333333333333</ele><time>2026-04-05T09:29:12.901Z</time></trkpt><trkpt lat="43.6852576" lon="12.6777891"><ele>313.6666666666667</ele><time>2026-04-05T09:29:13.902Z</time></trkpt><trkpt lat="43.685159" lon="12.6777793"><ele>313.0</ele><time>2026-04-05T09:29:14.901Z</time></trkpt><trkpt lat="43.6850831" lon="12.6777646"><ele>312.33333333333337</ele><time>2026-04-05T09:29:15.902Z</time></trkpt><trkpt lat="43.6850253" lon="12.6777286"><ele>311.6666666666667</ele><time>2026-04-05T09:29:16.903Z</time></trkpt><trkpt lat="43.6849823" lon="12.6776641"><ele>311.0</ele><time>2026-04-05T09:29:17.903Z</time></trkpt><trkpt lat="43.6849511" lon="12.6775807"><ele>311.0</ele><time>2026-04-05T09:29:18.902Z</time></trkpt><trkpt lat="43.6849226" lon="12.6774678"><ele>311.0</ele><time>2026-04-05T09:29:19.902Z</time></trkpt><trkpt lat="43.6848884" lon="12.6773286"><ele>311.0</ele><time>2026-04-05T09:29:20.902Z</time></trkpt><trkpt lat="43.6848539" lon="12.6771778"><ele>311.0</ele><time>2026-04-05T09:29:21.902Z</time></trkpt><trkpt lat="43.6848298" lon="12.677035"><ele>311.0</ele><time>2026-04-05T09:29:22.902Z</time></trkpt><trkpt lat="43.6848149" lon="12.6769026"><ele>309.1666666666667</ele><time>2026-04-05T09:29:23.902Z</time></trkpt><trkpt lat="43.6848122" lon="12.676771"><ele>307.33333333333337</ele><time>2026-04-05T09:29:24.902Z</time></trkpt><trkpt lat="43.68482" lon="12.6766362"><ele>305.5</ele><time>2026-04-05T09:29:25.901Z</time></trkpt><trkpt lat="43.684828" lon="12.6765181"><ele>303.6666666666667</ele><time>2026-04-05T09:29:26.902Z</time></trkpt><trkpt lat="43.6848231" lon="12.6764127"><ele>301.8333333333333</ele><time>2026-04-05T09:29:27.902Z</time></trkpt><trkpt lat="43.6847948" lon="12.6763064"><ele>300.0</ele><time>2026-04-05T09:29:28.902Z</time></trkpt><trkpt lat="43.6847584" lon="12.676202"><ele>298.1666666666667</ele><time>2026-04-05T09:29:29.902Z</time></trkpt><trkpt lat="43.6847339" lon="12.6760998"><ele>296.3333333333333</ele><time>2026-04-05T09:29:30.901Z</time></trkpt><trkpt lat="43.6847262" lon="12.675991"><ele>294.5</ele><time>2026-04-05T09:29:31.901Z</time></trkpt><trkpt lat="43.6847264" lon="12.6758773"><ele>292.66666666666663</ele><time>2026-04-05T09:29:32.9Z</time></trkpt><trkpt lat="43.6847358" lon="12.675752"><ele>290.8333333333333</ele><time>2026-04-05T09:29:33.901Z</time></trkpt><trkpt lat="43.6847504" lon="12.6756131"><ele>289.0</ele><time>2026-04-05T09:29:34.901Z</time></trkpt><trkpt lat="43.6847522" lon="12.6754813"><ele>289.0</ele><time>2026-04-05T09:29:35.901Z</time></trkpt><trkpt lat="43.6847463" lon="12.6753704"><ele>289.0</ele><time>2026-04-05T09:29:36.9Z</time></trkpt><trkpt lat="43.6847274" lon="12.6752847"><ele>289.0</ele><time>2026-04-05T09:29:37.901Z</time></trkpt><trkpt lat="43.6846817" lon="12.675218"><ele>289.0</ele><time>2026-04-05T09:29:38.901Z</time></trkpt><trkpt lat="43.6846106" lon="12.6751692"><ele>289.0</ele><time>2026-04-05T09:29:39.902Z</time></trkpt><trkpt lat="43.6845168" lon="12.6751224"><ele>289.0</ele><time>2026-04-05T09:29:40.901Z</time></trkpt><trkpt lat="43.6844299" lon="12.675073"><ele>290.0</ele><time>2026-04-05T09:29:41.901Z</time></trkpt><trkpt lat="43.6843503" lon="12.6750015"><ele>291.0</ele><time>2026-04-05T09:29:42.901Z</time></trkpt><trkpt lat="43.6842655" lon="12.6749091"><ele>292.0</ele><time>2026-04-05T09:29:43.9Z</time></trkpt><trkpt lat="43.6841726" lon="12.6748171"><ele>293.0</ele><time>2026-04-05T09:29:44.901Z</time></trkpt><trkpt lat="43.6840895" lon="12.6747369"><ele>294.0</ele><time>2026-04-05T09:29:45.901Z</time></trkpt><trkpt lat="43.6840172" lon="12.6746692"><ele>294.0</ele><time>2026-04-05T09:29:46.901Z</time></trkpt><trkpt lat="43.68396" lon="12.6746146"><ele>294.0</ele><time>2026-04-05T09:29:47.901Z</time></trkpt><trkpt lat="43.6838938" lon="12.6745334"><ele>294.0</ele><time>2026-04-05T09:29:49.901Z</time></trkpt><trkpt lat="43.6838879" lon="12.6744202"><ele>294.0</ele><time>2026-04-05T09:29:51.901Z</time></trkpt><trkpt lat="43.6839545" lon="12.674253"><ele>294.0</ele><time>2026-04-05T09:29:53.9Z</time></trkpt><trkpt lat="43.68399" lon="12.6741166"><ele>294.75</ele><time>2026-04-05T09:29:54.901Z</time></trkpt><trkpt lat="43.6840375" lon="12.6739448"><ele>295.5</ele><time>2026-04-05T09:29:55.901Z</time></trkpt><trkpt lat="43.6840834" lon="12.6738017"><ele>296.25</ele><time>2026-04-05T09:29:56.901Z</time></trkpt><trkpt lat="43.6841324" lon="12.673656"><ele>297.0</ele><time>2026-04-05T09:29:57.901Z</time></trkpt><trkpt lat="43.6842004" lon="12.6735083"><ele>297.0</ele><time>2026-04-05T09:29:58.9Z</time></trkpt><trkpt lat="43.6842963" lon="12.6733826"><ele>297.0</ele><time>2026-04-05T09:29:59.902Z</time></trkpt><trkpt lat="43.684405" lon="12.6732504"><ele>297.0</ele><time>2026-04-05T09:30:00.901Z</time></trkpt><trkpt lat="43.6844921" lon="12.6731135"><ele>297.0</ele><time>2026-04-05T09:30:01.901Z</time></trkpt><trkpt lat="43.6845867" lon="12.6729634"><ele>294.75</ele><time>2026-04-05T09:30:02.901Z</time></trkpt><trkpt lat="43.6846857" lon="12.672814"><ele>292.5</ele><time>2026-04-05T09:30:03.9Z</time></trkpt><trkpt lat="43.684781" lon="12.6726502"><ele>290.25</ele><time>2026-04-05T09:30:04.901Z</time></trkpt><trkpt lat="43.6848639" lon="12.672478"><ele>288.0</ele><time>2026-04-05T09:30:05.901Z</time></trkpt><trkpt lat="43.684924" lon="12.6723071"><ele>288.0</ele><time>2026-04-05T09:30:06.9Z</time></trkpt><trkpt lat="43.6849689" lon="12.672161"><ele>288.0</ele><time>2026-04-05T09:30:07.901Z</time></trkpt><trkpt lat="43.6850212" lon="12.6720387"><ele>288.0</ele><time>2026-04-05T09:30:08.901Z</time></trkpt><trkpt lat="43.6850725" lon="12.6719455"><ele>288.0</ele><time>2026-04-05T09:30:09.901Z</time></trkpt><trkpt lat="43.6851276" lon="12.6718524"><ele>288.0</ele><time>2026-04-05T09:30:10.901Z</time></trkpt><trkpt lat="43.6851736" lon="12.6717527"><ele>289.4</ele><time>2026-04-05T09:30:11.901Z</time></trkpt><trkpt lat="43.6852108" lon="12.6716531"><ele>290.8</ele><time>2026-04-05T09:30:12.901Z</time></trkpt><trkpt lat="43.6852256" lon="12.671506"><ele>292.2</ele><time>2026-04-05T09:30:14.901Z</time></trkpt><trkpt lat="43.6851753" lon="12.6713496"><ele>293.6</ele><time>2026-04-05T09:30:16.901Z</time></trkpt><trkpt lat="43.6851459" lon="12.6712382"><ele>295.0</ele><time>2026-04-05T09:30:17.901Z</time></trkpt><trkpt lat="43.6851075" lon="12.6711028"><ele>295.0</ele><time>2026-04-05T09:30:18.901Z</time></trkpt><trkpt lat="43.6850678" lon="12.6709669"><ele>295.0</ele><time>2026-04-05T09:30:19.901Z</time></trkpt><trkpt lat="43.685031" lon="12.670819"><ele>295.0</ele><time>2026-04-05T09:30:20.901Z</time></trkpt><trkpt lat="43.6850051" lon="12.6706763"><ele>295.0</ele><time>2026-04-05T09:30:21.901Z</time></trkpt><trkpt lat="43.6849797" lon="12.6705378"><ele>295.0</ele><time>2026-04-05T09:30:22.9Z</time></trkpt><trkpt lat="43.6849447" lon="12.6704046"><ele>293.5</ele><time>2026-04-05T09:30:23.902Z</time></trkpt><trkpt lat="43.6848967" lon="12.6702735"><ele>292.0</ele><time>2026-04-05T09:30:24.902Z</time></trkpt><trkpt lat="43.684827" lon="12.670136"><ele>290.5</ele><time>2026-04-05T09:30:25.901Z</time></trkpt><trkpt lat="43.6847325" lon="12.6699913"><ele>289.0</ele><time>2026-04-05T09:30:26.901Z</time></trkpt><trkpt lat="43.6846337" lon="12.669838"><ele>289.0</ele><time>2026-04-05T09:30:27.901Z</time></trkpt><trkpt lat="43.6845496" lon="12.6696984"><ele>289.0</ele><time>2026-04-05T09:30:28.901Z</time></trkpt><trkpt lat="43.6844624" lon="12.6695761"><ele>289.0</ele><time>2026-04-05T09:30:29.901Z</time></trkpt><trkpt lat="43.6843805" lon="12.6694512"><ele>289.0</ele><time>2026-04-05T09:30:30.901Z</time></trkpt><trkpt lat="43.6843087" lon="12.6693106"><ele>289.5</ele><time>2026-04-05T09:30:31.901Z</time></trkpt><trkpt lat="43.6842338" lon="12.6691444"><ele>290.0</ele><time>2026-04-05T09:30:32.901Z</time></trkpt><trkpt lat="43.6841588" lon="12.6689785"><ele>290.5</ele><time>2026-04-05T09:30:33.901Z</time></trkpt><trkpt lat="43.6840805" lon="12.6688394"><ele>291.0</ele><time>2026-04-05T09:30:34.9Z</time></trkpt><trkpt lat="43.6840027" lon="12.6687197"><ele>289.8</ele><time>2026-04-05T09:30:35.901Z</time></trkpt><trkpt lat="43.683931" lon="12.6686065"><ele>288.6</ele><time>2026-04-05T09:30:36.901Z</time></trkpt><trkpt lat="43.6838797" lon="12.6684841"><ele>287.4</ele><time>2026-04-05T09:30:37.901Z</time></trkpt><trkpt lat="43.6838503" lon="12.6683361"><ele>286.2</ele><time>2026-04-05T09:30:38.901Z</time></trkpt><trkpt lat="43.6838163" lon="12.6681679"><ele>285.0</ele><time>2026-04-05T09:30:39.901Z</time></trkpt><trkpt lat="43.6837825" lon="12.668013"><ele>285.0</ele><time>2026-04-05T09:30:40.901Z</time></trkpt><trkpt lat="43.683755" lon="12.6678688"><ele>285.0</ele><time>2026-04-05T09:30:41.901Z</time></trkpt><trkpt lat="43.6837398" lon="12.6677317"><ele>285.0</ele><time>2026-04-05T09:30:42.901Z</time></trkpt><trkpt lat="43.6837516" lon="12.667604"><ele>285.0</ele><time>2026-04-05T09:30:43.9Z</time></trkpt><trkpt lat="43.6838002" lon="12.6674987"><ele>285.0</ele><time>2026-04-05T09:30:44.901Z</time></trkpt><trkpt lat="43.683864" lon="12.6673947"><ele>285.0</ele><time>2026-04-05T09:30:45.9Z</time></trkpt><trkpt lat="43.6839256" lon="12.6672966"><ele>285.0</ele><time>2026-04-05T09:30:46.901Z</time></trkpt><trkpt lat="43.6839778" lon="12.6671844"><ele>285.0</ele><time>2026-04-05T09:30:47.901Z</time></trkpt><trkpt lat="43.6840222" lon="12.6670456"><ele>285.0</ele><time>2026-04-05T09:30:48.901Z</time></trkpt><trkpt lat="43.6840527" lon="12.6668964"><ele>285.0</ele><time>2026-04-05T09:30:49.901Z</time></trkpt><trkpt lat="43.6840657" lon="12.6667368"><ele>286.5</ele><time>2026-04-05T09:30:50.902Z</time></trkpt><trkpt lat="43.6840655" lon="12.6665497"><ele>288.0</ele><time>2026-04-05T09:30:51.901Z</time></trkpt><trkpt lat="43.6840617" lon="12.6663735"><ele>289.5</ele><time>2026-04-05T09:30:52.901Z</time></trkpt><trkpt lat="43.6840583" lon="12.6662001"><ele>291.0</ele><time>2026-04-05T09:30:53.902Z</time></trkpt><trkpt lat="43.6840562" lon="12.6660297"><ele>291.25</ele><time>2026-04-05T09:30:54.9Z</time></trkpt><trkpt lat="43.6840652" lon="12.6658668"><ele>291.5</ele><time>2026-04-05T09:30:55.901Z</time></trkpt><trkpt lat="43.684084" lon="12.6656968"><ele>291.75</ele><time>2026-04-05T09:30:56.901Z</time></trkpt><trkpt lat="43.6841168" lon="12.6655291"><ele>292.0</ele><time>2026-04-05T09:30:57.901Z</time></trkpt><trkpt lat="43.6841568" lon="12.6653771"><ele>291.4</ele><time>2026-04-05T09:30:58.901Z</time></trkpt><trkpt lat="43.6842013" lon="12.6652401"><ele>290.79999999999995</ele><time>2026-04-05T09:30:59.901Z</time></trkpt><trkpt lat="43.6842548" lon="12.665114"><ele>290.2</ele><time>2026-04-05T09:31:00.902Z</time></trkpt><trkpt lat="43.6843134" lon="12.6649992"><ele>289.59999999999997</ele><time>2026-04-05T09:31:01.902Z</time></trkpt><trkpt lat="43.6843672" lon="12.6648934"><ele>289.0</ele><time>2026-04-05T09:31:02.9Z</time></trkpt><trkpt lat="43.6844177" lon="12.6648027"><ele>287.8333333333333</ele><time>2026-04-05T09:31:03.902Z</time></trkpt><trkpt lat="43.6844499" lon="12.664713"><ele>286.66666666666663</ele><time>2026-04-05T09:31:04.901Z</time></trkpt><trkpt lat="43.6844555" lon="12.6646185"><ele>285.5</ele><time>2026-04-05T09:31:05.9Z</time></trkpt><trkpt lat="43.684438" lon="12.6645115"><ele>284.3333333333333</ele><time>2026-04-05T09:31:06.9Z</time></trkpt><trkpt lat="43.6844171" lon="12.6643863"><ele>283.1666666666667</ele><time>2026-04-05T09:31:07.901Z</time></trkpt><trkpt lat="43.6844" lon="12.6642499"><ele>282.0</ele><time>2026-04-05T09:31:08.9Z</time></trkpt><trkpt lat="43.6843828" lon="12.6641233"><ele>282.0</ele><time>2026-04-05T09:31:09.901Z</time></trkpt><trkpt lat="43.6843541" lon="12.6640253"><ele>282.0</ele><time>2026-04-05T09:31:10.901Z</time></trkpt><trkpt lat="43.6842998" lon="12.6639679"><ele>282.0</ele><time>2026-04-05T09:31:11.901Z</time></trkpt><trkpt lat="43.6842361" lon="12.6639643"><ele>282.0</ele><time>2026-04-05T09:31:12.9Z</time></trkpt><trkpt lat="43.6841666" lon="12.6640085"><ele>282.0</ele><time>2026-04-05T09:31:13.901Z</time></trkpt><trkpt lat="43.6840914" lon="12.6640857"><ele>282.0</ele><time>2026-04-05T09:31:14.9Z</time></trkpt><trkpt lat="43.6840255" lon="12.6641514"><ele>282.0</ele><time>2026-04-05T09:31:15.902Z</time></trkpt><trkpt lat="43.6839645" lon="12.6641923"><ele>282.0</ele><time>2026-04-05T09:31:16.901Z</time></trkpt><trkpt lat="43.6838512" lon="12.6641457"><ele>282.0</ele><time>2026-04-05T09:31:18.901Z</time></trkpt><trkpt lat="43.6838016" lon="12.6640502"><ele>282.0</ele><time>2026-04-05T09:31:19.901Z</time></trkpt><trkpt lat="43.6837512" lon="12.6639205"><ele>282.0</ele><time>2026-04-05T09:31:20.901Z</time></trkpt><trkpt lat="43.6836916" lon="12.6637679"><ele>282.0</ele><time>2026-04-05T09:31:21.901Z</time></trkpt><trkpt lat="43.6836498" lon="12.6636158"><ele>282.0</ele><time>2026-04-05T09:31:22.901Z</time></trkpt><trkpt lat="43.6836245" lon="12.6634419"><ele>282.0</ele><time>2026-04-05T09:31:23.901Z</time></trkpt><trkpt lat="43.6836188" lon="12.6632446"><ele>282.0</ele><time>2026-04-05T09:31:24.902Z</time></trkpt><trkpt lat="43.6836254" lon="12.6630334"><ele>281.25</ele><time>2026-04-05T09:31:25.901Z</time></trkpt><trkpt lat="43.6836399" lon="12.6628391"><ele>280.5</ele><time>2026-04-05T09:31:26.901Z</time></trkpt><trkpt lat="43.6836659" lon="12.6626558"><ele>279.75</ele><time>2026-04-05T09:31:27.901Z</time></trkpt><trkpt lat="43.6837018" lon="12.6624861"><ele>279.0</ele><time>2026-04-05T09:31:28.901Z</time></trkpt><trkpt lat="43.6837435" lon="12.6623216"><ele>276.5</ele><time>2026-04-05T09:31:29.901Z</time></trkpt><trkpt lat="43.6838032" lon="12.6621748"><ele>274.0</ele><time>2026-04-05T09:31:30.901Z</time></trkpt><trkpt lat="43.6838862" lon="12.6620594"><ele>271.5</ele><time>2026-04-05T09:31:31.901Z</time></trkpt><trkpt lat="43.683978" lon="12.6619636"><ele>269.0</ele><time>2026-04-05T09:31:32.902Z</time></trkpt><trkpt lat="43.6840826" lon="12.661881"><ele>264.75</ele><time>2026-04-05T09:31:33.901Z</time></trkpt><trkpt lat="43.6842092" lon="12.6618152"><ele>260.5</ele><time>2026-04-05T09:31:34.901Z</time></trkpt><trkpt lat="43.6843266" lon="12.6617826"><ele>256.25</ele><time>2026-04-05T09:31:35.9Z</time></trkpt><trkpt lat="43.6844275" lon="12.6617413"><ele>252.0</ele><time>2026-04-05T09:31:36.901Z</time></trkpt><trkpt lat="43.6845148" lon="12.6616776"><ele>251.5</ele><time>2026-04-05T09:31:37.901Z</time></trkpt><trkpt lat="43.6845827" lon="12.6615815"><ele>251.0</ele><time>2026-04-05T09:31:38.9Z</time></trkpt><trkpt lat="43.68463" lon="12.6614541"><ele>250.5</ele><time>2026-04-05T09:31:39.9Z</time></trkpt><trkpt lat="43.6846677" lon="12.661301"><ele>250.0</ele><time>2026-04-05T09:31:40.9Z</time></trkpt><trkpt lat="43.684699" lon="12.6611231"><ele>248.75</ele><time>2026-04-05T09:31:41.901Z</time></trkpt><trkpt lat="43.6847304" lon="12.6609417"><ele>247.5</ele><time>2026-04-05T09:31:42.901Z</time></trkpt><trkpt lat="43.6847489" lon="12.6607743"><ele>246.25</ele><time>2026-04-05T09:31:43.901Z</time></trkpt><trkpt lat="43.6847482" lon="12.6606066"><ele>245.0</ele><time>2026-04-05T09:31:44.9Z</time></trkpt><trkpt lat="43.684725" lon="12.6604417"><ele>244.0</ele><time>2026-04-05T09:31:45.901Z</time></trkpt><trkpt lat="43.6846865" lon="12.6602762"><ele>243.0</ele><time>2026-04-05T09:31:46.901Z</time></trkpt><trkpt lat="43.6846413" lon="12.6601132"><ele>242.0</ele><time>2026-04-05T09:31:47.901Z</time></trkpt><trkpt lat="43.6845955" lon="12.6599507"><ele>241.0</ele><time>2026-04-05T09:31:48.902Z</time></trkpt><trkpt lat="43.684549" lon="12.6597889"><ele>241.0</ele><time>2026-04-05T09:31:49.901Z</time></trkpt><trkpt lat="43.6844982" lon="12.6596259"><ele>241.0</ele><time>2026-04-05T09:31:50.901Z</time></trkpt><trkpt lat="43.6844446" lon="12.6594592"><ele>241.0</ele><time>2026-04-05T09:31:51.901Z</time></trkpt><trkpt lat="43.6843893" lon="12.659289"><ele>241.0</ele><time>2026-04-05T09:31:52.901Z</time></trkpt><trkpt lat="43.684331" lon="12.6591098"><ele>241.5</ele><time>2026-04-05T09:31:53.901Z</time></trkpt><trkpt lat="43.6842779" lon="12.6589238"><ele>242.0</ele><time>2026-04-05T09:31:54.901Z</time></trkpt><trkpt lat="43.6842278" lon="12.658735"><ele>242.5</ele><time>2026-04-05T09:31:55.901Z</time></trkpt><trkpt lat="43.6841783" lon="12.6585524"><ele>243.0</ele><time>2026-04-05T09:31:56.901Z</time></trkpt><trkpt lat="43.6841336" lon="12.6583732"><ele>242.0</ele><time>2026-04-05T09:31:57.901Z</time></trkpt><trkpt lat="43.6841024" lon="12.6581921"><ele>241.0</ele><time>2026-04-05T09:31:58.901Z</time></trkpt><trkpt lat="43.6840861" lon="12.6580066"><ele>240.0</ele><time>2026-04-05T09:31:59.9Z</time></trkpt><trkpt lat="43.684065" lon="12.6578269"><ele>239.0</ele><time>2026-04-05T09:32:00.901Z</time></trkpt><trkpt lat="43.6840249" lon="12.6576542"><ele>238.75</ele><time>2026-04-05T09:32:01.901Z</time></trkpt><trkpt lat="43.6839523" lon="12.6574933"><ele>238.5</ele><time>2026-04-05T09:32:02.901Z</time></trkpt><trkpt lat="43.683856" lon="12.6573382"><ele>238.25</ele><time>2026-04-05T09:32:03.901Z</time></trkpt><trkpt lat="43.6837517" lon="12.6572069"><ele>238.0</ele><time>2026-04-05T09:32:04.901Z</time></trkpt><trkpt lat="43.6836302" lon="12.6571009"><ele>236.75</ele><time>2026-04-05T09:32:05.901Z</time></trkpt><trkpt lat="43.6835133" lon="12.65701"><ele>235.5</ele><time>2026-04-05T09:32:06.9Z</time></trkpt><trkpt lat="43.6833761" lon="12.6569773"><ele>234.25</ele><time>2026-04-05T09:32:07.901Z</time></trkpt><trkpt lat="43.6832658" lon="12.6569354"><ele>233.0</ele><time>2026-04-05T09:32:08.9Z</time></trkpt><trkpt lat="43.6831836" lon="12.6568967"><ele>232.4</ele><time>2026-04-05T09:32:09.901Z</time></trkpt><trkpt lat="43.6830994" lon="12.6568006"><ele>231.8</ele><time>2026-04-05T09:32:11.902Z</time></trkpt><trkpt lat="43.6830808" lon="12.6566327"><ele>231.2</ele><time>2026-04-05T09:32:13.901Z</time></trkpt><trkpt lat="43.6830729" lon="12.6565158"><ele>230.6</ele><time>2026-04-05T09:32:14.901Z</time></trkpt><trkpt lat="43.6830396" lon="12.6563863"><ele>230.0</ele><time>2026-04-05T09:32:15.901Z</time></trkpt><trkpt lat="43.682978" lon="12.6562698"><ele>230.0</ele><time>2026-04-05T09:32:16.9Z</time></trkpt><trkpt lat="43.6828932" lon="12.6561546"><ele>230.0</ele><time>2026-04-05T09:32:17.901Z</time></trkpt><trkpt lat="43.6827963" lon="12.6560306"><ele>230.0</ele><time>2026-04-05T09:32:18.902Z</time></trkpt><trkpt lat="43.6826877" lon="12.6558932"><ele>230.0</ele><time>2026-04-05T09:32:19.9Z</time></trkpt><trkpt lat="43.6825623" lon="12.65575"><ele>230.33333333333334</ele><time>2026-04-05T09:32:20.901Z</time></trkpt><trkpt lat="43.682422" lon="12.6555837"><ele>230.66666666666669</ele><time>2026-04-05T09:32:21.901Z</time></trkpt><trkpt lat="43.6822657" lon="12.6553943"><ele>231.0</ele><time>2026-04-05T09:32:22.902Z</time></trkpt><trkpt lat="43.6821239" lon="12.655214"><ele>231.0</ele><time>2026-04-05T09:32:23.9Z</time></trkpt><trkpt lat="43.6819976" lon="12.6550468"><ele>231.0</ele><time>2026-04-05T09:32:24.901Z</time></trkpt><trkpt lat="43.6818985" lon="12.6548886"><ele>231.0</ele><time>2026-04-05T09:32:25.9Z</time></trkpt><trkpt lat="43.6818361" lon="12.654726"><ele>232.83333333333334</ele><time>2026-04-05T09:32:26.901Z</time></trkpt><trkpt lat="43.6817941" lon="12.6545615"><ele>234.66666666666669</ele><time>2026-04-05T09:32:27.901Z</time></trkpt><trkpt lat="43.6817855" lon="12.6544426"><ele>236.5</ele><time>2026-04-05T09:32:28.901Z</time></trkpt><trkpt lat="43.6817459" lon="12.6543471"><ele>238.33333333333334</ele><time>2026-04-05T09:32:29.901Z</time></trkpt><trkpt lat="43.6816813" lon="12.6543099"><ele>240.16666666666669</ele><time>2026-04-05T09:32:30.901Z</time></trkpt><trkpt lat="43.6815997" lon="12.6543266"><ele>242.0</ele><time>2026-04-05T09:32:31.901Z</time></trkpt><trkpt lat="43.6815009" lon="12.6543701"><ele>243.5</ele><time>2026-04-05T09:32:32.901Z</time></trkpt><trkpt lat="43.6813868" lon="12.654393"><ele>245.0</ele><time>2026-04-05T09:32:33.901Z</time></trkpt><trkpt lat="43.6812567" lon="12.6543737"><ele>246.5</ele><time>2026-04-05T09:32:34.9Z</time></trkpt><trkpt lat="43.6811313" lon="12.6543482"><ele>248.0</ele><time>2026-04-05T09:32:35.901Z</time></trkpt><trkpt lat="43.6810111" lon="12.6543353"><ele>247.75</ele><time>2026-04-05T09:32:36.901Z</time></trkpt><trkpt lat="43.6808752" lon="12.6543527"><ele>247.5</ele><time>2026-04-05T09:32:37.901Z</time></trkpt><trkpt lat="43.6807321" lon="12.6543817"><ele>247.25</ele><time>2026-04-05T09:32:38.901Z</time></trkpt><trkpt lat="43.6805824" lon="12.6544181"><ele>247.0</ele><time>2026-04-05T09:32:39.901Z</time></trkpt><trkpt lat="43.6804203" lon="12.6544671"><ele>247.0</ele><time>2026-04-05T09:32:40.901Z</time></trkpt><trkpt lat="43.6802681" lon="12.654515"><ele>247.0</ele><time>2026-04-05T09:32:41.901Z</time></trkpt><trkpt lat="43.6801367" lon="12.6545553"><ele>247.0</ele><time>2026-04-05T09:32:42.901Z</time></trkpt><trkpt lat="43.6800204" lon="12.6545932"><ele>247.0</ele><time>2026-04-05T09:32:43.901Z</time></trkpt><trkpt lat="43.6799154" lon="12.6546327"><ele>245.49999999999997</ele><time>2026-04-05T09:32:44.902Z</time></trkpt><trkpt lat="43.6798179" lon="12.6546647"><ele>244.0</ele><time>2026-04-05T09:32:45.901Z</time></trkpt><trkpt lat="43.6797268" lon="12.6547009"><ele>242.5</ele><time>2026-04-05T09:32:46.9Z</time></trkpt><trkpt lat="43.6796418" lon="12.6547218"><ele>241.0</ele><time>2026-04-05T09:32:47.902Z</time></trkpt><trkpt lat="43.6795608" lon="12.6546914"><ele>239.49999999999997</ele><time>2026-04-05T09:32:48.901Z</time></trkpt><trkpt lat="43.6795013" lon="12.6546186"><ele>238.0</ele><time>2026-04-05T09:32:49.9Z</time></trkpt><trkpt lat="43.67947" lon="12.6545159"><ele>235.75</ele><time>2026-04-05T09:32:50.901Z</time></trkpt><trkpt lat="43.6794787" lon="12.6543963"><ele>233.5</ele><time>2026-04-05T09:32:51.901Z</time></trkpt><trkpt lat="43.6795227" lon="12.6542619"><ele>231.25</ele><time>2026-04-05T09:32:52.901Z</time></trkpt><trkpt lat="43.6795918" lon="12.6541141"><ele>229.0</ele><time>2026-04-05T09:32:53.9Z</time></trkpt><trkpt lat="43.6796579" lon="12.6539495"><ele>229.0</ele><time>2026-04-05T09:32:54.901Z</time></trkpt><trkpt lat="43.6797298" lon="12.6537567"><ele>229.0</ele><time>2026-04-05T09:32:55.902Z</time></trkpt><trkpt lat="43.679815" lon="12.6535509"><ele>229.0</ele><time>2026-04-05T09:32:56.901Z</time></trkpt><trkpt lat="43.6799045" lon="12.6533397"><ele>227.0</ele><time>2026-04-05T09:32:57.901Z</time></trkpt><trkpt lat="43.6799756" lon="12.6531402"><ele>225.0</ele><time>2026-04-05T09:32:58.901Z</time></trkpt><trkpt lat="43.6800396" lon="12.6529507"><ele>223.0</ele><time>2026-04-05T09:32:59.901Z</time></trkpt><trkpt lat="43.6800845" lon="12.6527527"><ele>222.33333333333331</ele><time>2026-04-05T09:33:00.9Z</time></trkpt><trkpt lat="43.6801104" lon="12.6525426"><ele>221.66666666666669</ele><time>2026-04-05T09:33:01.901Z</time></trkpt><trkpt lat="43.6801248" lon="12.6523167"><ele>221.0</ele><time>2026-04-05T09:33:02.901Z</time></trkpt><trkpt lat="43.6801359" lon="12.6520775"><ele>219.66666666666669</ele><time>2026-04-05T09:33:03.9Z</time></trkpt><trkpt lat="43.6801396" lon="12.6518279"><ele>218.33333333333331</ele><time>2026-04-05T09:33:04.9Z</time></trkpt><trkpt lat="43.680148" lon="12.6516069"><ele>217.0</ele><time>2026-04-05T09:33:05.901Z</time></trkpt><trkpt lat="43.6801714" lon="12.6514052"><ele>217.0</ele><time>2026-04-05T09:33:06.901Z</time></trkpt><trkpt lat="43.6801879" lon="12.6512268"><ele>217.0</ele><time>2026-04-05T09:33:07.902Z</time></trkpt><trkpt lat="43.6802017" lon="12.6510499"><ele>217.0</ele><time>2026-04-05T09:33:08.901Z</time></trkpt><trkpt lat="43.6802219" lon="12.6508585"><ele>217.0</ele><time>2026-04-05T09:33:09.902Z</time></trkpt><trkpt lat="43.680226" lon="12.6506569"><ele>215.75</ele><time>2026-04-05T09:33:10.9Z</time></trkpt><trkpt lat="43.6802024" lon="12.6504527"><ele>214.5</ele><time>2026-04-05T09:33:11.902Z</time></trkpt><trkpt lat="43.6801599" lon="12.6502705"><ele>213.25</ele><time>2026-04-05T09:33:12.9Z</time></trkpt><trkpt lat="43.6801096" lon="12.6500892"><ele>212.0</ele><time>2026-04-05T09:33:13.901Z</time></trkpt><trkpt lat="43.6800534" lon="12.649896"><ele>211.0</ele><time>2026-04-05T09:33:14.901Z</time></trkpt><trkpt lat="43.6799885" lon="12.6496975"><ele>210.0</ele><time>2026-04-05T09:33:15.901Z</time></trkpt><trkpt lat="43.6799209" lon="12.6494981"><ele>209.0</ele><time>2026-04-05T09:33:16.901Z</time></trkpt><trkpt lat="43.6798562" lon="12.6493038"><ele>207.75</ele><time>2026-04-05T09:33:17.9Z</time></trkpt><trkpt lat="43.6797886" lon="12.64912"><ele>206.5</ele><time>2026-04-05T09:33:18.901Z</time></trkpt><trkpt lat="43.6797236" lon="12.6489416"><ele>205.25</ele><time>2026-04-05T09:33:19.901Z</time></trkpt><trkpt lat="43.6796584" lon="12.6487775"><ele>204.0</ele><time>2026-04-05T09:33:20.901Z</time></trkpt><trkpt lat="43.6795893" lon="12.6486225"><ele>204.75</ele><time>2026-04-05T09:33:21.901Z</time></trkpt><trkpt lat="43.6795122" lon="12.6484748"><ele>205.5</ele><time>2026-04-05T09:33:22.901Z</time></trkpt><trkpt lat="43.6794261" lon="12.6483281"><ele>206.25</ele><time>2026-04-05T09:33:23.9Z</time></trkpt><trkpt lat="43.6793322" lon="12.6481753"><ele>207.0</ele><time>2026-04-05T09:33:24.901Z</time></trkpt><trkpt lat="43.6792289" lon="12.6480253"><ele>207.0</ele><time>2026-04-05T09:33:25.9Z</time></trkpt><trkpt lat="43.6791077" lon="12.6478927"><ele>207.0</ele><time>2026-04-05T09:33:26.901Z</time></trkpt><trkpt lat="43.6789733" lon="12.647781"><ele>207.0</ele><time>2026-04-05T09:33:27.901Z</time></trkpt><trkpt lat="43.6788418" lon="12.6476885"><ele>205.75</ele><time>2026-04-05T09:33:28.902Z</time></trkpt><trkpt lat="43.6787157" lon="12.6476167"><ele>204.5</ele><time>2026-04-05T09:33:29.901Z</time></trkpt><trkpt lat="43.6785949" lon="12.6475552"><ele>203.25</ele><time>2026-04-05T09:33:30.901Z</time></trkpt><trkpt lat="43.6784727" lon="12.6475075"><ele>202.0</ele><time>2026-04-05T09:33:31.9Z</time></trkpt><trkpt lat="43.6783438" lon="12.647498"><ele>202.0</ele><time>2026-04-05T09:33:32.9Z</time></trkpt><trkpt lat="43.678206" lon="12.6475267"><ele>202.0</ele><time>2026-04-05T09:33:33.901Z</time></trkpt><trkpt lat="43.6780499" lon="12.6475904"><ele>202.0</ele><time>2026-04-05T09:33:34.901Z</time></trkpt><trkpt lat="43.6778845" lon="12.6476738"><ele>204.66666666666666</ele><time>2026-04-05T09:33:35.901Z</time></trkpt><trkpt lat="43.6777066" lon="12.6477795"><ele>207.33333333333331</ele><time>2026-04-05T09:33:36.901Z</time></trkpt><trkpt lat="43.6775211" lon="12.6479008"><ele>210.0</ele><time>2026-04-05T09:33:37.9Z</time></trkpt><trkpt lat="43.6773561" lon="12.6480022"><ele>210.0</ele><time>2026-04-05T09:33:38.901Z</time></trkpt><trkpt lat="43.6772055" lon="12.6480979"><ele>210.0</ele><time>2026-04-05T09:33:39.901Z</time></trkpt><trkpt lat="43.6770664" lon="12.6481862"><ele>210.0</ele><time>2026-04-05T09:33:40.901Z</time></trkpt><trkpt lat="43.6769261" lon="12.6482719"><ele>205.66666666666669</ele><time>2026-04-05T09:33:41.901Z</time></trkpt><trkpt lat="43.6767823" lon="12.6483522"><ele>201.33333333333334</ele><time>2026-04-05T09:33:42.9Z</time></trkpt><trkpt lat="43.6766297" lon="12.6484214"><ele>197.0</ele><time>2026-04-05T09:33:43.9Z</time></trkpt><trkpt lat="43.6764707" lon="12.6484827"><ele>197.0</ele><time>2026-04-05T09:33:44.901Z</time></trkpt><trkpt lat="43.6763042" lon="12.6485161"><ele>197.0</ele><time>2026-04-05T09:33:45.9Z</time></trkpt><trkpt lat="43.6761352" lon="12.648522"><ele>197.0</ele><time>2026-04-05T09:33:46.902Z</time></trkpt><trkpt lat="43.6759823" lon="12.6484964"><ele>196.75</ele><time>2026-04-05T09:33:47.901Z</time></trkpt><trkpt lat="43.6758415" lon="12.6484592"><ele>196.5</ele><time>2026-04-05T09:33:48.901Z</time></trkpt><trkpt lat="43.6757133" lon="12.6484247"><ele>196.25</ele><time>2026-04-05T09:33:49.901Z</time></trkpt><trkpt lat="43.6755956" lon="12.6483895"><ele>196.0</ele><time>2026-04-05T09:33:50.9Z</time></trkpt><trkpt lat="43.6754872" lon="12.6483532"><ele>195.99999999999997</ele><time>2026-04-05T09:33:51.901Z</time></trkpt><trkpt lat="43.6753861" lon="12.648332"><ele>196.0</ele><time>2026-04-05T09:33:52.9Z</time></trkpt><trkpt lat="43.6752943" lon="12.6483355"><ele>196.0</ele><time>2026-04-05T09:33:53.901Z</time></trkpt><trkpt lat="43.6752151" lon="12.6483554"><ele>196.0</ele><time>2026-04-05T09:33:54.901Z</time></trkpt><trkpt lat="43.6751177" lon="12.648342"><ele>195.99999999999997</ele><time>2026-04-05T09:33:56.901Z</time></trkpt><trkpt lat="43.6750831" lon="12.648266"><ele>196.0</ele><time>2026-04-05T09:33:59.902Z</time></trkpt><trkpt lat="43.6751195" lon="12.64816"><ele>196.0</ele><time>2026-04-05T09:34:05.9Z</time></trkpt><trkpt lat="43.6751889" lon="12.6481679"><ele>196.0</ele><time>2026-04-05T09:34:06.9Z</time></trkpt><trkpt lat="43.6752712" lon="12.6481836"><ele>196.0</ele><time>2026-04-05T09:34:07.9Z</time></trkpt><trkpt lat="43.6753626" lon="12.6482034"><ele>196.0</ele><time>2026-04-05T09:34:08.9Z</time></trkpt><trkpt lat="43.6754751" lon="12.6482225"><ele>196.0</ele><time>2026-04-05T09:34:09.9Z</time></trkpt><trkpt lat="43.6756072" lon="12.6482549"><ele>196.0</ele><time>2026-04-05T09:34:10.9Z</time></trkpt><trkpt lat="43.6757418" lon="12.6482928"><ele>196.0</ele><time>2026-04-05T09:34:11.9Z</time></trkpt><trkpt lat="43.6758907" lon="12.6483212"><ele>196.0</ele><time>2026-04-05T09:34:12.9Z</time></trkpt><trkpt lat="43.6760541" lon="12.6483309"><ele>196.33333333333331</ele><time>2026-04-05T09:34:13.899Z</time></trkpt><trkpt lat="43.6762289" lon="12.6483104"><ele>196.66666666666669</ele><time>2026-04-05T09:34:14.9Z</time></trkpt><trkpt lat="43.6764089" lon="12.6482504"><ele>197.0</ele><time>2026-04-05T09:34:15.9Z</time></trkpt><trkpt lat="43.6765968" lon="12.6481525"><ele>197.0</ele><time>2026-04-05T09:34:16.9Z</time></trkpt><trkpt lat="43.6767928" lon="12.6480366"><ele>197.0</ele><time>2026-04-05T09:34:17.9Z</time></trkpt><trkpt lat="43.6769858" lon="12.6479063"><ele>197.0</ele><time>2026-04-05T09:34:18.9Z</time></trkpt><trkpt lat="43.6771858" lon="12.6477666"><ele>195.0</ele><time>2026-04-05T09:34:19.901Z</time></trkpt><trkpt lat="43.6773943" lon="12.6476292"><ele>193.0</ele><time>2026-04-05T09:34:20.9Z</time></trkpt><trkpt lat="43.6776046" lon="12.6474915"><ele>197.5</ele><time>2026-04-05T09:34:21.899Z</time></trkpt><trkpt lat="43.6778154" lon="12.6473484"><ele>202.0</ele><time>2026-04-05T09:34:22.9Z</time></trkpt><trkpt lat="43.678016" lon="12.6472167"><ele>202.0</ele><time>2026-04-05T09:34:23.9Z</time></trkpt><trkpt lat="43.6782103" lon="12.6471244"><ele>202.0</ele><time>2026-04-05T09:34:24.9Z</time></trkpt><trkpt lat="43.678405" lon="12.6470731"><ele>202.0</ele><time>2026-04-05T09:34:25.9Z</time></trkpt><trkpt lat="43.6786072" lon="12.6470644"><ele>200.66666666666666</ele><time>2026-04-05T09:34:26.9Z</time></trkpt><trkpt lat="43.678817" lon="12.6470983"><ele>199.33333333333331</ele><time>2026-04-05T09:34:27.9Z</time></trkpt><trkpt lat="43.6790346" lon="12.6471742"><ele>198.0</ele><time>2026-04-05T09:34:28.9Z</time></trkpt><trkpt lat="43.6792302" lon="12.6472733"><ele>198.0</ele><time>2026-04-05T09:34:29.901Z</time></trkpt><trkpt lat="43.6794128" lon="12.6473721"><ele>198.0</ele><time>2026-04-05T09:34:30.9Z</time></trkpt><trkpt lat="43.6795947" lon="12.6474392"><ele>198.0</ele><time>2026-04-05T09:34:31.901Z</time></trkpt><trkpt lat="43.6797876" lon="12.6474714"><ele>196.0</ele><time>2026-04-05T09:34:32.9Z</time></trkpt><trkpt lat="43.6799924" lon="12.6474785"><ele>194.0</ele><time>2026-04-05T09:34:33.9Z</time></trkpt><trkpt lat="43.680191" lon="12.6474619"><ele>192.0</ele><time>2026-04-05T09:34:34.9Z</time></trkpt><trkpt lat="43.6803735" lon="12.6474405"><ele>192.0</ele><time>2026-04-05T09:34:35.901Z</time></trkpt><trkpt lat="43.6805419" lon="12.6474333"><ele>192.0</ele><time>2026-04-05T09:34:36.9Z</time></trkpt><trkpt lat="43.6806971" lon="12.647445"><ele>192.0</ele><time>2026-04-05T09:34:37.9Z</time></trkpt><trkpt lat="43.6808417" lon="12.6474844"><ele>192.0</ele><time>2026-04-05T09:34:38.9Z</time></trkpt><trkpt lat="43.6809708" lon="12.6475494"><ele>192.0</ele><time>2026-04-05T09:34:39.9Z</time></trkpt><trkpt lat="43.68109" lon="12.6476145"><ele>192.0</ele><time>2026-04-05T09:34:40.9Z</time></trkpt><trkpt lat="43.6811961" lon="12.6476725"><ele>192.0</ele><time>2026-04-05T09:34:41.9Z</time></trkpt><trkpt lat="43.6812866" lon="12.6477346"><ele>192.5</ele><time>2026-04-05T09:34:42.901Z</time></trkpt><trkpt lat="43.6813733" lon="12.6477594"><ele>193.0</ele><time>2026-04-05T09:34:43.9Z</time></trkpt><trkpt lat="43.6814474" lon="12.6477324"><ele>193.5</ele><time>2026-04-05T09:34:44.9Z</time></trkpt><trkpt lat="43.6815042" lon="12.6476735"><ele>194.0</ele><time>2026-04-05T09:34:45.9Z</time></trkpt><trkpt lat="43.6815528" lon="12.6476021"><ele>194.5</ele><time>2026-04-05T09:34:46.9Z</time></trkpt><trkpt lat="43.6816037" lon="12.6475444"><ele>195.0</ele><time>2026-04-05T09:34:47.9Z</time></trkpt><trkpt lat="43.6817157" lon="12.6474871"><ele>195.0</ele><time>2026-04-05T09:34:49.899Z</time></trkpt><trkpt lat="43.6817166" lon="12.6473972"><ele>195.0</ele><time>2026-04-05T09:34:51.901Z</time></trkpt><trkpt lat="43.6816398" lon="12.6473828"><ele>195.0</ele><time>2026-04-05T09:34:53.899Z</time></trkpt><trkpt lat="43.6815013" lon="12.6473869"><ele>195.0</ele><time>2026-04-05T09:34:55.9Z</time></trkpt><trkpt lat="43.6814011" lon="12.6473923"><ele>195.0</ele><time>2026-04-05T09:34:56.901Z</time></trkpt><trkpt lat="43.6812933" lon="12.6474018"><ele>195.0</ele><time>2026-04-05T09:34:57.9Z</time></trkpt><trkpt lat="43.6811904" lon="12.6474073"><ele>195.0</ele><time>2026-04-05T09:34:58.9Z</time></trkpt><trkpt lat="43.6810877" lon="12.6474078"><ele>195.0</ele><time>2026-04-05T09:34:59.899Z</time></trkpt><trkpt lat="43.6809917" lon="12.6473903"><ele>195.0</ele><time>2026-04-05T09:35:00.9Z</time></trkpt><trkpt lat="43.6809099" lon="12.6473454"><ele>195.0</ele><time>2026-04-05T09:35:01.9Z</time></trkpt><trkpt lat="43.6808305" lon="12.6472697"><ele>194.4</ele><time>2026-04-05T09:35:02.9Z</time></trkpt><trkpt lat="43.6807804" lon="12.6471709"><ele>193.8</ele><time>2026-04-05T09:35:03.899Z</time></trkpt><trkpt lat="43.680757" lon="12.6470435"><ele>193.2</ele><time>2026-04-05T09:35:04.9Z</time></trkpt><trkpt lat="43.6807513" lon="12.6469021"><ele>192.6</ele><time>2026-04-05T09:35:05.9Z</time></trkpt><trkpt lat="43.6807471" lon="12.6467692"><ele>192.0</ele><time>2026-04-05T09:35:06.901Z</time></trkpt><trkpt lat="43.6807404" lon="12.6466524"><ele>193.0</ele><time>2026-04-05T09:35:07.899Z</time></trkpt><trkpt lat="43.680735" lon="12.6465592"><ele>194.0</ele><time>2026-04-05T09:35:08.9Z</time></trkpt><trkpt lat="43.6807255" lon="12.6464527"><ele>195.0</ele><time>2026-04-05T09:35:10.899Z</time></trkpt><trkpt lat="43.6807173" lon="12.6463315"><ele>196.0</ele><time>2026-04-05T09:35:12.9Z</time></trkpt><trkpt lat="43.6807053" lon="12.6461547"><ele>197.0</ele><time>2026-04-05T09:35:14.9Z</time></trkpt><trkpt lat="43.6806952" lon="12.6460403"><ele>198.0</ele><time>2026-04-05T09:35:15.9Z</time></trkpt><trkpt lat="43.6806893" lon="12.6459092"><ele>198.2</ele><time>2026-04-05T09:35:16.9Z</time></trkpt><trkpt lat="43.6806858" lon="12.6457796"><ele>198.4</ele><time>2026-04-05T09:35:17.9Z</time></trkpt><trkpt lat="43.6806809" lon="12.6456393"><ele>198.6</ele><time>2026-04-05T09:35:18.9Z</time></trkpt><trkpt lat="43.6806761" lon="12.645489"><ele>198.79999999999998</ele><time>2026-04-05T09:35:19.9Z</time></trkpt><trkpt lat="43.680671" lon="12.6453295"><ele>199.0</ele><time>2026-04-05T09:35:20.9Z</time></trkpt><trkpt lat="43.6806574" lon="12.6451622"><ele>199.25</ele><time>2026-04-05T09:35:21.899Z</time></trkpt><trkpt lat="43.6806438" lon="12.6449788"><ele>199.5</ele><time>2026-04-05T09:35:22.899Z</time></trkpt><trkpt lat="43.6806321" lon="12.6447874"><ele>199.75</ele><time>2026-04-05T09:35:23.9Z</time></trkpt><trkpt lat="43.6806259" lon="12.6445992"><ele>200.0</ele><time>2026-04-05T09:35:24.9Z</time></trkpt><trkpt lat="43.6806175" lon="12.6444081"><ele>200.2</ele><time>2026-04-05T09:35:25.901Z</time></trkpt><trkpt lat="43.6806081" lon="12.6442246"><ele>200.4</ele><time>2026-04-05T09:35:26.9Z</time></trkpt><trkpt lat="43.6805985" lon="12.644062"><ele>200.60000000000002</ele><time>2026-04-05T09:35:27.9Z</time></trkpt><trkpt lat="43.6805886" lon="12.6439166"><ele>200.8</ele><time>2026-04-05T09:35:28.899Z</time></trkpt><trkpt lat="43.680592" lon="12.6438012"><ele>201.0</ele><time>2026-04-05T09:35:29.899Z</time></trkpt><trkpt lat="43.6805964" lon="12.6437138"><ele>201.0</ele><time>2026-04-05T09:35:30.9Z</time></trkpt><trkpt lat="43.6805348" lon="12.6436135"><ele>201.0</ele><time>2026-04-05T09:35:34.9Z</time></trkpt><trkpt lat="43.6804682" lon="12.6436173"><ele>201.0</ele><time>2026-04-05T09:35:35.9Z</time></trkpt><trkpt lat="43.6803773" lon="12.6436553"><ele>201.0</ele><time>2026-04-05T09:35:36.899Z</time></trkpt><trkpt lat="43.6802768" lon="12.6436998"><ele>201.0</ele><time>2026-04-05T09:35:37.9Z</time></trkpt><trkpt lat="43.680147" lon="12.6437304"><ele>201.25</ele><time>2026-04-05T09:35:38.9Z</time></trkpt><trkpt lat="43.6800149" lon="12.6437535"><ele>201.5</ele><time>2026-04-05T09:35:39.899Z</time></trkpt><trkpt lat="43.679878" lon="12.6437741"><ele>201.75</ele><time>2026-04-05T09:35:40.9Z</time></trkpt><trkpt lat="43.6797518" lon="12.6437898"><ele>202.0</ele><time>2026-04-05T09:35:41.9Z</time></trkpt><trkpt lat="43.6796336" lon="12.6438133"><ele>201.99999999999997</ele><time>2026-04-05T09:35:42.9Z</time></trkpt><trkpt lat="43.6795271" lon="12.643835"><ele>202.0</ele><time>2026-04-05T09:35:43.9Z</time></trkpt><trkpt lat="43.6794312" lon="12.6438495"><ele>202.0</ele><time>2026-04-05T09:35:44.899Z</time></trkpt><trkpt lat="43.6793543" lon="12.6438502"><ele>202.0</ele><time>2026-04-05T09:35:45.9Z</time></trkpt><trkpt lat="43.679293" lon="12.6438704"><ele>201.99999999999997</ele><time>2026-04-05T09:35:46.9Z</time></trkpt><trkpt lat="43.6792621" lon="12.6439877"><ele>202.0</ele><time>2026-04-05T09:35:48.9Z</time></trkpt><trkpt lat="43.6793272" lon="12.6440868"><ele>201.99999999999997</ele><time>2026-04-05T09:35:50.9Z</time></trkpt><trkpt lat="43.679394" lon="12.6441231"><ele>202.0</ele><time>2026-04-05T09:35:52.9Z</time></trkpt><trkpt lat="43.6794617" lon="12.64405"><ele>202.0</ele><time>2026-04-05T09:35:54.9Z</time></trkpt><trkpt lat="43.6794895" lon="12.6439661"><ele>202.0</ele><time>2026-04-05T09:35:56.9Z</time></trkpt><trkpt lat="43.6795582" lon="12.643874"><ele>201.99999999999997</ele><time>2026-04-05T09:36:09.9Z</time></trkpt><trkpt lat="43.6796252" lon="12.6438528"><ele>202.0</ele><time>2026-04-05T09:36:10.9Z</time></trkpt><trkpt lat="43.6797248" lon="12.6438446"><ele>202.0</ele><time>2026-04-05T09:36:11.9Z</time></trkpt><trkpt lat="43.6798248" lon="12.643842"><ele>202.0</ele><time>2026-04-05T09:36:12.9Z</time></trkpt><trkpt lat="43.6799399" lon="12.643817"><ele>202.0</ele><time>2026-04-05T09:36:13.9Z</time></trkpt><trkpt lat="43.6800604" lon="12.6437899"><ele>202.0</ele><time>2026-04-05T09:36:14.9Z</time></trkpt><trkpt lat="43.6801733" lon="12.6437617"><ele>202.0</ele><time>2026-04-05T09:36:15.9Z</time></trkpt><trkpt lat="43.6802747" lon="12.6437261"><ele>202.0</ele><time>2026-04-05T09:36:16.9Z</time></trkpt><trkpt lat="43.6803538" lon="12.643694"><ele>202.0</ele><time>2026-04-05T09:36:17.9Z</time></trkpt><trkpt lat="43.6804513" lon="12.6436514"><ele>202.0</ele><time>2026-04-05T09:36:19.9Z</time></trkpt><trkpt lat="43.6805616" lon="12.6436083"><ele>202.0</ele><time>2026-04-05T09:36:21.899Z</time></trkpt><trkpt lat="43.6806346" lon="12.643573"><ele>202.0</ele><time>2026-04-05T09:36:22.9Z</time></trkpt><trkpt lat="43.6807239" lon="12.6435323"><ele>202.0</ele><time>2026-04-05T09:36:23.899Z</time></trkpt><trkpt lat="43.6808327" lon="12.6434856"><ele>202.0</ele><time>2026-04-05T09:36:24.901Z</time></trkpt><trkpt lat="43.6809676" lon="12.6434184"><ele>202.0</ele><time>2026-04-05T09:36:25.9Z</time></trkpt><trkpt lat="43.6810932" lon="12.643357"><ele>202.2</ele><time>2026-04-05T09:36:26.9Z</time></trkpt><trkpt lat="43.6812109" lon="12.643308"><ele>202.39999999999998</ele><time>2026-04-05T09:36:27.9Z</time></trkpt><trkpt lat="43.6813215" lon="12.6432679"><ele>202.60000000000002</ele><time>2026-04-05T09:36:28.9Z</time></trkpt><trkpt lat="43.6814253" lon="12.6432363"><ele>202.8</ele><time>2026-04-05T09:36:29.9Z</time></trkpt><trkpt lat="43.6815221" lon="12.6432104"><ele>203.0</ele><time>2026-04-05T09:36:30.901Z</time></trkpt><trkpt lat="43.6816129" lon="12.6431829"><ele>203.00000000000003</ele><time>2026-04-05T09:36:31.899Z</time></trkpt><trkpt lat="43.6816965" lon="12.64316"><ele>203.0</ele><time>2026-04-05T09:36:32.9Z</time></trkpt><trkpt lat="43.6817747" lon="12.6431447"><ele>203.0</ele><time>2026-04-05T09:36:33.9Z</time></trkpt><trkpt lat="43.6818411" lon="12.6431675"><ele>203.0</ele><time>2026-04-05T09:36:34.9Z</time></trkpt><trkpt lat="43.6818777" lon="12.6432388"><ele>203.00000000000003</ele><time>2026-04-05T09:36:35.899Z</time></trkpt><trkpt lat="43.6818905" lon="12.6433343"><ele>203.0</ele><time>2026-04-05T09:36:36.9Z</time></trkpt><trkpt lat="43.6818956" lon="12.6434573"><ele>203.0</ele><time>2026-04-05T09:36:37.9Z</time></trkpt><trkpt lat="43.681909" lon="12.6435981"><ele>203.0</ele><time>2026-04-05T09:36:38.9Z</time></trkpt><trkpt lat="43.6819254" lon="12.6437619"><ele>203.0</ele><time>2026-04-05T09:36:39.899Z</time></trkpt><trkpt lat="43.6819363" lon="12.6439281"><ele>203.0</ele><time>2026-04-05T09:36:40.901Z</time></trkpt><trkpt lat="43.681944" lon="12.6440807"><ele>202.60000000000002</ele><time>2026-04-05T09:36:41.899Z</time></trkpt><trkpt lat="43.6819524" lon="12.6442262"><ele>202.20000000000002</ele><time>2026-04-05T09:36:42.901Z</time></trkpt><trkpt lat="43.6819595" lon="12.6443631"><ele>201.8</ele><time>2026-04-05T09:36:43.9Z</time></trkpt><trkpt lat="43.681968" lon="12.6444933"><ele>201.4</ele><time>2026-04-05T09:36:44.9Z</time></trkpt><trkpt lat="43.6819736" lon="12.6446351"><ele>201.0</ele><time>2026-04-05T09:36:45.9Z</time></trkpt><trkpt lat="43.6819788" lon="12.6447774"><ele>200.8</ele><time>2026-04-05T09:36:46.9Z</time></trkpt><trkpt lat="43.6819862" lon="12.6449258"><ele>200.60000000000002</ele><time>2026-04-05T09:36:47.9Z</time></trkpt><trkpt lat="43.6819946" lon="12.6450761"><ele>200.4</ele><time>2026-04-05T09:36:48.9Z</time></trkpt><trkpt lat="43.6820043" lon="12.6452278"><ele>200.2</ele><time>2026-04-05T09:36:49.899Z</time></trkpt><trkpt lat="43.6820131" lon="12.6453789"><ele>200.0</ele><time>2026-04-05T09:36:50.9Z</time></trkpt><trkpt lat="43.6820181" lon="12.6455341"><ele>199.75</ele><time>2026-04-05T09:36:51.9Z</time></trkpt><trkpt lat="43.6820226" lon="12.6456912"><ele>199.5</ele><time>2026-04-05T09:36:52.9Z</time></trkpt><trkpt lat="43.6820278" lon="12.6458522"><ele>199.25</ele><time>2026-04-05T09:36:53.899Z</time></trkpt><trkpt lat="43.6820407" lon="12.6460194"><ele>199.0</ele><time>2026-04-05T09:36:54.9Z</time></trkpt><trkpt lat="43.6820561" lon="12.6461939"><ele>199.0</ele><time>2026-04-05T09:36:55.9Z</time></trkpt><trkpt lat="43.6820659" lon="12.6463742"><ele>199.0</ele><time>2026-04-05T09:36:56.899Z</time></trkpt><trkpt lat="43.6820761" lon="12.6465568"><ele>199.0</ele><time>2026-04-05T09:36:57.9Z</time></trkpt><trkpt lat="43.682089" lon="12.646732"><ele>199.0</ele><time>2026-04-05T09:36:58.9Z</time></trkpt><trkpt lat="43.6821021" lon="12.6468908"><ele>198.39999999999998</ele><time>2026-04-05T09:36:59.9Z</time></trkpt><trkpt lat="43.6821172" lon="12.6470338"><ele>197.8</ele><time>2026-04-05T09:37:00.901Z</time></trkpt><trkpt lat="43.6821256" lon="12.6471575"><ele>197.2</ele><time>2026-04-05T09:37:01.9Z</time></trkpt><trkpt lat="43.6821026" lon="12.6472662"><ele>196.60000000000002</ele><time>2026-04-05T09:37:02.9Z</time></trkpt><trkpt lat="43.6820394" lon="12.6473501"><ele>196.0</ele><time>2026-04-05T09:37:03.9Z</time></trkpt><trkpt lat="43.6819517" lon="12.6474044"><ele>195.75</ele><time>2026-04-05T09:37:04.9Z</time></trkpt><trkpt lat="43.6818409" lon="12.6474343"><ele>195.5</ele><time>2026-04-05T09:37:05.9Z</time></trkpt><trkpt lat="43.681714" lon="12.6474639"><ele>195.25</ele><time>2026-04-05T09:37:06.9Z</time></trkpt><trkpt lat="43.681576" lon="12.6475019"><ele>195.0</ele><time>2026-04-05T09:37:07.9Z</time></trkpt><trkpt lat="43.6814158" lon="12.6475326"><ele>195.0</ele><time>2026-04-05T09:37:08.9Z</time></trkpt><trkpt lat="43.6812565" lon="12.6475464"><ele>195.0</ele><time>2026-04-05T09:37:09.9Z</time></trkpt><trkpt lat="43.6811198" lon="12.6475403"><ele>195.0</ele><time>2026-04-05T09:37:10.9Z</time></trkpt><trkpt lat="43.6809924" lon="12.6475016"><ele>195.0</ele><time>2026-04-05T09:37:11.9Z</time></trkpt><trkpt lat="43.6808508" lon="12.6474379"><ele>194.0</ele><time>2026-04-05T09:37:12.9Z</time></trkpt><trkpt lat="43.6806807" lon="12.6474032"><ele>193.0</ele><time>2026-04-05T09:37:13.901Z</time></trkpt><trkpt lat="43.6804805" lon="12.6474089"><ele>192.0</ele><time>2026-04-05T09:37:14.9Z</time></trkpt><trkpt lat="43.6802624" lon="12.6474354"><ele>191.5</ele><time>2026-04-05T09:37:15.9Z</time></trkpt><trkpt lat="43.6800357" lon="12.6474626"><ele>191.0</ele><time>2026-04-05T09:37:16.9Z</time></trkpt><trkpt lat="43.6797965" lon="12.647451"><ele>191.0</ele><time>2026-04-05T09:37:17.899Z</time></trkpt><trkpt lat="43.6795681" lon="12.6473862"><ele>191.0</ele><time>2026-04-05T09:37:18.9Z</time></trkpt><trkpt lat="43.6793568" lon="12.6472875"><ele>193.33333333333331</ele><time>2026-04-05T09:37:19.901Z</time></trkpt><trkpt lat="43.6791637" lon="12.6471815"><ele>195.66666666666666</ele><time>2026-04-05T09:37:20.9Z</time></trkpt><trkpt lat="43.6789865" lon="12.647102"><ele>198.0</ele><time>2026-04-05T09:37:21.9Z</time></trkpt><trkpt lat="43.6788094" lon="12.6470465"><ele>198.0</ele><time>2026-04-05T09:37:22.9Z</time></trkpt><trkpt lat="43.6786269" lon="12.6470131"><ele>198.0</ele><time>2026-04-05T09:37:23.901Z</time></trkpt><trkpt lat="43.6784392" lon="12.6470201"><ele>198.0</ele><time>2026-04-05T09:37:24.901Z</time></trkpt><trkpt lat="43.6782429" lon="12.6470758"><ele>199.33333333333331</ele><time>2026-04-05T09:37:25.9Z</time></trkpt><trkpt lat="43.6780378" lon="12.6471717"><ele>200.66666666666666</ele><time>2026-04-05T09:37:26.9Z</time></trkpt><trkpt lat="43.6778259" lon="12.647303"><ele>202.0</ele><time>2026-04-05T09:37:27.9Z</time></trkpt><trkpt lat="43.6776202" lon="12.6474434"><ele>197.5</ele><time>2026-04-05T09:37:28.9Z</time></trkpt><trkpt lat="43.6773971" lon="12.6475939"><ele>193.0</ele><time>2026-04-05T09:37:29.9Z</time></trkpt><trkpt lat="43.6771654" lon="12.6477524"><ele>195.0</ele><time>2026-04-05T09:37:30.9Z</time></trkpt><trkpt lat="43.6769243" lon="12.6479218"><ele>197.0</ele><time>2026-04-05T09:37:31.9Z</time></trkpt><trkpt lat="43.6766933" lon="12.648069"><ele>197.0</ele><time>2026-04-05T09:37:32.9Z</time></trkpt><trkpt lat="43.6764747" lon="12.6481799"><ele>197.0</ele><time>2026-04-05T09:37:33.9Z</time></trkpt><trkpt lat="43.6762642" lon="12.6482434"><ele>197.0</ele><time>2026-04-05T09:37:34.901Z</time></trkpt><trkpt lat="43.6760527" lon="12.6482627"><ele>196.66666666666669</ele><time>2026-04-05T09:37:35.9Z</time></trkpt><trkpt lat="43.6758421" lon="12.6482505"><ele>196.33333333333331</ele><time>2026-04-05T09:37:36.9Z</time></trkpt><trkpt lat="43.6756328" lon="12.6482159"><ele>196.0</ele><time>2026-04-05T09:37:37.901Z</time></trkpt><trkpt lat="43.6754227" lon="12.6481685"><ele>198.33333333333331</ele><time>2026-04-05T09:37:38.899Z</time></trkpt><trkpt lat="43.6752126" lon="12.6481238"><ele>200.66666666666669</ele><time>2026-04-05T09:37:39.9Z</time></trkpt><trkpt lat="43.6749967" lon="12.6480781"><ele>203.0</ele><time>2026-04-05T09:37:40.9Z</time></trkpt><trkpt lat="43.6747824" lon="12.6480302"><ele>203.0</ele><time>2026-04-05T09:37:41.9Z</time></trkpt><trkpt lat="43.6745894" lon="12.6479854"><ele>203.0</ele><time>2026-04-05T09:37:42.9Z</time></trkpt><trkpt lat="43.674409" lon="12.6479447"><ele>203.0</ele><time>2026-04-05T09:37:43.9Z</time></trkpt><trkpt lat="43.6742413" lon="12.6479075"><ele>204.25</ele><time>2026-04-05T09:37:44.9Z</time></trkpt><trkpt lat="43.6740924" lon="12.6478805"><ele>205.5</ele><time>2026-04-05T09:37:45.9Z</time></trkpt><trkpt lat="43.673972" lon="12.6478737"><ele>206.75</ele><time>2026-04-05T09:37:46.899Z</time></trkpt><trkpt lat="43.67388" lon="12.647905"><ele>208.0</ele><time>2026-04-05T09:37:47.9Z</time></trkpt><trkpt lat="43.6738137" lon="12.6479805"><ele>208.0</ele><time>2026-04-05T09:37:48.899Z</time></trkpt><trkpt lat="43.6737593" lon="12.6480842"><ele>208.0</ele><time>2026-04-05T09:37:49.9Z</time></trkpt><trkpt lat="43.6736986" lon="12.6482034"><ele>208.0</ele><time>2026-04-05T09:37:50.9Z</time></trkpt><trkpt lat="43.6736159" lon="12.6483228"><ele>208.0</ele><time>2026-04-05T09:37:51.899Z</time></trkpt><trkpt lat="43.6735294" lon="12.648465"><ele>209.5</ele><time>2026-04-05T09:37:52.9Z</time></trkpt><trkpt lat="43.6734653" lon="12.6486254"><ele>211.0</ele><time>2026-04-05T09:37:53.901Z</time></trkpt><trkpt lat="43.6734476" lon="12.6487789"><ele>212.5</ele><time>2026-04-05T09:37:54.9Z</time></trkpt><trkpt lat="43.6734635" lon="12.6489335"><ele>214.0</ele><time>2026-04-05T09:37:55.899Z</time></trkpt><trkpt lat="43.673504" lon="12.6490883"><ele>216.0</ele><time>2026-04-05T09:37:56.9Z</time></trkpt><trkpt lat="43.6735509" lon="12.649237"><ele>218.0</ele><time>2026-04-05T09:37:57.9Z</time></trkpt><trkpt lat="43.6735923" lon="12.6493892"><ele>220.0</ele><time>2026-04-05T09:37:58.9Z</time></trkpt><trkpt lat="43.6736251" lon="12.6495451"><ele>222.0</ele><time>2026-04-05T09:37:59.9Z</time></trkpt><trkpt lat="43.6736391" lon="12.6497059"><ele>224.0</ele><time>2026-04-05T09:38:00.9Z</time></trkpt><trkpt lat="43.6736437" lon="12.6498718"><ele>226.0</ele><time>2026-04-05T09:38:01.9Z</time></trkpt><trkpt lat="43.6736595" lon="12.6500131"><ele>228.0</ele><time>2026-04-05T09:38:02.9Z</time></trkpt><trkpt lat="43.6736857" lon="12.650132"><ele>230.0</ele><time>2026-04-05T09:38:03.9Z</time></trkpt><trkpt lat="43.67373" lon="12.6502184"><ele>232.0</ele><time>2026-04-05T09:38:04.9Z</time></trkpt><trkpt lat="43.6738406" lon="12.6501932"><ele>232.0</ele><time>2026-04-05T09:38:06.9Z</time></trkpt><trkpt lat="43.673883" lon="12.6501135"><ele>232.0</ele><time>2026-04-05T09:38:07.899Z</time></trkpt><trkpt lat="43.6739254" lon="12.6500134"><ele>232.0</ele><time>2026-04-05T09:38:08.9Z</time></trkpt><trkpt lat="43.6739843" lon="12.6499241"><ele>232.0</ele><time>2026-04-05T09:38:09.9Z</time></trkpt><trkpt lat="43.6740793" lon="12.6498923"><ele>232.0</ele><time>2026-04-05T09:38:10.901Z</time></trkpt><trkpt lat="43.6741879" lon="12.6499399"><ele>232.0</ele><time>2026-04-05T09:38:11.899Z</time></trkpt><trkpt lat="43.6742977" lon="12.6499989"><ele>232.0</ele><time>2026-04-05T09:38:12.9Z</time></trkpt><trkpt lat="43.6744148" lon="12.6500739"><ele>232.0</ele><time>2026-04-05T09:38:13.9Z</time></trkpt><trkpt lat="43.6745344" lon="12.6501577"><ele>232.0</ele><time>2026-04-05T09:38:14.9Z</time></trkpt><trkpt lat="43.6746449" lon="12.6502395"><ele>232.0</ele><time>2026-04-05T09:38:15.899Z</time></trkpt><trkpt lat="43.6747363" lon="12.6503079"><ele>249.0</ele><time>2026-04-05T09:38:16.9Z</time></trkpt><trkpt lat="43.6748032" lon="12.6503663"><ele>249.0</ele><time>2026-04-05T09:38:17.9Z</time></trkpt><trkpt lat="43.6748291" lon="12.6505106"><ele>249.0</ele><time>2026-04-05T09:38:19.899Z</time></trkpt></trkseg></trk></gpx>